<?xml version="1.0" encoding="UTF-8" standalone="no" ?>
<gpx xmlns="http://www.topografix.com/GPX/1/1" xmlns:xsi="http://www.w3.org/2001/XMLSchema-instance" xsi:schemaLocation="http://www.topografix.com/GPX/1/1 http://www.topografix.com/GPX/1/1/gpx.xsd" version="1.1" creator="VisuGPX - https://www.visugpx.com">
  <metadata>
    <name>141119ROBMinots</name>
    <desc><![CDATA[Bonne sortie bien mouillée]]></desc>
  </metadata>
  <trk>
    <name><![CDATA[141119ROBMinots]]></name>
    <trkseg>
      <trkpt lat="43.41579" lon="6.07038">
        <ele>218.44566345215</ele>
        <time>2014-11-19T13:02:57Z</time>
      </trkpt>
      <trkpt lat="43.41579" lon="6.07038">
        <ele>218.44281005859</ele>
        <time>2014-11-19T13:02:59Z</time>
      </trkpt>
      <trkpt lat="43.41579" lon="6.07038">
        <ele>218.44223022461</ele>
        <time>2014-11-19T13:03:02Z</time>
      </trkpt>
      <trkpt lat="43.41579" lon="6.07038">
        <ele>218.43193054199</ele>
        <time>2014-11-19T13:03:05Z</time>
      </trkpt>
      <trkpt lat="43.41579" lon="6.07038">
        <ele>218.43193054199</ele>
        <time>2014-11-19T13:03:09Z</time>
      </trkpt>
      <trkpt lat="43.41579" lon="6.07038">
        <ele>218.43249511719</ele>
        <time>2014-11-19T13:03:13Z</time>
      </trkpt>
      <trkpt lat="43.41579" lon="6.07038">
        <ele>218.44165039062</ele>
        <time>2014-11-19T13:03:15Z</time>
      </trkpt>
      <trkpt lat="43.41579" lon="6.07038">
        <ele>218.44223022461</ele>
        <time>2014-11-19T13:03:17Z</time>
      </trkpt>
      <trkpt lat="43.41579" lon="6.07038">
        <ele>218.44223022461</ele>
        <time>2014-11-19T13:03:21Z</time>
      </trkpt>
      <trkpt lat="43.41579" lon="6.07038">
        <ele>218.44337463379</ele>
        <time>2014-11-19T13:03:27Z</time>
      </trkpt>
      <trkpt lat="43.41579" lon="6.07038">
        <ele>218.44451904297</ele>
        <time>2014-11-19T13:03:41Z</time>
      </trkpt>
      <trkpt lat="43.41579" lon="6.07038">
        <ele>218.44451904297</ele>
        <time>2014-11-19T13:03:43Z</time>
      </trkpt>
      <trkpt lat="43.41579" lon="6.07038">
        <ele>218.44223022461</ele>
        <time>2014-11-19T13:03:45Z</time>
      </trkpt>
      <trkpt lat="43.41579" lon="6.07038">
        <ele>218.44393920898</ele>
        <time>2014-11-19T13:03:47Z</time>
      </trkpt>
      <trkpt lat="43.41579" lon="6.07038">
        <ele>218.44337463379</ele>
        <time>2014-11-19T13:03:51Z</time>
      </trkpt>
      <trkpt lat="43.41579" lon="6.07038">
        <ele>218.44223022461</ele>
        <time>2014-11-19T13:03:53Z</time>
      </trkpt>
      <trkpt lat="43.41579" lon="6.07038">
        <ele>218.44165039062</ele>
        <time>2014-11-19T13:03:55Z</time>
      </trkpt>
      <trkpt lat="43.41579" lon="6.07038">
        <ele>218.45080566406</ele>
        <time>2014-11-19T13:03:57Z</time>
      </trkpt>
      <trkpt lat="43.41579" lon="6.07038">
        <ele>218.45024108887</ele>
        <time>2014-11-19T13:03:59Z</time>
      </trkpt>
      <trkpt lat="43.41579" lon="6.07038">
        <ele>218.45024108887</ele>
        <time>2014-11-19T13:04:01Z</time>
      </trkpt>
      <trkpt lat="43.41579" lon="6.07038">
        <ele>218.44967651367</ele>
        <time>2014-11-19T13:04:03Z</time>
      </trkpt>
      <trkpt lat="43.41579" lon="6.07038">
        <ele>218.44909667969</ele>
        <time>2014-11-19T13:04:07Z</time>
      </trkpt>
      <trkpt lat="43.41579" lon="6.07038">
        <ele>218.44795227051</ele>
        <time>2014-11-19T13:04:09Z</time>
      </trkpt>
      <trkpt lat="43.4158" lon="6.07039">
        <ele>218.45138549805</ele>
        <time>2014-11-19T13:04:11Z</time>
      </trkpt>
      <trkpt lat="43.4158" lon="6.07039">
        <ele>218.44566345215</ele>
        <time>2014-11-19T13:04:13Z</time>
      </trkpt>
      <trkpt lat="43.4158" lon="6.0704">
        <ele>218.44509887695</ele>
        <time>2014-11-19T13:04:18Z</time>
      </trkpt>
      <trkpt lat="43.4158" lon="6.0704">
        <ele>218.44393920898</ele>
        <time>2014-11-19T13:04:19Z</time>
      </trkpt>
      <trkpt lat="43.4158" lon="6.0704">
        <ele>218.44281005859</ele>
        <time>2014-11-19T13:04:21Z</time>
      </trkpt>
      <trkpt lat="43.4158" lon="6.0704">
        <ele>218.44281005859</ele>
        <time>2014-11-19T13:04:23Z</time>
      </trkpt>
      <trkpt lat="43.4158" lon="6.0704">
        <ele>218.43994140625</ele>
        <time>2014-11-19T13:04:31Z</time>
      </trkpt>
      <trkpt lat="43.4158" lon="6.07041">
        <ele>218.43765258789</ele>
        <time>2014-11-19T13:04:39Z</time>
      </trkpt>
      <trkpt lat="43.4158" lon="6.07041">
        <ele>218.43707275391</ele>
        <time>2014-11-19T13:04:45Z</time>
      </trkpt>
      <trkpt lat="43.4158" lon="6.07041">
        <ele>218.43707275391</ele>
        <time>2014-11-19T13:04:47Z</time>
      </trkpt>
      <trkpt lat="43.4158" lon="6.07041">
        <ele>218.43478393555</ele>
        <time>2014-11-19T13:04:49Z</time>
      </trkpt>
      <trkpt lat="43.4158" lon="6.07041">
        <ele>218.43249511719</ele>
        <time>2014-11-19T13:04:51Z</time>
      </trkpt>
      <trkpt lat="43.41581" lon="6.07042">
        <ele>218.42506408691</ele>
        <time>2014-11-19T13:04:53Z</time>
      </trkpt>
      <trkpt lat="43.41581" lon="6.07045">
        <ele>218.3981628418</ele>
        <time>2014-11-19T13:04:55Z</time>
      </trkpt>
      <trkpt lat="43.41581" lon="6.07045">
        <ele>218.39703369141</ele>
        <time>2014-11-19T13:04:56Z</time>
      </trkpt>
      <trkpt lat="43.41581" lon="6.07045">
        <ele>218.40560913086</ele>
        <time>2014-11-19T13:04:57Z</time>
      </trkpt>
      <trkpt lat="43.41581" lon="6.07045">
        <ele>218.40446472168</ele>
        <time>2014-11-19T13:04:59Z</time>
      </trkpt>
      <trkpt lat="43.41581" lon="6.07045">
        <ele>218.4033203125</ele>
        <time>2014-11-19T13:05:01Z</time>
      </trkpt>
      <trkpt lat="43.41581" lon="6.07045">
        <ele>218.40217590332</ele>
        <time>2014-11-19T13:05:03Z</time>
      </trkpt>
      <trkpt lat="43.41581" lon="6.07045">
        <ele>218.40217590332</ele>
        <time>2014-11-19T13:05:09Z</time>
      </trkpt>
      <trkpt lat="43.41581" lon="6.07045">
        <ele>218.40161132812</ele>
        <time>2014-11-19T13:05:16Z</time>
      </trkpt>
      <trkpt lat="43.41581" lon="6.07045">
        <ele>218.40161132812</ele>
        <time>2014-11-19T13:05:19Z</time>
      </trkpt>
      <trkpt lat="43.41581" lon="6.07045">
        <ele>218.4084777832</ele>
        <time>2014-11-19T13:05:21Z</time>
      </trkpt>
      <trkpt lat="43.41582" lon="6.07048">
        <ele>218.38844299316</ele>
        <time>2014-11-19T13:05:23Z</time>
      </trkpt>
      <trkpt lat="43.41582" lon="6.0705">
        <ele>218.36499023438</ele>
        <time>2014-11-19T13:05:24Z</time>
      </trkpt>
      <trkpt lat="43.41582" lon="6.07052">
        <ele>218.33981323242</ele>
        <time>2014-11-19T13:05:25Z</time>
      </trkpt>
      <trkpt lat="43.41582" lon="6.07057">
        <ele>218.28945922852</ele>
        <time>2014-11-19T13:05:27Z</time>
      </trkpt>
      <trkpt lat="43.41582" lon="6.07063">
        <ele>218.22250366211</ele>
        <time>2014-11-19T13:05:29Z</time>
      </trkpt>
      <trkpt lat="43.41583" lon="6.07071">
        <ele>218.14353942871</ele>
        <time>2014-11-19T13:05:31Z</time>
      </trkpt>
      <trkpt lat="43.41584" lon="6.0708">
        <ele>218.05541992188</ele>
        <time>2014-11-19T13:05:33Z</time>
      </trkpt>
      <trkpt lat="43.41584" lon="6.0709">
        <ele>218.02551269531</ele>
        <time>2014-11-19T13:05:35Z</time>
      </trkpt>
      <trkpt lat="43.41584" lon="6.07096">
        <ele>218.01635742188</ele>
        <time>2014-11-19T13:05:37Z</time>
      </trkpt>
      <trkpt lat="43.41582" lon="6.07099">
        <ele>217.97058105469</ele>
        <time>2014-11-19T13:05:39Z</time>
      </trkpt>
      <trkpt lat="43.41581" lon="6.071">
        <ele>217.94311523438</ele>
        <time>2014-11-19T13:05:40Z</time>
      </trkpt>
      <trkpt lat="43.41578" lon="6.07104">
        <ele>217.86071777344</ele>
        <time>2014-11-19T13:05:42Z</time>
      </trkpt>
      <trkpt lat="43.41575" lon="6.07107">
        <ele>217.79663085938</ele>
        <time>2014-11-19T13:05:43Z</time>
      </trkpt>
      <trkpt lat="43.41568" lon="6.07112">
        <ele>217.64099121094</ele>
        <time>2014-11-19T13:05:45Z</time>
      </trkpt>
      <trkpt lat="43.4156" lon="6.07114">
        <ele>217.43041992188</ele>
        <time>2014-11-19T13:05:47Z</time>
      </trkpt>
      <trkpt lat="43.41551" lon="6.07112">
        <ele>217.21984863281</ele>
        <time>2014-11-19T13:05:49Z</time>
      </trkpt>
      <trkpt lat="43.41547" lon="6.07103">
        <ele>217.12829589844</ele>
        <time>2014-11-19T13:05:51Z</time>
      </trkpt>
      <trkpt lat="43.41546" lon="6.07093">
        <ele>217.10998535156</ele>
        <time>2014-11-19T13:05:53Z</time>
      </trkpt>
      <trkpt lat="43.41545" lon="6.07087">
        <ele>217.09167480469</ele>
        <time>2014-11-19T13:05:54Z</time>
      </trkpt>
      <trkpt lat="43.41544" lon="6.07082">
        <ele>217.06607055664</ele>
        <time>2014-11-19T13:05:55Z</time>
      </trkpt>
      <trkpt lat="43.41539" lon="6.07075">
        <ele>217.03173828125</ele>
        <time>2014-11-19T13:05:57Z</time>
      </trkpt>
      <trkpt lat="43.41534" lon="6.07074">
        <ele>216.94076538086</ele>
        <time>2014-11-19T13:05:58Z</time>
      </trkpt>
      <trkpt lat="43.4153" lon="6.07074">
        <ele>216.83204650879</ele>
        <time>2014-11-19T13:05:59Z</time>
      </trkpt>
      <trkpt lat="43.41525" lon="6.07075">
        <ele>216.70672607422</ele>
        <time>2014-11-19T13:06:00Z</time>
      </trkpt>
      <trkpt lat="43.4152" lon="6.07076">
        <ele>216.55738830566</ele>
        <time>2014-11-19T13:06:01Z</time>
      </trkpt>
      <trkpt lat="43.4151" lon="6.07078">
        <ele>216.30104064941</ele>
        <time>2014-11-19T13:06:03Z</time>
      </trkpt>
      <trkpt lat="43.415" lon="6.0708">
        <ele>216.05041503906</ele>
        <time>2014-11-19T13:06:05Z</time>
      </trkpt>
      <trkpt lat="43.41492" lon="6.0708">
        <ele>215.85145568848</ele>
        <time>2014-11-19T13:06:07Z</time>
      </trkpt>
      <trkpt lat="43.41488" lon="6.07078">
        <ele>215.78840637207</ele>
        <time>2014-11-19T13:06:08Z</time>
      </trkpt>
      <trkpt lat="43.41484" lon="6.07076">
        <ele>215.73020935059</ele>
        <time>2014-11-19T13:06:09Z</time>
      </trkpt>
      <trkpt lat="43.41477" lon="6.07073">
        <ele>215.60537719727</ele>
        <time>2014-11-19T13:06:11Z</time>
      </trkpt>
      <trkpt lat="43.41471" lon="6.07073">
        <ele>215.4854888916</ele>
        <time>2014-11-19T13:06:13Z</time>
      </trkpt>
      <trkpt lat="43.41467" lon="6.07073">
        <ele>215.39514160156</ele>
        <time>2014-11-19T13:06:15Z</time>
      </trkpt>
      <trkpt lat="43.41461" lon="6.07074">
        <ele>215.21508789062</ele>
        <time>2014-11-19T13:06:18Z</time>
      </trkpt>
      <trkpt lat="43.41459" lon="6.07075">
        <ele>215.16932678223</ele>
        <time>2014-11-19T13:06:19Z</time>
      </trkpt>
      <trkpt lat="43.41457" lon="6.07076">
        <ele>215.10504150391</ele>
        <time>2014-11-19T13:06:21Z</time>
      </trkpt>
      <trkpt lat="43.41455" lon="6.07077">
        <ele>215.03042602539</ele>
        <time>2014-11-19T13:06:23Z</time>
      </trkpt>
      <trkpt lat="43.41453" lon="6.07079">
        <ele>214.94873046875</ele>
        <time>2014-11-19T13:06:25Z</time>
      </trkpt>
      <trkpt lat="43.41452" lon="6.07084">
        <ele>214.8486328125</ele>
        <time>2014-11-19T13:06:27Z</time>
      </trkpt>
      <trkpt lat="43.41451" lon="6.0709">
        <ele>214.82116699219</ele>
        <time>2014-11-19T13:06:29Z</time>
      </trkpt>
      <trkpt lat="43.4145" lon="6.07093">
        <ele>214.80285644531</ele>
        <time>2014-11-19T13:06:30Z</time>
      </trkpt>
      <trkpt lat="43.41449" lon="6.07096">
        <ele>214.78454589844</ele>
        <time>2014-11-19T13:06:31Z</time>
      </trkpt>
      <trkpt lat="43.41446" lon="6.07104">
        <ele>214.71130371094</ele>
        <time>2014-11-19T13:06:33Z</time>
      </trkpt>
      <trkpt lat="43.41445" lon="6.07109">
        <ele>214.67468261719</ele>
        <time>2014-11-19T13:06:34Z</time>
      </trkpt>
      <trkpt lat="43.41443" lon="6.07114">
        <ele>214.62890625</ele>
        <time>2014-11-19T13:06:35Z</time>
      </trkpt>
      <trkpt lat="43.41438" lon="6.07126">
        <ele>214.50988769531</ele>
        <time>2014-11-19T13:06:37Z</time>
      </trkpt>
      <trkpt lat="43.41433" lon="6.07139">
        <ele>214.39086914062</ele>
        <time>2014-11-19T13:06:39Z</time>
      </trkpt>
      <trkpt lat="43.41428" lon="6.07153">
        <ele>214.28100585938</ele>
        <time>2014-11-19T13:06:41Z</time>
      </trkpt>
      <trkpt lat="43.41415" lon="6.07196">
        <ele>213.98028564453</ele>
        <time>2014-11-19T13:06:47Z</time>
      </trkpt>
      <trkpt lat="43.4141" lon="6.07211">
        <ele>213.92535400391</ele>
        <time>2014-11-19T13:06:49Z</time>
      </trkpt>
      <trkpt lat="43.41406" lon="6.07225">
        <ele>213.875</ele>
        <time>2014-11-19T13:06:51Z</time>
      </trkpt>
      <trkpt lat="43.41402" lon="6.0724">
        <ele>213.82464599609</ele>
        <time>2014-11-19T13:06:53Z</time>
      </trkpt>
      <trkpt lat="43.41398" lon="6.07253">
        <ele>213.77886962891</ele>
        <time>2014-11-19T13:06:55Z</time>
      </trkpt>
      <trkpt lat="43.41394" lon="6.07264">
        <ele>213.73309326172</ele>
        <time>2014-11-19T13:06:57Z</time>
      </trkpt>
      <trkpt lat="43.41391" lon="6.07276">
        <ele>213.69189453125</ele>
        <time>2014-11-19T13:06:59Z</time>
      </trkpt>
      <trkpt lat="43.41388" lon="6.07287">
        <ele>213.65985107422</ele>
        <time>2014-11-19T13:07:01Z</time>
      </trkpt>
      <trkpt lat="43.41386" lon="6.07293">
        <ele>213.63696289062</ele>
        <time>2014-11-19T13:07:02Z</time>
      </trkpt>
      <trkpt lat="43.41385" lon="6.07298">
        <ele>213.61865234375</ele>
        <time>2014-11-19T13:07:03Z</time>
      </trkpt>
      <trkpt lat="43.41381" lon="6.07311">
        <ele>213.57745361328</ele>
        <time>2014-11-19T13:07:05Z</time>
      </trkpt>
      <trkpt lat="43.4138" lon="6.07317">
        <ele>213.56372070312</ele>
        <time>2014-11-19T13:07:06Z</time>
      </trkpt>
      <trkpt lat="43.4138" lon="6.07323">
        <ele>213.55914306641</ele>
        <time>2014-11-19T13:07:07Z</time>
      </trkpt>
      <trkpt lat="43.41381" lon="6.07332">
        <ele>213.57287597656</ele>
        <time>2014-11-19T13:07:09Z</time>
      </trkpt>
      <trkpt lat="43.41388" lon="6.07336">
        <ele>213.65069580078</ele>
        <time>2014-11-19T13:07:11Z</time>
      </trkpt>
      <trkpt lat="43.41391" lon="6.07336">
        <ele>213.69647216797</ele>
        <time>2014-11-19T13:07:12Z</time>
      </trkpt>
      <trkpt lat="43.41404" lon="6.07336">
        <ele>213.84753417969</ele>
        <time>2014-11-19T13:07:15Z</time>
      </trkpt>
      <trkpt lat="43.41413" lon="6.07336">
        <ele>213.96197509766</ele>
        <time>2014-11-19T13:07:17Z</time>
      </trkpt>
      <trkpt lat="43.41433" lon="6.07335">
        <ele>214.58630371094</ele>
        <time>2014-11-19T13:07:21Z</time>
      </trkpt>
      <trkpt lat="43.41443" lon="6.07336">
        <ele>214.95709228516</ele>
        <time>2014-11-19T13:07:23Z</time>
      </trkpt>
      <trkpt lat="43.41454" lon="6.07337">
        <ele>215.35534667969</ele>
        <time>2014-11-19T13:07:25Z</time>
      </trkpt>
      <trkpt lat="43.4146" lon="6.07337">
        <ele>215.54760742188</ele>
        <time>2014-11-19T13:07:26Z</time>
      </trkpt>
      <trkpt lat="43.41464" lon="6.07338">
        <ele>215.71240234375</ele>
        <time>2014-11-19T13:07:27Z</time>
      </trkpt>
      <trkpt lat="43.41474" lon="6.07343">
        <ele>216.05572509766</ele>
        <time>2014-11-19T13:07:29Z</time>
      </trkpt>
      <trkpt lat="43.41479" lon="6.07346">
        <ele>216.23425292969</ele>
        <time>2014-11-19T13:07:30Z</time>
      </trkpt>
      <trkpt lat="43.41483" lon="6.0735">
        <ele>216.38531494141</ele>
        <time>2014-11-19T13:07:31Z</time>
      </trkpt>
      <trkpt lat="43.41491" lon="6.07358">
        <ele>216.67370605469</ele>
        <time>2014-11-19T13:07:33Z</time>
      </trkpt>
      <trkpt lat="43.41499" lon="6.07368">
        <ele>216.97583007812</ele>
        <time>2014-11-19T13:07:35Z</time>
      </trkpt>
      <trkpt lat="43.41507" lon="6.07377">
        <ele>217.19927978516</ele>
        <time>2014-11-19T13:07:37Z</time>
      </trkpt>
      <trkpt lat="43.41514" lon="6.07386">
        <ele>217.44831848144</ele>
        <time>2014-11-19T13:07:39Z</time>
      </trkpt>
      <trkpt lat="43.41521" lon="6.07396">
        <ele>217.69497680664</ele>
        <time>2014-11-19T13:07:41Z</time>
      </trkpt>
      <trkpt lat="43.41528" lon="6.07408">
        <ele>217.9557800293</ele>
        <time>2014-11-19T13:07:43Z</time>
      </trkpt>
      <trkpt lat="43.41533" lon="6.07419">
        <ele>218.18707275391</ele>
        <time>2014-11-19T13:07:45Z</time>
      </trkpt>
      <trkpt lat="43.41537" lon="6.07431">
        <ele>218.42785644531</ele>
        <time>2014-11-19T13:07:47Z</time>
      </trkpt>
      <trkpt lat="43.41543" lon="6.0744">
        <ele>218.67915344238</ele>
        <time>2014-11-19T13:07:49Z</time>
      </trkpt>
      <trkpt lat="43.41546" lon="6.07443">
        <ele>218.79228210449</ele>
        <time>2014-11-19T13:07:50Z</time>
      </trkpt>
      <trkpt lat="43.41549" lon="6.07444">
        <ele>218.89656066894</ele>
        <time>2014-11-19T13:07:51Z</time>
      </trkpt>
      <trkpt lat="43.41557" lon="6.07444">
        <ele>219.13972473144</ele>
        <time>2014-11-19T13:07:53Z</time>
      </trkpt>
      <trkpt lat="43.41578" lon="6.0744">
        <ele>219.83561706543</ele>
        <time>2014-11-19T13:07:59Z</time>
      </trkpt>
      <trkpt lat="43.41586" lon="6.07439">
        <ele>220.07028198242</ele>
        <time>2014-11-19T13:08:01Z</time>
      </trkpt>
      <trkpt lat="43.4159" lon="6.07438">
        <ele>220.17347717285</ele>
        <time>2014-11-19T13:08:02Z</time>
      </trkpt>
      <trkpt lat="43.416" lon="6.07437">
        <ele>220.44885253906</ele>
        <time>2014-11-19T13:08:05Z</time>
      </trkpt>
      <trkpt lat="43.41607" lon="6.07436">
        <ele>220.61961364746</ele>
        <time>2014-11-19T13:08:07Z</time>
      </trkpt>
      <trkpt lat="43.41613" lon="6.07434">
        <ele>220.79833984375</ele>
        <time>2014-11-19T13:08:09Z</time>
      </trkpt>
      <trkpt lat="43.4162" lon="6.07434">
        <ele>220.96759033203</ele>
        <time>2014-11-19T13:08:11Z</time>
      </trkpt>
      <trkpt lat="43.41626" lon="6.07433">
        <ele>221.12423706055</ele>
        <time>2014-11-19T13:08:13Z</time>
      </trkpt>
      <trkpt lat="43.41632" lon="6.07433">
        <ele>221.28346252441</ele>
        <time>2014-11-19T13:08:15Z</time>
      </trkpt>
      <trkpt lat="43.41639" lon="6.07433">
        <ele>221.45307922363</ele>
        <time>2014-11-19T13:08:17Z</time>
      </trkpt>
      <trkpt lat="43.4165" lon="6.07432">
        <ele>221.73956298828</ele>
        <time>2014-11-19T13:08:21Z</time>
      </trkpt>
      <trkpt lat="43.41655" lon="6.07432">
        <ele>221.87330627441</ele>
        <time>2014-11-19T13:08:23Z</time>
      </trkpt>
      <trkpt lat="43.41661" lon="6.07431">
        <ele>222.03269958496</ele>
        <time>2014-11-19T13:08:25Z</time>
      </trkpt>
      <trkpt lat="43.41667" lon="6.0743">
        <ele>222.17913818359</ele>
        <time>2014-11-19T13:08:27Z</time>
      </trkpt>
      <trkpt lat="43.41673" lon="6.0743">
        <ele>222.33851623535</ele>
        <time>2014-11-19T13:08:29Z</time>
      </trkpt>
      <trkpt lat="43.41692" lon="6.07426">
        <ele>222.78684997559</ele>
        <time>2014-11-19T13:08:35Z</time>
      </trkpt>
      <trkpt lat="43.41698" lon="6.07425">
        <ele>222.93969726562</ele>
        <time>2014-11-19T13:08:37Z</time>
      </trkpt>
      <trkpt lat="43.41705" lon="6.07424">
        <ele>223.07356262207</ele>
        <time>2014-11-19T13:08:39Z</time>
      </trkpt>
      <trkpt lat="43.4171" lon="6.07422">
        <ele>223.17468261719</ele>
        <time>2014-11-19T13:08:41Z</time>
      </trkpt>
      <trkpt lat="43.41716" lon="6.0742">
        <ele>223.27185058594</ele>
        <time>2014-11-19T13:08:43Z</time>
      </trkpt>
      <trkpt lat="43.41721" lon="6.07419">
        <ele>223.37324523926</ele>
        <time>2014-11-19T13:08:45Z</time>
      </trkpt>
      <trkpt lat="43.41723" lon="6.07419">
        <ele>223.42579650879</ele>
        <time>2014-11-19T13:08:46Z</time>
      </trkpt>
      <trkpt lat="43.41726" lon="6.07418">
        <ele>223.46298217773</ele>
        <time>2014-11-19T13:08:47Z</time>
      </trkpt>
      <trkpt lat="43.41735" lon="6.07416">
        <ele>223.63557434082</ele>
        <time>2014-11-19T13:08:51Z</time>
      </trkpt>
      <trkpt lat="43.41744" lon="6.07414">
        <ele>223.79644775391</ele>
        <time>2014-11-19T13:08:55Z</time>
      </trkpt>
      <trkpt lat="43.41748" lon="6.07414">
        <ele>223.87313842773</ele>
        <time>2014-11-19T13:08:57Z</time>
      </trkpt>
      <trkpt lat="43.4175" lon="6.07413">
        <ele>223.92234802246</ele>
        <time>2014-11-19T13:08:59Z</time>
      </trkpt>
      <trkpt lat="43.41753" lon="6.07412">
        <ele>224.04843139648</ele>
        <time>2014-11-19T13:09:01Z</time>
      </trkpt>
      <trkpt lat="43.41756" lon="6.07411">
        <ele>224.17503356934</ele>
        <time>2014-11-19T13:09:03Z</time>
      </trkpt>
      <trkpt lat="43.41762" lon="6.0741">
        <ele>224.42193603516</ele>
        <time>2014-11-19T13:09:06Z</time>
      </trkpt>
      <trkpt lat="43.41764" lon="6.0741">
        <ele>224.48760986328</ele>
        <time>2014-11-19T13:09:07Z</time>
      </trkpt>
      <trkpt lat="43.41768" lon="6.07409">
        <ele>224.63298034668</ele>
        <time>2014-11-19T13:09:09Z</time>
      </trkpt>
      <trkpt lat="43.41771" lon="6.07408">
        <ele>224.79243469238</ele>
        <time>2014-11-19T13:09:11Z</time>
      </trkpt>
      <trkpt lat="43.41774" lon="6.07408">
        <ele>224.91812133789</ele>
        <time>2014-11-19T13:09:13Z</time>
      </trkpt>
      <trkpt lat="43.41778" lon="6.07406">
        <ele>225.0654296875</ele>
        <time>2014-11-19T13:09:15Z</time>
      </trkpt>
      <trkpt lat="43.41782" lon="6.07406">
        <ele>225.23608398438</ele>
        <time>2014-11-19T13:09:17Z</time>
      </trkpt>
      <trkpt lat="43.41783" lon="6.07407">
        <ele>225.30027770996</ele>
        <time>2014-11-19T13:09:18Z</time>
      </trkpt>
      <trkpt lat="43.41785" lon="6.07407">
        <ele>225.39459228516</ele>
        <time>2014-11-19T13:09:19Z</time>
      </trkpt>
      <trkpt lat="43.41787" lon="6.07408">
        <ele>225.52955627441</ele>
        <time>2014-11-19T13:09:20Z</time>
      </trkpt>
      <trkpt lat="43.41788" lon="6.07409">
        <ele>225.61929321289</ele>
        <time>2014-11-19T13:09:21Z</time>
      </trkpt>
      <trkpt lat="43.41793" lon="6.07411">
        <ele>225.86347961426</ele>
        <time>2014-11-19T13:09:23Z</time>
      </trkpt>
      <trkpt lat="43.41796" lon="6.07414">
        <ele>226.13189697266</ele>
        <time>2014-11-19T13:09:25Z</time>
      </trkpt>
      <trkpt lat="43.41798" lon="6.07416">
        <ele>226.25311279297</ele>
        <time>2014-11-19T13:09:26Z</time>
      </trkpt>
      <trkpt lat="43.418" lon="6.07418">
        <ele>226.41117858887</ele>
        <time>2014-11-19T13:09:27Z</time>
      </trkpt>
      <trkpt lat="43.41803" lon="6.07421">
        <ele>226.69499206543</ele>
        <time>2014-11-19T13:09:29Z</time>
      </trkpt>
      <trkpt lat="43.41804" lon="6.07425">
        <ele>226.8717956543</ele>
        <time>2014-11-19T13:09:31Z</time>
      </trkpt>
      <trkpt lat="43.41805" lon="6.07427">
        <ele>226.97537231445</ele>
        <time>2014-11-19T13:09:32Z</time>
      </trkpt>
      <trkpt lat="43.41805" lon="6.07428">
        <ele>227.05662536621</ele>
        <time>2014-11-19T13:09:33Z</time>
      </trkpt>
      <trkpt lat="43.41808" lon="6.07431">
        <ele>227.29180908203</ele>
        <time>2014-11-19T13:09:35Z</time>
      </trkpt>
      <trkpt lat="43.41811" lon="6.07434">
        <ele>227.54299926758</ele>
        <time>2014-11-19T13:09:37Z</time>
      </trkpt>
      <trkpt lat="43.41813" lon="6.07435">
        <ele>227.67231750488</ele>
        <time>2014-11-19T13:09:38Z</time>
      </trkpt>
      <trkpt lat="43.41817" lon="6.07437">
        <ele>227.9303894043</ele>
        <time>2014-11-19T13:09:41Z</time>
      </trkpt>
      <trkpt lat="43.41819" lon="6.07438">
        <ele>228.11004638672</ele>
        <time>2014-11-19T13:09:43Z</time>
      </trkpt>
      <trkpt lat="43.41822" lon="6.07439">
        <ele>228.29431152344</ele>
        <time>2014-11-19T13:09:45Z</time>
      </trkpt>
      <trkpt lat="43.41825" lon="6.07442">
        <ele>228.4997253418</ele>
        <time>2014-11-19T13:09:47Z</time>
      </trkpt>
      <trkpt lat="43.41827" lon="6.07442">
        <ele>228.61531066894</ele>
        <time>2014-11-19T13:09:48Z</time>
      </trkpt>
      <trkpt lat="43.41828" lon="6.07442">
        <ele>228.68054199219</ele>
        <time>2014-11-19T13:09:49Z</time>
      </trkpt>
      <trkpt lat="43.41829" lon="6.07442">
        <ele>228.73376464844</ele>
        <time>2014-11-19T13:09:51Z</time>
      </trkpt>
      <trkpt lat="43.4183" lon="6.07443">
        <ele>228.75549316406</ele>
        <time>2014-11-19T13:09:55Z</time>
      </trkpt>
      <trkpt lat="43.41832" lon="6.07443">
        <ele>228.86077880859</ele>
        <time>2014-11-19T13:09:57Z</time>
      </trkpt>
      <trkpt lat="43.41835" lon="6.07443">
        <ele>229.09356689453</ele>
        <time>2014-11-19T13:09:59Z</time>
      </trkpt>
      <trkpt lat="43.4184" lon="6.07443">
        <ele>229.40942382812</ele>
        <time>2014-11-19T13:10:01Z</time>
      </trkpt>
      <trkpt lat="43.41845" lon="6.07442">
        <ele>229.77163696289</ele>
        <time>2014-11-19T13:10:03Z</time>
      </trkpt>
      <trkpt lat="43.41851" lon="6.07441">
        <ele>230.13899230957</ele>
        <time>2014-11-19T13:10:05Z</time>
      </trkpt>
      <trkpt lat="43.41856" lon="6.07441">
        <ele>230.46685791016</ele>
        <time>2014-11-19T13:10:07Z</time>
      </trkpt>
      <trkpt lat="43.41866" lon="6.07439">
        <ele>231.15866088867</ele>
        <time>2014-11-19T13:10:11Z</time>
      </trkpt>
      <trkpt lat="43.41869" lon="6.07439">
        <ele>231.35092163086</ele>
        <time>2014-11-19T13:10:12Z</time>
      </trkpt>
      <trkpt lat="43.41871" lon="6.07439">
        <ele>231.53802490234</ele>
        <time>2014-11-19T13:10:13Z</time>
      </trkpt>
      <trkpt lat="43.41877" lon="6.07439">
        <ele>231.94314575195</ele>
        <time>2014-11-19T13:10:15Z</time>
      </trkpt>
      <trkpt lat="43.41889" lon="6.07438">
        <ele>232.79974365234</ele>
        <time>2014-11-19T13:10:19Z</time>
      </trkpt>
      <trkpt lat="43.41896" lon="6.07437">
        <ele>233.21002197266</ele>
        <time>2014-11-19T13:10:21Z</time>
      </trkpt>
      <trkpt lat="43.41903" lon="6.07437">
        <ele>233.73014831543</ele>
        <time>2014-11-19T13:10:23Z</time>
      </trkpt>
      <trkpt lat="43.41907" lon="6.07437">
        <ele>234.02026367188</ele>
        <time>2014-11-19T13:10:24Z</time>
      </trkpt>
      <trkpt lat="43.41911" lon="6.07438">
        <ele>234.31036376953</ele>
        <time>2014-11-19T13:10:25Z</time>
      </trkpt>
      <trkpt lat="43.41918" lon="6.07438">
        <ele>234.8390045166</ele>
        <time>2014-11-19T13:10:27Z</time>
      </trkpt>
      <trkpt lat="43.41925" lon="6.07439">
        <ele>235.23396301269</ele>
        <time>2014-11-19T13:10:29Z</time>
      </trkpt>
      <trkpt lat="43.41932" lon="6.07439">
        <ele>235.59112548828</ele>
        <time>2014-11-19T13:10:31Z</time>
      </trkpt>
      <trkpt lat="43.41938" lon="6.07437">
        <ele>235.92265319824</ele>
        <time>2014-11-19T13:10:33Z</time>
      </trkpt>
      <trkpt lat="43.41945" lon="6.07436">
        <ele>236.23303222656</ele>
        <time>2014-11-19T13:10:35Z</time>
      </trkpt>
      <trkpt lat="43.41951" lon="6.07434">
        <ele>236.51412963867</ele>
        <time>2014-11-19T13:10:37Z</time>
      </trkpt>
      <trkpt lat="43.41956" lon="6.07432">
        <ele>236.76206970215</ele>
        <time>2014-11-19T13:10:39Z</time>
      </trkpt>
      <trkpt lat="43.41961" lon="6.07431">
        <ele>237.00650024414</ele>
        <time>2014-11-19T13:10:41Z</time>
      </trkpt>
      <trkpt lat="43.41967" lon="6.0743">
        <ele>237.27827453613</ele>
        <time>2014-11-19T13:10:43Z</time>
      </trkpt>
      <trkpt lat="43.41971" lon="6.07429">
        <ele>237.52130126953</ele>
        <time>2014-11-19T13:10:45Z</time>
      </trkpt>
      <trkpt lat="43.41976" lon="6.07429">
        <ele>237.79862976074</ele>
        <time>2014-11-19T13:10:47Z</time>
      </trkpt>
      <trkpt lat="43.41981" lon="6.07428">
        <ele>238.06971740723</ele>
        <time>2014-11-19T13:10:49Z</time>
      </trkpt>
      <trkpt lat="43.41986" lon="6.07428">
        <ele>238.36776733398</ele>
        <time>2014-11-19T13:10:51Z</time>
      </trkpt>
      <trkpt lat="43.41991" lon="6.07427">
        <ele>238.59605407715</ele>
        <time>2014-11-19T13:10:53Z</time>
      </trkpt>
      <trkpt lat="43.41993" lon="6.07428">
        <ele>238.71139526367</ele>
        <time>2014-11-19T13:10:54Z</time>
      </trkpt>
      <trkpt lat="43.41995" lon="6.0743">
        <ele>238.86517333984</ele>
        <time>2014-11-19T13:10:55Z</time>
      </trkpt>
      <trkpt lat="43.41997" lon="6.07436">
        <ele>239.07594299316</ele>
        <time>2014-11-19T13:10:57Z</time>
      </trkpt>
      <trkpt lat="43.41998" lon="6.0744">
        <ele>239.18827819824</ele>
        <time>2014-11-19T13:10:58Z</time>
      </trkpt>
      <trkpt lat="43.41999" lon="6.07444">
        <ele>239.27342224121</ele>
        <time>2014-11-19T13:10:59Z</time>
      </trkpt>
      <trkpt lat="43.42001" lon="6.07451">
        <ele>239.38885498047</ele>
        <time>2014-11-19T13:11:01Z</time>
      </trkpt>
      <trkpt lat="43.42003" lon="6.07458">
        <ele>239.43995666504</ele>
        <time>2014-11-19T13:11:03Z</time>
      </trkpt>
      <trkpt lat="43.42007" lon="6.07475">
        <ele>239.58660888672</ele>
        <time>2014-11-19T13:11:07Z</time>
      </trkpt>
      <trkpt lat="43.4201" lon="6.07482">
        <ele>239.64135742188</ele>
        <time>2014-11-19T13:11:09Z</time>
      </trkpt>
      <trkpt lat="43.42011" lon="6.07486">
        <ele>239.6768951416</ele>
        <time>2014-11-19T13:11:10Z</time>
      </trkpt>
      <trkpt lat="43.42013" lon="6.0749">
        <ele>239.6999206543</ele>
        <time>2014-11-19T13:11:11Z</time>
      </trkpt>
      <trkpt lat="43.42018" lon="6.07495">
        <ele>239.7194519043</ele>
        <time>2014-11-19T13:11:13Z</time>
      </trkpt>
      <trkpt lat="43.42023" lon="6.07497">
        <ele>239.67262268066</ele>
        <time>2014-11-19T13:11:15Z</time>
      </trkpt>
      <trkpt lat="43.4203" lon="6.07496">
        <ele>239.57957458496</ele>
        <time>2014-11-19T13:11:17Z</time>
      </trkpt>
      <trkpt lat="43.42045" lon="6.07496">
        <ele>239.3807220459</ele>
        <time>2014-11-19T13:11:21Z</time>
      </trkpt>
      <trkpt lat="43.4206" lon="6.07496">
        <ele>239.19990539551</ele>
        <time>2014-11-19T13:11:25Z</time>
      </trkpt>
      <trkpt lat="43.42064" lon="6.07496">
        <ele>239.13998413086</ele>
        <time>2014-11-19T13:11:26Z</time>
      </trkpt>
      <trkpt lat="43.42075" lon="6.07495">
        <ele>238.98852539062</ele>
        <time>2014-11-19T13:11:29Z</time>
      </trkpt>
      <trkpt lat="43.42081" lon="6.07495">
        <ele>238.9033203125</ele>
        <time>2014-11-19T13:11:31Z</time>
      </trkpt>
      <trkpt lat="43.42089" lon="6.07495">
        <ele>238.81632995606</ele>
        <time>2014-11-19T13:11:33Z</time>
      </trkpt>
      <trkpt lat="43.42097" lon="6.07494">
        <ele>238.71876525879</ele>
        <time>2014-11-19T13:11:35Z</time>
      </trkpt>
      <trkpt lat="43.42102" lon="6.07494">
        <ele>238.65754699707</ele>
        <time>2014-11-19T13:11:36Z</time>
      </trkpt>
      <trkpt lat="43.42107" lon="6.07493">
        <ele>238.59457397461</ele>
        <time>2014-11-19T13:11:37Z</time>
      </trkpt>
      <trkpt lat="43.42112" lon="6.07491">
        <ele>238.51350402832</ele>
        <time>2014-11-19T13:11:38Z</time>
      </trkpt>
      <trkpt lat="43.42117" lon="6.07487">
        <ele>238.42083740234</ele>
        <time>2014-11-19T13:11:39Z</time>
      </trkpt>
      <trkpt lat="43.4212" lon="6.07482">
        <ele>238.32669067383</ele>
        <time>2014-11-19T13:11:40Z</time>
      </trkpt>
      <trkpt lat="43.42122" lon="6.07476">
        <ele>238.23086547852</ele>
        <time>2014-11-19T13:11:41Z</time>
      </trkpt>
      <trkpt lat="43.42124" lon="6.07468">
        <ele>238.12394714356</ele>
        <time>2014-11-19T13:11:42Z</time>
      </trkpt>
      <trkpt lat="43.42129" lon="6.07453">
        <ele>237.94454956055</ele>
        <time>2014-11-19T13:11:44Z</time>
      </trkpt>
      <trkpt lat="43.42131" lon="6.07445">
        <ele>237.86952209473</ele>
        <time>2014-11-19T13:11:45Z</time>
      </trkpt>
      <trkpt lat="43.42134" lon="6.07437">
        <ele>237.79518127441</ele>
        <time>2014-11-19T13:11:46Z</time>
      </trkpt>
      <trkpt lat="43.42136" lon="6.07429">
        <ele>237.73583984375</ele>
        <time>2014-11-19T13:11:47Z</time>
      </trkpt>
      <trkpt lat="43.42139" lon="6.07412">
        <ele>237.5997467041</ele>
        <time>2014-11-19T13:11:49Z</time>
      </trkpt>
      <trkpt lat="43.42141" lon="6.07404">
        <ele>237.50527954102</ele>
        <time>2014-11-19T13:11:50Z</time>
      </trkpt>
      <trkpt lat="43.42142" lon="6.07398">
        <ele>237.41397094727</ele>
        <time>2014-11-19T13:11:51Z</time>
      </trkpt>
      <trkpt lat="43.42144" lon="6.07383">
        <ele>237.21305847168</ele>
        <time>2014-11-19T13:11:53Z</time>
      </trkpt>
      <trkpt lat="43.42147" lon="6.07362">
        <ele>236.9508972168</ele>
        <time>2014-11-19T13:11:56Z</time>
      </trkpt>
      <trkpt lat="43.42147" lon="6.07356">
        <ele>236.86729431152</ele>
        <time>2014-11-19T13:11:57Z</time>
      </trkpt>
      <trkpt lat="43.42149" lon="6.07343">
        <ele>236.71089172363</ele>
        <time>2014-11-19T13:11:59Z</time>
      </trkpt>
      <trkpt lat="43.42152" lon="6.0733">
        <ele>236.63385009766</ele>
        <time>2014-11-19T13:12:01Z</time>
      </trkpt>
      <trkpt lat="43.42154" lon="6.07315">
        <ele>236.63815307617</ele>
        <time>2014-11-19T13:12:03Z</time>
      </trkpt>
      <trkpt lat="43.42157" lon="6.07299">
        <ele>236.65846252441</ele>
        <time>2014-11-19T13:12:05Z</time>
      </trkpt>
      <trkpt lat="43.4216" lon="6.07283">
        <ele>236.72944641113</ele>
        <time>2014-11-19T13:12:07Z</time>
      </trkpt>
      <trkpt lat="43.42162" lon="6.07269">
        <ele>236.81533813477</ele>
        <time>2014-11-19T13:12:09Z</time>
      </trkpt>
      <trkpt lat="43.42165" lon="6.07256">
        <ele>236.94023132324</ele>
        <time>2014-11-19T13:12:11Z</time>
      </trkpt>
      <trkpt lat="43.42167" lon="6.07249">
        <ele>237.00238037109</ele>
        <time>2014-11-19T13:12:12Z</time>
      </trkpt>
      <trkpt lat="43.42167" lon="6.07243">
        <ele>237.11688232422</ele>
        <time>2014-11-19T13:12:13Z</time>
      </trkpt>
      <trkpt lat="43.42169" lon="6.07231">
        <ele>237.35780334473</ele>
        <time>2014-11-19T13:12:15Z</time>
      </trkpt>
      <trkpt lat="43.4217" lon="6.07225">
        <ele>237.49116516113</ele>
        <time>2014-11-19T13:12:16Z</time>
      </trkpt>
      <trkpt lat="43.42171" lon="6.0722">
        <ele>237.6180267334</ele>
        <time>2014-11-19T13:12:17Z</time>
      </trkpt>
      <trkpt lat="43.42173" lon="6.07208">
        <ele>237.87191772461</ele>
        <time>2014-11-19T13:12:19Z</time>
      </trkpt>
      <trkpt lat="43.42175" lon="6.07195">
        <ele>238.11669921875</ele>
        <time>2014-11-19T13:12:21Z</time>
      </trkpt>
      <trkpt lat="43.42176" lon="6.07181">
        <ele>238.38800048828</ele>
        <time>2014-11-19T13:12:23Z</time>
      </trkpt>
      <trkpt lat="43.42178" lon="6.07166">
        <ele>238.69071960449</ele>
        <time>2014-11-19T13:12:25Z</time>
      </trkpt>
      <trkpt lat="43.42178" lon="6.07157">
        <ele>238.80572509766</ele>
        <time>2014-11-19T13:12:26Z</time>
      </trkpt>
      <trkpt lat="43.42177" lon="6.07149">
        <ele>238.86849975586</ele>
        <time>2014-11-19T13:12:27Z</time>
      </trkpt>
      <trkpt lat="43.42175" lon="6.07141">
        <ele>238.86164855957</ele>
        <time>2014-11-19T13:12:28Z</time>
      </trkpt>
      <trkpt lat="43.42173" lon="6.07133">
        <ele>238.81364440918</ele>
        <time>2014-11-19T13:12:29Z</time>
      </trkpt>
      <trkpt lat="43.42171" lon="6.07124">
        <ele>238.77865600586</ele>
        <time>2014-11-19T13:12:30Z</time>
      </trkpt>
      <trkpt lat="43.4217" lon="6.07116">
        <ele>238.8095703125</ele>
        <time>2014-11-19T13:12:31Z</time>
      </trkpt>
      <trkpt lat="43.42169" lon="6.07108">
        <ele>238.85559082031</ele>
        <time>2014-11-19T13:12:32Z</time>
      </trkpt>
      <trkpt lat="43.42168" lon="6.071">
        <ele>238.86520385742</ele>
        <time>2014-11-19T13:12:33Z</time>
      </trkpt>
      <trkpt lat="43.42162" lon="6.07081">
        <ele>238.90687561035</ele>
        <time>2014-11-19T13:12:36Z</time>
      </trkpt>
      <trkpt lat="43.42161" lon="6.07076">
        <ele>238.96638488769</ele>
        <time>2014-11-19T13:12:37Z</time>
      </trkpt>
      <trkpt lat="43.42161" lon="6.07067">
        <ele>239.18840026856</ele>
        <time>2014-11-19T13:12:39Z</time>
      </trkpt>
      <trkpt lat="43.42163" lon="6.07064">
        <ele>239.35548400879</ele>
        <time>2014-11-19T13:12:40Z</time>
      </trkpt>
      <trkpt lat="43.42166" lon="6.07062">
        <ele>239.49281311035</ele>
        <time>2014-11-19T13:12:41Z</time>
      </trkpt>
      <trkpt lat="43.42172" lon="6.0706">
        <ele>239.94984436035</ele>
        <time>2014-11-19T13:12:43Z</time>
      </trkpt>
      <trkpt lat="43.42175" lon="6.0706">
        <ele>240.17185974121</ele>
        <time>2014-11-19T13:12:44Z</time>
      </trkpt>
      <trkpt lat="43.42178" lon="6.07061">
        <ele>240.38471984863</ele>
        <time>2014-11-19T13:12:45Z</time>
      </trkpt>
      <trkpt lat="43.42184" lon="6.0706">
        <ele>240.77610778809</ele>
        <time>2014-11-19T13:12:47Z</time>
      </trkpt>
      <trkpt lat="43.4219" lon="6.07061">
        <ele>241.2315826416</ele>
        <time>2014-11-19T13:12:49Z</time>
      </trkpt>
      <trkpt lat="43.42197" lon="6.07061">
        <ele>241.72940063477</ele>
        <time>2014-11-19T13:12:51Z</time>
      </trkpt>
      <trkpt lat="43.42205" lon="6.07061">
        <ele>242.31076049805</ele>
        <time>2014-11-19T13:12:53Z</time>
      </trkpt>
      <trkpt lat="43.42213" lon="6.07062">
        <ele>242.84977722168</ele>
        <time>2014-11-19T13:12:55Z</time>
      </trkpt>
      <trkpt lat="43.42219" lon="6.07064">
        <ele>243.24917602539</ele>
        <time>2014-11-19T13:12:57Z</time>
      </trkpt>
      <trkpt lat="43.42225" lon="6.07064">
        <ele>243.63369750977</ele>
        <time>2014-11-19T13:12:59Z</time>
      </trkpt>
      <trkpt lat="43.42227" lon="6.07064">
        <ele>243.81108093262</ele>
        <time>2014-11-19T13:13:00Z</time>
      </trkpt>
      <trkpt lat="43.42229" lon="6.07066">
        <ele>243.94841003418</ele>
        <time>2014-11-19T13:13:01Z</time>
      </trkpt>
      <trkpt lat="43.42233" lon="6.0707">
        <ele>244.1051940918</ele>
        <time>2014-11-19T13:13:03Z</time>
      </trkpt>
      <trkpt lat="43.42236" lon="6.07079">
        <ele>244.12808227539</ele>
        <time>2014-11-19T13:13:05Z</time>
      </trkpt>
      <trkpt lat="43.42238" lon="6.07089">
        <ele>243.99420166016</ele>
        <time>2014-11-19T13:13:07Z</time>
      </trkpt>
      <trkpt lat="43.42237" lon="6.071">
        <ele>243.72680664062</ele>
        <time>2014-11-19T13:13:09Z</time>
      </trkpt>
      <trkpt lat="43.42236" lon="6.0711">
        <ele>243.4255065918</ele>
        <time>2014-11-19T13:13:11Z</time>
      </trkpt>
      <trkpt lat="43.42235" lon="6.0712">
        <ele>243.12648010254</ele>
        <time>2014-11-19T13:13:13Z</time>
      </trkpt>
      <trkpt lat="43.42235" lon="6.0713">
        <ele>242.88262939453</ele>
        <time>2014-11-19T13:13:15Z</time>
      </trkpt>
      <trkpt lat="43.42234" lon="6.07139">
        <ele>242.61080932617</ele>
        <time>2014-11-19T13:13:17Z</time>
      </trkpt>
      <trkpt lat="43.42233" lon="6.07148">
        <ele>242.34199523926</ele>
        <time>2014-11-19T13:13:19Z</time>
      </trkpt>
      <trkpt lat="43.42231" lon="6.07157">
        <ele>242.08837890625</ele>
        <time>2014-11-19T13:13:21Z</time>
      </trkpt>
      <trkpt lat="43.42229" lon="6.07179">
        <ele>241.47227478027</ele>
        <time>2014-11-19T13:13:25Z</time>
      </trkpt>
      <trkpt lat="43.42226" lon="6.0719">
        <ele>241.11096191406</ele>
        <time>2014-11-19T13:13:27Z</time>
      </trkpt>
      <trkpt lat="43.42225" lon="6.07201">
        <ele>240.79118347168</ele>
        <time>2014-11-19T13:13:29Z</time>
      </trkpt>
      <trkpt lat="43.42223" lon="6.07213">
        <ele>240.47067260742</ele>
        <time>2014-11-19T13:13:31Z</time>
      </trkpt>
      <trkpt lat="43.42223" lon="6.07224">
        <ele>240.20143127441</ele>
        <time>2014-11-19T13:13:33Z</time>
      </trkpt>
      <trkpt lat="43.42221" lon="6.07237">
        <ele>239.87852478027</ele>
        <time>2014-11-19T13:13:35Z</time>
      </trkpt>
      <trkpt lat="43.42219" lon="6.0725">
        <ele>239.52491760254</ele>
        <time>2014-11-19T13:13:37Z</time>
      </trkpt>
      <trkpt lat="43.42217" lon="6.07264">
        <ele>239.32975769043</ele>
        <time>2014-11-19T13:13:39Z</time>
      </trkpt>
      <trkpt lat="43.42215" lon="6.07278">
        <ele>239.1423034668</ele>
        <time>2014-11-19T13:13:41Z</time>
      </trkpt>
      <trkpt lat="43.42213" lon="6.07292">
        <ele>238.94792175293</ele>
        <time>2014-11-19T13:13:43Z</time>
      </trkpt>
      <trkpt lat="43.42211" lon="6.07304">
        <ele>238.78628540039</ele>
        <time>2014-11-19T13:13:45Z</time>
      </trkpt>
      <trkpt lat="43.42209" lon="6.07317">
        <ele>238.6298828125</ele>
        <time>2014-11-19T13:13:47Z</time>
      </trkpt>
      <trkpt lat="43.42207" lon="6.07331">
        <ele>238.47700500488</ele>
        <time>2014-11-19T13:13:49Z</time>
      </trkpt>
      <trkpt lat="43.42205" lon="6.07344">
        <ele>238.46365356445</ele>
        <time>2014-11-19T13:13:51Z</time>
      </trkpt>
      <trkpt lat="43.42204" lon="6.07358">
        <ele>238.48982238769</ele>
        <time>2014-11-19T13:13:53Z</time>
      </trkpt>
      <trkpt lat="43.42201" lon="6.07372">
        <ele>238.51690673828</ele>
        <time>2014-11-19T13:13:55Z</time>
      </trkpt>
      <trkpt lat="43.42199" lon="6.07386">
        <ele>238.55177307129</ele>
        <time>2014-11-19T13:13:57Z</time>
      </trkpt>
      <trkpt lat="43.42197" lon="6.07401">
        <ele>238.59967041016</ele>
        <time>2014-11-19T13:13:59Z</time>
      </trkpt>
      <trkpt lat="43.42195" lon="6.07416">
        <ele>238.67489624023</ele>
        <time>2014-11-19T13:14:01Z</time>
      </trkpt>
      <trkpt lat="43.42192" lon="6.07442">
        <ele>238.60070800781</ele>
        <time>2014-11-19T13:14:05Z</time>
      </trkpt>
      <trkpt lat="43.4219" lon="6.07454">
        <ele>238.56408691406</ele>
        <time>2014-11-19T13:14:07Z</time>
      </trkpt>
      <trkpt lat="43.42189" lon="6.0746">
        <ele>238.52746582031</ele>
        <time>2014-11-19T13:14:08Z</time>
      </trkpt>
      <trkpt lat="43.42182" lon="6.07491">
        <ele>238.37182617188</ele>
        <time>2014-11-19T13:14:13Z</time>
      </trkpt>
      <trkpt lat="43.42179" lon="6.07502">
        <ele>238.33288574219</ele>
        <time>2014-11-19T13:14:15Z</time>
      </trkpt>
      <trkpt lat="43.42177" lon="6.07513">
        <ele>238.43408203125</ele>
        <time>2014-11-19T13:14:17Z</time>
      </trkpt>
      <trkpt lat="43.42175" lon="6.07524">
        <ele>238.53962707519</ele>
        <time>2014-11-19T13:14:19Z</time>
      </trkpt>
      <trkpt lat="43.42173" lon="6.07534">
        <ele>238.63409423828</ele>
        <time>2014-11-19T13:14:21Z</time>
      </trkpt>
      <trkpt lat="43.42171" lon="6.07551">
        <ele>238.77117919922</ele>
        <time>2014-11-19T13:14:24Z</time>
      </trkpt>
      <trkpt lat="43.4217" lon="6.07557">
        <ele>238.81694030762</ele>
        <time>2014-11-19T13:14:25Z</time>
      </trkpt>
      <trkpt lat="43.42168" lon="6.07568">
        <ele>238.87580871582</ele>
        <time>2014-11-19T13:14:27Z</time>
      </trkpt>
      <trkpt lat="43.42167" lon="6.07574">
        <ele>238.89900207519</ele>
        <time>2014-11-19T13:14:28Z</time>
      </trkpt>
      <trkpt lat="43.42166" lon="6.07579">
        <ele>238.96340942383</ele>
        <time>2014-11-19T13:14:29Z</time>
      </trkpt>
      <trkpt lat="43.42162" lon="6.07597">
        <ele>239.22248840332</ele>
        <time>2014-11-19T13:14:32Z</time>
      </trkpt>
      <trkpt lat="43.42161" lon="6.07602">
        <ele>239.30674743652</ele>
        <time>2014-11-19T13:14:33Z</time>
      </trkpt>
      <trkpt lat="43.42155" lon="6.07625">
        <ele>239.7077331543</ele>
        <time>2014-11-19T13:14:37Z</time>
      </trkpt>
      <trkpt lat="43.42153" lon="6.07637">
        <ele>239.90599060059</ele>
        <time>2014-11-19T13:14:39Z</time>
      </trkpt>
      <trkpt lat="43.42152" lon="6.07642">
        <ele>240.01705932617</ele>
        <time>2014-11-19T13:14:40Z</time>
      </trkpt>
      <trkpt lat="43.4215" lon="6.07647">
        <ele>240.12106323242</ele>
        <time>2014-11-19T13:14:41Z</time>
      </trkpt>
      <trkpt lat="43.42147" lon="6.07658">
        <ele>240.33853149414</ele>
        <time>2014-11-19T13:14:43Z</time>
      </trkpt>
      <trkpt lat="43.42144" lon="6.07667">
        <ele>240.56695556641</ele>
        <time>2014-11-19T13:14:45Z</time>
      </trkpt>
      <trkpt lat="43.42138" lon="6.07688">
        <ele>241.56121826172</ele>
        <time>2014-11-19T13:14:49Z</time>
      </trkpt>
      <trkpt lat="43.42135" lon="6.07693">
        <ele>241.79495239258</ele>
        <time>2014-11-19T13:14:50Z</time>
      </trkpt>
      <trkpt lat="43.42132" lon="6.07704">
        <ele>242.24771118164</ele>
        <time>2014-11-19T13:14:52Z</time>
      </trkpt>
      <trkpt lat="43.42131" lon="6.07709">
        <ele>242.45364379883</ele>
        <time>2014-11-19T13:14:53Z</time>
      </trkpt>
      <trkpt lat="43.42129" lon="6.0772">
        <ele>242.87495422363</ele>
        <time>2014-11-19T13:14:55Z</time>
      </trkpt>
      <trkpt lat="43.42126" lon="6.07729">
        <ele>243.23823547363</ele>
        <time>2014-11-19T13:14:57Z</time>
      </trkpt>
      <trkpt lat="43.42123" lon="6.07738">
        <ele>243.56024169922</ele>
        <time>2014-11-19T13:14:59Z</time>
      </trkpt>
      <trkpt lat="43.4212" lon="6.07746">
        <ele>243.85783386231</ele>
        <time>2014-11-19T13:15:01Z</time>
      </trkpt>
      <trkpt lat="43.42118" lon="6.07753">
        <ele>244.11466979981</ele>
        <time>2014-11-19T13:15:03Z</time>
      </trkpt>
      <trkpt lat="43.42117" lon="6.0776">
        <ele>244.32606506348</ele>
        <time>2014-11-19T13:15:05Z</time>
      </trkpt>
      <trkpt lat="43.42115" lon="6.07765">
        <ele>244.51303100586</ele>
        <time>2014-11-19T13:15:07Z</time>
      </trkpt>
      <trkpt lat="43.42113" lon="6.07771">
        <ele>244.68223571777</ele>
        <time>2014-11-19T13:15:09Z</time>
      </trkpt>
      <trkpt lat="43.42111" lon="6.07777">
        <ele>244.859375</ele>
        <time>2014-11-19T13:15:11Z</time>
      </trkpt>
      <trkpt lat="43.4211" lon="6.0778">
        <ele>244.94877624512</ele>
        <time>2014-11-19T13:15:12Z</time>
      </trkpt>
      <trkpt lat="43.42108" lon="6.07786">
        <ele>245.10221862793</ele>
        <time>2014-11-19T13:15:14Z</time>
      </trkpt>
      <trkpt lat="43.42107" lon="6.07788">
        <ele>245.16200256348</ele>
        <time>2014-11-19T13:15:15Z</time>
      </trkpt>
      <trkpt lat="43.42105" lon="6.07793">
        <ele>245.28707885742</ele>
        <time>2014-11-19T13:15:17Z</time>
      </trkpt>
      <trkpt lat="43.42102" lon="6.07805">
        <ele>245.62809753418</ele>
        <time>2014-11-19T13:15:21Z</time>
      </trkpt>
      <trkpt lat="43.421" lon="6.07813">
        <ele>245.79708862305</ele>
        <time>2014-11-19T13:15:23Z</time>
      </trkpt>
      <trkpt lat="43.42098" lon="6.0782">
        <ele>245.97102355957</ele>
        <time>2014-11-19T13:15:25Z</time>
      </trkpt>
      <trkpt lat="43.42096" lon="6.07827">
        <ele>246.12945556641</ele>
        <time>2014-11-19T13:15:27Z</time>
      </trkpt>
      <trkpt lat="43.42094" lon="6.07841">
        <ele>246.34819030762</ele>
        <time>2014-11-19T13:15:31Z</time>
      </trkpt>
      <trkpt lat="43.42093" lon="6.07847">
        <ele>246.42509460449</ele>
        <time>2014-11-19T13:15:33Z</time>
      </trkpt>
      <trkpt lat="43.42093" lon="6.07862">
        <ele>246.61227416992</ele>
        <time>2014-11-19T13:15:37Z</time>
      </trkpt>
      <trkpt lat="43.42094" lon="6.07869">
        <ele>246.74195861816</ele>
        <time>2014-11-19T13:15:39Z</time>
      </trkpt>
      <trkpt lat="43.42098" lon="6.0788">
        <ele>247.00369262695</ele>
        <time>2014-11-19T13:15:42Z</time>
      </trkpt>
      <trkpt lat="43.421" lon="6.07883">
        <ele>247.10539245606</ele>
        <time>2014-11-19T13:15:43Z</time>
      </trkpt>
      <trkpt lat="43.42105" lon="6.07887">
        <ele>247.31944274902</ele>
        <time>2014-11-19T13:15:45Z</time>
      </trkpt>
      <trkpt lat="43.42107" lon="6.07888">
        <ele>247.42251586914</ele>
        <time>2014-11-19T13:15:46Z</time>
      </trkpt>
      <trkpt lat="43.4211" lon="6.07888">
        <ele>247.49922180176</ele>
        <time>2014-11-19T13:15:47Z</time>
      </trkpt>
      <trkpt lat="43.42115" lon="6.07888">
        <ele>247.6817779541</ele>
        <time>2014-11-19T13:15:49Z</time>
      </trkpt>
      <trkpt lat="43.42128" lon="6.07887">
        <ele>248.07707214356</ele>
        <time>2014-11-19T13:15:53Z</time>
      </trkpt>
      <trkpt lat="43.42136" lon="6.07887">
        <ele>248.2998046875</ele>
        <time>2014-11-19T13:15:55Z</time>
      </trkpt>
      <trkpt lat="43.4214" lon="6.07887">
        <ele>248.45263671875</ele>
        <time>2014-11-19T13:15:56Z</time>
      </trkpt>
      <trkpt lat="43.42145" lon="6.07886">
        <ele>248.58013916016</ele>
        <time>2014-11-19T13:15:57Z</time>
      </trkpt>
      <trkpt lat="43.42154" lon="6.07884">
        <ele>248.82643127441</ele>
        <time>2014-11-19T13:15:59Z</time>
      </trkpt>
      <trkpt lat="43.42159" lon="6.07883">
        <ele>248.95356750488</ele>
        <time>2014-11-19T13:16:00Z</time>
      </trkpt>
      <trkpt lat="43.42164" lon="6.07883">
        <ele>249.11779785156</ele>
        <time>2014-11-19T13:16:01Z</time>
      </trkpt>
      <trkpt lat="43.42168" lon="6.07883">
        <ele>249.30389404297</ele>
        <time>2014-11-19T13:16:02Z</time>
      </trkpt>
      <trkpt lat="43.42173" lon="6.07883">
        <ele>249.56939697266</ele>
        <time>2014-11-19T13:16:03Z</time>
      </trkpt>
      <trkpt lat="43.42179" lon="6.07883">
        <ele>249.91386413574</ele>
        <time>2014-11-19T13:16:04Z</time>
      </trkpt>
      <trkpt lat="43.42183" lon="6.07884">
        <ele>250.20683288574</ele>
        <time>2014-11-19T13:16:05Z</time>
      </trkpt>
      <trkpt lat="43.42193" lon="6.07886">
        <ele>250.82710266113</ele>
        <time>2014-11-19T13:16:07Z</time>
      </trkpt>
      <trkpt lat="43.42206" lon="6.07888">
        <ele>251.67167663574</ele>
        <time>2014-11-19T13:16:10Z</time>
      </trkpt>
      <trkpt lat="43.42209" lon="6.07889">
        <ele>251.89826965332</ele>
        <time>2014-11-19T13:16:11Z</time>
      </trkpt>
      <trkpt lat="43.42216" lon="6.07891">
        <ele>252.37434387207</ele>
        <time>2014-11-19T13:16:13Z</time>
      </trkpt>
      <trkpt lat="43.42223" lon="6.07893">
        <ele>252.77946472168</ele>
        <time>2014-11-19T13:16:15Z</time>
      </trkpt>
      <trkpt lat="43.42226" lon="6.07893">
        <ele>252.98088073731</ele>
        <time>2014-11-19T13:16:16Z</time>
      </trkpt>
      <trkpt lat="43.42228" lon="6.07894">
        <ele>253.15254211426</ele>
        <time>2014-11-19T13:16:17Z</time>
      </trkpt>
      <trkpt lat="43.42233" lon="6.07896">
        <ele>253.45924377441</ele>
        <time>2014-11-19T13:16:19Z</time>
      </trkpt>
      <trkpt lat="43.42234" lon="6.07898">
        <ele>253.61259460449</ele>
        <time>2014-11-19T13:16:20Z</time>
      </trkpt>
      <trkpt lat="43.42235" lon="6.07899">
        <ele>253.69728088379</ele>
        <time>2014-11-19T13:16:21Z</time>
      </trkpt>
      <trkpt lat="43.42237" lon="6.07902">
        <ele>253.86093139648</ele>
        <time>2014-11-19T13:16:23Z</time>
      </trkpt>
      <trkpt lat="43.42237" lon="6.07903">
        <ele>253.93188476562</ele>
        <time>2014-11-19T13:16:25Z</time>
      </trkpt>
      <trkpt lat="43.42238" lon="6.07904">
        <ele>253.99826049805</ele>
        <time>2014-11-19T13:16:27Z</time>
      </trkpt>
      <trkpt lat="43.42239" lon="6.07905">
        <ele>254.03717041016</ele>
        <time>2014-11-19T13:16:29Z</time>
      </trkpt>
      <trkpt lat="43.42239" lon="6.07905">
        <ele>254.06692504883</ele>
        <time>2014-11-19T13:16:31Z</time>
      </trkpt>
      <trkpt lat="43.42239" lon="6.07905">
        <ele>254.06692504883</ele>
        <time>2014-11-19T13:16:37Z</time>
      </trkpt>
      <trkpt lat="43.42239" lon="6.07905">
        <ele>254.07035827637</ele>
        <time>2014-11-19T13:16:49Z</time>
      </trkpt>
      <trkpt lat="43.42239" lon="6.07906">
        <ele>254.07264709473</ele>
        <time>2014-11-19T13:17:07Z</time>
      </trkpt>
      <trkpt lat="43.42239" lon="6.07906">
        <ele>254.07379150391</ele>
        <time>2014-11-19T13:17:13Z</time>
      </trkpt>
      <trkpt lat="43.42239" lon="6.07906">
        <ele>254.07836914062</ele>
        <time>2014-11-19T13:17:47Z</time>
      </trkpt>
      <trkpt lat="43.42239" lon="6.07906">
        <ele>254.07836914062</ele>
        <time>2014-11-19T13:17:51Z</time>
      </trkpt>
      <trkpt lat="43.42239" lon="6.07906">
        <ele>254.06349182129</ele>
        <time>2014-11-19T13:17:53Z</time>
      </trkpt>
      <trkpt lat="43.42239" lon="6.07906">
        <ele>254.07150268555</ele>
        <time>2014-11-19T13:17:55Z</time>
      </trkpt>
      <trkpt lat="43.42239" lon="6.07906">
        <ele>254.07264709473</ele>
        <time>2014-11-19T13:17:57Z</time>
      </trkpt>
      <trkpt lat="43.42239" lon="6.07907">
        <ele>254.08638000488</ele>
        <time>2014-11-19T13:18:03Z</time>
      </trkpt>
      <trkpt lat="43.42239" lon="6.07907">
        <ele>254.08981323242</ele>
        <time>2014-11-19T13:18:05Z</time>
      </trkpt>
      <trkpt lat="43.42239" lon="6.07907">
        <ele>254.09324645996</ele>
        <time>2014-11-19T13:18:07Z</time>
      </trkpt>
      <trkpt lat="43.42238" lon="6.07908">
        <ele>254.07493591309</ele>
        <time>2014-11-19T13:18:09Z</time>
      </trkpt>
      <trkpt lat="43.42238" lon="6.07908">
        <ele>254.08065795898</ele>
        <time>2014-11-19T13:18:11Z</time>
      </trkpt>
      <trkpt lat="43.42238" lon="6.07908">
        <ele>254.08294677734</ele>
        <time>2014-11-19T13:18:13Z</time>
      </trkpt>
      <trkpt lat="43.42238" lon="6.07908">
        <ele>254.08752441406</ele>
        <time>2014-11-19T13:18:15Z</time>
      </trkpt>
      <trkpt lat="43.42238" lon="6.07908">
        <ele>254.09210205078</ele>
        <time>2014-11-19T13:18:17Z</time>
      </trkpt>
      <trkpt lat="43.42238" lon="6.07908">
        <ele>254.09553527832</ele>
        <time>2014-11-19T13:18:19Z</time>
      </trkpt>
      <trkpt lat="43.42238" lon="6.07909">
        <ele>254.11041259766</ele>
        <time>2014-11-19T13:18:20Z</time>
      </trkpt>
      <trkpt lat="43.42238" lon="6.0791">
        <ele>254.14245605469</ele>
        <time>2014-11-19T13:18:21Z</time>
      </trkpt>
      <trkpt lat="43.42239" lon="6.07914">
        <ele>254.25689697266</ele>
        <time>2014-11-19T13:18:23Z</time>
      </trkpt>
      <trkpt lat="43.42239" lon="6.0792">
        <ele>254.24458312988</ele>
        <time>2014-11-19T13:18:25Z</time>
      </trkpt>
      <trkpt lat="43.42241" lon="6.07925">
        <ele>254.107421875</ele>
        <time>2014-11-19T13:18:27Z</time>
      </trkpt>
      <trkpt lat="43.42242" lon="6.07929">
        <ele>254.02319335938</ele>
        <time>2014-11-19T13:18:29Z</time>
      </trkpt>
      <trkpt lat="43.42242" lon="6.07933">
        <ele>253.88677978516</ele>
        <time>2014-11-19T13:18:31Z</time>
      </trkpt>
      <trkpt lat="43.42242" lon="6.07935">
        <ele>253.82957458496</ele>
        <time>2014-11-19T13:18:32Z</time>
      </trkpt>
      <trkpt lat="43.42243" lon="6.07937">
        <ele>253.79461669922</ele>
        <time>2014-11-19T13:18:33Z</time>
      </trkpt>
      <trkpt lat="43.42244" lon="6.0794">
        <ele>253.72393798828</ele>
        <time>2014-11-19T13:18:35Z</time>
      </trkpt>
      <trkpt lat="43.42245" lon="6.07947">
        <ele>253.56062316894</ele>
        <time>2014-11-19T13:18:37Z</time>
      </trkpt>
      <trkpt lat="43.42246" lon="6.07955">
        <ele>253.33943176269</ele>
        <time>2014-11-19T13:18:39Z</time>
      </trkpt>
      <trkpt lat="43.42249" lon="6.07964">
        <ele>253.20616149902</ele>
        <time>2014-11-19T13:18:41Z</time>
      </trkpt>
      <trkpt lat="43.42251" lon="6.07969">
        <ele>253.20118713379</ele>
        <time>2014-11-19T13:18:42Z</time>
      </trkpt>
      <trkpt lat="43.42255" lon="6.07972">
        <ele>253.34471130371</ele>
        <time>2014-11-19T13:18:43Z</time>
      </trkpt>
      <trkpt lat="43.42262" lon="6.07972">
        <ele>253.88420104981</ele>
        <time>2014-11-19T13:18:45Z</time>
      </trkpt>
      <trkpt lat="43.4227" lon="6.07969">
        <ele>254.51052856445</ele>
        <time>2014-11-19T13:18:47Z</time>
      </trkpt>
      <trkpt lat="43.42278" lon="6.07967">
        <ele>255.15548706055</ele>
        <time>2014-11-19T13:18:49Z</time>
      </trkpt>
      <trkpt lat="43.42282" lon="6.07967">
        <ele>255.40165710449</ele>
        <time>2014-11-19T13:18:50Z</time>
      </trkpt>
      <trkpt lat="43.42285" lon="6.07967">
        <ele>255.60842895508</ele>
        <time>2014-11-19T13:18:51Z</time>
      </trkpt>
      <trkpt lat="43.42292" lon="6.07971">
        <ele>256.05169677734</ele>
        <time>2014-11-19T13:18:53Z</time>
      </trkpt>
      <trkpt lat="43.42298" lon="6.07979">
        <ele>256.36181640625</ele>
        <time>2014-11-19T13:18:55Z</time>
      </trkpt>
      <trkpt lat="43.42305" lon="6.07987">
        <ele>256.77478027344</ele>
        <time>2014-11-19T13:18:57Z</time>
      </trkpt>
      <trkpt lat="43.42312" lon="6.07995">
        <ele>257.24667358398</ele>
        <time>2014-11-19T13:18:59Z</time>
      </trkpt>
      <trkpt lat="43.42314" lon="6.07998">
        <ele>257.40747070312</ele>
        <time>2014-11-19T13:19:00Z</time>
      </trkpt>
      <trkpt lat="43.42316" lon="6.08">
        <ele>257.54727172852</ele>
        <time>2014-11-19T13:19:01Z</time>
      </trkpt>
      <trkpt lat="43.4232" lon="6.08004">
        <ele>257.88461303711</ele>
        <time>2014-11-19T13:19:03Z</time>
      </trkpt>
      <trkpt lat="43.42324" lon="6.08006">
        <ele>258.17269897461</ele>
        <time>2014-11-19T13:19:05Z</time>
      </trkpt>
      <trkpt lat="43.4233" lon="6.08004">
        <ele>258.69802856445</ele>
        <time>2014-11-19T13:19:09Z</time>
      </trkpt>
      <trkpt lat="43.42331" lon="6.08003">
        <ele>258.79620361328</ele>
        <time>2014-11-19T13:19:10Z</time>
      </trkpt>
      <trkpt lat="43.42332" lon="6.08003">
        <ele>258.86120605469</ele>
        <time>2014-11-19T13:19:11Z</time>
      </trkpt>
      <trkpt lat="43.42334" lon="6.08001">
        <ele>259.01275634766</ele>
        <time>2014-11-19T13:19:13Z</time>
      </trkpt>
      <trkpt lat="43.42337" lon="6.07997">
        <ele>259.04443359375</ele>
        <time>2014-11-19T13:19:15Z</time>
      </trkpt>
      <trkpt lat="43.42339" lon="6.07991">
        <ele>259.07189941406</ele>
        <time>2014-11-19T13:19:17Z</time>
      </trkpt>
      <trkpt lat="43.42341" lon="6.07985">
        <ele>259.09478759766</ele>
        <time>2014-11-19T13:19:19Z</time>
      </trkpt>
      <trkpt lat="43.42346" lon="6.07977">
        <ele>259.154296875</ele>
        <time>2014-11-19T13:19:22Z</time>
      </trkpt>
      <trkpt lat="43.42352" lon="6.07971">
        <ele>259.21838378906</ele>
        <time>2014-11-19T13:19:25Z</time>
      </trkpt>
      <trkpt lat="43.42355" lon="6.07965">
        <ele>259.25958251953</ele>
        <time>2014-11-19T13:19:27Z</time>
      </trkpt>
      <trkpt lat="43.42357" lon="6.07962">
        <ele>259.28247070312</ele>
        <time>2014-11-19T13:19:28Z</time>
      </trkpt>
      <trkpt lat="43.4236" lon="6.07959">
        <ele>259.31451416016</ele>
        <time>2014-11-19T13:19:29Z</time>
      </trkpt>
      <trkpt lat="43.42365" lon="6.07954">
        <ele>259.37860107422</ele>
        <time>2014-11-19T13:19:31Z</time>
      </trkpt>
      <trkpt lat="43.4237" lon="6.07948">
        <ele>259.43811035156</ele>
        <time>2014-11-19T13:19:33Z</time>
      </trkpt>
      <trkpt lat="43.42376" lon="6.07943">
        <ele>259.50677490234</ele>
        <time>2014-11-19T13:19:35Z</time>
      </trkpt>
      <trkpt lat="43.4238" lon="6.07936">
        <ele>259.55712890625</ele>
        <time>2014-11-19T13:19:37Z</time>
      </trkpt>
      <trkpt lat="43.42384" lon="6.0793">
        <ele>259.60290527344</ele>
        <time>2014-11-19T13:19:39Z</time>
      </trkpt>
      <trkpt lat="43.42388" lon="6.07925">
        <ele>259.65783691406</ele>
        <time>2014-11-19T13:19:41Z</time>
      </trkpt>
      <trkpt lat="43.42395" lon="6.07922">
        <ele>259.740234375</ele>
        <time>2014-11-19T13:19:43Z</time>
      </trkpt>
      <trkpt lat="43.42402" lon="6.07921">
        <ele>259.82720947266</ele>
        <time>2014-11-19T13:19:45Z</time>
      </trkpt>
      <trkpt lat="43.42413" lon="6.07918">
        <ele>259.95080566406</ele>
        <time>2014-11-19T13:19:49Z</time>
      </trkpt>
      <trkpt lat="43.42416" lon="6.07917">
        <ele>259.98742675781</ele>
        <time>2014-11-19T13:19:50Z</time>
      </trkpt>
      <trkpt lat="43.42418" lon="6.07917">
        <ele>260.00012207031</ele>
        <time>2014-11-19T13:19:51Z</time>
      </trkpt>
      <trkpt lat="43.42425" lon="6.07917">
        <ele>260.00164794922</ele>
        <time>2014-11-19T13:19:53Z</time>
      </trkpt>
      <trkpt lat="43.42429" lon="6.07917">
        <ele>260.0026550293</ele>
        <time>2014-11-19T13:19:54Z</time>
      </trkpt>
      <trkpt lat="43.42432" lon="6.07918">
        <ele>260.00793457031</ele>
        <time>2014-11-19T13:19:55Z</time>
      </trkpt>
      <trkpt lat="43.42439" lon="6.07919">
        <ele>260.02490234375</ele>
        <time>2014-11-19T13:19:57Z</time>
      </trkpt>
      <trkpt lat="43.42447" lon="6.07921">
        <ele>260.05807495117</ele>
        <time>2014-11-19T13:19:59Z</time>
      </trkpt>
      <trkpt lat="43.42454" lon="6.07923">
        <ele>260.09841918945</ele>
        <time>2014-11-19T13:20:01Z</time>
      </trkpt>
      <trkpt lat="43.42459" lon="6.07922">
        <ele>260.09216308594</ele>
        <time>2014-11-19T13:20:03Z</time>
      </trkpt>
      <trkpt lat="43.42463" lon="6.07918">
        <ele>260.02331542969</ele>
        <time>2014-11-19T13:20:05Z</time>
      </trkpt>
      <trkpt lat="43.42464" lon="6.07917">
        <ele>260.00244140625</ele>
        <time>2014-11-19T13:20:06Z</time>
      </trkpt>
      <trkpt lat="43.42464" lon="6.07916">
        <ele>260.009765625</ele>
        <time>2014-11-19T13:20:07Z</time>
      </trkpt>
      <trkpt lat="43.42465" lon="6.07915">
        <ele>260.03952026367</ele>
        <time>2014-11-19T13:20:09Z</time>
      </trkpt>
      <trkpt lat="43.42466" lon="6.07915">
        <ele>260.04754638672</ele>
        <time>2014-11-19T13:20:11Z</time>
      </trkpt>
      <trkpt lat="43.42466" lon="6.07915">
        <ele>260.05096435547</ele>
        <time>2014-11-19T13:20:12Z</time>
      </trkpt>
      <trkpt lat="43.42466" lon="6.07914">
        <ele>260.05670166016</ele>
        <time>2014-11-19T13:20:13Z</time>
      </trkpt>
      <trkpt lat="43.42466" lon="6.07914">
        <ele>260.06927490234</ele>
        <time>2014-11-19T13:20:15Z</time>
      </trkpt>
      <trkpt lat="43.42465" lon="6.07913">
        <ele>260.07843017578</ele>
        <time>2014-11-19T13:20:17Z</time>
      </trkpt>
      <trkpt lat="43.42465" lon="6.07913">
        <ele>260.08758544922</ele>
        <time>2014-11-19T13:20:19Z</time>
      </trkpt>
      <trkpt lat="43.42466" lon="6.07913">
        <ele>260.09902954102</ele>
        <time>2014-11-19T13:20:20Z</time>
      </trkpt>
      <trkpt lat="43.42469" lon="6.0791">
        <ele>260.15509033203</ele>
        <time>2014-11-19T13:20:23Z</time>
      </trkpt>
      <trkpt lat="43.42473" lon="6.07907">
        <ele>260.22491455078</ele>
        <time>2014-11-19T13:20:25Z</time>
      </trkpt>
      <trkpt lat="43.42477" lon="6.07906">
        <ele>260.26495361328</ele>
        <time>2014-11-19T13:20:27Z</time>
      </trkpt>
      <trkpt lat="43.42482" lon="6.07904">
        <ele>260.30044555664</ele>
        <time>2014-11-19T13:20:29Z</time>
      </trkpt>
      <trkpt lat="43.42487" lon="6.07902">
        <ele>260.35308837891</ele>
        <time>2014-11-19T13:20:31Z</time>
      </trkpt>
      <trkpt lat="43.42493" lon="6.079">
        <ele>260.40686035156</ele>
        <time>2014-11-19T13:20:33Z</time>
      </trkpt>
      <trkpt lat="43.42496" lon="6.07899">
        <ele>260.43206787109</ele>
        <time>2014-11-19T13:20:34Z</time>
      </trkpt>
      <trkpt lat="43.42499" lon="6.07898">
        <ele>260.44235229492</ele>
        <time>2014-11-19T13:20:35Z</time>
      </trkpt>
      <trkpt lat="43.42505" lon="6.07897">
        <ele>260.71667480469</ele>
        <time>2014-11-19T13:20:37Z</time>
      </trkpt>
      <trkpt lat="43.42511" lon="6.07897">
        <ele>261.05731201172</ele>
        <time>2014-11-19T13:20:39Z</time>
      </trkpt>
      <trkpt lat="43.42516" lon="6.07896">
        <ele>261.38223266602</ele>
        <time>2014-11-19T13:20:41Z</time>
      </trkpt>
      <trkpt lat="43.42522" lon="6.07895">
        <ele>261.73016357422</ele>
        <time>2014-11-19T13:20:43Z</time>
      </trkpt>
      <trkpt lat="43.42528" lon="6.07895">
        <ele>262.02072143555</ele>
        <time>2014-11-19T13:20:45Z</time>
      </trkpt>
      <trkpt lat="43.42533" lon="6.07895">
        <ele>262.32479858398</ele>
        <time>2014-11-19T13:20:47Z</time>
      </trkpt>
      <trkpt lat="43.42539" lon="6.07897">
        <ele>262.60162353516</ele>
        <time>2014-11-19T13:20:49Z</time>
      </trkpt>
      <trkpt lat="43.42542" lon="6.07898">
        <ele>262.71112060547</ele>
        <time>2014-11-19T13:20:50Z</time>
      </trkpt>
      <trkpt lat="43.42546" lon="6.07901">
        <ele>262.93807983398</ele>
        <time>2014-11-19T13:20:53Z</time>
      </trkpt>
      <trkpt lat="43.42548" lon="6.07903">
        <ele>262.99554443359</ele>
        <time>2014-11-19T13:20:55Z</time>
      </trkpt>
      <trkpt lat="43.4255" lon="6.07908">
        <ele>263.05239868164</ele>
        <time>2014-11-19T13:20:57Z</time>
      </trkpt>
      <trkpt lat="43.42552" lon="6.07915">
        <ele>263.12750244141</ele>
        <time>2014-11-19T13:20:59Z</time>
      </trkpt>
      <trkpt lat="43.42554" lon="6.07922">
        <ele>263.36480712891</ele>
        <time>2014-11-19T13:21:01Z</time>
      </trkpt>
      <trkpt lat="43.42555" lon="6.07925">
        <ele>263.52243041992</ele>
        <time>2014-11-19T13:21:02Z</time>
      </trkpt>
      <trkpt lat="43.42556" lon="6.07927">
        <ele>263.63134765625</ele>
        <time>2014-11-19T13:21:03Z</time>
      </trkpt>
      <trkpt lat="43.42558" lon="6.07932">
        <ele>263.86318969727</ele>
        <time>2014-11-19T13:21:05Z</time>
      </trkpt>
      <trkpt lat="43.42561" lon="6.07936">
        <ele>264.16070556641</ele>
        <time>2014-11-19T13:21:07Z</time>
      </trkpt>
      <trkpt lat="43.42564" lon="6.0794">
        <ele>264.48733520508</ele>
        <time>2014-11-19T13:21:09Z</time>
      </trkpt>
      <trkpt lat="43.42566" lon="6.07942">
        <ele>264.64331054688</ele>
        <time>2014-11-19T13:21:10Z</time>
      </trkpt>
      <trkpt lat="43.42568" lon="6.07944">
        <ele>264.77435302734</ele>
        <time>2014-11-19T13:21:11Z</time>
      </trkpt>
      <trkpt lat="43.42572" lon="6.07946">
        <ele>265.06442260742</ele>
        <time>2014-11-19T13:21:13Z</time>
      </trkpt>
      <trkpt lat="43.42574" lon="6.07948">
        <ele>265.22817993164</ele>
        <time>2014-11-19T13:21:15Z</time>
      </trkpt>
      <trkpt lat="43.42578" lon="6.0795">
        <ele>265.49310302734</ele>
        <time>2014-11-19T13:21:17Z</time>
      </trkpt>
      <trkpt lat="43.42579" lon="6.07951">
        <ele>265.5774230957</ele>
        <time>2014-11-19T13:21:18Z</time>
      </trkpt>
      <trkpt lat="43.4258" lon="6.07952">
        <ele>265.66494750977</ele>
        <time>2014-11-19T13:21:19Z</time>
      </trkpt>
      <trkpt lat="43.42583" lon="6.07955">
        <ele>265.93399047852</ele>
        <time>2014-11-19T13:21:21Z</time>
      </trkpt>
      <trkpt lat="43.42587" lon="6.07958">
        <ele>266.59341430664</ele>
        <time>2014-11-19T13:21:23Z</time>
      </trkpt>
      <trkpt lat="43.42588" lon="6.0796">
        <ele>266.82339477539</ele>
        <time>2014-11-19T13:21:24Z</time>
      </trkpt>
      <trkpt lat="43.42592" lon="6.07965">
        <ele>267.55834960938</ele>
        <time>2014-11-19T13:21:27Z</time>
      </trkpt>
      <trkpt lat="43.42598" lon="6.07971">
        <ele>268.71975708008</ele>
        <time>2014-11-19T13:21:31Z</time>
      </trkpt>
      <trkpt lat="43.42603" lon="6.07976">
        <ele>269.44906616211</ele>
        <time>2014-11-19T13:21:33Z</time>
      </trkpt>
      <trkpt lat="43.42607" lon="6.07981">
        <ele>270.17364501953</ele>
        <time>2014-11-19T13:21:35Z</time>
      </trkpt>
      <trkpt lat="43.42609" lon="6.07984">
        <ele>270.49844360352</ele>
        <time>2014-11-19T13:21:36Z</time>
      </trkpt>
      <trkpt lat="43.4261" lon="6.07988">
        <ele>270.76193237305</ele>
        <time>2014-11-19T13:21:37Z</time>
      </trkpt>
      <trkpt lat="43.42615" lon="6.08005">
        <ele>271.93524169922</ele>
        <time>2014-11-19T13:21:42Z</time>
      </trkpt>
      <trkpt lat="43.42616" lon="6.08008">
        <ele>272.25799560547</ele>
        <time>2014-11-19T13:21:43Z</time>
      </trkpt>
      <trkpt lat="43.42616" lon="6.08019">
        <ele>273.01324462891</ele>
        <time>2014-11-19T13:21:46Z</time>
      </trkpt>
      <trkpt lat="43.42616" lon="6.0803">
        <ele>273.89465332031</ele>
        <time>2014-11-19T13:21:49Z</time>
      </trkpt>
      <trkpt lat="43.42616" lon="6.08038">
        <ele>274.43237304688</ele>
        <time>2014-11-19T13:21:51Z</time>
      </trkpt>
      <trkpt lat="43.42616" lon="6.08046">
        <ele>275.02603149414</ele>
        <time>2014-11-19T13:21:53Z</time>
      </trkpt>
      <trkpt lat="43.42616" lon="6.08053">
        <ele>275.57864379883</ele>
        <time>2014-11-19T13:21:55Z</time>
      </trkpt>
      <trkpt lat="43.42617" lon="6.08059">
        <ele>276.07305908203</ele>
        <time>2014-11-19T13:21:57Z</time>
      </trkpt>
      <trkpt lat="43.4262" lon="6.08069">
        <ele>276.94882202148</ele>
        <time>2014-11-19T13:22:00Z</time>
      </trkpt>
      <trkpt lat="43.42622" lon="6.08072">
        <ele>277.22912597656</ele>
        <time>2014-11-19T13:22:01Z</time>
      </trkpt>
      <trkpt lat="43.42626" lon="6.08077">
        <ele>277.66650390625</ele>
        <time>2014-11-19T13:22:03Z</time>
      </trkpt>
      <trkpt lat="43.42629" lon="6.08081">
        <ele>277.95303344727</ele>
        <time>2014-11-19T13:22:05Z</time>
      </trkpt>
      <trkpt lat="43.42631" lon="6.08082">
        <ele>278.06747436523</ele>
        <time>2014-11-19T13:22:06Z</time>
      </trkpt>
      <trkpt lat="43.42633" lon="6.08082">
        <ele>278.13803100586</ele>
        <time>2014-11-19T13:22:07Z</time>
      </trkpt>
      <trkpt lat="43.42638" lon="6.08081">
        <ele>278.21194458008</ele>
        <time>2014-11-19T13:22:09Z</time>
      </trkpt>
      <trkpt lat="43.42641" lon="6.08079">
        <ele>278.24362182617</ele>
        <time>2014-11-19T13:22:10Z</time>
      </trkpt>
      <trkpt lat="43.42644" lon="6.08078">
        <ele>278.2626953125</ele>
        <time>2014-11-19T13:22:11Z</time>
      </trkpt>
      <trkpt lat="43.42649" lon="6.08073">
        <ele>278.32382202148</ele>
        <time>2014-11-19T13:22:13Z</time>
      </trkpt>
      <trkpt lat="43.42656" lon="6.08069">
        <ele>278.50573730469</ele>
        <time>2014-11-19T13:22:15Z</time>
      </trkpt>
      <trkpt lat="43.42658" lon="6.08068">
        <ele>278.61474609375</ele>
        <time>2014-11-19T13:22:16Z</time>
      </trkpt>
      <trkpt lat="43.42661" lon="6.08069">
        <ele>278.76080322266</ele>
        <time>2014-11-19T13:22:17Z</time>
      </trkpt>
      <trkpt lat="43.42667" lon="6.08073">
        <ele>279.01089477539</ele>
        <time>2014-11-19T13:22:19Z</time>
      </trkpt>
      <trkpt lat="43.4267" lon="6.08075">
        <ele>279.04895019531</ele>
        <time>2014-11-19T13:22:20Z</time>
      </trkpt>
      <trkpt lat="43.42675" lon="6.08081">
        <ele>279.10119628906</ele>
        <time>2014-11-19T13:22:22Z</time>
      </trkpt>
      <trkpt lat="43.42677" lon="6.08084">
        <ele>279.13034057617</ele>
        <time>2014-11-19T13:22:23Z</time>
      </trkpt>
      <trkpt lat="43.42682" lon="6.08089">
        <ele>279.30181884766</ele>
        <time>2014-11-19T13:22:25Z</time>
      </trkpt>
      <trkpt lat="43.42685" lon="6.08091">
        <ele>279.36404418945</ele>
        <time>2014-11-19T13:22:26Z</time>
      </trkpt>
      <trkpt lat="43.42692" lon="6.08097">
        <ele>279.5383605957</ele>
        <time>2014-11-19T13:22:29Z</time>
      </trkpt>
      <trkpt lat="43.42697" lon="6.08101">
        <ele>279.63693237305</ele>
        <time>2014-11-19T13:22:31Z</time>
      </trkpt>
      <trkpt lat="43.42699" lon="6.08103">
        <ele>279.68362426758</ele>
        <time>2014-11-19T13:22:32Z</time>
      </trkpt>
      <trkpt lat="43.42702" lon="6.08105">
        <ele>279.72662353516</ele>
        <time>2014-11-19T13:22:33Z</time>
      </trkpt>
      <trkpt lat="43.42708" lon="6.08109">
        <ele>279.80621337891</ele>
        <time>2014-11-19T13:22:35Z</time>
      </trkpt>
      <trkpt lat="43.42711" lon="6.08111">
        <ele>279.84280395508</ele>
        <time>2014-11-19T13:22:36Z</time>
      </trkpt>
      <trkpt lat="43.42714" lon="6.08113">
        <ele>279.87435913086</ele>
        <time>2014-11-19T13:22:37Z</time>
      </trkpt>
      <trkpt lat="43.42719" lon="6.08117">
        <ele>279.9241027832</ele>
        <time>2014-11-19T13:22:39Z</time>
      </trkpt>
      <trkpt lat="43.42723" lon="6.08121">
        <ele>279.97094726562</ele>
        <time>2014-11-19T13:22:41Z</time>
      </trkpt>
      <trkpt lat="43.42729" lon="6.08131">
        <ele>280.03591918945</ele>
        <time>2014-11-19T13:22:44Z</time>
      </trkpt>
      <trkpt lat="43.42731" lon="6.08134">
        <ele>280.04891967773</ele>
        <time>2014-11-19T13:22:45Z</time>
      </trkpt>
      <trkpt lat="43.42736" lon="6.08139">
        <ele>280.05810546875</ele>
        <time>2014-11-19T13:22:47Z</time>
      </trkpt>
      <trkpt lat="43.42739" lon="6.08141">
        <ele>280.04928588867</ele>
        <time>2014-11-19T13:22:48Z</time>
      </trkpt>
      <trkpt lat="43.42743" lon="6.08142">
        <ele>280.03378295898</ele>
        <time>2014-11-19T13:22:49Z</time>
      </trkpt>
      <trkpt lat="43.4275" lon="6.08143">
        <ele>280.00109863281</ele>
        <time>2014-11-19T13:22:51Z</time>
      </trkpt>
      <trkpt lat="43.42753" lon="6.08146">
        <ele>280</ele>
        <time>2014-11-19T13:22:52Z</time>
      </trkpt>
      <trkpt lat="43.42754" lon="6.08149">
        <ele>280</ele>
        <time>2014-11-19T13:22:53Z</time>
      </trkpt>
      <trkpt lat="43.42759" lon="6.08156">
        <ele>280</ele>
        <time>2014-11-19T13:22:55Z</time>
      </trkpt>
      <trkpt lat="43.42763" lon="6.08162">
        <ele>280</ele>
        <time>2014-11-19T13:22:57Z</time>
      </trkpt>
      <trkpt lat="43.42768" lon="6.08168">
        <ele>280.02755737305</ele>
        <time>2014-11-19T13:22:59Z</time>
      </trkpt>
      <trkpt lat="43.4277" lon="6.08171">
        <ele>280.07397460938</ele>
        <time>2014-11-19T13:23:00Z</time>
      </trkpt>
      <trkpt lat="43.42772" lon="6.08173">
        <ele>280.11785888672</ele>
        <time>2014-11-19T13:23:01Z</time>
      </trkpt>
      <trkpt lat="43.42776" lon="6.0818">
        <ele>280.22039794922</ele>
        <time>2014-11-19T13:23:03Z</time>
      </trkpt>
      <trkpt lat="43.42777" lon="6.08184">
        <ele>280.28036499023</ele>
        <time>2014-11-19T13:23:04Z</time>
      </trkpt>
      <trkpt lat="43.42777" lon="6.08188">
        <ele>280.33700561523</ele>
        <time>2014-11-19T13:23:05Z</time>
      </trkpt>
      <trkpt lat="43.42779" lon="6.08196">
        <ele>280.45275878906</ele>
        <time>2014-11-19T13:23:07Z</time>
      </trkpt>
      <trkpt lat="43.4278" lon="6.08203">
        <ele>280.56594848633</ele>
        <time>2014-11-19T13:23:09Z</time>
      </trkpt>
      <trkpt lat="43.42781" lon="6.08219">
        <ele>280.79428100586</ele>
        <time>2014-11-19T13:23:13Z</time>
      </trkpt>
      <trkpt lat="43.42783" lon="6.08227">
        <ele>280.87490844727</ele>
        <time>2014-11-19T13:23:15Z</time>
      </trkpt>
      <trkpt lat="43.42787" lon="6.0824">
        <ele>280.97094726562</ele>
        <time>2014-11-19T13:23:19Z</time>
      </trkpt>
      <trkpt lat="43.42789" lon="6.08246">
        <ele>281.02221679688</ele>
        <time>2014-11-19T13:23:21Z</time>
      </trkpt>
      <trkpt lat="43.42791" lon="6.08252">
        <ele>281.10491943359</ele>
        <time>2014-11-19T13:23:23Z</time>
      </trkpt>
      <trkpt lat="43.42794" lon="6.08256">
        <ele>281.22698974609</ele>
        <time>2014-11-19T13:23:25Z</time>
      </trkpt>
      <trkpt lat="43.42797" lon="6.08257">
        <ele>281.1985168457</ele>
        <time>2014-11-19T13:23:26Z</time>
      </trkpt>
      <trkpt lat="43.42799" lon="6.08256">
        <ele>281.12182617188</ele>
        <time>2014-11-19T13:23:27Z</time>
      </trkpt>
      <trkpt lat="43.42806" lon="6.08256">
        <ele>280.89559936523</ele>
        <time>2014-11-19T13:23:30Z</time>
      </trkpt>
      <trkpt lat="43.42809" lon="6.08256">
        <ele>280.82626342773</ele>
        <time>2014-11-19T13:23:31Z</time>
      </trkpt>
      <trkpt lat="43.42813" lon="6.08257">
        <ele>280.69839477539</ele>
        <time>2014-11-19T13:23:33Z</time>
      </trkpt>
      <trkpt lat="43.42818" lon="6.08258">
        <ele>280.58502197266</ele>
        <time>2014-11-19T13:23:35Z</time>
      </trkpt>
      <trkpt lat="43.42824" lon="6.08265">
        <ele>280.53268432617</ele>
        <time>2014-11-19T13:23:37Z</time>
      </trkpt>
      <trkpt lat="43.42829" lon="6.08273">
        <ele>280.49905395508</ele>
        <time>2014-11-19T13:23:39Z</time>
      </trkpt>
      <trkpt lat="43.42833" lon="6.08283">
        <ele>280.43685913086</ele>
        <time>2014-11-19T13:23:41Z</time>
      </trkpt>
      <trkpt lat="43.42835" lon="6.08294">
        <ele>280.55017089844</ele>
        <time>2014-11-19T13:23:43Z</time>
      </trkpt>
      <trkpt lat="43.42836" lon="6.08304">
        <ele>280.67929077148</ele>
        <time>2014-11-19T13:23:45Z</time>
      </trkpt>
      <trkpt lat="43.42837" lon="6.08314">
        <ele>280.79922485352</ele>
        <time>2014-11-19T13:23:47Z</time>
      </trkpt>
      <trkpt lat="43.42838" lon="6.08323">
        <ele>280.89437866211</ele>
        <time>2014-11-19T13:23:49Z</time>
      </trkpt>
      <trkpt lat="43.4284" lon="6.0833">
        <ele>280.96997070312</ele>
        <time>2014-11-19T13:23:51Z</time>
      </trkpt>
      <trkpt lat="43.42842" lon="6.08337">
        <ele>281.20950317383</ele>
        <time>2014-11-19T13:23:53Z</time>
      </trkpt>
      <trkpt lat="43.42844" lon="6.08345">
        <ele>281.61178588867</ele>
        <time>2014-11-19T13:23:55Z</time>
      </trkpt>
      <trkpt lat="43.42845" lon="6.0835">
        <ele>281.80560302734</ele>
        <time>2014-11-19T13:23:56Z</time>
      </trkpt>
      <trkpt lat="43.42848" lon="6.08363">
        <ele>282.39538574219</ele>
        <time>2014-11-19T13:23:59Z</time>
      </trkpt>
      <trkpt lat="43.4285" lon="6.08372">
        <ele>282.74545288086</ele>
        <time>2014-11-19T13:24:01Z</time>
      </trkpt>
      <trkpt lat="43.42853" lon="6.08381">
        <ele>283.05010986328</ele>
        <time>2014-11-19T13:24:03Z</time>
      </trkpt>
      <trkpt lat="43.42856" lon="6.08398">
        <ele>283.58453369141</ele>
        <time>2014-11-19T13:24:07Z</time>
      </trkpt>
      <trkpt lat="43.42858" lon="6.08405">
        <ele>283.76751708984</ele>
        <time>2014-11-19T13:24:09Z</time>
      </trkpt>
      <trkpt lat="43.42861" lon="6.08413">
        <ele>283.88394165039</ele>
        <time>2014-11-19T13:24:11Z</time>
      </trkpt>
      <trkpt lat="43.4287" lon="6.08426">
        <ele>283.72695922852</ele>
        <time>2014-11-19T13:24:15Z</time>
      </trkpt>
      <trkpt lat="43.42881" lon="6.0844">
        <ele>283.26293945312</ele>
        <time>2014-11-19T13:24:19Z</time>
      </trkpt>
      <trkpt lat="43.42886" lon="6.08448">
        <ele>282.9990234375</ele>
        <time>2014-11-19T13:24:21Z</time>
      </trkpt>
      <trkpt lat="43.42891" lon="6.08456">
        <ele>282.71685791016</ele>
        <time>2014-11-19T13:24:23Z</time>
      </trkpt>
      <trkpt lat="43.42896" lon="6.08464">
        <ele>282.3388671875</ele>
        <time>2014-11-19T13:24:25Z</time>
      </trkpt>
      <trkpt lat="43.42901" lon="6.08472">
        <ele>281.89663696289</ele>
        <time>2014-11-19T13:24:27Z</time>
      </trkpt>
      <trkpt lat="43.42906" lon="6.08481">
        <ele>281.33444213867</ele>
        <time>2014-11-19T13:24:29Z</time>
      </trkpt>
      <trkpt lat="43.42916" lon="6.08492">
        <ele>280.02447509766</ele>
        <time>2014-11-19T13:24:32Z</time>
      </trkpt>
      <trkpt lat="43.42928" lon="6.08503">
        <ele>280.52661132812</ele>
        <time>2014-11-19T13:24:35Z</time>
      </trkpt>
      <trkpt lat="43.42936" lon="6.08513">
        <ele>280.82083129883</ele>
        <time>2014-11-19T13:24:37Z</time>
      </trkpt>
      <trkpt lat="43.42939" lon="6.08518">
        <ele>280.89602661133</ele>
        <time>2014-11-19T13:24:38Z</time>
      </trkpt>
      <trkpt lat="43.42941" lon="6.08524">
        <ele>280.92755126953</ele>
        <time>2014-11-19T13:24:39Z</time>
      </trkpt>
      <trkpt lat="43.42946" lon="6.08543">
        <ele>280.8642578125</ele>
        <time>2014-11-19T13:24:42Z</time>
      </trkpt>
      <trkpt lat="43.42948" lon="6.08548">
        <ele>280.85614013672</ele>
        <time>2014-11-19T13:24:43Z</time>
      </trkpt>
      <trkpt lat="43.42952" lon="6.08559">
        <ele>280.78335571289</ele>
        <time>2014-11-19T13:24:45Z</time>
      </trkpt>
      <trkpt lat="43.42957" lon="6.08583">
        <ele>280.48513793945</ele>
        <time>2014-11-19T13:24:49Z</time>
      </trkpt>
      <trkpt lat="43.42963" lon="6.08606">
        <ele>280.7951965332</ele>
        <time>2014-11-19T13:24:53Z</time>
      </trkpt>
      <trkpt lat="43.42966" lon="6.08617">
        <ele>280.92202758789</ele>
        <time>2014-11-19T13:24:55Z</time>
      </trkpt>
      <trkpt lat="43.42968" lon="6.08623">
        <ele>280.97894287109</ele>
        <time>2014-11-19T13:24:56Z</time>
      </trkpt>
      <trkpt lat="43.42969" lon="6.08628">
        <ele>281.0290222168</ele>
        <time>2014-11-19T13:24:57Z</time>
      </trkpt>
      <trkpt lat="43.42971" lon="6.0864">
        <ele>281.12545776367</ele>
        <time>2014-11-19T13:24:59Z</time>
      </trkpt>
      <trkpt lat="43.42974" lon="6.08653">
        <ele>281.2028503418</ele>
        <time>2014-11-19T13:25:01Z</time>
      </trkpt>
      <trkpt lat="43.4298" lon="6.08675">
        <ele>281.56103515625</ele>
        <time>2014-11-19T13:25:05Z</time>
      </trkpt>
      <trkpt lat="43.42982" lon="6.08686">
        <ele>281.96118164062</ele>
        <time>2014-11-19T13:25:07Z</time>
      </trkpt>
      <trkpt lat="43.42985" lon="6.08697">
        <ele>282.32897949219</ele>
        <time>2014-11-19T13:25:09Z</time>
      </trkpt>
      <trkpt lat="43.42997" lon="6.08726">
        <ele>283.18765258789</ele>
        <time>2014-11-19T13:25:15Z</time>
      </trkpt>
      <trkpt lat="43.43001" lon="6.08736">
        <ele>283.59164428711</ele>
        <time>2014-11-19T13:25:17Z</time>
      </trkpt>
      <trkpt lat="43.43005" lon="6.08746">
        <ele>284.45651245117</ele>
        <time>2014-11-19T13:25:19Z</time>
      </trkpt>
      <trkpt lat="43.43006" lon="6.08751">
        <ele>284.85546875</ele>
        <time>2014-11-19T13:25:20Z</time>
      </trkpt>
      <trkpt lat="43.4301" lon="6.08765">
        <ele>286.28771972656</ele>
        <time>2014-11-19T13:25:23Z</time>
      </trkpt>
      <trkpt lat="43.4301" lon="6.08776">
        <ele>287.01123046875</ele>
        <time>2014-11-19T13:25:25Z</time>
      </trkpt>
      <trkpt lat="43.4301" lon="6.08781">
        <ele>287.34371948242</ele>
        <time>2014-11-19T13:25:26Z</time>
      </trkpt>
      <trkpt lat="43.43011" lon="6.08796">
        <ele>288.37579345703</ele>
        <time>2014-11-19T13:25:29Z</time>
      </trkpt>
      <trkpt lat="43.43012" lon="6.08807">
        <ele>289.2135925293</ele>
        <time>2014-11-19T13:25:31Z</time>
      </trkpt>
      <trkpt lat="43.43013" lon="6.08817">
        <ele>289.93923950195</ele>
        <time>2014-11-19T13:25:33Z</time>
      </trkpt>
      <trkpt lat="43.43015" lon="6.08822">
        <ele>290.34622192383</ele>
        <time>2014-11-19T13:25:34Z</time>
      </trkpt>
      <trkpt lat="43.43018" lon="6.08835">
        <ele>291.35021972656</ele>
        <time>2014-11-19T13:25:37Z</time>
      </trkpt>
      <trkpt lat="43.43019" lon="6.08843">
        <ele>291.86511230469</ele>
        <time>2014-11-19T13:25:39Z</time>
      </trkpt>
      <trkpt lat="43.4302" lon="6.08852">
        <ele>292.31854248047</ele>
        <time>2014-11-19T13:25:41Z</time>
      </trkpt>
      <trkpt lat="43.43017" lon="6.08867">
        <ele>292.91879272461</ele>
        <time>2014-11-19T13:25:45Z</time>
      </trkpt>
      <trkpt lat="43.43017" lon="6.08874">
        <ele>293.26336669922</ele>
        <time>2014-11-19T13:25:47Z</time>
      </trkpt>
      <trkpt lat="43.43017" lon="6.08882">
        <ele>293.67599487305</ele>
        <time>2014-11-19T13:25:49Z</time>
      </trkpt>
      <trkpt lat="43.43019" lon="6.08889">
        <ele>294.10684204102</ele>
        <time>2014-11-19T13:25:51Z</time>
      </trkpt>
      <trkpt lat="43.43018" lon="6.08897">
        <ele>294.48773193359</ele>
        <time>2014-11-19T13:25:53Z</time>
      </trkpt>
      <trkpt lat="43.43017" lon="6.08904">
        <ele>294.77484130859</ele>
        <time>2014-11-19T13:25:55Z</time>
      </trkpt>
      <trkpt lat="43.43015" lon="6.08912">
        <ele>295.13702392578</ele>
        <time>2014-11-19T13:25:58Z</time>
      </trkpt>
      <trkpt lat="43.43013" lon="6.08918">
        <ele>295.39151000977</ele>
        <time>2014-11-19T13:26:01Z</time>
      </trkpt>
      <trkpt lat="43.43013" lon="6.08922">
        <ele>295.53042602539</ele>
        <time>2014-11-19T13:26:03Z</time>
      </trkpt>
      <trkpt lat="43.43014" lon="6.08924">
        <ele>295.64904785156</ele>
        <time>2014-11-19T13:26:05Z</time>
      </trkpt>
      <trkpt lat="43.43014" lon="6.08926">
        <ele>295.74130249023</ele>
        <time>2014-11-19T13:26:07Z</time>
      </trkpt>
      <trkpt lat="43.43014" lon="6.08928">
        <ele>295.80078125</ele>
        <time>2014-11-19T13:26:09Z</time>
      </trkpt>
      <trkpt lat="43.43014" lon="6.08928">
        <ele>295.80746459961</ele>
        <time>2014-11-19T13:26:11Z</time>
      </trkpt>
      <trkpt lat="43.43014" lon="6.08928">
        <ele>295.80346679688</ele>
        <time>2014-11-19T13:26:12Z</time>
      </trkpt>
      <trkpt lat="43.43014" lon="6.08928">
        <ele>295.80346679688</ele>
        <time>2014-11-19T13:26:15Z</time>
      </trkpt>
      <trkpt lat="43.43014" lon="6.08928">
        <ele>295.80145263672</ele>
        <time>2014-11-19T13:26:37Z</time>
      </trkpt>
      <trkpt lat="43.43014" lon="6.08927">
        <ele>295.78341674805</ele>
        <time>2014-11-19T13:27:25Z</time>
      </trkpt>
      <trkpt lat="43.43014" lon="6.08927">
        <ele>295.78140258789</ele>
        <time>2014-11-19T13:27:29Z</time>
      </trkpt>
      <trkpt lat="43.43014" lon="6.08927">
        <ele>295.78140258789</ele>
        <time>2014-11-19T13:27:31Z</time>
      </trkpt>
      <trkpt lat="43.43014" lon="6.08927">
        <ele>295.7887878418</ele>
        <time>2014-11-19T13:27:33Z</time>
      </trkpt>
      <trkpt lat="43.43014" lon="6.08927">
        <ele>295.7887878418</ele>
        <time>2014-11-19T13:27:39Z</time>
      </trkpt>
      <trkpt lat="43.43014" lon="6.08927">
        <ele>295.7887878418</ele>
        <time>2014-11-19T13:27:57Z</time>
      </trkpt>
      <trkpt lat="43.43014" lon="6.08928">
        <ele>295.79479980469</ele>
        <time>2014-11-19T13:28:05Z</time>
      </trkpt>
      <trkpt lat="43.43014" lon="6.08928">
        <ele>295.79879760742</ele>
        <time>2014-11-19T13:28:09Z</time>
      </trkpt>
      <trkpt lat="43.43014" lon="6.08928">
        <ele>295.80078125</ele>
        <time>2014-11-19T13:28:10Z</time>
      </trkpt>
      <trkpt lat="43.43014" lon="6.08928">
        <ele>295.80078125</ele>
        <time>2014-11-19T13:28:12Z</time>
      </trkpt>
      <trkpt lat="43.43014" lon="6.08928">
        <ele>295.79342651367</ele>
        <time>2014-11-19T13:28:13Z</time>
      </trkpt>
      <trkpt lat="43.43014" lon="6.08928">
        <ele>295.79342651367</ele>
        <time>2014-11-19T13:28:19Z</time>
      </trkpt>
      <trkpt lat="43.43014" lon="6.08928">
        <ele>295.79342651367</ele>
        <time>2014-11-19T13:28:29Z</time>
      </trkpt>
      <trkpt lat="43.43014" lon="6.08928">
        <ele>295.78942871094</ele>
        <time>2014-11-19T13:28:31Z</time>
      </trkpt>
      <trkpt lat="43.43014" lon="6.08928">
        <ele>295.80346679688</ele>
        <time>2014-11-19T13:28:35Z</time>
      </trkpt>
      <trkpt lat="43.43014" lon="6.08928">
        <ele>295.80877685547</ele>
        <time>2014-11-19T13:28:41Z</time>
      </trkpt>
      <trkpt lat="43.43014" lon="6.08928">
        <ele>295.79946899414</ele>
        <time>2014-11-19T13:28:43Z</time>
      </trkpt>
      <trkpt lat="43.43014" lon="6.08928">
        <ele>295.79946899414</ele>
        <time>2014-11-19T13:28:49Z</time>
      </trkpt>
      <trkpt lat="43.43014" lon="6.08928">
        <ele>295.79946899414</ele>
        <time>2014-11-19T13:29:11Z</time>
      </trkpt>
      <trkpt lat="43.43014" lon="6.08928">
        <ele>295.79745483398</ele>
        <time>2014-11-19T13:29:13Z</time>
      </trkpt>
      <trkpt lat="43.43014" lon="6.08928">
        <ele>295.79745483398</ele>
        <time>2014-11-19T13:29:17Z</time>
      </trkpt>
      <trkpt lat="43.43014" lon="6.08928">
        <ele>295.79745483398</ele>
        <time>2014-11-19T13:29:21Z</time>
      </trkpt>
      <trkpt lat="43.43014" lon="6.08928">
        <ele>295.80276489258</ele>
        <time>2014-11-19T13:29:22Z</time>
      </trkpt>
      <trkpt lat="43.43014" lon="6.08928">
        <ele>295.80477905273</ele>
        <time>2014-11-19T13:29:23Z</time>
      </trkpt>
      <trkpt lat="43.43014" lon="6.08928">
        <ele>295.82073974609</ele>
        <time>2014-11-19T13:29:25Z</time>
      </trkpt>
      <trkpt lat="43.43015" lon="6.0893">
        <ele>295.88571166992</ele>
        <time>2014-11-19T13:29:27Z</time>
      </trkpt>
      <trkpt lat="43.43016" lon="6.08935">
        <ele>296.12338256836</ele>
        <time>2014-11-19T13:29:29Z</time>
      </trkpt>
      <trkpt lat="43.43017" lon="6.08943">
        <ele>296.46209716797</ele>
        <time>2014-11-19T13:29:31Z</time>
      </trkpt>
      <trkpt lat="43.43017" lon="6.08951">
        <ele>296.78811645508</ele>
        <time>2014-11-19T13:29:33Z</time>
      </trkpt>
      <trkpt lat="43.43018" lon="6.08959">
        <ele>297.12719726562</ele>
        <time>2014-11-19T13:29:35Z</time>
      </trkpt>
      <trkpt lat="43.43018" lon="6.08968">
        <ele>297.48867797852</ele>
        <time>2014-11-19T13:29:37Z</time>
      </trkpt>
      <trkpt lat="43.43019" lon="6.08976">
        <ele>297.82818603516</ele>
        <time>2014-11-19T13:29:39Z</time>
      </trkpt>
      <trkpt lat="43.43018" lon="6.09003">
        <ele>298.80715942383</ele>
        <time>2014-11-19T13:29:45Z</time>
      </trkpt>
      <trkpt lat="43.43018" lon="6.09008">
        <ele>298.84674072266</ele>
        <time>2014-11-19T13:29:46Z</time>
      </trkpt>
      <trkpt lat="43.43017" lon="6.09012">
        <ele>298.88195800781</ele>
        <time>2014-11-19T13:29:47Z</time>
      </trkpt>
      <trkpt lat="43.43016" lon="6.09021">
        <ele>298.95462036133</ele>
        <time>2014-11-19T13:29:49Z</time>
      </trkpt>
      <trkpt lat="43.43014" lon="6.0903">
        <ele>299.01217651367</ele>
        <time>2014-11-19T13:29:51Z</time>
      </trkpt>
      <trkpt lat="43.43011" lon="6.09037">
        <ele>299.04495239258</ele>
        <time>2014-11-19T13:29:53Z</time>
      </trkpt>
      <trkpt lat="43.43008" lon="6.09041">
        <ele>299.04635620117</ele>
        <time>2014-11-19T13:29:54Z</time>
      </trkpt>
      <trkpt lat="43.43005" lon="6.09044">
        <ele>299.03802490234</ele>
        <time>2014-11-19T13:29:55Z</time>
      </trkpt>
      <trkpt lat="43.43" lon="6.0905">
        <ele>299.07070922852</ele>
        <time>2014-11-19T13:29:57Z</time>
      </trkpt>
      <trkpt lat="43.42994" lon="6.09055">
        <ele>300.26748657227</ele>
        <time>2014-11-19T13:29:59Z</time>
      </trkpt>
      <trkpt lat="43.42984" lon="6.09064">
        <ele>301.93029785156</ele>
        <time>2014-11-19T13:30:03Z</time>
      </trkpt>
      <trkpt lat="43.42981" lon="6.09068">
        <ele>302.55395507812</ele>
        <time>2014-11-19T13:30:05Z</time>
      </trkpt>
      <trkpt lat="43.42979" lon="6.09071">
        <ele>302.76968383789</ele>
        <time>2014-11-19T13:30:06Z</time>
      </trkpt>
      <trkpt lat="43.42977" lon="6.09074">
        <ele>303.05685424805</ele>
        <time>2014-11-19T13:30:07Z</time>
      </trkpt>
      <trkpt lat="43.42973" lon="6.0908">
        <ele>303.64947509766</ele>
        <time>2014-11-19T13:30:09Z</time>
      </trkpt>
      <trkpt lat="43.42967" lon="6.09085">
        <ele>304.4548034668</ele>
        <time>2014-11-19T13:30:11Z</time>
      </trkpt>
      <trkpt lat="43.42959" lon="6.09089">
        <ele>305.29028320312</ele>
        <time>2014-11-19T13:30:13Z</time>
      </trkpt>
      <trkpt lat="43.42955" lon="6.09092">
        <ele>305.50881958008</ele>
        <time>2014-11-19T13:30:14Z</time>
      </trkpt>
      <trkpt lat="43.42952" lon="6.09096">
        <ele>305.6106262207</ele>
        <time>2014-11-19T13:30:15Z</time>
      </trkpt>
      <trkpt lat="43.42949" lon="6.09101">
        <ele>305.44314575195</ele>
        <time>2014-11-19T13:30:16Z</time>
      </trkpt>
      <trkpt lat="43.42945" lon="6.09105">
        <ele>305.23910522461</ele>
        <time>2014-11-19T13:30:17Z</time>
      </trkpt>
      <trkpt lat="43.42941" lon="6.09111">
        <ele>304.94921875</ele>
        <time>2014-11-19T13:30:18Z</time>
      </trkpt>
      <trkpt lat="43.42937" lon="6.09117">
        <ele>304.51531982422</ele>
        <time>2014-11-19T13:30:19Z</time>
      </trkpt>
      <trkpt lat="43.42934" lon="6.09123">
        <ele>303.82214355469</ele>
        <time>2014-11-19T13:30:20Z</time>
      </trkpt>
      <trkpt lat="43.42931" lon="6.09131">
        <ele>302.85699462891</ele>
        <time>2014-11-19T13:30:21Z</time>
      </trkpt>
      <trkpt lat="43.42931" lon="6.09138">
        <ele>301.61846923828</ele>
        <time>2014-11-19T13:30:22Z</time>
      </trkpt>
      <trkpt lat="43.42931" lon="6.09148">
        <ele>300.06317138672</ele>
        <time>2014-11-19T13:30:23Z</time>
      </trkpt>
      <trkpt lat="43.42931" lon="6.09167">
        <ele>296.94140625</ele>
        <time>2014-11-19T13:30:25Z</time>
      </trkpt>
      <trkpt lat="43.42931" lon="6.09176">
        <ele>296.32684326172</ele>
        <time>2014-11-19T13:30:26Z</time>
      </trkpt>
      <trkpt lat="43.4293" lon="6.09184">
        <ele>295.77069091797</ele>
        <time>2014-11-19T13:30:27Z</time>
      </trkpt>
      <trkpt lat="43.42928" lon="6.09191">
        <ele>295.28314208984</ele>
        <time>2014-11-19T13:30:28Z</time>
      </trkpt>
      <trkpt lat="43.42924" lon="6.09196">
        <ele>294.92266845703</ele>
        <time>2014-11-19T13:30:29Z</time>
      </trkpt>
      <trkpt lat="43.42919" lon="6.092">
        <ele>294.61022949219</ele>
        <time>2014-11-19T13:30:30Z</time>
      </trkpt>
      <trkpt lat="43.42915" lon="6.09204">
        <ele>294.49313354492</ele>
        <time>2014-11-19T13:30:31Z</time>
      </trkpt>
      <trkpt lat="43.4291" lon="6.09208">
        <ele>294.49893188477</ele>
        <time>2014-11-19T13:30:32Z</time>
      </trkpt>
      <trkpt lat="43.42906" lon="6.09213">
        <ele>294.40161132812</ele>
        <time>2014-11-19T13:30:33Z</time>
      </trkpt>
      <trkpt lat="43.42901" lon="6.09229">
        <ele>293.7448425293</ele>
        <time>2014-11-19T13:30:35Z</time>
      </trkpt>
      <trkpt lat="43.42901" lon="6.09246">
        <ele>292.58459472656</ele>
        <time>2014-11-19T13:30:37Z</time>
      </trkpt>
      <trkpt lat="43.42902" lon="6.09255">
        <ele>292.01327514648</ele>
        <time>2014-11-19T13:30:38Z</time>
      </trkpt>
      <trkpt lat="43.42904" lon="6.09264">
        <ele>291.46786499023</ele>
        <time>2014-11-19T13:30:39Z</time>
      </trkpt>
      <trkpt lat="43.42905" lon="6.09274">
        <ele>290.82186889648</ele>
        <time>2014-11-19T13:30:40Z</time>
      </trkpt>
      <trkpt lat="43.42906" lon="6.09283">
        <ele>290.21481323242</ele>
        <time>2014-11-19T13:30:41Z</time>
      </trkpt>
      <trkpt lat="43.42907" lon="6.09292">
        <ele>289.59051513672</ele>
        <time>2014-11-19T13:30:42Z</time>
      </trkpt>
      <trkpt lat="43.42907" lon="6.09302">
        <ele>289.17254638672</ele>
        <time>2014-11-19T13:30:43Z</time>
      </trkpt>
      <trkpt lat="43.42905" lon="6.0932">
        <ele>288.66809082031</ele>
        <time>2014-11-19T13:30:45Z</time>
      </trkpt>
      <trkpt lat="43.42902" lon="6.09337">
        <ele>288.4658203125</ele>
        <time>2014-11-19T13:30:47Z</time>
      </trkpt>
      <trkpt lat="43.429" lon="6.09354">
        <ele>288.54321289062</ele>
        <time>2014-11-19T13:30:49Z</time>
      </trkpt>
      <trkpt lat="43.429" lon="6.09361">
        <ele>288.2985534668</ele>
        <time>2014-11-19T13:30:50Z</time>
      </trkpt>
      <trkpt lat="43.429" lon="6.0937">
        <ele>287.93640136719</ele>
        <time>2014-11-19T13:30:51Z</time>
      </trkpt>
      <trkpt lat="43.429" lon="6.09378">
        <ele>287.78237915039</ele>
        <time>2014-11-19T13:30:52Z</time>
      </trkpt>
      <trkpt lat="43.42899" lon="6.09385">
        <ele>287.89666748047</ele>
        <time>2014-11-19T13:30:53Z</time>
      </trkpt>
      <trkpt lat="43.42897" lon="6.09398">
        <ele>288.12103271484</ele>
        <time>2014-11-19T13:30:55Z</time>
      </trkpt>
      <trkpt lat="43.42895" lon="6.09404">
        <ele>288.56698608398</ele>
        <time>2014-11-19T13:30:57Z</time>
      </trkpt>
      <trkpt lat="43.42895" lon="6.09407">
        <ele>288.61499023438</ele>
        <time>2014-11-19T13:30:59Z</time>
      </trkpt>
      <trkpt lat="43.42895" lon="6.09408">
        <ele>288.59646606445</ele>
        <time>2014-11-19T13:31:01Z</time>
      </trkpt>
      <trkpt lat="43.42895" lon="6.09408">
        <ele>288.59768676758</ele>
        <time>2014-11-19T13:31:05Z</time>
      </trkpt>
      <trkpt lat="43.42895" lon="6.09408">
        <ele>288.59521484375</ele>
        <time>2014-11-19T13:31:09Z</time>
      </trkpt>
      <trkpt lat="43.42895" lon="6.09408">
        <ele>288.59399414062</ele>
        <time>2014-11-19T13:31:11Z</time>
      </trkpt>
      <trkpt lat="43.42895" lon="6.09408">
        <ele>288.59399414062</ele>
        <time>2014-11-19T13:31:15Z</time>
      </trkpt>
      <trkpt lat="43.42895" lon="6.09408">
        <ele>288.59521484375</ele>
        <time>2014-11-19T13:31:25Z</time>
      </trkpt>
      <trkpt lat="43.42895" lon="6.09408">
        <ele>288.59521484375</ele>
        <time>2014-11-19T13:31:53Z</time>
      </trkpt>
      <trkpt lat="43.42895" lon="6.09408">
        <ele>288.59399414062</ele>
        <time>2014-11-19T13:32:17Z</time>
      </trkpt>
      <trkpt lat="43.42895" lon="6.09408">
        <ele>288.59399414062</ele>
        <time>2014-11-19T13:32:26Z</time>
      </trkpt>
      <trkpt lat="43.42894" lon="6.09408">
        <ele>288.70538330078</ele>
        <time>2014-11-19T13:32:27Z</time>
      </trkpt>
      <trkpt lat="43.42894" lon="6.09411">
        <ele>288.89047241211</ele>
        <time>2014-11-19T13:32:28Z</time>
      </trkpt>
      <trkpt lat="43.42893" lon="6.09414">
        <ele>289.08068847656</ele>
        <time>2014-11-19T13:32:29Z</time>
      </trkpt>
      <trkpt lat="43.42891" lon="6.09422">
        <ele>289.296875</ele>
        <time>2014-11-19T13:32:31Z</time>
      </trkpt>
      <trkpt lat="43.42891" lon="6.09433">
        <ele>289.10494995117</ele>
        <time>2014-11-19T13:32:33Z</time>
      </trkpt>
      <trkpt lat="43.4289" lon="6.09444">
        <ele>288.73739624023</ele>
        <time>2014-11-19T13:32:35Z</time>
      </trkpt>
      <trkpt lat="43.42891" lon="6.09449">
        <ele>288.17486572266</ele>
        <time>2014-11-19T13:32:36Z</time>
      </trkpt>
      <trkpt lat="43.42893" lon="6.09454">
        <ele>287.4140625</ele>
        <time>2014-11-19T13:32:37Z</time>
      </trkpt>
      <trkpt lat="43.429" lon="6.09472">
        <ele>284.94702148438</ele>
        <time>2014-11-19T13:32:40Z</time>
      </trkpt>
      <trkpt lat="43.42901" lon="6.09479">
        <ele>284.34027099609</ele>
        <time>2014-11-19T13:32:41Z</time>
      </trkpt>
      <trkpt lat="43.42902" lon="6.09486">
        <ele>283.83255004883</ele>
        <time>2014-11-19T13:32:42Z</time>
      </trkpt>
      <trkpt lat="43.42902" lon="6.09493">
        <ele>283.73458862305</ele>
        <time>2014-11-19T13:32:43Z</time>
      </trkpt>
      <trkpt lat="43.429" lon="6.09505">
        <ele>283.87539672852</ele>
        <time>2014-11-19T13:32:45Z</time>
      </trkpt>
      <trkpt lat="43.42896" lon="6.09515">
        <ele>284.29364013672</ele>
        <time>2014-11-19T13:32:47Z</time>
      </trkpt>
      <trkpt lat="43.42893" lon="6.09527">
        <ele>284.39169311523</ele>
        <time>2014-11-19T13:32:49Z</time>
      </trkpt>
      <trkpt lat="43.42892" lon="6.09532">
        <ele>284.17422485352</ele>
        <time>2014-11-19T13:32:50Z</time>
      </trkpt>
      <trkpt lat="43.42892" lon="6.09539">
        <ele>283.94000244141</ele>
        <time>2014-11-19T13:32:51Z</time>
      </trkpt>
      <trkpt lat="43.42894" lon="6.09552">
        <ele>283.01651000977</ele>
        <time>2014-11-19T13:32:53Z</time>
      </trkpt>
      <trkpt lat="43.42895" lon="6.09559">
        <ele>282.48837280273</ele>
        <time>2014-11-19T13:32:54Z</time>
      </trkpt>
      <trkpt lat="43.42896" lon="6.09566">
        <ele>282.01504516602</ele>
        <time>2014-11-19T13:32:55Z</time>
      </trkpt>
      <trkpt lat="43.42897" lon="6.0958">
        <ele>281.28283691406</ele>
        <time>2014-11-19T13:32:57Z</time>
      </trkpt>
      <trkpt lat="43.42895" lon="6.09592">
        <ele>281.08639526367</ele>
        <time>2014-11-19T13:32:59Z</time>
      </trkpt>
      <trkpt lat="43.42889" lon="6.09602">
        <ele>281.23861694336</ele>
        <time>2014-11-19T13:33:01Z</time>
      </trkpt>
      <trkpt lat="43.42885" lon="6.09607">
        <ele>281.35760498047</ele>
        <time>2014-11-19T13:33:02Z</time>
      </trkpt>
      <trkpt lat="43.42882" lon="6.09612">
        <ele>281.42562866211</ele>
        <time>2014-11-19T13:33:03Z</time>
      </trkpt>
      <trkpt lat="43.42875" lon="6.09622">
        <ele>281.38934326172</ele>
        <time>2014-11-19T13:33:05Z</time>
      </trkpt>
      <trkpt lat="43.4287" lon="6.09635">
        <ele>280.9811706543</ele>
        <time>2014-11-19T13:33:07Z</time>
      </trkpt>
      <trkpt lat="43.42865" lon="6.09647">
        <ele>280.51977539062</ele>
        <time>2014-11-19T13:33:09Z</time>
      </trkpt>
      <trkpt lat="43.4286" lon="6.09658">
        <ele>279.94134521484</ele>
        <time>2014-11-19T13:33:11Z</time>
      </trkpt>
      <trkpt lat="43.42854" lon="6.0967">
        <ele>279.33587646484</ele>
        <time>2014-11-19T13:33:13Z</time>
      </trkpt>
      <trkpt lat="43.42848" lon="6.09681">
        <ele>278.7770690918</ele>
        <time>2014-11-19T13:33:15Z</time>
      </trkpt>
      <trkpt lat="43.42842" lon="6.09694">
        <ele>278.0080871582</ele>
        <time>2014-11-19T13:33:17Z</time>
      </trkpt>
      <trkpt lat="43.42834" lon="6.09706">
        <ele>277.17147827148</ele>
        <time>2014-11-19T13:33:19Z</time>
      </trkpt>
      <trkpt lat="43.42831" lon="6.09711">
        <ele>276.86898803711</ele>
        <time>2014-11-19T13:33:20Z</time>
      </trkpt>
      <trkpt lat="43.42827" lon="6.09717">
        <ele>276.55096435547</ele>
        <time>2014-11-19T13:33:21Z</time>
      </trkpt>
      <trkpt lat="43.42813" lon="6.09738">
        <ele>274.91372680664</ele>
        <time>2014-11-19T13:33:25Z</time>
      </trkpt>
      <trkpt lat="43.42807" lon="6.09748">
        <ele>273.89056396484</ele>
        <time>2014-11-19T13:33:27Z</time>
      </trkpt>
      <trkpt lat="43.42803" lon="6.09753">
        <ele>273.40994262695</ele>
        <time>2014-11-19T13:33:28Z</time>
      </trkpt>
      <trkpt lat="43.42799" lon="6.09757">
        <ele>273.04055786133</ele>
        <time>2014-11-19T13:33:29Z</time>
      </trkpt>
      <trkpt lat="43.42792" lon="6.09765">
        <ele>272.25759887695</ele>
        <time>2014-11-19T13:33:31Z</time>
      </trkpt>
      <trkpt lat="43.42785" lon="6.09768">
        <ele>271.75738525391</ele>
        <time>2014-11-19T13:33:33Z</time>
      </trkpt>
      <trkpt lat="43.4278" lon="6.0977">
        <ele>271.47723388672</ele>
        <time>2014-11-19T13:33:34Z</time>
      </trkpt>
      <trkpt lat="43.42776" lon="6.09771">
        <ele>271.28216552734</ele>
        <time>2014-11-19T13:33:35Z</time>
      </trkpt>
      <trkpt lat="43.42767" lon="6.09772">
        <ele>270.85717773438</ele>
        <time>2014-11-19T13:33:37Z</time>
      </trkpt>
      <trkpt lat="43.42757" lon="6.09773">
        <ele>270.47866821289</ele>
        <time>2014-11-19T13:33:39Z</time>
      </trkpt>
      <trkpt lat="43.42746" lon="6.09769">
        <ele>270.73593139648</ele>
        <time>2014-11-19T13:33:41Z</time>
      </trkpt>
      <trkpt lat="43.42735" lon="6.09762">
        <ele>271.6828918457</ele>
        <time>2014-11-19T13:33:43Z</time>
      </trkpt>
      <trkpt lat="43.42724" lon="6.09758">
        <ele>272.32455444336</ele>
        <time>2014-11-19T13:33:45Z</time>
      </trkpt>
      <trkpt lat="43.42712" lon="6.09756">
        <ele>272.66088867188</ele>
        <time>2014-11-19T13:33:47Z</time>
      </trkpt>
      <trkpt lat="43.42701" lon="6.09756">
        <ele>272.84622192383</ele>
        <time>2014-11-19T13:33:49Z</time>
      </trkpt>
      <trkpt lat="43.42695" lon="6.09757">
        <ele>272.77615356445</ele>
        <time>2014-11-19T13:33:50Z</time>
      </trkpt>
      <trkpt lat="43.42684" lon="6.0976">
        <ele>272.43057250977</ele>
        <time>2014-11-19T13:33:52Z</time>
      </trkpt>
      <trkpt lat="43.42679" lon="6.09761">
        <ele>272.24829101562</ele>
        <time>2014-11-19T13:33:53Z</time>
      </trkpt>
      <trkpt lat="43.42673" lon="6.09764">
        <ele>271.86813354492</ele>
        <time>2014-11-19T13:33:54Z</time>
      </trkpt>
      <trkpt lat="43.42669" lon="6.09767">
        <ele>271.52124023438</ele>
        <time>2014-11-19T13:33:55Z</time>
      </trkpt>
      <trkpt lat="43.42666" lon="6.0977">
        <ele>271.24758911133</ele>
        <time>2014-11-19T13:33:56Z</time>
      </trkpt>
      <trkpt lat="43.42665" lon="6.0977">
        <ele>271.23385620117</ele>
        <time>2014-11-19T13:33:57Z</time>
      </trkpt>
      <trkpt lat="43.42665" lon="6.09771">
        <ele>271.20639038086</ele>
        <time>2014-11-19T13:33:59Z</time>
      </trkpt>
      <trkpt lat="43.42664" lon="6.09772">
        <ele>271.08737182617</ele>
        <time>2014-11-19T13:34:01Z</time>
      </trkpt>
      <trkpt lat="43.42664" lon="6.09773">
        <ele>270.94088745117</ele>
        <time>2014-11-19T13:34:03Z</time>
      </trkpt>
      <trkpt lat="43.42664" lon="6.09773">
        <ele>270.84475708008</ele>
        <time>2014-11-19T13:34:05Z</time>
      </trkpt>
      <trkpt lat="43.42664" lon="6.09774">
        <ele>270.83102416992</ele>
        <time>2014-11-19T13:34:07Z</time>
      </trkpt>
      <trkpt lat="43.42664" lon="6.09774">
        <ele>270.81042480469</ele>
        <time>2014-11-19T13:34:09Z</time>
      </trkpt>
      <trkpt lat="43.42664" lon="6.09774">
        <ele>270.80355834961</ele>
        <time>2014-11-19T13:34:11Z</time>
      </trkpt>
      <trkpt lat="43.42664" lon="6.09776">
        <ele>270.54721069336</ele>
        <time>2014-11-19T13:34:13Z</time>
      </trkpt>
      <trkpt lat="43.42664" lon="6.0978">
        <ele>269.99789428711</ele>
        <time>2014-11-19T13:34:15Z</time>
      </trkpt>
      <trkpt lat="43.42664" lon="6.09785">
        <ele>269.22427368164</ele>
        <time>2014-11-19T13:34:17Z</time>
      </trkpt>
      <trkpt lat="43.42663" lon="6.09788">
        <ele>268.87637329102</ele>
        <time>2014-11-19T13:34:18Z</time>
      </trkpt>
      <trkpt lat="43.42661" lon="6.09789">
        <ele>268.79626464844</ele>
        <time>2014-11-19T13:34:19Z</time>
      </trkpt>
      <trkpt lat="43.42659" lon="6.09792">
        <ele>268.49642944336</ele>
        <time>2014-11-19T13:34:21Z</time>
      </trkpt>
      <trkpt lat="43.42657" lon="6.09797">
        <ele>267.97457885742</ele>
        <time>2014-11-19T13:34:23Z</time>
      </trkpt>
      <trkpt lat="43.42652" lon="6.09804">
        <ele>267.48934936523</ele>
        <time>2014-11-19T13:34:25Z</time>
      </trkpt>
      <trkpt lat="43.42648" lon="6.09807">
        <ele>267.31768798828</ele>
        <time>2014-11-19T13:34:26Z</time>
      </trkpt>
      <trkpt lat="43.42645" lon="6.09812">
        <ele>266.90798950195</ele>
        <time>2014-11-19T13:34:27Z</time>
      </trkpt>
      <trkpt lat="43.42642" lon="6.09824">
        <ele>265.42712402344</ele>
        <time>2014-11-19T13:34:29Z</time>
      </trkpt>
      <trkpt lat="43.42642" lon="6.09839">
        <ele>263.81521606445</ele>
        <time>2014-11-19T13:34:31Z</time>
      </trkpt>
      <trkpt lat="43.42642" lon="6.09854">
        <ele>263.14105224609</ele>
        <time>2014-11-19T13:34:33Z</time>
      </trkpt>
      <trkpt lat="43.42641" lon="6.0987">
        <ele>262.47671508789</ele>
        <time>2014-11-19T13:34:35Z</time>
      </trkpt>
      <trkpt lat="43.42641" lon="6.09878">
        <ele>262.0832824707</ele>
        <time>2014-11-19T13:34:36Z</time>
      </trkpt>
      <trkpt lat="43.42642" lon="6.09884">
        <ele>261.77975463867</ele>
        <time>2014-11-19T13:34:37Z</time>
      </trkpt>
      <trkpt lat="43.42643" lon="6.09889">
        <ele>261.50799560547</ele>
        <time>2014-11-19T13:34:38Z</time>
      </trkpt>
      <trkpt lat="43.42646" lon="6.09892">
        <ele>261.29010009766</ele>
        <time>2014-11-19T13:34:39Z</time>
      </trkpt>
      <trkpt lat="43.42652" lon="6.09894">
        <ele>261.01907348633</ele>
        <time>2014-11-19T13:34:41Z</time>
      </trkpt>
      <trkpt lat="43.42661" lon="6.09898">
        <ele>260.5885925293</ele>
        <time>2014-11-19T13:34:45Z</time>
      </trkpt>
      <trkpt lat="43.42665" lon="6.09901">
        <ele>260.4367980957</ele>
        <time>2014-11-19T13:34:47Z</time>
      </trkpt>
      <trkpt lat="43.42668" lon="6.09904">
        <ele>260.46408081055</ele>
        <time>2014-11-19T13:34:49Z</time>
      </trkpt>
      <trkpt lat="43.42671" lon="6.09907">
        <ele>260.7229309082</ele>
        <time>2014-11-19T13:34:51Z</time>
      </trkpt>
      <trkpt lat="43.42676" lon="6.09916">
        <ele>261.14431762695</ele>
        <time>2014-11-19T13:34:55Z</time>
      </trkpt>
      <trkpt lat="43.42677" lon="6.09922">
        <ele>261.35949707031</ele>
        <time>2014-11-19T13:34:57Z</time>
      </trkpt>
      <trkpt lat="43.42676" lon="6.09934">
        <ele>261.41165161133</ele>
        <time>2014-11-19T13:35:01Z</time>
      </trkpt>
      <trkpt lat="43.42675" lon="6.09939">
        <ele>261.29547119141</ele>
        <time>2014-11-19T13:35:03Z</time>
      </trkpt>
      <trkpt lat="43.42672" lon="6.09944">
        <ele>261.08111572266</ele>
        <time>2014-11-19T13:35:05Z</time>
      </trkpt>
      <trkpt lat="43.42671" lon="6.09949">
        <ele>260.94491577148</ele>
        <time>2014-11-19T13:35:07Z</time>
      </trkpt>
      <trkpt lat="43.4267" lon="6.09954">
        <ele>260.86135864258</ele>
        <time>2014-11-19T13:35:09Z</time>
      </trkpt>
      <trkpt lat="43.42668" lon="6.0996">
        <ele>260.72219848633</ele>
        <time>2014-11-19T13:35:11Z</time>
      </trkpt>
      <trkpt lat="43.42667" lon="6.09965">
        <ele>260.62963867188</ele>
        <time>2014-11-19T13:35:13Z</time>
      </trkpt>
      <trkpt lat="43.42665" lon="6.09977">
        <ele>260.70303344727</ele>
        <time>2014-11-19T13:35:18Z</time>
      </trkpt>
      <trkpt lat="43.42666" lon="6.09979">
        <ele>260.73501586914</ele>
        <time>2014-11-19T13:35:19Z</time>
      </trkpt>
      <trkpt lat="43.42667" lon="6.09983">
        <ele>260.79321289062</ele>
        <time>2014-11-19T13:35:21Z</time>
      </trkpt>
      <trkpt lat="43.42667" lon="6.09985">
        <ele>260.81893920898</ele>
        <time>2014-11-19T13:35:22Z</time>
      </trkpt>
      <trkpt lat="43.42667" lon="6.09992">
        <ele>261.01156616211</ele>
        <time>2014-11-19T13:35:25Z</time>
      </trkpt>
      <trkpt lat="43.42668" lon="6.09997">
        <ele>261.18756103516</ele>
        <time>2014-11-19T13:35:27Z</time>
      </trkpt>
      <trkpt lat="43.42669" lon="6.10002">
        <ele>261.70199584961</ele>
        <time>2014-11-19T13:35:29Z</time>
      </trkpt>
      <trkpt lat="43.42669" lon="6.10006">
        <ele>262.51528930664</ele>
        <time>2014-11-19T13:35:31Z</time>
      </trkpt>
      <trkpt lat="43.4267" lon="6.10009">
        <ele>262.98876953125</ele>
        <time>2014-11-19T13:35:32Z</time>
      </trkpt>
      <trkpt lat="43.4267" lon="6.10011">
        <ele>263.40942382812</ele>
        <time>2014-11-19T13:35:33Z</time>
      </trkpt>
      <trkpt lat="43.42674" lon="6.1002">
        <ele>265.51434326172</ele>
        <time>2014-11-19T13:35:37Z</time>
      </trkpt>
      <trkpt lat="43.42677" lon="6.10024">
        <ele>266.46389770508</ele>
        <time>2014-11-19T13:35:39Z</time>
      </trkpt>
      <trkpt lat="43.42679" lon="6.10026">
        <ele>267.19354248047</ele>
        <time>2014-11-19T13:35:41Z</time>
      </trkpt>
      <trkpt lat="43.42682" lon="6.10029">
        <ele>267.9248046875</ele>
        <time>2014-11-19T13:35:43Z</time>
      </trkpt>
      <trkpt lat="43.42685" lon="6.10032">
        <ele>268.61712646484</ele>
        <time>2014-11-19T13:35:45Z</time>
      </trkpt>
      <trkpt lat="43.42688" lon="6.10033">
        <ele>269.1428527832</ele>
        <time>2014-11-19T13:35:47Z</time>
      </trkpt>
      <trkpt lat="43.42694" lon="6.10036">
        <ele>270.17919921875</ele>
        <time>2014-11-19T13:35:51Z</time>
      </trkpt>
      <trkpt lat="43.42698" lon="6.10037">
        <ele>270.66442871094</ele>
        <time>2014-11-19T13:35:53Z</time>
      </trkpt>
      <trkpt lat="43.42701" lon="6.10038">
        <ele>271.16665649414</ele>
        <time>2014-11-19T13:35:55Z</time>
      </trkpt>
      <trkpt lat="43.42704" lon="6.10039">
        <ele>271.62567138672</ele>
        <time>2014-11-19T13:35:57Z</time>
      </trkpt>
      <trkpt lat="43.42706" lon="6.1004">
        <ele>271.81900024414</ele>
        <time>2014-11-19T13:35:58Z</time>
      </trkpt>
      <trkpt lat="43.4271" lon="6.1004">
        <ele>272.21774291992</ele>
        <time>2014-11-19T13:36:01Z</time>
      </trkpt>
      <trkpt lat="43.42714" lon="6.1004">
        <ele>272.57800292969</ele>
        <time>2014-11-19T13:36:03Z</time>
      </trkpt>
      <trkpt lat="43.42717" lon="6.1004">
        <ele>272.85595703125</ele>
        <time>2014-11-19T13:36:05Z</time>
      </trkpt>
      <trkpt lat="43.4272" lon="6.1004">
        <ele>273.17880249023</ele>
        <time>2014-11-19T13:36:07Z</time>
      </trkpt>
      <trkpt lat="43.42722" lon="6.1004">
        <ele>273.35549926758</ele>
        <time>2014-11-19T13:36:08Z</time>
      </trkpt>
      <trkpt lat="43.42724" lon="6.1004">
        <ele>273.50112915039</ele>
        <time>2014-11-19T13:36:09Z</time>
      </trkpt>
      <trkpt lat="43.42725" lon="6.10041">
        <ele>273.70877075195</ele>
        <time>2014-11-19T13:36:10Z</time>
      </trkpt>
      <trkpt lat="43.42728" lon="6.10041">
        <ele>273.91787719727</ele>
        <time>2014-11-19T13:36:11Z</time>
      </trkpt>
      <trkpt lat="43.42731" lon="6.1004">
        <ele>274.22952270508</ele>
        <time>2014-11-19T13:36:13Z</time>
      </trkpt>
      <trkpt lat="43.42735" lon="6.1004">
        <ele>274.51754760742</ele>
        <time>2014-11-19T13:36:15Z</time>
      </trkpt>
      <trkpt lat="43.42736" lon="6.1004">
        <ele>274.61776733398</ele>
        <time>2014-11-19T13:36:16Z</time>
      </trkpt>
      <trkpt lat="43.42738" lon="6.1004">
        <ele>274.77890014648</ele>
        <time>2014-11-19T13:36:17Z</time>
      </trkpt>
      <trkpt lat="43.42741" lon="6.10039">
        <ele>274.96798706055</ele>
        <time>2014-11-19T13:36:19Z</time>
      </trkpt>
      <trkpt lat="43.42742" lon="6.10039">
        <ele>275.12121582031</ele>
        <time>2014-11-19T13:36:20Z</time>
      </trkpt>
      <trkpt lat="43.42743" lon="6.10039">
        <ele>275.1487121582</ele>
        <time>2014-11-19T13:36:21Z</time>
      </trkpt>
      <trkpt lat="43.42747" lon="6.10039">
        <ele>275.5869140625</ele>
        <time>2014-11-19T13:36:23Z</time>
      </trkpt>
      <trkpt lat="43.42749" lon="6.1004">
        <ele>275.81796264648</ele>
        <time>2014-11-19T13:36:24Z</time>
      </trkpt>
      <trkpt lat="43.4275" lon="6.10041">
        <ele>275.98559570312</ele>
        <time>2014-11-19T13:36:25Z</time>
      </trkpt>
      <trkpt lat="43.42753" lon="6.10043">
        <ele>276.29870605469</ele>
        <time>2014-11-19T13:36:27Z</time>
      </trkpt>
      <trkpt lat="43.42756" lon="6.10044">
        <ele>276.59918212891</ele>
        <time>2014-11-19T13:36:29Z</time>
      </trkpt>
      <trkpt lat="43.42759" lon="6.10046">
        <ele>276.9162902832</ele>
        <time>2014-11-19T13:36:31Z</time>
      </trkpt>
      <trkpt lat="43.42762" lon="6.10048">
        <ele>277.24508666992</ele>
        <time>2014-11-19T13:36:33Z</time>
      </trkpt>
      <trkpt lat="43.42765" lon="6.1005">
        <ele>277.51351928711</ele>
        <time>2014-11-19T13:36:35Z</time>
      </trkpt>
      <trkpt lat="43.42766" lon="6.10051">
        <ele>277.64508056641</ele>
        <time>2014-11-19T13:36:36Z</time>
      </trkpt>
      <trkpt lat="43.42767" lon="6.10051">
        <ele>277.78598022461</ele>
        <time>2014-11-19T13:36:37Z</time>
      </trkpt>
      <trkpt lat="43.42771" lon="6.10053">
        <ele>278.14688110352</ele>
        <time>2014-11-19T13:36:39Z</time>
      </trkpt>
      <trkpt lat="43.42774" lon="6.10055">
        <ele>278.47344970703</ele>
        <time>2014-11-19T13:36:41Z</time>
      </trkpt>
      <trkpt lat="43.42777" lon="6.10057">
        <ele>278.7629699707</ele>
        <time>2014-11-19T13:36:43Z</time>
      </trkpt>
      <trkpt lat="43.4278" lon="6.10058">
        <ele>279.03009033203</ele>
        <time>2014-11-19T13:36:45Z</time>
      </trkpt>
      <trkpt lat="43.42783" lon="6.10059">
        <ele>279.29800415039</ele>
        <time>2014-11-19T13:36:47Z</time>
      </trkpt>
      <trkpt lat="43.42786" lon="6.10059">
        <ele>279.53656005859</ele>
        <time>2014-11-19T13:36:49Z</time>
      </trkpt>
      <trkpt lat="43.42789" lon="6.10061">
        <ele>279.82751464844</ele>
        <time>2014-11-19T13:36:51Z</time>
      </trkpt>
      <trkpt lat="43.42791" lon="6.10063">
        <ele>280.13873291016</ele>
        <time>2014-11-19T13:36:53Z</time>
      </trkpt>
      <trkpt lat="43.42794" lon="6.10066">
        <ele>280.42150878906</ele>
        <time>2014-11-19T13:36:55Z</time>
      </trkpt>
      <trkpt lat="43.42796" lon="6.10069">
        <ele>280.72619628906</ele>
        <time>2014-11-19T13:36:57Z</time>
      </trkpt>
      <trkpt lat="43.42797" lon="6.10074">
        <ele>281.01382446289</ele>
        <time>2014-11-19T13:36:59Z</time>
      </trkpt>
      <trkpt lat="43.42799" lon="6.10078">
        <ele>281.34298706055</ele>
        <time>2014-11-19T13:37:01Z</time>
      </trkpt>
      <trkpt lat="43.428" lon="6.1008">
        <ele>281.45251464844</ele>
        <time>2014-11-19T13:37:02Z</time>
      </trkpt>
      <trkpt lat="43.428" lon="6.10082">
        <ele>281.56182861328</ele>
        <time>2014-11-19T13:37:03Z</time>
      </trkpt>
      <trkpt lat="43.42801" lon="6.10086">
        <ele>281.75341796875</ele>
        <time>2014-11-19T13:37:05Z</time>
      </trkpt>
      <trkpt lat="43.42801" lon="6.10089">
        <ele>281.80404663086</ele>
        <time>2014-11-19T13:37:06Z</time>
      </trkpt>
      <trkpt lat="43.42802" lon="6.10094">
        <ele>281.96701049805</ele>
        <time>2014-11-19T13:37:08Z</time>
      </trkpt>
      <trkpt lat="43.42802" lon="6.10096">
        <ele>282.01510620117</ele>
        <time>2014-11-19T13:37:09Z</time>
      </trkpt>
      <trkpt lat="43.42802" lon="6.10103">
        <ele>282.17770385742</ele>
        <time>2014-11-19T13:37:12Z</time>
      </trkpt>
      <trkpt lat="43.42802" lon="6.10104">
        <ele>282.21258544922</ele>
        <time>2014-11-19T13:37:13Z</time>
      </trkpt>
      <trkpt lat="43.42803" lon="6.10107">
        <ele>282.30218505859</ele>
        <time>2014-11-19T13:37:15Z</time>
      </trkpt>
      <trkpt lat="43.42804" lon="6.10112">
        <ele>282.46545410156</ele>
        <time>2014-11-19T13:37:17Z</time>
      </trkpt>
      <trkpt lat="43.42804" lon="6.10114">
        <ele>282.53540039062</ele>
        <time>2014-11-19T13:37:18Z</time>
      </trkpt>
      <trkpt lat="43.42805" lon="6.10116">
        <ele>282.60775756836</ele>
        <time>2014-11-19T13:37:19Z</time>
      </trkpt>
      <trkpt lat="43.42806" lon="6.1012">
        <ele>282.78433227539</ele>
        <time>2014-11-19T13:37:21Z</time>
      </trkpt>
      <trkpt lat="43.42807" lon="6.10125">
        <ele>282.94271850586</ele>
        <time>2014-11-19T13:37:23Z</time>
      </trkpt>
      <trkpt lat="43.4281" lon="6.10135">
        <ele>283.29736328125</ele>
        <time>2014-11-19T13:37:28Z</time>
      </trkpt>
      <trkpt lat="43.42812" lon="6.10141">
        <ele>283.51690673828</ele>
        <time>2014-11-19T13:37:31Z</time>
      </trkpt>
      <trkpt lat="43.42814" lon="6.10149">
        <ele>283.75576782227</ele>
        <time>2014-11-19T13:37:35Z</time>
      </trkpt>
      <trkpt lat="43.42815" lon="6.10153">
        <ele>283.88159179688</ele>
        <time>2014-11-19T13:37:37Z</time>
      </trkpt>
      <trkpt lat="43.42817" lon="6.10161">
        <ele>284.09338378906</ele>
        <time>2014-11-19T13:37:41Z</time>
      </trkpt>
      <trkpt lat="43.42817" lon="6.10165">
        <ele>284.20498657227</ele>
        <time>2014-11-19T13:37:43Z</time>
      </trkpt>
      <trkpt lat="43.42818" lon="6.1017">
        <ele>284.44714355469</ele>
        <time>2014-11-19T13:37:45Z</time>
      </trkpt>
      <trkpt lat="43.42818" lon="6.10175">
        <ele>284.68862915039</ele>
        <time>2014-11-19T13:37:47Z</time>
      </trkpt>
      <trkpt lat="43.42818" lon="6.10179">
        <ele>284.91012573242</ele>
        <time>2014-11-19T13:37:49Z</time>
      </trkpt>
      <trkpt lat="43.42818" lon="6.10185">
        <ele>285.16384887695</ele>
        <time>2014-11-19T13:37:51Z</time>
      </trkpt>
      <trkpt lat="43.42818" lon="6.10187">
        <ele>285.29116821289</ele>
        <time>2014-11-19T13:37:52Z</time>
      </trkpt>
      <trkpt lat="43.42818" lon="6.10189">
        <ele>285.36730957031</ele>
        <time>2014-11-19T13:37:53Z</time>
      </trkpt>
      <trkpt lat="43.42818" lon="6.10192">
        <ele>285.54684448242</ele>
        <time>2014-11-19T13:37:55Z</time>
      </trkpt>
      <trkpt lat="43.42818" lon="6.10195">
        <ele>285.72872924805</ele>
        <time>2014-11-19T13:37:57Z</time>
      </trkpt>
      <trkpt lat="43.42819" lon="6.10198">
        <ele>285.89831542969</ele>
        <time>2014-11-19T13:37:59Z</time>
      </trkpt>
      <trkpt lat="43.42819" lon="6.10201">
        <ele>286.04370117188</ele>
        <time>2014-11-19T13:38:01Z</time>
      </trkpt>
      <trkpt lat="43.4282" lon="6.10204">
        <ele>286.22375488281</ele>
        <time>2014-11-19T13:38:03Z</time>
      </trkpt>
      <trkpt lat="43.42821" lon="6.10205">
        <ele>286.32510375977</ele>
        <time>2014-11-19T13:38:04Z</time>
      </trkpt>
      <trkpt lat="43.42823" lon="6.10206">
        <ele>286.45132446289</ele>
        <time>2014-11-19T13:38:05Z</time>
      </trkpt>
      <trkpt lat="43.42825" lon="6.10208">
        <ele>286.61383056641</ele>
        <time>2014-11-19T13:38:07Z</time>
      </trkpt>
      <trkpt lat="43.42826" lon="6.1021">
        <ele>286.7995300293</ele>
        <time>2014-11-19T13:38:09Z</time>
      </trkpt>
      <trkpt lat="43.42828" lon="6.10213">
        <ele>286.99114990234</ele>
        <time>2014-11-19T13:38:11Z</time>
      </trkpt>
      <trkpt lat="43.42828" lon="6.10213">
        <ele>287.03942871094</ele>
        <time>2014-11-19T13:38:13Z</time>
      </trkpt>
      <trkpt lat="43.42829" lon="6.10213">
        <ele>287.05749511719</ele>
        <time>2014-11-19T13:38:15Z</time>
      </trkpt>
      <trkpt lat="43.42829" lon="6.10213">
        <ele>287.05749511719</ele>
        <time>2014-11-19T13:38:17Z</time>
      </trkpt>
      <trkpt lat="43.42829" lon="6.10213">
        <ele>287.05517578125</ele>
        <time>2014-11-19T13:38:19Z</time>
      </trkpt>
      <trkpt lat="43.42829" lon="6.10213">
        <ele>287.05517578125</ele>
        <time>2014-11-19T13:38:21Z</time>
      </trkpt>
      <trkpt lat="43.42829" lon="6.10213">
        <ele>287.04125976562</ele>
        <time>2014-11-19T13:38:23Z</time>
      </trkpt>
      <trkpt lat="43.42828" lon="6.10212">
        <ele>286.98602294922</ele>
        <time>2014-11-19T13:38:25Z</time>
      </trkpt>
      <trkpt lat="43.42827" lon="6.10212">
        <ele>286.9059753418</ele>
        <time>2014-11-19T13:38:27Z</time>
      </trkpt>
      <trkpt lat="43.42827" lon="6.10211">
        <ele>286.89431762695</ele>
        <time>2014-11-19T13:38:28Z</time>
      </trkpt>
      <trkpt lat="43.42827" lon="6.10211">
        <ele>286.86212158203</ele>
        <time>2014-11-19T13:38:29Z</time>
      </trkpt>
      <trkpt lat="43.42826" lon="6.1021">
        <ele>286.76724243164</ele>
        <time>2014-11-19T13:38:35Z</time>
      </trkpt>
      <trkpt lat="43.42826" lon="6.1021">
        <ele>286.74896240234</ele>
        <time>2014-11-19T13:38:37Z</time>
      </trkpt>
      <trkpt lat="43.42825" lon="6.10209">
        <ele>286.68380737305</ele>
        <time>2014-11-19T13:38:39Z</time>
      </trkpt>
      <trkpt lat="43.42824" lon="6.10209">
        <ele>286.62875366211</ele>
        <time>2014-11-19T13:38:41Z</time>
      </trkpt>
      <trkpt lat="43.42823" lon="6.10209">
        <ele>286.6061706543</ele>
        <time>2014-11-19T13:38:43Z</time>
      </trkpt>
      <trkpt lat="43.42823" lon="6.10209">
        <ele>286.60903930664</ele>
        <time>2014-11-19T13:38:45Z</time>
      </trkpt>
      <trkpt lat="43.42822" lon="6.1021">
        <ele>286.58715820312</ele>
        <time>2014-11-19T13:38:47Z</time>
      </trkpt>
      <trkpt lat="43.4282" lon="6.10212">
        <ele>286.63037109375</ele>
        <time>2014-11-19T13:38:49Z</time>
      </trkpt>
      <trkpt lat="43.4282" lon="6.10213">
        <ele>286.64401245117</ele>
        <time>2014-11-19T13:38:51Z</time>
      </trkpt>
      <trkpt lat="43.4282" lon="6.10213">
        <ele>286.64877319336</ele>
        <time>2014-11-19T13:38:53Z</time>
      </trkpt>
      <trkpt lat="43.4282" lon="6.10213">
        <ele>286.64877319336</ele>
        <time>2014-11-19T13:38:55Z</time>
      </trkpt>
      <trkpt lat="43.4282" lon="6.10213">
        <ele>286.65115356445</ele>
        <time>2014-11-19T13:38:58Z</time>
      </trkpt>
      <trkpt lat="43.42819" lon="6.10214">
        <ele>286.6711730957</ele>
        <time>2014-11-19T13:38:59Z</time>
      </trkpt>
      <trkpt lat="43.42819" lon="6.10214">
        <ele>286.68548583984</ele>
        <time>2014-11-19T13:39:01Z</time>
      </trkpt>
      <trkpt lat="43.4282" lon="6.10214">
        <ele>286.71548461914</ele>
        <time>2014-11-19T13:39:03Z</time>
      </trkpt>
      <trkpt lat="43.4282" lon="6.10214">
        <ele>286.71786499023</ele>
        <time>2014-11-19T13:39:04Z</time>
      </trkpt>
      <trkpt lat="43.42819" lon="6.10214">
        <ele>286.70217895508</ele>
        <time>2014-11-19T13:39:05Z</time>
      </trkpt>
      <trkpt lat="43.42819" lon="6.10214">
        <ele>286.70935058594</ele>
        <time>2014-11-19T13:39:09Z</time>
      </trkpt>
      <trkpt lat="43.42819" lon="6.10214">
        <ele>286.70455932617</ele>
        <time>2014-11-19T13:39:14Z</time>
      </trkpt>
      <trkpt lat="43.42819" lon="6.10214">
        <ele>286.69979858398</ele>
        <time>2014-11-19T13:39:17Z</time>
      </trkpt>
      <trkpt lat="43.4282" lon="6.10214">
        <ele>286.71786499023</ele>
        <time>2014-11-19T13:39:19Z</time>
      </trkpt>
      <trkpt lat="43.42819" lon="6.10214">
        <ele>286.69741821289</ele>
        <time>2014-11-19T13:39:21Z</time>
      </trkpt>
      <trkpt lat="43.42819" lon="6.10214">
        <ele>286.6950378418</ele>
        <time>2014-11-19T13:39:23Z</time>
      </trkpt>
      <trkpt lat="43.42819" lon="6.10214">
        <ele>286.69262695312</ele>
        <time>2014-11-19T13:39:25Z</time>
      </trkpt>
      <trkpt lat="43.42819" lon="6.10214">
        <ele>286.69024658203</ele>
        <time>2014-11-19T13:39:27Z</time>
      </trkpt>
      <trkpt lat="43.4282" lon="6.10214">
        <ele>286.70596313477</ele>
        <time>2014-11-19T13:39:28Z</time>
      </trkpt>
      <trkpt lat="43.4282" lon="6.10214">
        <ele>286.70596313477</ele>
        <time>2014-11-19T13:39:29Z</time>
      </trkpt>
      <trkpt lat="43.42819" lon="6.10214">
        <ele>286.68786621094</ele>
        <time>2014-11-19T13:39:31Z</time>
      </trkpt>
      <trkpt lat="43.42819" lon="6.10214">
        <ele>286.68786621094</ele>
        <time>2014-11-19T13:39:33Z</time>
      </trkpt>
      <trkpt lat="43.42819" lon="6.10214">
        <ele>286.69024658203</ele>
        <time>2014-11-19T13:39:37Z</time>
      </trkpt>
      <trkpt lat="43.42819" lon="6.10214">
        <ele>286.69262695312</ele>
        <time>2014-11-19T13:41:11Z</time>
      </trkpt>
      <trkpt lat="43.42819" lon="6.10214">
        <ele>286.69741821289</ele>
        <time>2014-11-19T13:41:19Z</time>
      </trkpt>
      <trkpt lat="43.42819" lon="6.10214">
        <ele>286.70455932617</ele>
        <time>2014-11-19T13:41:25Z</time>
      </trkpt>
      <trkpt lat="43.42819" lon="6.10214">
        <ele>286.70935058594</ele>
        <time>2014-11-19T13:41:29Z</time>
      </trkpt>
      <trkpt lat="43.42819" lon="6.10214">
        <ele>286.70935058594</ele>
        <time>2014-11-19T13:41:31Z</time>
      </trkpt>
      <trkpt lat="43.42819" lon="6.10214">
        <ele>286.69604492188</ele>
        <time>2014-11-19T13:41:33Z</time>
      </trkpt>
      <trkpt lat="43.42819" lon="6.10214">
        <ele>286.69842529297</ele>
        <time>2014-11-19T13:41:35Z</time>
      </trkpt>
      <trkpt lat="43.42819" lon="6.10214">
        <ele>286.69604492188</ele>
        <time>2014-11-19T13:41:39Z</time>
      </trkpt>
      <trkpt lat="43.42819" lon="6.10214">
        <ele>286.6936340332</ele>
        <time>2014-11-19T13:41:41Z</time>
      </trkpt>
      <trkpt lat="43.42819" lon="6.10214">
        <ele>286.68887329102</ele>
        <time>2014-11-19T13:41:43Z</time>
      </trkpt>
      <trkpt lat="43.42818" lon="6.10214">
        <ele>286.67318725586</ele>
        <time>2014-11-19T13:41:45Z</time>
      </trkpt>
      <trkpt lat="43.42818" lon="6.10216">
        <ele>286.72326660156</ele>
        <time>2014-11-19T13:41:47Z</time>
      </trkpt>
      <trkpt lat="43.42816" lon="6.10219">
        <ele>286.78015136719</ele>
        <time>2014-11-19T13:41:49Z</time>
      </trkpt>
      <trkpt lat="43.42815" lon="6.1022">
        <ele>286.81594848633</ele>
        <time>2014-11-19T13:41:50Z</time>
      </trkpt>
      <trkpt lat="43.42813" lon="6.10221">
        <ele>286.83532714844</ele>
        <time>2014-11-19T13:41:51Z</time>
      </trkpt>
      <trkpt lat="43.42809" lon="6.10229">
        <ele>287.01528930664</ele>
        <time>2014-11-19T13:41:55Z</time>
      </trkpt>
      <trkpt lat="43.42806" lon="6.10233">
        <ele>287.14602661133</ele>
        <time>2014-11-19T13:41:57Z</time>
      </trkpt>
      <trkpt lat="43.42804" lon="6.10239">
        <ele>287.36688232422</ele>
        <time>2014-11-19T13:41:59Z</time>
      </trkpt>
      <trkpt lat="43.42801" lon="6.10247">
        <ele>287.64761352539</ele>
        <time>2014-11-19T13:42:01Z</time>
      </trkpt>
      <trkpt lat="43.42798" lon="6.10253">
        <ele>287.94247436523</ele>
        <time>2014-11-19T13:42:03Z</time>
      </trkpt>
      <trkpt lat="43.42796" lon="6.1026">
        <ele>288.3430480957</ele>
        <time>2014-11-19T13:42:05Z</time>
      </trkpt>
      <trkpt lat="43.42795" lon="6.10264">
        <ele>288.55862426758</ele>
        <time>2014-11-19T13:42:06Z</time>
      </trkpt>
      <trkpt lat="43.42794" lon="6.10268">
        <ele>288.77658081055</ele>
        <time>2014-11-19T13:42:07Z</time>
      </trkpt>
      <trkpt lat="43.42792" lon="6.10284">
        <ele>289.74697875977</ele>
        <time>2014-11-19T13:42:11Z</time>
      </trkpt>
      <trkpt lat="43.42789" lon="6.10292">
        <ele>290.16036987305</ele>
        <time>2014-11-19T13:42:13Z</time>
      </trkpt>
      <trkpt lat="43.42786" lon="6.10299">
        <ele>290.52319335938</ele>
        <time>2014-11-19T13:42:15Z</time>
      </trkpt>
      <trkpt lat="43.42782" lon="6.10306">
        <ele>290.77029418945</ele>
        <time>2014-11-19T13:42:17Z</time>
      </trkpt>
      <trkpt lat="43.42778" lon="6.10313">
        <ele>291.00326538086</ele>
        <time>2014-11-19T13:42:19Z</time>
      </trkpt>
      <trkpt lat="43.42774" lon="6.10318">
        <ele>291.17633056641</ele>
        <time>2014-11-19T13:42:21Z</time>
      </trkpt>
      <trkpt lat="43.42773" lon="6.10322">
        <ele>291.35015869141</ele>
        <time>2014-11-19T13:42:22Z</time>
      </trkpt>
      <trkpt lat="43.42772" lon="6.10325">
        <ele>291.55856323242</ele>
        <time>2014-11-19T13:42:23Z</time>
      </trkpt>
      <trkpt lat="43.42772" lon="6.10338">
        <ele>292.10971069336</ele>
        <time>2014-11-19T13:42:27Z</time>
      </trkpt>
      <trkpt lat="43.42772" lon="6.10341">
        <ele>292.14862060547</ele>
        <time>2014-11-19T13:42:28Z</time>
      </trkpt>
      <trkpt lat="43.42772" lon="6.10344">
        <ele>292.18353271484</ele>
        <time>2014-11-19T13:42:29Z</time>
      </trkpt>
      <trkpt lat="43.42772" lon="6.10351">
        <ele>292.24362182617</ele>
        <time>2014-11-19T13:42:31Z</time>
      </trkpt>
      <trkpt lat="43.42771" lon="6.10358">
        <ele>292.30596923828</ele>
        <time>2014-11-19T13:42:33Z</time>
      </trkpt>
      <trkpt lat="43.42771" lon="6.10364">
        <ele>292.38723754883</ele>
        <time>2014-11-19T13:42:35Z</time>
      </trkpt>
      <trkpt lat="43.42774" lon="6.10377">
        <ele>292.68020629883</ele>
        <time>2014-11-19T13:42:39Z</time>
      </trkpt>
      <trkpt lat="43.42776" lon="6.10382">
        <ele>292.85815429688</ele>
        <time>2014-11-19T13:42:41Z</time>
      </trkpt>
      <trkpt lat="43.4278" lon="6.10388">
        <ele>293.07501220703</ele>
        <time>2014-11-19T13:42:43Z</time>
      </trkpt>
      <trkpt lat="43.42785" lon="6.10398">
        <ele>293.47100830078</ele>
        <time>2014-11-19T13:42:47Z</time>
      </trkpt>
      <trkpt lat="43.42789" lon="6.1041">
        <ele>293.81716918945</ele>
        <time>2014-11-19T13:42:51Z</time>
      </trkpt>
      <trkpt lat="43.42791" lon="6.10416">
        <ele>293.94592285156</ele>
        <time>2014-11-19T13:42:53Z</time>
      </trkpt>
      <trkpt lat="43.42792" lon="6.10422">
        <ele>293.93887329102</ele>
        <time>2014-11-19T13:42:55Z</time>
      </trkpt>
      <trkpt lat="43.42793" lon="6.10427">
        <ele>293.95202636719</ele>
        <time>2014-11-19T13:42:57Z</time>
      </trkpt>
      <trkpt lat="43.42793" lon="6.1043">
        <ele>293.91998291016</ele>
        <time>2014-11-19T13:42:58Z</time>
      </trkpt>
      <trkpt lat="43.42794" lon="6.10432">
        <ele>293.92398071289</ele>
        <time>2014-11-19T13:42:59Z</time>
      </trkpt>
      <trkpt lat="43.42795" lon="6.10438">
        <ele>293.91198730469</ele>
        <time>2014-11-19T13:43:01Z</time>
      </trkpt>
      <trkpt lat="43.42796" lon="6.10448">
        <ele>293.84387207031</ele>
        <time>2014-11-19T13:43:05Z</time>
      </trkpt>
      <trkpt lat="43.42797" lon="6.10454">
        <ele>293.81698608398</ele>
        <time>2014-11-19T13:43:07Z</time>
      </trkpt>
      <trkpt lat="43.42798" lon="6.10456">
        <ele>293.82098388672</ele>
        <time>2014-11-19T13:43:08Z</time>
      </trkpt>
      <trkpt lat="43.42799" lon="6.10466">
        <ele>293.77233886719</ele>
        <time>2014-11-19T13:43:11Z</time>
      </trkpt>
      <trkpt lat="43.42802" lon="6.10483">
        <ele>293.70599365234</ele>
        <time>2014-11-19T13:43:15Z</time>
      </trkpt>
      <trkpt lat="43.42805" lon="6.10503">
        <ele>293.61212158203</ele>
        <time>2014-11-19T13:43:19Z</time>
      </trkpt>
      <trkpt lat="43.42807" lon="6.10514">
        <ele>293.58868408203</ele>
        <time>2014-11-19T13:43:21Z</time>
      </trkpt>
      <trkpt lat="43.4281" lon="6.10526">
        <ele>293.59439086914</ele>
        <time>2014-11-19T13:43:23Z</time>
      </trkpt>
      <trkpt lat="43.42819" lon="6.1055">
        <ele>293.70025634766</ele>
        <time>2014-11-19T13:43:27Z</time>
      </trkpt>
      <trkpt lat="43.42824" lon="6.10564">
        <ele>293.7763671875</ele>
        <time>2014-11-19T13:43:29Z</time>
      </trkpt>
      <trkpt lat="43.42828" lon="6.10578">
        <ele>293.80612182617</ele>
        <time>2014-11-19T13:43:31Z</time>
      </trkpt>
      <trkpt lat="43.42831" lon="6.10593">
        <ele>293.75689697266</ele>
        <time>2014-11-19T13:43:33Z</time>
      </trkpt>
      <trkpt lat="43.42834" lon="6.10609">
        <ele>293.71145629883</ele>
        <time>2014-11-19T13:43:35Z</time>
      </trkpt>
      <trkpt lat="43.42839" lon="6.10625">
        <ele>293.72189331055</ele>
        <time>2014-11-19T13:43:37Z</time>
      </trkpt>
      <trkpt lat="43.42841" lon="6.1064">
        <ele>293.62185668945</ele>
        <time>2014-11-19T13:43:39Z</time>
      </trkpt>
      <trkpt lat="43.42839" lon="6.10655">
        <ele>293.34136962891</ele>
        <time>2014-11-19T13:43:41Z</time>
      </trkpt>
      <trkpt lat="43.42838" lon="6.10664">
        <ele>293.20458984375</ele>
        <time>2014-11-19T13:43:42Z</time>
      </trkpt>
      <trkpt lat="43.42837" lon="6.10679">
        <ele>292.81695556641</ele>
        <time>2014-11-19T13:43:44Z</time>
      </trkpt>
      <trkpt lat="43.42837" lon="6.10687">
        <ele>292.63613891602</ele>
        <time>2014-11-19T13:43:45Z</time>
      </trkpt>
      <trkpt lat="43.42836" lon="6.10702">
        <ele>292.25848388672</ele>
        <time>2014-11-19T13:43:47Z</time>
      </trkpt>
      <trkpt lat="43.42836" lon="6.10717">
        <ele>291.88998413086</ele>
        <time>2014-11-19T13:43:49Z</time>
      </trkpt>
      <trkpt lat="43.42836" lon="6.10725">
        <ele>291.70916748047</ele>
        <time>2014-11-19T13:43:50Z</time>
      </trkpt>
      <trkpt lat="43.42838" lon="6.10763">
        <ele>290.70294189453</ele>
        <time>2014-11-19T13:43:55Z</time>
      </trkpt>
      <trkpt lat="43.42837" lon="6.10779">
        <ele>290.14163208008</ele>
        <time>2014-11-19T13:43:57Z</time>
      </trkpt>
      <trkpt lat="43.42835" lon="6.10794">
        <ele>289.5163269043</ele>
        <time>2014-11-19T13:43:59Z</time>
      </trkpt>
      <trkpt lat="43.42831" lon="6.10817">
        <ele>288.48986816406</ele>
        <time>2014-11-19T13:44:02Z</time>
      </trkpt>
      <trkpt lat="43.42828" lon="6.10841">
        <ele>287.60736083984</ele>
        <time>2014-11-19T13:44:05Z</time>
      </trkpt>
      <trkpt lat="43.42824" lon="6.10857">
        <ele>287.06781005859</ele>
        <time>2014-11-19T13:44:07Z</time>
      </trkpt>
      <trkpt lat="43.42818" lon="6.10871">
        <ele>286.46878051758</ele>
        <time>2014-11-19T13:44:09Z</time>
      </trkpt>
      <trkpt lat="43.42813" lon="6.10889">
        <ele>285.76721191406</ele>
        <time>2014-11-19T13:44:11Z</time>
      </trkpt>
      <trkpt lat="43.42811" lon="6.1091">
        <ele>285.10919189453</ele>
        <time>2014-11-19T13:44:13Z</time>
      </trkpt>
      <trkpt lat="43.4281" lon="6.10931">
        <ele>284.4162902832</ele>
        <time>2014-11-19T13:44:15Z</time>
      </trkpt>
      <trkpt lat="43.42811" lon="6.10953">
        <ele>283.716796875</ele>
        <time>2014-11-19T13:44:17Z</time>
      </trkpt>
      <trkpt lat="43.42812" lon="6.10964">
        <ele>283.44705200195</ele>
        <time>2014-11-19T13:44:18Z</time>
      </trkpt>
      <trkpt lat="43.42816" lon="6.10972">
        <ele>283.31893920898</ele>
        <time>2014-11-19T13:44:19Z</time>
      </trkpt>
      <trkpt lat="43.42824" lon="6.10983">
        <ele>283.26013183594</ele>
        <time>2014-11-19T13:44:21Z</time>
      </trkpt>
      <trkpt lat="43.42839" lon="6.11003">
        <ele>283.33749389648</ele>
        <time>2014-11-19T13:44:25Z</time>
      </trkpt>
      <trkpt lat="43.42842" lon="6.11008">
        <ele>283.4833984375</ele>
        <time>2014-11-19T13:44:26Z</time>
      </trkpt>
      <trkpt lat="43.42844" lon="6.11013">
        <ele>283.60049438477</ele>
        <time>2014-11-19T13:44:27Z</time>
      </trkpt>
      <trkpt lat="43.42848" lon="6.11023">
        <ele>283.77526855469</ele>
        <time>2014-11-19T13:44:29Z</time>
      </trkpt>
      <trkpt lat="43.42851" lon="6.11031">
        <ele>283.91610717773</ele>
        <time>2014-11-19T13:44:31Z</time>
      </trkpt>
      <trkpt lat="43.42855" lon="6.11039">
        <ele>284.04055786133</ele>
        <time>2014-11-19T13:44:33Z</time>
      </trkpt>
      <trkpt lat="43.42857" lon="6.11047">
        <ele>284.11456298828</ele>
        <time>2014-11-19T13:44:35Z</time>
      </trkpt>
      <trkpt lat="43.4286" lon="6.11059">
        <ele>284.14639282227</ele>
        <time>2014-11-19T13:44:38Z</time>
      </trkpt>
      <trkpt lat="43.4286" lon="6.11063">
        <ele>284.11596679688</ele>
        <time>2014-11-19T13:44:39Z</time>
      </trkpt>
      <trkpt lat="43.42859" lon="6.11071">
        <ele>284.02673339844</ele>
        <time>2014-11-19T13:44:41Z</time>
      </trkpt>
      <trkpt lat="43.42859" lon="6.11074">
        <ele>283.97579956055</ele>
        <time>2014-11-19T13:44:42Z</time>
      </trkpt>
      <trkpt lat="43.42857" lon="6.11076">
        <ele>283.91360473633</ele>
        <time>2014-11-19T13:44:43Z</time>
      </trkpt>
      <trkpt lat="43.42855" lon="6.1108">
        <ele>283.81799316406</ele>
        <time>2014-11-19T13:44:45Z</time>
      </trkpt>
      <trkpt lat="43.42855" lon="6.11082">
        <ele>283.79077148438</ele>
        <time>2014-11-19T13:44:46Z</time>
      </trkpt>
      <trkpt lat="43.42854" lon="6.11084">
        <ele>283.73815917969</ele>
        <time>2014-11-19T13:44:47Z</time>
      </trkpt>
      <trkpt lat="43.42852" lon="6.11086">
        <ele>283.66107177734</ele>
        <time>2014-11-19T13:44:49Z</time>
      </trkpt>
      <trkpt lat="43.42851" lon="6.1109">
        <ele>283.59664916992</ele>
        <time>2014-11-19T13:44:51Z</time>
      </trkpt>
      <trkpt lat="43.42851" lon="6.11093">
        <ele>283.57006835938</ele>
        <time>2014-11-19T13:44:53Z</time>
      </trkpt>
      <trkpt lat="43.42851" lon="6.11094">
        <ele>283.54708862305</ele>
        <time>2014-11-19T13:44:54Z</time>
      </trkpt>
      <trkpt lat="43.4285" lon="6.11095">
        <ele>283.51605224609</ele>
        <time>2014-11-19T13:44:55Z</time>
      </trkpt>
      <trkpt lat="43.42849" lon="6.11096">
        <ele>283.48663330078</ele>
        <time>2014-11-19T13:44:57Z</time>
      </trkpt>
      <trkpt lat="43.4285" lon="6.11097">
        <ele>283.49688720703</ele>
        <time>2014-11-19T13:44:59Z</time>
      </trkpt>
      <trkpt lat="43.4285" lon="6.11097">
        <ele>283.49688720703</ele>
        <time>2014-11-19T13:45:00Z</time>
      </trkpt>
      <trkpt lat="43.4285" lon="6.11096">
        <ele>283.49755859375</ele>
        <time>2014-11-19T13:45:09Z</time>
      </trkpt>
      <trkpt lat="43.4285" lon="6.11096">
        <ele>283.49755859375</ele>
        <time>2014-11-19T13:45:43Z</time>
      </trkpt>
      <trkpt lat="43.4285" lon="6.11096">
        <ele>283.49722290039</ele>
        <time>2014-11-19T13:46:15Z</time>
      </trkpt>
      <trkpt lat="43.4285" lon="6.11096">
        <ele>283.49722290039</ele>
        <time>2014-11-19T13:46:19Z</time>
      </trkpt>
      <trkpt lat="43.4285" lon="6.11097">
        <ele>283.49282836914</ele>
        <time>2014-11-19T13:46:21Z</time>
      </trkpt>
      <trkpt lat="43.42849" lon="6.11099">
        <ele>283.46783447266</ele>
        <time>2014-11-19T13:46:22Z</time>
      </trkpt>
      <trkpt lat="43.42849" lon="6.11101">
        <ele>283.45300292969</ele>
        <time>2014-11-19T13:46:23Z</time>
      </trkpt>
      <trkpt lat="43.42849" lon="6.11104">
        <ele>283.43023681641</ele>
        <time>2014-11-19T13:46:24Z</time>
      </trkpt>
      <trkpt lat="43.4285" lon="6.11108">
        <ele>283.41683959961</ele>
        <time>2014-11-19T13:46:25Z</time>
      </trkpt>
      <trkpt lat="43.42852" lon="6.11114">
        <ele>283.42495727539</ele>
        <time>2014-11-19T13:46:27Z</time>
      </trkpt>
      <trkpt lat="43.42857" lon="6.1112">
        <ele>283.46627807617</ele>
        <time>2014-11-19T13:46:29Z</time>
      </trkpt>
      <trkpt lat="43.42863" lon="6.11127">
        <ele>283.5002746582</ele>
        <time>2014-11-19T13:46:31Z</time>
      </trkpt>
      <trkpt lat="43.42868" lon="6.11134">
        <ele>283.48294067383</ele>
        <time>2014-11-19T13:46:33Z</time>
      </trkpt>
      <trkpt lat="43.42873" lon="6.11144">
        <ele>283.38681030273</ele>
        <time>2014-11-19T13:46:35Z</time>
      </trkpt>
      <trkpt lat="43.42878" lon="6.11155">
        <ele>283.23254394531</ele>
        <time>2014-11-19T13:46:37Z</time>
      </trkpt>
      <trkpt lat="43.42884" lon="6.11165">
        <ele>283.02923583984</ele>
        <time>2014-11-19T13:46:39Z</time>
      </trkpt>
      <trkpt lat="43.42887" lon="6.11172">
        <ele>282.79150390625</ele>
        <time>2014-11-19T13:46:40Z</time>
      </trkpt>
      <trkpt lat="43.4289" lon="6.11178">
        <ele>282.54113769531</ele>
        <time>2014-11-19T13:46:41Z</time>
      </trkpt>
      <trkpt lat="43.42892" lon="6.11185">
        <ele>282.25268554688</ele>
        <time>2014-11-19T13:46:42Z</time>
      </trkpt>
      <trkpt lat="43.42894" lon="6.11192">
        <ele>281.95672607422</ele>
        <time>2014-11-19T13:46:43Z</time>
      </trkpt>
      <trkpt lat="43.42894" lon="6.11198">
        <ele>281.70138549805</ele>
        <time>2014-11-19T13:46:44Z</time>
      </trkpt>
      <trkpt lat="43.42894" lon="6.11202">
        <ele>281.51501464844</ele>
        <time>2014-11-19T13:46:45Z</time>
      </trkpt>
      <trkpt lat="43.42892" lon="6.11209">
        <ele>281.26034545898</ele>
        <time>2014-11-19T13:46:47Z</time>
      </trkpt>
      <trkpt lat="43.42887" lon="6.11215">
        <ele>281.09811401367</ele>
        <time>2014-11-19T13:46:49Z</time>
      </trkpt>
      <trkpt lat="43.42881" lon="6.11222">
        <ele>280.92126464844</ele>
        <time>2014-11-19T13:46:51Z</time>
      </trkpt>
      <trkpt lat="43.42878" lon="6.11226">
        <ele>280.80035400391</ele>
        <time>2014-11-19T13:46:52Z</time>
      </trkpt>
      <trkpt lat="43.42875" lon="6.11231">
        <ele>280.70309448242</ele>
        <time>2014-11-19T13:46:53Z</time>
      </trkpt>
      <trkpt lat="43.42869" lon="6.11239">
        <ele>280.52490234375</ele>
        <time>2014-11-19T13:46:55Z</time>
      </trkpt>
      <trkpt lat="43.42864" lon="6.11246">
        <ele>280.40380859375</ele>
        <time>2014-11-19T13:46:57Z</time>
      </trkpt>
      <trkpt lat="43.42861" lon="6.11249">
        <ele>280.34948730469</ele>
        <time>2014-11-19T13:46:58Z</time>
      </trkpt>
      <trkpt lat="43.42859" lon="6.11253">
        <ele>280.2057800293</ele>
        <time>2014-11-19T13:46:59Z</time>
      </trkpt>
      <trkpt lat="43.42852" lon="6.11262">
        <ele>279.93518066406</ele>
        <time>2014-11-19T13:47:01Z</time>
      </trkpt>
      <trkpt lat="43.4285" lon="6.11267">
        <ele>279.82638549805</ele>
        <time>2014-11-19T13:47:02Z</time>
      </trkpt>
      <trkpt lat="43.42848" lon="6.11272">
        <ele>279.70895385742</ele>
        <time>2014-11-19T13:47:03Z</time>
      </trkpt>
      <trkpt lat="43.42846" lon="6.11279">
        <ele>279.54016113281</ele>
        <time>2014-11-19T13:47:04Z</time>
      </trkpt>
      <trkpt lat="43.42844" lon="6.11285">
        <ele>279.40512084961</ele>
        <time>2014-11-19T13:47:05Z</time>
      </trkpt>
      <trkpt lat="43.42839" lon="6.11297">
        <ele>279.35305786133</ele>
        <time>2014-11-19T13:47:07Z</time>
      </trkpt>
      <trkpt lat="43.42828" lon="6.11322">
        <ele>279.32989501953</ele>
        <time>2014-11-19T13:47:11Z</time>
      </trkpt>
      <trkpt lat="43.42822" lon="6.11336">
        <ele>278.9743347168</ele>
        <time>2014-11-19T13:47:13Z</time>
      </trkpt>
      <trkpt lat="43.42815" lon="6.11349">
        <ele>278.17230224609</ele>
        <time>2014-11-19T13:47:15Z</time>
      </trkpt>
      <trkpt lat="43.42807" lon="6.1136">
        <ele>277.81329345703</ele>
        <time>2014-11-19T13:47:17Z</time>
      </trkpt>
      <trkpt lat="43.42798" lon="6.11369">
        <ele>277.71969604492</ele>
        <time>2014-11-19T13:47:19Z</time>
      </trkpt>
      <trkpt lat="43.42793" lon="6.11372">
        <ele>277.78601074219</ele>
        <time>2014-11-19T13:47:20Z</time>
      </trkpt>
      <trkpt lat="43.42789" lon="6.11377">
        <ele>277.83795166016</ele>
        <time>2014-11-19T13:47:21Z</time>
      </trkpt>
      <trkpt lat="43.42779" lon="6.11387">
        <ele>278.08627319336</ele>
        <time>2014-11-19T13:47:23Z</time>
      </trkpt>
      <trkpt lat="43.4277" lon="6.11397">
        <ele>278.50183105469</ele>
        <time>2014-11-19T13:47:25Z</time>
      </trkpt>
      <trkpt lat="43.42767" lon="6.11404">
        <ele>278.62649536133</ele>
        <time>2014-11-19T13:47:26Z</time>
      </trkpt>
      <trkpt lat="43.42764" lon="6.11411">
        <ele>278.75161743164</ele>
        <time>2014-11-19T13:47:27Z</time>
      </trkpt>
      <trkpt lat="43.42757" lon="6.11425">
        <ele>278.93307495117</ele>
        <time>2014-11-19T13:47:29Z</time>
      </trkpt>
      <trkpt lat="43.42753" lon="6.11437">
        <ele>278.92956542969</ele>
        <time>2014-11-19T13:47:31Z</time>
      </trkpt>
      <trkpt lat="43.42751" lon="6.11443">
        <ele>278.92044067383</ele>
        <time>2014-11-19T13:47:32Z</time>
      </trkpt>
      <trkpt lat="43.42749" lon="6.1145">
        <ele>278.74273681641</ele>
        <time>2014-11-19T13:47:33Z</time>
      </trkpt>
      <trkpt lat="43.42746" lon="6.11463">
        <ele>277.79321289062</ele>
        <time>2014-11-19T13:47:35Z</time>
      </trkpt>
      <trkpt lat="43.42744" lon="6.11469">
        <ele>277.31936645508</ele>
        <time>2014-11-19T13:47:36Z</time>
      </trkpt>
      <trkpt lat="43.42743" lon="6.11474">
        <ele>276.81686401367</ele>
        <time>2014-11-19T13:47:37Z</time>
      </trkpt>
      <trkpt lat="43.42741" lon="6.11479">
        <ele>276.29418945312</ele>
        <time>2014-11-19T13:47:38Z</time>
      </trkpt>
      <trkpt lat="43.42739" lon="6.11484">
        <ele>275.88641357422</ele>
        <time>2014-11-19T13:47:39Z</time>
      </trkpt>
      <trkpt lat="43.42739" lon="6.11489">
        <ele>275.57019042969</ele>
        <time>2014-11-19T13:47:40Z</time>
      </trkpt>
      <trkpt lat="43.4274" lon="6.11502">
        <ele>275.09841918945</ele>
        <time>2014-11-19T13:47:42Z</time>
      </trkpt>
      <trkpt lat="43.42743" lon="6.11509">
        <ele>275.11459350586</ele>
        <time>2014-11-19T13:47:43Z</time>
      </trkpt>
      <trkpt lat="43.42746" lon="6.11515">
        <ele>275.1325378418</ele>
        <time>2014-11-19T13:47:44Z</time>
      </trkpt>
      <trkpt lat="43.42748" lon="6.11522">
        <ele>275.03359985352</ele>
        <time>2014-11-19T13:47:45Z</time>
      </trkpt>
      <trkpt lat="43.42749" lon="6.1153">
        <ele>274.64315795898</ele>
        <time>2014-11-19T13:47:46Z</time>
      </trkpt>
      <trkpt lat="43.4275" lon="6.11538">
        <ele>274.2594909668</ele>
        <time>2014-11-19T13:47:47Z</time>
      </trkpt>
      <trkpt lat="43.42751" lon="6.11546">
        <ele>273.42446899414</ele>
        <time>2014-11-19T13:47:48Z</time>
      </trkpt>
      <trkpt lat="43.42752" lon="6.11553">
        <ele>272.63604736328</ele>
        <time>2014-11-19T13:47:49Z</time>
      </trkpt>
      <trkpt lat="43.42754" lon="6.11567">
        <ele>271.24984741211</ele>
        <time>2014-11-19T13:47:51Z</time>
      </trkpt>
      <trkpt lat="43.42755" lon="6.11579">
        <ele>270.05487060547</ele>
        <time>2014-11-19T13:47:53Z</time>
      </trkpt>
      <trkpt lat="43.42756" lon="6.11589">
        <ele>268.98544311523</ele>
        <time>2014-11-19T13:47:55Z</time>
      </trkpt>
      <trkpt lat="43.42757" lon="6.116">
        <ele>268.01266479492</ele>
        <time>2014-11-19T13:47:57Z</time>
      </trkpt>
      <trkpt lat="43.42757" lon="6.11609">
        <ele>267.43481445312</ele>
        <time>2014-11-19T13:47:59Z</time>
      </trkpt>
      <trkpt lat="43.42756" lon="6.11613">
        <ele>267.36590576172</ele>
        <time>2014-11-19T13:48:00Z</time>
      </trkpt>
      <trkpt lat="43.42755" lon="6.11616">
        <ele>267.40270996094</ele>
        <time>2014-11-19T13:48:01Z</time>
      </trkpt>
      <trkpt lat="43.42753" lon="6.1162">
        <ele>267.6438293457</ele>
        <time>2014-11-19T13:48:02Z</time>
      </trkpt>
      <trkpt lat="43.42751" lon="6.11623">
        <ele>267.89373779297</ele>
        <time>2014-11-19T13:48:03Z</time>
      </trkpt>
      <trkpt lat="43.42747" lon="6.11627">
        <ele>267.62445068359</ele>
        <time>2014-11-19T13:48:04Z</time>
      </trkpt>
      <trkpt lat="43.42744" lon="6.11629">
        <ele>267.13165283203</ele>
        <time>2014-11-19T13:48:05Z</time>
      </trkpt>
      <trkpt lat="43.42736" lon="6.11634">
        <ele>266.08224487305</ele>
        <time>2014-11-19T13:48:07Z</time>
      </trkpt>
      <trkpt lat="43.42729" lon="6.11638">
        <ele>265.35610961914</ele>
        <time>2014-11-19T13:48:09Z</time>
      </trkpt>
      <trkpt lat="43.42727" lon="6.11638">
        <ele>265.1399230957</ele>
        <time>2014-11-19T13:48:10Z</time>
      </trkpt>
      <trkpt lat="43.42724" lon="6.11639">
        <ele>264.9221496582</ele>
        <time>2014-11-19T13:48:11Z</time>
      </trkpt>
      <trkpt lat="43.42722" lon="6.11643">
        <ele>264.68252563477</ele>
        <time>2014-11-19T13:48:12Z</time>
      </trkpt>
      <trkpt lat="43.4272" lon="6.11646">
        <ele>264.42263793945</ele>
        <time>2014-11-19T13:48:13Z</time>
      </trkpt>
      <trkpt lat="43.42719" lon="6.1165">
        <ele>264.22760009766</ele>
        <time>2014-11-19T13:48:14Z</time>
      </trkpt>
      <trkpt lat="43.42717" lon="6.11654">
        <ele>264.05239868164</ele>
        <time>2014-11-19T13:48:15Z</time>
      </trkpt>
      <trkpt lat="43.42714" lon="6.11661">
        <ele>263.79681396484</ele>
        <time>2014-11-19T13:48:17Z</time>
      </trkpt>
      <trkpt lat="43.42714" lon="6.11668">
        <ele>263.62438964844</ele>
        <time>2014-11-19T13:48:19Z</time>
      </trkpt>
      <trkpt lat="43.42715" lon="6.11672">
        <ele>263.48455810547</ele>
        <time>2014-11-19T13:48:20Z</time>
      </trkpt>
      <trkpt lat="43.42718" lon="6.11675">
        <ele>263.36773681641</ele>
        <time>2014-11-19T13:48:21Z</time>
      </trkpt>
      <trkpt lat="43.42723" lon="6.11682">
        <ele>263.0885925293</ele>
        <time>2014-11-19T13:48:23Z</time>
      </trkpt>
      <trkpt lat="43.42725" lon="6.11684">
        <ele>262.98098754883</ele>
        <time>2014-11-19T13:48:24Z</time>
      </trkpt>
      <trkpt lat="43.42728" lon="6.11688">
        <ele>262.78189086914</ele>
        <time>2014-11-19T13:48:26Z</time>
      </trkpt>
      <trkpt lat="43.4273" lon="6.11689">
        <ele>262.69226074219</ele>
        <time>2014-11-19T13:48:27Z</time>
      </trkpt>
      <trkpt lat="43.42733" lon="6.11695">
        <ele>262.31677246094</ele>
        <time>2014-11-19T13:48:29Z</time>
      </trkpt>
      <trkpt lat="43.42735" lon="6.11697">
        <ele>262.13516235352</ele>
        <time>2014-11-19T13:48:30Z</time>
      </trkpt>
      <trkpt lat="43.42736" lon="6.11698">
        <ele>262.03146362305</ele>
        <time>2014-11-19T13:48:31Z</time>
      </trkpt>
      <trkpt lat="43.42741" lon="6.117">
        <ele>261.87591552734</ele>
        <time>2014-11-19T13:48:33Z</time>
      </trkpt>
      <trkpt lat="43.42743" lon="6.11702">
        <ele>261.68911743164</ele>
        <time>2014-11-19T13:48:34Z</time>
      </trkpt>
      <trkpt lat="43.42745" lon="6.11703">
        <ele>261.52548217773</ele>
        <time>2014-11-19T13:48:35Z</time>
      </trkpt>
      <trkpt lat="43.42747" lon="6.11703">
        <ele>261.50302124023</ele>
        <time>2014-11-19T13:48:36Z</time>
      </trkpt>
      <trkpt lat="43.42751" lon="6.11703">
        <ele>261.35427856445</ele>
        <time>2014-11-19T13:48:37Z</time>
      </trkpt>
      <trkpt lat="43.42753" lon="6.11709">
        <ele>260.29879760742</ele>
        <time>2014-11-19T13:48:39Z</time>
      </trkpt>
      <trkpt lat="43.42755" lon="6.11714">
        <ele>259.22622680664</ele>
        <time>2014-11-19T13:48:41Z</time>
      </trkpt>
      <trkpt lat="43.42759" lon="6.11716">
        <ele>258.17623901367</ele>
        <time>2014-11-19T13:48:43Z</time>
      </trkpt>
      <trkpt lat="43.42766" lon="6.11714">
        <ele>256.74426269531</ele>
        <time>2014-11-19T13:48:45Z</time>
      </trkpt>
      <trkpt lat="43.42773" lon="6.11708">
        <ele>255.50421142578</ele>
        <time>2014-11-19T13:48:47Z</time>
      </trkpt>
      <trkpt lat="43.42778" lon="6.11705">
        <ele>254.6143951416</ele>
        <time>2014-11-19T13:48:48Z</time>
      </trkpt>
      <trkpt lat="43.42782" lon="6.11702">
        <ele>253.86653137207</ele>
        <time>2014-11-19T13:48:49Z</time>
      </trkpt>
      <trkpt lat="43.42785" lon="6.11697">
        <ele>253.48823547363</ele>
        <time>2014-11-19T13:48:50Z</time>
      </trkpt>
      <trkpt lat="43.42792" lon="6.11689">
        <ele>252.38218688965</ele>
        <time>2014-11-19T13:48:52Z</time>
      </trkpt>
      <trkpt lat="43.42796" lon="6.11688">
        <ele>251.50369262695</ele>
        <time>2014-11-19T13:48:53Z</time>
      </trkpt>
      <trkpt lat="43.42799" lon="6.1169">
        <ele>250.5534362793</ele>
        <time>2014-11-19T13:48:54Z</time>
      </trkpt>
      <trkpt lat="43.42801" lon="6.11696">
        <ele>249.61798095703</ele>
        <time>2014-11-19T13:48:55Z</time>
      </trkpt>
      <trkpt lat="43.42806" lon="6.1171">
        <ele>247.47294616699</ele>
        <time>2014-11-19T13:48:57Z</time>
      </trkpt>
      <trkpt lat="43.42809" lon="6.11727">
        <ele>245.63232421875</ele>
        <time>2014-11-19T13:48:59Z</time>
      </trkpt>
      <trkpt lat="43.42807" lon="6.11742">
        <ele>245.28381347656</ele>
        <time>2014-11-19T13:49:01Z</time>
      </trkpt>
      <trkpt lat="43.42805" lon="6.11748">
        <ele>245.21299743652</ele>
        <time>2014-11-19T13:49:02Z</time>
      </trkpt>
      <trkpt lat="43.42802" lon="6.11754">
        <ele>245.26988220215</ele>
        <time>2014-11-19T13:49:03Z</time>
      </trkpt>
      <trkpt lat="43.42796" lon="6.11762">
        <ele>245.76329040527</ele>
        <time>2014-11-19T13:49:05Z</time>
      </trkpt>
      <trkpt lat="43.42794" lon="6.11767">
        <ele>245.62931823731</ele>
        <time>2014-11-19T13:49:06Z</time>
      </trkpt>
      <trkpt lat="43.42795" lon="6.11773">
        <ele>245.00555419922</ele>
        <time>2014-11-19T13:49:07Z</time>
      </trkpt>
      <trkpt lat="43.42796" lon="6.11777">
        <ele>244.33670043945</ele>
        <time>2014-11-19T13:49:08Z</time>
      </trkpt>
      <trkpt lat="43.42797" lon="6.11781">
        <ele>243.7174987793</ele>
        <time>2014-11-19T13:49:09Z</time>
      </trkpt>
      <trkpt lat="43.42799" lon="6.11791">
        <ele>242.23574829102</ele>
        <time>2014-11-19T13:49:11Z</time>
      </trkpt>
      <trkpt lat="43.428" lon="6.11802">
        <ele>240.95738220215</ele>
        <time>2014-11-19T13:49:13Z</time>
      </trkpt>
      <trkpt lat="43.42801" lon="6.11807">
        <ele>240.21015930176</ele>
        <time>2014-11-19T13:49:14Z</time>
      </trkpt>
      <trkpt lat="43.42802" lon="6.11811">
        <ele>239.50770568848</ele>
        <time>2014-11-19T13:49:15Z</time>
      </trkpt>
      <trkpt lat="43.42804" lon="6.1182">
        <ele>238.36477661133</ele>
        <time>2014-11-19T13:49:17Z</time>
      </trkpt>
      <trkpt lat="43.42803" lon="6.11826">
        <ele>238.00688171387</ele>
        <time>2014-11-19T13:49:19Z</time>
      </trkpt>
      <trkpt lat="43.42802" lon="6.11832">
        <ele>237.55952453613</ele>
        <time>2014-11-19T13:49:21Z</time>
      </trkpt>
      <trkpt lat="43.42801" lon="6.11838">
        <ele>237.21389770508</ele>
        <time>2014-11-19T13:49:23Z</time>
      </trkpt>
      <trkpt lat="43.42799" lon="6.11843">
        <ele>237.30894470215</ele>
        <time>2014-11-19T13:49:25Z</time>
      </trkpt>
      <trkpt lat="43.42794" lon="6.11851">
        <ele>237.68037414551</ele>
        <time>2014-11-19T13:49:28Z</time>
      </trkpt>
      <trkpt lat="43.42792" lon="6.11852">
        <ele>238.05577087402</ele>
        <time>2014-11-19T13:49:29Z</time>
      </trkpt>
      <trkpt lat="43.42787" lon="6.11851">
        <ele>239.00294494629</ele>
        <time>2014-11-19T13:49:31Z</time>
      </trkpt>
      <trkpt lat="43.42778" lon="6.11844">
        <ele>241.40074157715</ele>
        <time>2014-11-19T13:49:35Z</time>
      </trkpt>
      <trkpt lat="43.42773" lon="6.11845">
        <ele>242.27905273438</ele>
        <time>2014-11-19T13:49:37Z</time>
      </trkpt>
      <trkpt lat="43.4277" lon="6.11846">
        <ele>242.84919738769</ele>
        <time>2014-11-19T13:49:39Z</time>
      </trkpt>
      <trkpt lat="43.42767" lon="6.11849">
        <ele>243.24688720703</ele>
        <time>2014-11-19T13:49:41Z</time>
      </trkpt>
      <trkpt lat="43.42765" lon="6.1185">
        <ele>243.47117614746</ele>
        <time>2014-11-19T13:49:42Z</time>
      </trkpt>
      <trkpt lat="43.42762" lon="6.11851">
        <ele>243.90199279785</ele>
        <time>2014-11-19T13:49:44Z</time>
      </trkpt>
      <trkpt lat="43.42761" lon="6.11851">
        <ele>244.07037353516</ele>
        <time>2014-11-19T13:49:45Z</time>
      </trkpt>
      <trkpt lat="43.4276" lon="6.11853">
        <ele>244.21658325195</ele>
        <time>2014-11-19T13:49:47Z</time>
      </trkpt>
      <trkpt lat="43.42758" lon="6.11854">
        <ele>244.42672729492</ele>
        <time>2014-11-19T13:49:49Z</time>
      </trkpt>
      <trkpt lat="43.42756" lon="6.11854">
        <ele>244.92538452148</ele>
        <time>2014-11-19T13:49:51Z</time>
      </trkpt>
      <trkpt lat="43.42753" lon="6.11855">
        <ele>245.33560180664</ele>
        <time>2014-11-19T13:49:53Z</time>
      </trkpt>
      <trkpt lat="43.42751" lon="6.11856">
        <ele>245.75540161133</ele>
        <time>2014-11-19T13:49:55Z</time>
      </trkpt>
      <trkpt lat="43.42749" lon="6.11858">
        <ele>245.86711120606</ele>
        <time>2014-11-19T13:49:57Z</time>
      </trkpt>
      <trkpt lat="43.42747" lon="6.1186">
        <ele>245.8983001709</ele>
        <time>2014-11-19T13:49:59Z</time>
      </trkpt>
      <trkpt lat="43.42746" lon="6.11863">
        <ele>245.92823791504</ele>
        <time>2014-11-19T13:50:01Z</time>
      </trkpt>
      <trkpt lat="43.42743" lon="6.11865">
        <ele>246.13877868652</ele>
        <time>2014-11-19T13:50:03Z</time>
      </trkpt>
      <trkpt lat="43.42741" lon="6.11867">
        <ele>246.47232055664</ele>
        <time>2014-11-19T13:50:05Z</time>
      </trkpt>
      <trkpt lat="43.42738" lon="6.11867">
        <ele>246.89031982422</ele>
        <time>2014-11-19T13:50:07Z</time>
      </trkpt>
      <trkpt lat="43.42735" lon="6.11868">
        <ele>247.33126831055</ele>
        <time>2014-11-19T13:50:09Z</time>
      </trkpt>
      <trkpt lat="43.42733" lon="6.11868">
        <ele>247.7174987793</ele>
        <time>2014-11-19T13:50:11Z</time>
      </trkpt>
      <trkpt lat="43.4273" lon="6.11869">
        <ele>248.14071655273</ele>
        <time>2014-11-19T13:50:13Z</time>
      </trkpt>
      <trkpt lat="43.42728" lon="6.1187">
        <ele>248.45672607422</ele>
        <time>2014-11-19T13:50:15Z</time>
      </trkpt>
      <trkpt lat="43.42724" lon="6.11872">
        <ele>248.9832611084</ele>
        <time>2014-11-19T13:50:19Z</time>
      </trkpt>
      <trkpt lat="43.42723" lon="6.11873">
        <ele>249.22045898438</ele>
        <time>2014-11-19T13:50:21Z</time>
      </trkpt>
      <trkpt lat="43.42719" lon="6.11875">
        <ele>249.83277893066</ele>
        <time>2014-11-19T13:50:24Z</time>
      </trkpt>
      <trkpt lat="43.42717" lon="6.11876">
        <ele>249.99194335938</ele>
        <time>2014-11-19T13:50:25Z</time>
      </trkpt>
      <trkpt lat="43.42713" lon="6.1188">
        <ele>250.63160705566</ele>
        <time>2014-11-19T13:50:29Z</time>
      </trkpt>
      <trkpt lat="43.4271" lon="6.11882">
        <ele>250.98039245606</ele>
        <time>2014-11-19T13:50:31Z</time>
      </trkpt>
      <trkpt lat="43.42704" lon="6.11886">
        <ele>251.91973876953</ele>
        <time>2014-11-19T13:50:35Z</time>
      </trkpt>
      <trkpt lat="43.42701" lon="6.11891">
        <ele>252.32276916504</ele>
        <time>2014-11-19T13:50:37Z</time>
      </trkpt>
      <trkpt lat="43.42699" lon="6.11895">
        <ele>252.64169311523</ele>
        <time>2014-11-19T13:50:39Z</time>
      </trkpt>
      <trkpt lat="43.42698" lon="6.11899">
        <ele>252.5657043457</ele>
        <time>2014-11-19T13:50:40Z</time>
      </trkpt>
      <trkpt lat="43.42699" lon="6.11902">
        <ele>252.34411621094</ele>
        <time>2014-11-19T13:50:41Z</time>
      </trkpt>
      <trkpt lat="43.42699" lon="6.11909">
        <ele>251.9412689209</ele>
        <time>2014-11-19T13:50:43Z</time>
      </trkpt>
      <trkpt lat="43.427" lon="6.11917">
        <ele>251.34474182129</ele>
        <time>2014-11-19T13:50:45Z</time>
      </trkpt>
      <trkpt lat="43.42702" lon="6.11922">
        <ele>250.89337158203</ele>
        <time>2014-11-19T13:50:46Z</time>
      </trkpt>
      <trkpt lat="43.42704" lon="6.11926">
        <ele>250.27697753906</ele>
        <time>2014-11-19T13:50:47Z</time>
      </trkpt>
      <trkpt lat="43.42707" lon="6.1193">
        <ele>249.57359313965</ele>
        <time>2014-11-19T13:50:48Z</time>
      </trkpt>
      <trkpt lat="43.4271" lon="6.11933">
        <ele>248.68690490723</ele>
        <time>2014-11-19T13:50:49Z</time>
      </trkpt>
      <trkpt lat="43.42718" lon="6.11941">
        <ele>246.62258911133</ele>
        <time>2014-11-19T13:50:51Z</time>
      </trkpt>
      <trkpt lat="43.42722" lon="6.11945">
        <ele>245.59329223633</ele>
        <time>2014-11-19T13:50:52Z</time>
      </trkpt>
      <trkpt lat="43.42725" lon="6.11949">
        <ele>244.68553161621</ele>
        <time>2014-11-19T13:50:53Z</time>
      </trkpt>
      <trkpt lat="43.42731" lon="6.11955">
        <ele>243.04731750488</ele>
        <time>2014-11-19T13:50:55Z</time>
      </trkpt>
      <trkpt lat="43.42732" lon="6.1196">
        <ele>242.71620178223</ele>
        <time>2014-11-19T13:50:56Z</time>
      </trkpt>
      <trkpt lat="43.42733" lon="6.11965">
        <ele>242.38592529297</ele>
        <time>2014-11-19T13:50:57Z</time>
      </trkpt>
      <trkpt lat="43.42733" lon="6.11974">
        <ele>241.9841003418</ele>
        <time>2014-11-19T13:50:59Z</time>
      </trkpt>
      <trkpt lat="43.42733" lon="6.11984">
        <ele>241.68939208984</ele>
        <time>2014-11-19T13:51:01Z</time>
      </trkpt>
      <trkpt lat="43.42733" lon="6.11988">
        <ele>241.55693054199</ele>
        <time>2014-11-19T13:51:02Z</time>
      </trkpt>
      <trkpt lat="43.42733" lon="6.11992">
        <ele>241.52716064453</ele>
        <time>2014-11-19T13:51:03Z</time>
      </trkpt>
      <trkpt lat="43.42733" lon="6.11999">
        <ele>241.31655883789</ele>
        <time>2014-11-19T13:51:05Z</time>
      </trkpt>
      <trkpt lat="43.42733" lon="6.12001">
        <ele>241.18530273438</ele>
        <time>2014-11-19T13:51:07Z</time>
      </trkpt>
      <trkpt lat="43.42733" lon="6.12001">
        <ele>241.28231811523</ele>
        <time>2014-11-19T13:51:09Z</time>
      </trkpt>
      <trkpt lat="43.42733" lon="6.12">
        <ele>241.28302001953</ele>
        <time>2014-11-19T13:51:11Z</time>
      </trkpt>
      <trkpt lat="43.42733" lon="6.12">
        <ele>241.28302001953</ele>
        <time>2014-11-19T13:51:13Z</time>
      </trkpt>
      <trkpt lat="43.42733" lon="6.12">
        <ele>241.28312683106</ele>
        <time>2014-11-19T13:51:15Z</time>
      </trkpt>
      <trkpt lat="43.42733" lon="6.12001">
        <ele>241.37770080566</ele>
        <time>2014-11-19T13:51:17Z</time>
      </trkpt>
      <trkpt lat="43.42733" lon="6.12002">
        <ele>241.37351989746</ele>
        <time>2014-11-19T13:51:18Z</time>
      </trkpt>
      <trkpt lat="43.42733" lon="6.12005">
        <ele>241.27215576172</ele>
        <time>2014-11-19T13:51:19Z</time>
      </trkpt>
      <trkpt lat="43.42734" lon="6.12011">
        <ele>241.06648254394</ele>
        <time>2014-11-19T13:51:21Z</time>
      </trkpt>
      <trkpt lat="43.42734" lon="6.12014">
        <ele>241.05799865723</ele>
        <time>2014-11-19T13:51:22Z</time>
      </trkpt>
      <trkpt lat="43.42735" lon="6.12018">
        <ele>240.85986328125</ele>
        <time>2014-11-19T13:51:23Z</time>
      </trkpt>
      <trkpt lat="43.42735" lon="6.12022">
        <ele>240.85073852539</ele>
        <time>2014-11-19T13:51:24Z</time>
      </trkpt>
      <trkpt lat="43.42733" lon="6.12033">
        <ele>241.29667663574</ele>
        <time>2014-11-19T13:51:27Z</time>
      </trkpt>
      <trkpt lat="43.42735" lon="6.12045">
        <ele>240.79803466797</ele>
        <time>2014-11-19T13:51:30Z</time>
      </trkpt>
      <trkpt lat="43.42735" lon="6.12049">
        <ele>240.69703674316</ele>
        <time>2014-11-19T13:51:31Z</time>
      </trkpt>
      <trkpt lat="43.42735" lon="6.12055">
        <ele>240.59014892578</ele>
        <time>2014-11-19T13:51:33Z</time>
      </trkpt>
      <trkpt lat="43.42735" lon="6.12061">
        <ele>240.57833862305</ele>
        <time>2014-11-19T13:51:35Z</time>
      </trkpt>
      <trkpt lat="43.42736" lon="6.12066">
        <ele>240.38278198242</ele>
        <time>2014-11-19T13:51:37Z</time>
      </trkpt>
      <trkpt lat="43.42736" lon="6.12071">
        <ele>240.28028869629</ele>
        <time>2014-11-19T13:51:39Z</time>
      </trkpt>
      <trkpt lat="43.42737" lon="6.12075">
        <ele>240.08770751953</ele>
        <time>2014-11-19T13:51:41Z</time>
      </trkpt>
      <trkpt lat="43.42739" lon="6.12079">
        <ele>239.62078857422</ele>
        <time>2014-11-19T13:51:43Z</time>
      </trkpt>
      <trkpt lat="43.42741" lon="6.12085">
        <ele>239.05570983887</ele>
        <time>2014-11-19T13:51:45Z</time>
      </trkpt>
      <trkpt lat="43.42744" lon="6.1209">
        <ele>238.49249267578</ele>
        <time>2014-11-19T13:51:47Z</time>
      </trkpt>
      <trkpt lat="43.42745" lon="6.12093">
        <ele>238.21273803711</ele>
        <time>2014-11-19T13:51:48Z</time>
      </trkpt>
      <trkpt lat="43.42746" lon="6.12096">
        <ele>237.93768310547</ele>
        <time>2014-11-19T13:51:49Z</time>
      </trkpt>
      <trkpt lat="43.42749" lon="6.12101">
        <ele>237.31234741211</ele>
        <time>2014-11-19T13:51:51Z</time>
      </trkpt>
      <trkpt lat="43.42753" lon="6.12106">
        <ele>236.30047607422</ele>
        <time>2014-11-19T13:51:53Z</time>
      </trkpt>
      <trkpt lat="43.42758" lon="6.12112">
        <ele>235.27848815918</ele>
        <time>2014-11-19T13:51:55Z</time>
      </trkpt>
      <trkpt lat="43.42759" lon="6.12119">
        <ele>234.90420532227</ele>
        <time>2014-11-19T13:51:57Z</time>
      </trkpt>
      <trkpt lat="43.4276" lon="6.12123">
        <ele>234.62309265137</ele>
        <time>2014-11-19T13:51:58Z</time>
      </trkpt>
      <trkpt lat="43.42761" lon="6.12128">
        <ele>234.42239379883</ele>
        <time>2014-11-19T13:51:59Z</time>
      </trkpt>
      <trkpt lat="43.42765" lon="6.12137">
        <ele>233.37496948242</ele>
        <time>2014-11-19T13:52:01Z</time>
      </trkpt>
      <trkpt lat="43.42768" lon="6.12142">
        <ele>232.60202026367</ele>
        <time>2014-11-19T13:52:02Z</time>
      </trkpt>
      <trkpt lat="43.42771" lon="6.12148">
        <ele>231.99452209473</ele>
        <time>2014-11-19T13:52:03Z</time>
      </trkpt>
      <trkpt lat="43.42776" lon="6.12155">
        <ele>230.59616088867</ele>
        <time>2014-11-19T13:52:05Z</time>
      </trkpt>
      <trkpt lat="43.42779" lon="6.12159">
        <ele>229.87478637695</ele>
        <time>2014-11-19T13:52:06Z</time>
      </trkpt>
      <trkpt lat="43.42781" lon="6.12161">
        <ele>229.26542663574</ele>
        <time>2014-11-19T13:52:07Z</time>
      </trkpt>
      <trkpt lat="43.42785" lon="6.12163">
        <ele>228.27737426758</ele>
        <time>2014-11-19T13:52:08Z</time>
      </trkpt>
      <trkpt lat="43.42793" lon="6.12165">
        <ele>226.22113037109</ele>
        <time>2014-11-19T13:52:10Z</time>
      </trkpt>
      <trkpt lat="43.42796" lon="6.12166">
        <ele>225.45043945312</ele>
        <time>2014-11-19T13:52:11Z</time>
      </trkpt>
      <trkpt lat="43.42801" lon="6.12166">
        <ele>224.20101928711</ele>
        <time>2014-11-19T13:52:13Z</time>
      </trkpt>
      <trkpt lat="43.42807" lon="6.12166">
        <ele>222.65696716309</ele>
        <time>2014-11-19T13:52:15Z</time>
      </trkpt>
      <trkpt lat="43.42811" lon="6.12165">
        <ele>221.64994812012</ele>
        <time>2014-11-19T13:52:17Z</time>
      </trkpt>
      <trkpt lat="43.42818" lon="6.12163">
        <ele>220.08297729492</ele>
        <time>2014-11-19T13:52:19Z</time>
      </trkpt>
      <trkpt lat="43.42824" lon="6.12162">
        <ele>218.50701904297</ele>
        <time>2014-11-19T13:52:21Z</time>
      </trkpt>
      <trkpt lat="43.42831" lon="6.12161">
        <ele>216.82623291016</ele>
        <time>2014-11-19T13:52:23Z</time>
      </trkpt>
      <trkpt lat="43.42838" lon="6.12162">
        <ele>215.74990844727</ele>
        <time>2014-11-19T13:52:25Z</time>
      </trkpt>
      <trkpt lat="43.42846" lon="6.12162">
        <ele>214.88702392578</ele>
        <time>2014-11-19T13:52:27Z</time>
      </trkpt>
      <trkpt lat="43.42862" lon="6.12165">
        <ele>212.96899414062</ele>
        <time>2014-11-19T13:52:31Z</time>
      </trkpt>
      <trkpt lat="43.42866" lon="6.12164">
        <ele>212.60507202148</ele>
        <time>2014-11-19T13:52:32Z</time>
      </trkpt>
      <trkpt lat="43.42871" lon="6.12162">
        <ele>212.19537353516</ele>
        <time>2014-11-19T13:52:33Z</time>
      </trkpt>
      <trkpt lat="43.42881" lon="6.1216">
        <ele>211.20431518555</ele>
        <time>2014-11-19T13:52:35Z</time>
      </trkpt>
      <trkpt lat="43.42891" lon="6.12157">
        <ele>210.24301147461</ele>
        <time>2014-11-19T13:52:37Z</time>
      </trkpt>
      <trkpt lat="43.42896" lon="6.12154">
        <ele>209.88595581055</ele>
        <time>2014-11-19T13:52:38Z</time>
      </trkpt>
      <trkpt lat="43.42899" lon="6.12149">
        <ele>209.77380371094</ele>
        <time>2014-11-19T13:52:39Z</time>
      </trkpt>
      <trkpt lat="43.42905" lon="6.12138">
        <ele>209.67767333984</ele>
        <time>2014-11-19T13:52:41Z</time>
      </trkpt>
      <trkpt lat="43.42905" lon="6.12126">
        <ele>210.21783447266</ele>
        <time>2014-11-19T13:52:43Z</time>
      </trkpt>
      <trkpt lat="43.42905" lon="6.12121">
        <ele>210.4970703125</ele>
        <time>2014-11-19T13:52:44Z</time>
      </trkpt>
      <trkpt lat="43.42905" lon="6.12115">
        <ele>210.68246459961</ele>
        <time>2014-11-19T13:52:45Z</time>
      </trkpt>
      <trkpt lat="43.42905" lon="6.12103">
        <ele>211.32333374023</ele>
        <time>2014-11-19T13:52:47Z</time>
      </trkpt>
      <trkpt lat="43.42904" lon="6.12089">
        <ele>212.11755371094</ele>
        <time>2014-11-19T13:52:49Z</time>
      </trkpt>
      <trkpt lat="43.42904" lon="6.12082">
        <ele>212.45993041992</ele>
        <time>2014-11-19T13:52:50Z</time>
      </trkpt>
      <trkpt lat="43.42904" lon="6.12075">
        <ele>212.78129577637</ele>
        <time>2014-11-19T13:52:51Z</time>
      </trkpt>
      <trkpt lat="43.42904" lon="6.12068">
        <ele>213.13641357422</ele>
        <time>2014-11-19T13:52:52Z</time>
      </trkpt>
      <trkpt lat="43.42903" lon="6.12062">
        <ele>213.50004577637</ele>
        <time>2014-11-19T13:52:53Z</time>
      </trkpt>
      <trkpt lat="43.429" lon="6.1205">
        <ele>214.35014343262</ele>
        <time>2014-11-19T13:52:55Z</time>
      </trkpt>
      <trkpt lat="43.42898" lon="6.12037">
        <ele>215.09132385254</ele>
        <time>2014-11-19T13:52:57Z</time>
      </trkpt>
      <trkpt lat="43.42897" lon="6.12024">
        <ele>215.76171875</ele>
        <time>2014-11-19T13:52:59Z</time>
      </trkpt>
      <trkpt lat="43.42896" lon="6.1201">
        <ele>216.55517578125</ele>
        <time>2014-11-19T13:53:01Z</time>
      </trkpt>
      <trkpt lat="43.42894" lon="6.12003">
        <ele>217.02893066406</ele>
        <time>2014-11-19T13:53:02Z</time>
      </trkpt>
      <trkpt lat="43.42893" lon="6.11997">
        <ele>217.39787292481</ele>
        <time>2014-11-19T13:53:03Z</time>
      </trkpt>
      <trkpt lat="43.42888" lon="6.11987">
        <ele>218.23443603516</ele>
        <time>2014-11-19T13:53:05Z</time>
      </trkpt>
      <trkpt lat="43.42885" lon="6.11983">
        <ele>218.6435546875</ele>
        <time>2014-11-19T13:53:06Z</time>
      </trkpt>
      <trkpt lat="43.42884" lon="6.11978">
        <ele>218.96685791016</ele>
        <time>2014-11-19T13:53:07Z</time>
      </trkpt>
      <trkpt lat="43.4288" lon="6.11967">
        <ele>219.68267822266</ele>
        <time>2014-11-19T13:53:09Z</time>
      </trkpt>
      <trkpt lat="43.4288" lon="6.11962">
        <ele>219.91328430176</ele>
        <time>2014-11-19T13:53:10Z</time>
      </trkpt>
      <trkpt lat="43.42879" lon="6.11957">
        <ele>220.1198425293</ele>
        <time>2014-11-19T13:53:11Z</time>
      </trkpt>
      <trkpt lat="43.42879" lon="6.11953">
        <ele>220.27606201172</ele>
        <time>2014-11-19T13:53:12Z</time>
      </trkpt>
      <trkpt lat="43.42878" lon="6.11943">
        <ele>220.80249023438</ele>
        <time>2014-11-19T13:53:15Z</time>
      </trkpt>
      <trkpt lat="43.42878" lon="6.11938">
        <ele>220.97071838379</ele>
        <time>2014-11-19T13:53:17Z</time>
      </trkpt>
      <trkpt lat="43.42875" lon="6.11922">
        <ele>221.77581787109</ele>
        <time>2014-11-19T13:53:21Z</time>
      </trkpt>
      <trkpt lat="43.42876" lon="6.11917">
        <ele>221.92459106445</ele>
        <time>2014-11-19T13:53:22Z</time>
      </trkpt>
      <trkpt lat="43.42876" lon="6.11912">
        <ele>222.11582946777</ele>
        <time>2014-11-19T13:53:23Z</time>
      </trkpt>
      <trkpt lat="43.42877" lon="6.11904">
        <ele>222.52038574219</ele>
        <time>2014-11-19T13:53:25Z</time>
      </trkpt>
      <trkpt lat="43.42878" lon="6.11898">
        <ele>222.84423828125</ele>
        <time>2014-11-19T13:53:27Z</time>
      </trkpt>
      <trkpt lat="43.42877" lon="6.11895">
        <ele>223.07827758789</ele>
        <time>2014-11-19T13:53:28Z</time>
      </trkpt>
      <trkpt lat="43.42877" lon="6.11893">
        <ele>223.26654052734</ele>
        <time>2014-11-19T13:53:29Z</time>
      </trkpt>
      <trkpt lat="43.42876" lon="6.1189">
        <ele>223.49426269531</ele>
        <time>2014-11-19T13:53:30Z</time>
      </trkpt>
      <trkpt lat="43.42875" lon="6.11888">
        <ele>223.69053649902</ele>
        <time>2014-11-19T13:53:31Z</time>
      </trkpt>
      <trkpt lat="43.42874" lon="6.11886">
        <ele>223.94345092773</ele>
        <time>2014-11-19T13:53:33Z</time>
      </trkpt>
      <trkpt lat="43.42875" lon="6.11883">
        <ele>224.0018157959</ele>
        <time>2014-11-19T13:53:35Z</time>
      </trkpt>
      <trkpt lat="43.42874" lon="6.11879">
        <ele>224.34112548828</ele>
        <time>2014-11-19T13:53:37Z</time>
      </trkpt>
      <trkpt lat="43.42874" lon="6.11877">
        <ele>224.47560119629</ele>
        <time>2014-11-19T13:53:39Z</time>
      </trkpt>
      <trkpt lat="43.42878" lon="6.11867">
        <ele>224.75540161133</ele>
        <time>2014-11-19T13:53:43Z</time>
      </trkpt>
      <trkpt lat="43.42877" lon="6.11864">
        <ele>224.97799682617</ele>
        <time>2014-11-19T13:53:44Z</time>
      </trkpt>
      <trkpt lat="43.42877" lon="6.11861">
        <ele>225.12104797363</ele>
        <time>2014-11-19T13:53:45Z</time>
      </trkpt>
      <trkpt lat="43.42877" lon="6.11857">
        <ele>225.39514160156</ele>
        <time>2014-11-19T13:53:47Z</time>
      </trkpt>
      <trkpt lat="43.42875" lon="6.11852">
        <ele>225.89868164062</ele>
        <time>2014-11-19T13:53:49Z</time>
      </trkpt>
      <trkpt lat="43.42873" lon="6.11849">
        <ele>226.19107055664</ele>
        <time>2014-11-19T13:53:50Z</time>
      </trkpt>
      <trkpt lat="43.42872" lon="6.11847">
        <ele>226.4296875</ele>
        <time>2014-11-19T13:53:51Z</time>
      </trkpt>
      <trkpt lat="43.42872" lon="6.11844">
        <ele>226.64367675781</ele>
        <time>2014-11-19T13:53:52Z</time>
      </trkpt>
      <trkpt lat="43.42873" lon="6.11825">
        <ele>228.04281616211</ele>
        <time>2014-11-19T13:53:57Z</time>
      </trkpt>
      <trkpt lat="43.42874" lon="6.11817">
        <ele>228.71907043457</ele>
        <time>2014-11-19T13:53:59Z</time>
      </trkpt>
      <trkpt lat="43.42875" lon="6.11812">
        <ele>229.1630859375</ele>
        <time>2014-11-19T13:54:00Z</time>
      </trkpt>
      <trkpt lat="43.42875" lon="6.11807">
        <ele>229.71376037598</ele>
        <time>2014-11-19T13:54:01Z</time>
      </trkpt>
      <trkpt lat="43.42876" lon="6.11799">
        <ele>230.40661621094</ele>
        <time>2014-11-19T13:54:03Z</time>
      </trkpt>
      <trkpt lat="43.42879" lon="6.11785">
        <ele>231.5516204834</ele>
        <time>2014-11-19T13:54:07Z</time>
      </trkpt>
      <trkpt lat="43.4288" lon="6.1178">
        <ele>232.03216552734</ele>
        <time>2014-11-19T13:54:09Z</time>
      </trkpt>
      <trkpt lat="43.4288" lon="6.11775">
        <ele>232.50315856934</ele>
        <time>2014-11-19T13:54:11Z</time>
      </trkpt>
      <trkpt lat="43.4288" lon="6.11771">
        <ele>232.88534545898</ele>
        <time>2014-11-19T13:54:13Z</time>
      </trkpt>
      <trkpt lat="43.42881" lon="6.1177">
        <ele>232.95509338379</ele>
        <time>2014-11-19T13:54:14Z</time>
      </trkpt>
      <trkpt lat="43.42881" lon="6.11769">
        <ele>233.02128601074</ele>
        <time>2014-11-19T13:54:15Z</time>
      </trkpt>
      <trkpt lat="43.42883" lon="6.11766">
        <ele>233.26614379883</ele>
        <time>2014-11-19T13:54:17Z</time>
      </trkpt>
      <trkpt lat="43.42884" lon="6.11764">
        <ele>233.25936889648</ele>
        <time>2014-11-19T13:54:19Z</time>
      </trkpt>
      <trkpt lat="43.42884" lon="6.11763">
        <ele>233.32836914062</ele>
        <time>2014-11-19T13:54:21Z</time>
      </trkpt>
      <trkpt lat="43.42884" lon="6.11763">
        <ele>233.41040039062</ele>
        <time>2014-11-19T13:54:23Z</time>
      </trkpt>
      <trkpt lat="43.42884" lon="6.11763">
        <ele>233.41040039062</ele>
        <time>2014-11-19T13:54:25Z</time>
      </trkpt>
      <trkpt lat="43.42884" lon="6.11763">
        <ele>233.36286926269</ele>
        <time>2014-11-19T13:54:27Z</time>
      </trkpt>
      <trkpt lat="43.42885" lon="6.11763">
        <ele>233.28080749512</ele>
        <time>2014-11-19T13:54:29Z</time>
      </trkpt>
      <trkpt lat="43.42885" lon="6.11764">
        <ele>233.2413482666</ele>
        <time>2014-11-19T13:54:30Z</time>
      </trkpt>
      <trkpt lat="43.42886" lon="6.11765">
        <ele>233.08195495606</ele>
        <time>2014-11-19T13:54:31Z</time>
      </trkpt>
      <trkpt lat="43.42888" lon="6.11767">
        <ele>232.6619720459</ele>
        <time>2014-11-19T13:54:32Z</time>
      </trkpt>
      <trkpt lat="43.42889" lon="6.11768">
        <ele>232.53158569336</ele>
        <time>2014-11-19T13:54:33Z</time>
      </trkpt>
      <trkpt lat="43.42889" lon="6.11768">
        <ele>232.47874450684</ele>
        <time>2014-11-19T13:54:35Z</time>
      </trkpt>
      <trkpt lat="43.42889" lon="6.11768">
        <ele>232.48866271973</ele>
        <time>2014-11-19T13:54:36Z</time>
      </trkpt>
      <trkpt lat="43.42889" lon="6.11767">
        <ele>232.50354003906</ele>
        <time>2014-11-19T13:54:37Z</time>
      </trkpt>
      <trkpt lat="43.42889" lon="6.11768">
        <ele>232.46060180664</ele>
        <time>2014-11-19T13:54:39Z</time>
      </trkpt>
      <trkpt lat="43.4289" lon="6.11769">
        <ele>232.28857421875</ele>
        <time>2014-11-19T13:54:41Z</time>
      </trkpt>
      <trkpt lat="43.4289" lon="6.1177">
        <ele>232.13128662109</ele>
        <time>2014-11-19T13:54:43Z</time>
      </trkpt>
      <trkpt lat="43.4289" lon="6.1177">
        <ele>232.17437744141</ele>
        <time>2014-11-19T13:54:45Z</time>
      </trkpt>
      <trkpt lat="43.42889" lon="6.1177">
        <ele>232.19262695312</ele>
        <time>2014-11-19T13:54:47Z</time>
      </trkpt>
      <trkpt lat="43.4289" lon="6.11771">
        <ele>232.10981750488</ele>
        <time>2014-11-19T13:54:49Z</time>
      </trkpt>
      <trkpt lat="43.4289" lon="6.11771">
        <ele>232.04684448242</ele>
        <time>2014-11-19T13:54:53Z</time>
      </trkpt>
      <trkpt lat="43.42891" lon="6.11771">
        <ele>231.93569946289</ele>
        <time>2014-11-19T13:54:57Z</time>
      </trkpt>
      <trkpt lat="43.42891" lon="6.11771">
        <ele>231.95558166504</ele>
        <time>2014-11-19T13:54:59Z</time>
      </trkpt>
      <trkpt lat="43.42891" lon="6.11771">
        <ele>231.94067382812</ele>
        <time>2014-11-19T13:55:03Z</time>
      </trkpt>
      <trkpt lat="43.42891" lon="6.11771">
        <ele>231.95062255859</ele>
        <time>2014-11-19T13:55:05Z</time>
      </trkpt>
      <trkpt lat="43.42891" lon="6.11772">
        <ele>231.87760925293</ele>
        <time>2014-11-19T13:55:07Z</time>
      </trkpt>
      <trkpt lat="43.42892" lon="6.11772">
        <ele>231.76472473144</ele>
        <time>2014-11-19T13:55:09Z</time>
      </trkpt>
      <trkpt lat="43.42892" lon="6.11773">
        <ele>231.74481201172</ele>
        <time>2014-11-19T13:55:10Z</time>
      </trkpt>
      <trkpt lat="43.42892" lon="6.11773">
        <ele>231.72489929199</ele>
        <time>2014-11-19T13:55:13Z</time>
      </trkpt>
      <trkpt lat="43.42892" lon="6.11773">
        <ele>231.71990966797</ele>
        <time>2014-11-19T13:55:15Z</time>
      </trkpt>
      <trkpt lat="43.42892" lon="6.11773">
        <ele>231.68661499023</ele>
        <time>2014-11-19T13:55:17Z</time>
      </trkpt>
      <trkpt lat="43.42892" lon="6.11773">
        <ele>231.67665100098</ele>
        <time>2014-11-19T13:55:19Z</time>
      </trkpt>
      <trkpt lat="43.42892" lon="6.11774">
        <ele>231.60194396973</ele>
        <time>2014-11-19T13:55:21Z</time>
      </trkpt>
      <trkpt lat="43.42892" lon="6.11774">
        <ele>231.55364990234</ele>
        <time>2014-11-19T13:55:22Z</time>
      </trkpt>
      <trkpt lat="43.42893" lon="6.11775">
        <ele>231.38218688965</ele>
        <time>2014-11-19T13:55:23Z</time>
      </trkpt>
      <trkpt lat="43.42894" lon="6.11776">
        <ele>231.20404052734</ele>
        <time>2014-11-19T13:55:25Z</time>
      </trkpt>
      <trkpt lat="43.42894" lon="6.11777">
        <ele>231.09065246582</ele>
        <time>2014-11-19T13:55:27Z</time>
      </trkpt>
      <trkpt lat="43.42894" lon="6.11777">
        <ele>231.07566833496</ele>
        <time>2014-11-19T13:55:28Z</time>
      </trkpt>
      <trkpt lat="43.42894" lon="6.11777">
        <ele>231.05070495606</ele>
        <time>2014-11-19T13:55:29Z</time>
      </trkpt>
      <trkpt lat="43.42894" lon="6.11777">
        <ele>231.04071044922</ele>
        <time>2014-11-19T13:55:31Z</time>
      </trkpt>
      <trkpt lat="43.42894" lon="6.11777">
        <ele>231.06927490234</ele>
        <time>2014-11-19T13:55:33Z</time>
      </trkpt>
      <trkpt lat="43.42894" lon="6.11777">
        <ele>231.05928039551</ele>
        <time>2014-11-19T13:55:35Z</time>
      </trkpt>
      <trkpt lat="43.42894" lon="6.11777">
        <ele>231.05928039551</ele>
        <time>2014-11-19T13:55:37Z</time>
      </trkpt>
      <trkpt lat="43.42894" lon="6.11778">
        <ele>231.05429077148</ele>
        <time>2014-11-19T13:55:39Z</time>
      </trkpt>
      <trkpt lat="43.42894" lon="6.11778">
        <ele>230.98442077637</ele>
        <time>2014-11-19T13:56:31Z</time>
      </trkpt>
      <trkpt lat="43.42894" lon="6.11778">
        <ele>230.98442077637</ele>
        <time>2014-11-19T13:56:37Z</time>
      </trkpt>
      <trkpt lat="43.42894" lon="6.11779">
        <ele>230.94947814941</ele>
        <time>2014-11-19T13:57:21Z</time>
      </trkpt>
      <trkpt lat="43.42894" lon="6.11779">
        <ele>230.91453552246</ele>
        <time>2014-11-19T13:58:00Z</time>
      </trkpt>
      <trkpt lat="43.42894" lon="6.11779">
        <ele>230.91453552246</ele>
        <time>2014-11-19T13:58:30Z</time>
      </trkpt>
      <trkpt lat="43.42894" lon="6.11779">
        <ele>230.90954589844</ele>
        <time>2014-11-19T13:58:32Z</time>
      </trkpt>
      <trkpt lat="43.42894" lon="6.11779">
        <ele>230.90954589844</ele>
        <time>2014-11-19T13:58:37Z</time>
      </trkpt>
      <trkpt lat="43.42894" lon="6.11779">
        <ele>230.90954589844</ele>
        <time>2014-11-19T13:58:52Z</time>
      </trkpt>
      <trkpt lat="43.42894" lon="6.11779">
        <ele>230.86961364746</ele>
        <time>2014-11-19T14:00:14Z</time>
      </trkpt>
      <trkpt lat="43.42894" lon="6.11779">
        <ele>230.85963439941</ele>
        <time>2014-11-19T14:00:30Z</time>
      </trkpt>
      <trkpt lat="43.42895" lon="6.11781">
        <ele>230.6086730957</ele>
        <time>2014-11-19T14:00:32Z</time>
      </trkpt>
      <trkpt lat="43.42895" lon="6.11782">
        <ele>230.41987609863</ele>
        <time>2014-11-19T14:00:33Z</time>
      </trkpt>
      <trkpt lat="43.42896" lon="6.11784">
        <ele>230.24092102051</ele>
        <time>2014-11-19T14:00:34Z</time>
      </trkpt>
      <trkpt lat="43.42896" lon="6.11786">
        <ele>229.99673461914</ele>
        <time>2014-11-19T14:00:36Z</time>
      </trkpt>
      <trkpt lat="43.42896" lon="6.11786">
        <ele>229.94665527344</ele>
        <time>2014-11-19T14:00:39Z</time>
      </trkpt>
      <trkpt lat="43.42896" lon="6.11786">
        <ele>229.92663574219</ele>
        <time>2014-11-19T14:00:40Z</time>
      </trkpt>
      <trkpt lat="43.42896" lon="6.11787">
        <ele>229.89659118652</ele>
        <time>2014-11-19T14:00:42Z</time>
      </trkpt>
      <trkpt lat="43.42896" lon="6.11787">
        <ele>229.89659118652</ele>
        <time>2014-11-19T14:00:44Z</time>
      </trkpt>
      <trkpt lat="43.42896" lon="6.11787">
        <ele>229.90159606934</ele>
        <time>2014-11-19T14:00:46Z</time>
      </trkpt>
      <trkpt lat="43.42896" lon="6.11787">
        <ele>229.88656616211</ele>
        <time>2014-11-19T14:01:22Z</time>
      </trkpt>
      <trkpt lat="43.42896" lon="6.11787">
        <ele>229.89157104492</ele>
        <time>2014-11-19T14:01:26Z</time>
      </trkpt>
      <trkpt lat="43.42896" lon="6.11787">
        <ele>229.89659118652</ele>
        <time>2014-11-19T14:01:30Z</time>
      </trkpt>
      <trkpt lat="43.42896" lon="6.11787">
        <ele>229.89157104492</ele>
        <time>2014-11-19T14:01:32Z</time>
      </trkpt>
      <trkpt lat="43.42896" lon="6.11787">
        <ele>229.83650207519</ele>
        <time>2014-11-19T14:01:33Z</time>
      </trkpt>
      <trkpt lat="43.42897" lon="6.11789">
        <ele>229.58787536621</ele>
        <time>2014-11-19T14:01:34Z</time>
      </trkpt>
      <trkpt lat="43.42898" lon="6.11793">
        <ele>229.00912475586</ele>
        <time>2014-11-19T14:01:36Z</time>
      </trkpt>
      <trkpt lat="43.42898" lon="6.11796">
        <ele>228.73789978027</ele>
        <time>2014-11-19T14:01:37Z</time>
      </trkpt>
      <trkpt lat="43.42898" lon="6.11799">
        <ele>228.4264831543</ele>
        <time>2014-11-19T14:01:38Z</time>
      </trkpt>
      <trkpt lat="43.42899" lon="6.11803">
        <ele>227.91935729981</ele>
        <time>2014-11-19T14:01:40Z</time>
      </trkpt>
      <trkpt lat="43.429" lon="6.11809">
        <ele>227.20542907715</ele>
        <time>2014-11-19T14:01:42Z</time>
      </trkpt>
      <trkpt lat="43.42903" lon="6.11817">
        <ele>226.02822875977</ele>
        <time>2014-11-19T14:01:44Z</time>
      </trkpt>
      <trkpt lat="43.42906" lon="6.11827">
        <ele>224.68623352051</ele>
        <time>2014-11-19T14:01:46Z</time>
      </trkpt>
      <trkpt lat="43.42907" lon="6.11832">
        <ele>224.01799011231</ele>
        <time>2014-11-19T14:01:47Z</time>
      </trkpt>
      <trkpt lat="43.42908" lon="6.11838">
        <ele>223.5623626709</ele>
        <time>2014-11-19T14:01:48Z</time>
      </trkpt>
      <trkpt lat="43.4291" lon="6.1185">
        <ele>222.6834564209</ele>
        <time>2014-11-19T14:01:51Z</time>
      </trkpt>
      <trkpt lat="43.4291" lon="6.11854">
        <ele>222.33555603027</ele>
        <time>2014-11-19T14:01:52Z</time>
      </trkpt>
      <trkpt lat="43.42912" lon="6.11864">
        <ele>221.63975524902</ele>
        <time>2014-11-19T14:01:54Z</time>
      </trkpt>
      <trkpt lat="43.42914" lon="6.11874">
        <ele>220.80204772949</ele>
        <time>2014-11-19T14:01:56Z</time>
      </trkpt>
      <trkpt lat="43.42916" lon="6.11882">
        <ele>220.11254882812</ele>
        <time>2014-11-19T14:01:58Z</time>
      </trkpt>
      <trkpt lat="43.42919" lon="6.11891">
        <ele>219.50755310059</ele>
        <time>2014-11-19T14:02:00Z</time>
      </trkpt>
      <trkpt lat="43.42921" lon="6.11895">
        <ele>219.22006225586</ele>
        <time>2014-11-19T14:02:01Z</time>
      </trkpt>
      <trkpt lat="43.42922" lon="6.119">
        <ele>218.92308044434</ele>
        <time>2014-11-19T14:02:02Z</time>
      </trkpt>
      <trkpt lat="43.42922" lon="6.1191">
        <ele>218.3134765625</ele>
        <time>2014-11-19T14:02:04Z</time>
      </trkpt>
      <trkpt lat="43.42921" lon="6.11914">
        <ele>218.09991455078</ele>
        <time>2014-11-19T14:02:05Z</time>
      </trkpt>
      <trkpt lat="43.42922" lon="6.11918">
        <ele>217.87840270996</ele>
        <time>2014-11-19T14:02:06Z</time>
      </trkpt>
      <trkpt lat="43.42923" lon="6.11922">
        <ele>217.72300720215</ele>
        <time>2014-11-19T14:02:07Z</time>
      </trkpt>
      <trkpt lat="43.42927" lon="6.11935">
        <ele>217.18841552734</ele>
        <time>2014-11-19T14:02:10Z</time>
      </trkpt>
      <trkpt lat="43.42929" lon="6.11944">
        <ele>216.82627868652</ele>
        <time>2014-11-19T14:02:12Z</time>
      </trkpt>
      <trkpt lat="43.42933" lon="6.11953">
        <ele>216.40797424316</ele>
        <time>2014-11-19T14:02:14Z</time>
      </trkpt>
      <trkpt lat="43.42936" lon="6.11968">
        <ele>215.78958129883</ele>
        <time>2014-11-19T14:02:17Z</time>
      </trkpt>
      <trkpt lat="43.42938" lon="6.11974">
        <ele>215.52362060547</ele>
        <time>2014-11-19T14:02:18Z</time>
      </trkpt>
      <trkpt lat="43.4294" lon="6.11986">
        <ele>214.98254394531</ele>
        <time>2014-11-19T14:02:20Z</time>
      </trkpt>
      <trkpt lat="43.42939" lon="6.11999">
        <ele>214.48536682129</ele>
        <time>2014-11-19T14:02:22Z</time>
      </trkpt>
      <trkpt lat="43.42954" lon="6.12035">
        <ele>212.40701293945</ele>
        <time>2014-11-19T14:02:28Z</time>
      </trkpt>
      <trkpt lat="43.42958" lon="6.12049">
        <ele>211.6608581543</ele>
        <time>2014-11-19T14:02:30Z</time>
      </trkpt>
      <trkpt lat="43.42961" lon="6.12063">
        <ele>210.91241455078</ele>
        <time>2014-11-19T14:02:32Z</time>
      </trkpt>
      <trkpt lat="43.42963" lon="6.1207">
        <ele>210.54391479492</ele>
        <time>2014-11-19T14:02:33Z</time>
      </trkpt>
      <trkpt lat="43.42965" lon="6.12077">
        <ele>210.14794921875</ele>
        <time>2014-11-19T14:02:34Z</time>
      </trkpt>
      <trkpt lat="43.42966" lon="6.12084">
        <ele>209.78860473633</ele>
        <time>2014-11-19T14:02:35Z</time>
      </trkpt>
      <trkpt lat="43.42968" lon="6.12092">
        <ele>209.36288452148</ele>
        <time>2014-11-19T14:02:36Z</time>
      </trkpt>
      <trkpt lat="43.42973" lon="6.12106">
        <ele>208.5732421875</ele>
        <time>2014-11-19T14:02:38Z</time>
      </trkpt>
      <trkpt lat="43.42976" lon="6.1212">
        <ele>207.81793212891</ele>
        <time>2014-11-19T14:02:40Z</time>
      </trkpt>
      <trkpt lat="43.4298" lon="6.12133">
        <ele>207.08779907227</ele>
        <time>2014-11-19T14:02:42Z</time>
      </trkpt>
      <trkpt lat="43.42984" lon="6.12146">
        <ele>206.36682128906</ele>
        <time>2014-11-19T14:02:44Z</time>
      </trkpt>
      <trkpt lat="43.42988" lon="6.1216">
        <ele>205.59548950195</ele>
        <time>2014-11-19T14:02:46Z</time>
      </trkpt>
      <trkpt lat="43.42989" lon="6.12167">
        <ele>205.23614501953</ele>
        <time>2014-11-19T14:02:47Z</time>
      </trkpt>
      <trkpt lat="43.42991" lon="6.12175">
        <ele>204.81958007812</ele>
        <time>2014-11-19T14:02:48Z</time>
      </trkpt>
      <trkpt lat="43.42993" lon="6.12182">
        <ele>204.41903686523</ele>
        <time>2014-11-19T14:02:49Z</time>
      </trkpt>
      <trkpt lat="43.42995" lon="6.1219">
        <ele>204.00933837891</ele>
        <time>2014-11-19T14:02:50Z</time>
      </trkpt>
      <trkpt lat="43.42999" lon="6.12204">
        <ele>203.22198486328</ele>
        <time>2014-11-19T14:02:52Z</time>
      </trkpt>
      <trkpt lat="43.43002" lon="6.12219">
        <ele>202.50260925293</ele>
        <time>2014-11-19T14:02:54Z</time>
      </trkpt>
      <trkpt lat="43.43008" lon="6.12241">
        <ele>201.51483154297</ele>
        <time>2014-11-19T14:02:57Z</time>
      </trkpt>
      <trkpt lat="43.4301" lon="6.12249">
        <ele>201.18190002441</ele>
        <time>2014-11-19T14:02:58Z</time>
      </trkpt>
      <trkpt lat="43.43015" lon="6.12264">
        <ele>200.54727172852</ele>
        <time>2014-11-19T14:03:00Z</time>
      </trkpt>
      <trkpt lat="43.43018" lon="6.12278">
        <ele>199.95722961426</ele>
        <time>2014-11-19T14:03:02Z</time>
      </trkpt>
      <trkpt lat="43.43021" lon="6.12289">
        <ele>199.48100280762</ele>
        <time>2014-11-19T14:03:04Z</time>
      </trkpt>
      <trkpt lat="43.43021" lon="6.12294">
        <ele>199.26440429688</ele>
        <time>2014-11-19T14:03:05Z</time>
      </trkpt>
      <trkpt lat="43.4302" lon="6.12299">
        <ele>199.02383422852</ele>
        <time>2014-11-19T14:03:06Z</time>
      </trkpt>
      <trkpt lat="43.43021" lon="6.12309">
        <ele>198.59959411621</ele>
        <time>2014-11-19T14:03:08Z</time>
      </trkpt>
      <trkpt lat="43.43023" lon="6.12318">
        <ele>198.22111511231</ele>
        <time>2014-11-19T14:03:10Z</time>
      </trkpt>
      <trkpt lat="43.43024" lon="6.12343">
        <ele>197.19165039062</ele>
        <time>2014-11-19T14:03:14Z</time>
      </trkpt>
      <trkpt lat="43.43026" lon="6.12358">
        <ele>196.63352966309</ele>
        <time>2014-11-19T14:03:16Z</time>
      </trkpt>
      <trkpt lat="43.43027" lon="6.12364">
        <ele>196.43051147461</ele>
        <time>2014-11-19T14:03:17Z</time>
      </trkpt>
      <trkpt lat="43.43029" lon="6.12371">
        <ele>196.22735595703</ele>
        <time>2014-11-19T14:03:18Z</time>
      </trkpt>
      <trkpt lat="43.43033" lon="6.12383">
        <ele>195.87251281738</ele>
        <time>2014-11-19T14:03:20Z</time>
      </trkpt>
      <trkpt lat="43.43036" lon="6.12393">
        <ele>195.62669372559</ele>
        <time>2014-11-19T14:03:22Z</time>
      </trkpt>
      <trkpt lat="43.43037" lon="6.12396">
        <ele>195.53308105469</ele>
        <time>2014-11-19T14:03:23Z</time>
      </trkpt>
      <trkpt lat="43.43038" lon="6.12399">
        <ele>195.47016906738</ele>
        <time>2014-11-19T14:03:24Z</time>
      </trkpt>
      <trkpt lat="43.4304" lon="6.12402">
        <ele>195.4521484375</ele>
        <time>2014-11-19T14:03:25Z</time>
      </trkpt>
      <trkpt lat="43.43042" lon="6.12404">
        <ele>195.45822143555</ele>
        <time>2014-11-19T14:03:26Z</time>
      </trkpt>
      <trkpt lat="43.43047" lon="6.12411">
        <ele>195.42562866211</ele>
        <time>2014-11-19T14:03:28Z</time>
      </trkpt>
      <trkpt lat="43.43049" lon="6.12416">
        <ele>195.39961242676</ele>
        <time>2014-11-19T14:03:29Z</time>
      </trkpt>
      <trkpt lat="43.43052" lon="6.1242">
        <ele>195.37564086914</ele>
        <time>2014-11-19T14:03:30Z</time>
      </trkpt>
      <trkpt lat="43.43056" lon="6.12426">
        <ele>195.35475158691</ele>
        <time>2014-11-19T14:03:32Z</time>
      </trkpt>
      <trkpt lat="43.43064" lon="6.12434">
        <ele>195.42655944824</ele>
        <time>2014-11-19T14:03:36Z</time>
      </trkpt>
      <trkpt lat="43.43067" lon="6.12437">
        <ele>195.45172119141</ele>
        <time>2014-11-19T14:03:38Z</time>
      </trkpt>
      <trkpt lat="43.43069" lon="6.12439">
        <ele>195.44944763184</ele>
        <time>2014-11-19T14:03:40Z</time>
      </trkpt>
      <trkpt lat="43.4307" lon="6.12441">
        <ele>195.42300415039</ele>
        <time>2014-11-19T14:03:42Z</time>
      </trkpt>
      <trkpt lat="43.4307" lon="6.12441">
        <ele>195.41215515137</ele>
        <time>2014-11-19T14:03:44Z</time>
      </trkpt>
      <trkpt lat="43.4307" lon="6.12441">
        <ele>195.43362426758</ele>
        <time>2014-11-19T14:03:45Z</time>
      </trkpt>
      <trkpt lat="43.4307" lon="6.12441">
        <ele>195.41938781738</ele>
        <time>2014-11-19T14:03:46Z</time>
      </trkpt>
      <trkpt lat="43.4307" lon="6.12441">
        <ele>195.42120361328</ele>
        <time>2014-11-19T14:03:48Z</time>
      </trkpt>
      <trkpt lat="43.43069" lon="6.12441">
        <ele>195.40878295898</ele>
        <time>2014-11-19T14:03:52Z</time>
      </trkpt>
      <trkpt lat="43.43069" lon="6.12441">
        <ele>195.41241455078</ele>
        <time>2014-11-19T14:03:53Z</time>
      </trkpt>
      <trkpt lat="43.43069" lon="6.12441">
        <ele>195.41241455078</ele>
        <time>2014-11-19T14:03:58Z</time>
      </trkpt>
      <trkpt lat="43.43069" lon="6.12441">
        <ele>195.41603088379</ele>
        <time>2014-11-19T14:04:04Z</time>
      </trkpt>
      <trkpt lat="43.43069" lon="6.12441">
        <ele>195.41603088379</ele>
        <time>2014-11-19T14:04:08Z</time>
      </trkpt>
      <trkpt lat="43.43069" lon="6.12441">
        <ele>195.41059875488</ele>
        <time>2014-11-19T14:04:10Z</time>
      </trkpt>
      <trkpt lat="43.43069" lon="6.12441">
        <ele>195.40335083008</ele>
        <time>2014-11-19T14:04:12Z</time>
      </trkpt>
      <trkpt lat="43.43069" lon="6.12441">
        <ele>195.38551330566</ele>
        <time>2014-11-19T14:04:13Z</time>
      </trkpt>
      <trkpt lat="43.43069" lon="6.12441">
        <ele>195.38369750977</ele>
        <time>2014-11-19T14:04:14Z</time>
      </trkpt>
      <trkpt lat="43.43069" lon="6.12441">
        <ele>195.38551330566</ele>
        <time>2014-11-19T14:04:16Z</time>
      </trkpt>
      <trkpt lat="43.43069" lon="6.12441">
        <ele>195.38551330566</ele>
        <time>2014-11-19T14:04:22Z</time>
      </trkpt>
      <trkpt lat="43.43069" lon="6.12441">
        <ele>195.38551330566</ele>
        <time>2014-11-19T14:04:42Z</time>
      </trkpt>
      <trkpt lat="43.43069" lon="6.12441">
        <ele>195.39276123047</ele>
        <time>2014-11-19T14:05:00Z</time>
      </trkpt>
      <trkpt lat="43.43069" lon="6.12441">
        <ele>195.39094543457</ele>
        <time>2014-11-19T14:05:06Z</time>
      </trkpt>
      <trkpt lat="43.43069" lon="6.12443">
        <ele>195.33106994629</ele>
        <time>2014-11-19T14:05:08Z</time>
      </trkpt>
      <trkpt lat="43.43069" lon="6.12444">
        <ele>195.28752136231</ele>
        <time>2014-11-19T14:05:09Z</time>
      </trkpt>
      <trkpt lat="43.43069" lon="6.12445">
        <ele>195.23672485352</ele>
        <time>2014-11-19T14:05:10Z</time>
      </trkpt>
      <trkpt lat="43.43069" lon="6.12446">
        <ele>195.18046569824</ele>
        <time>2014-11-19T14:05:12Z</time>
      </trkpt>
      <trkpt lat="43.43069" lon="6.12447">
        <ele>195.17864990234</ele>
        <time>2014-11-19T14:05:14Z</time>
      </trkpt>
      <trkpt lat="43.43069" lon="6.12447">
        <ele>195.17503356934</ele>
        <time>2014-11-19T14:05:15Z</time>
      </trkpt>
      <trkpt lat="43.43069" lon="6.12447">
        <ele>195.17503356934</ele>
        <time>2014-11-19T14:05:16Z</time>
      </trkpt>
      <trkpt lat="43.43069" lon="6.12446">
        <ele>195.18409729004</ele>
        <time>2014-11-19T14:05:18Z</time>
      </trkpt>
      <trkpt lat="43.43069" lon="6.12444">
        <ele>195.2802734375</ele>
        <time>2014-11-19T14:05:20Z</time>
      </trkpt>
      <trkpt lat="43.43069" lon="6.12443">
        <ele>195.28771972656</ele>
        <time>2014-11-19T14:05:21Z</time>
      </trkpt>
      <trkpt lat="43.43068" lon="6.12442">
        <ele>195.32618713379</ele>
        <time>2014-11-19T14:05:22Z</time>
      </trkpt>
      <trkpt lat="43.43067" lon="6.12439">
        <ele>195.38044738769</ele>
        <time>2014-11-19T14:05:24Z</time>
      </trkpt>
      <trkpt lat="43.43067" lon="6.12438">
        <ele>195.39570617676</ele>
        <time>2014-11-19T14:05:26Z</time>
      </trkpt>
      <trkpt lat="43.43067" lon="6.12438">
        <ele>195.39204406738</ele>
        <time>2014-11-19T14:05:28Z</time>
      </trkpt>
      <trkpt lat="43.43067" lon="6.12438">
        <ele>195.39204406738</ele>
        <time>2014-11-19T14:05:30Z</time>
      </trkpt>
      <trkpt lat="43.43067" lon="6.12438">
        <ele>195.38655090332</ele>
        <time>2014-11-19T14:05:32Z</time>
      </trkpt>
      <trkpt lat="43.43066" lon="6.12438">
        <ele>195.36157226562</ele>
        <time>2014-11-19T14:05:34Z</time>
      </trkpt>
      <trkpt lat="43.43066" lon="6.12438">
        <ele>195.35974121094</ele>
        <time>2014-11-19T14:05:36Z</time>
      </trkpt>
      <trkpt lat="43.43066" lon="6.12438">
        <ele>195.35974121094</ele>
        <time>2014-11-19T14:05:38Z</time>
      </trkpt>
      <trkpt lat="43.43066" lon="6.12438">
        <ele>195.35791015625</ele>
        <time>2014-11-19T14:05:40Z</time>
      </trkpt>
      <trkpt lat="43.43067" lon="6.12438">
        <ele>195.37008666992</ele>
        <time>2014-11-19T14:05:44Z</time>
      </trkpt>
      <trkpt lat="43.43067" lon="6.12438">
        <ele>195.37191772461</ele>
        <time>2014-11-19T14:05:46Z</time>
      </trkpt>
      <trkpt lat="43.43067" lon="6.12438">
        <ele>195.37191772461</ele>
        <time>2014-11-19T14:05:48Z</time>
      </trkpt>
      <trkpt lat="43.43066" lon="6.12438">
        <ele>195.35424804688</ele>
        <time>2014-11-19T14:05:50Z</time>
      </trkpt>
      <trkpt lat="43.43067" lon="6.12438">
        <ele>195.37191772461</ele>
        <time>2014-11-19T14:05:51Z</time>
      </trkpt>
      <trkpt lat="43.43067" lon="6.12438">
        <ele>195.3737487793</ele>
        <time>2014-11-19T14:05:54Z</time>
      </trkpt>
      <trkpt lat="43.43067" lon="6.12438">
        <ele>195.3737487793</ele>
        <time>2014-11-19T14:05:56Z</time>
      </trkpt>
      <trkpt lat="43.43067" lon="6.12438">
        <ele>195.39141845703</ele>
        <time>2014-11-19T14:05:58Z</time>
      </trkpt>
      <trkpt lat="43.43068" lon="6.12438">
        <ele>195.40727233887</ele>
        <time>2014-11-19T14:06:00Z</time>
      </trkpt>
      <trkpt lat="43.43068" lon="6.12438">
        <ele>195.40727233887</ele>
        <time>2014-11-19T14:06:02Z</time>
      </trkpt>
      <trkpt lat="43.43068" lon="6.12439">
        <ele>195.40544128418</ele>
        <time>2014-11-19T14:06:03Z</time>
      </trkpt>
      <trkpt lat="43.43068" lon="6.12438">
        <ele>195.41091918945</ele>
        <time>2014-11-19T14:06:10Z</time>
      </trkpt>
      <trkpt lat="43.43068" lon="6.12438">
        <ele>195.40908813477</ele>
        <time>2014-11-19T14:06:12Z</time>
      </trkpt>
      <trkpt lat="43.43068" lon="6.12438">
        <ele>195.421875</ele>
        <time>2014-11-19T14:06:16Z</time>
      </trkpt>
      <trkpt lat="43.43068" lon="6.12438">
        <ele>195.43771362305</ele>
        <time>2014-11-19T14:06:17Z</time>
      </trkpt>
      <trkpt lat="43.43068" lon="6.12438">
        <ele>195.421875</ele>
        <time>2014-11-19T14:06:18Z</time>
      </trkpt>
      <trkpt lat="43.43068" lon="6.12438">
        <ele>195.42552185059</ele>
        <time>2014-11-19T14:06:20Z</time>
      </trkpt>
      <trkpt lat="43.43068" lon="6.12438">
        <ele>195.42552185059</ele>
        <time>2014-11-19T14:06:22Z</time>
      </trkpt>
      <trkpt lat="43.43068" lon="6.12438">
        <ele>195.42733764648</ele>
        <time>2014-11-19T14:06:24Z</time>
      </trkpt>
      <trkpt lat="43.43068" lon="6.12438">
        <ele>195.42004394531</ele>
        <time>2014-11-19T14:06:32Z</time>
      </trkpt>
      <trkpt lat="43.43068" lon="6.12438">
        <ele>195.41275024414</ele>
        <time>2014-11-19T14:06:34Z</time>
      </trkpt>
      <trkpt lat="43.43068" lon="6.12438">
        <ele>195.41091918945</ele>
        <time>2014-11-19T14:06:36Z</time>
      </trkpt>
      <trkpt lat="43.43068" lon="6.12438">
        <ele>195.41091918945</ele>
        <time>2014-11-19T14:06:42Z</time>
      </trkpt>
      <trkpt lat="43.43068" lon="6.12438">
        <ele>195.41091918945</ele>
        <time>2014-11-19T14:06:46Z</time>
      </trkpt>
      <trkpt lat="43.43068" lon="6.12438">
        <ele>195.41275024414</ele>
        <time>2014-11-19T14:06:48Z</time>
      </trkpt>
      <trkpt lat="43.43068" lon="6.12438">
        <ele>195.4236907959</ele>
        <time>2014-11-19T14:06:56Z</time>
      </trkpt>
      <trkpt lat="43.43068" lon="6.12438">
        <ele>195.43281555176</ele>
        <time>2014-11-19T14:07:06Z</time>
      </trkpt>
      <trkpt lat="43.43068" lon="6.12438">
        <ele>195.43099975586</ele>
        <time>2014-11-19T14:07:10Z</time>
      </trkpt>
      <trkpt lat="43.43067" lon="6.12438">
        <ele>195.41151428223</ele>
        <time>2014-11-19T14:07:12Z</time>
      </trkpt>
      <trkpt lat="43.43068" lon="6.12438">
        <ele>195.43099975586</ele>
        <time>2014-11-19T14:07:14Z</time>
      </trkpt>
      <trkpt lat="43.43068" lon="6.12438">
        <ele>195.43646240234</ele>
        <time>2014-11-19T14:07:16Z</time>
      </trkpt>
      <trkpt lat="43.43067" lon="6.12437">
        <ele>195.4334564209</ele>
        <time>2014-11-19T14:07:23Z</time>
      </trkpt>
      <trkpt lat="43.43067" lon="6.12437">
        <ele>195.42498779297</ele>
        <time>2014-11-19T14:07:26Z</time>
      </trkpt>
      <trkpt lat="43.43067" lon="6.12437">
        <ele>195.42864990234</ele>
        <time>2014-11-19T14:07:29Z</time>
      </trkpt>
      <trkpt lat="43.43066" lon="6.12437">
        <ele>195.41471862793</ele>
        <time>2014-11-19T14:07:30Z</time>
      </trkpt>
      <trkpt lat="43.43066" lon="6.12437">
        <ele>195.41839599609</ele>
        <time>2014-11-19T14:07:32Z</time>
      </trkpt>
      <trkpt lat="43.43066" lon="6.12436">
        <ele>195.41549682617</ele>
        <time>2014-11-19T14:07:36Z</time>
      </trkpt>
      <trkpt lat="43.43066" lon="6.12436">
        <ele>195.42100524902</ele>
        <time>2014-11-19T14:07:38Z</time>
      </trkpt>
      <trkpt lat="43.43066" lon="6.12436">
        <ele>195.42100524902</ele>
        <time>2014-11-19T14:07:40Z</time>
      </trkpt>
      <trkpt lat="43.43066" lon="6.12436">
        <ele>195.42100524902</ele>
        <time>2014-11-19T14:07:48Z</time>
      </trkpt>
      <trkpt lat="43.43066" lon="6.12436">
        <ele>195.42100524902</ele>
        <time>2014-11-19T14:07:50Z</time>
      </trkpt>
      <trkpt lat="43.43066" lon="6.12436">
        <ele>195.43202209473</ele>
        <time>2014-11-19T14:07:52Z</time>
      </trkpt>
      <trkpt lat="43.43066" lon="6.12436">
        <ele>195.45321655273</ele>
        <time>2014-11-19T14:07:54Z</time>
      </trkpt>
      <trkpt lat="43.43066" lon="6.12436">
        <ele>195.45504760742</ele>
        <time>2014-11-19T14:07:55Z</time>
      </trkpt>
      <trkpt lat="43.43066" lon="6.12436">
        <ele>195.43753051758</ele>
        <time>2014-11-19T14:07:57Z</time>
      </trkpt>
      <trkpt lat="43.43066" lon="6.12436">
        <ele>195.43385314941</ele>
        <time>2014-11-19T14:08:00Z</time>
      </trkpt>
      <trkpt lat="43.43066" lon="6.12436">
        <ele>195.43672180176</ele>
        <time>2014-11-19T14:08:03Z</time>
      </trkpt>
      <trkpt lat="43.43067" lon="6.12437">
        <ele>195.43597412109</ele>
        <time>2014-11-19T14:08:06Z</time>
      </trkpt>
      <trkpt lat="43.43068" lon="6.12437">
        <ele>195.44741821289</ele>
        <time>2014-11-19T14:08:07Z</time>
      </trkpt>
      <trkpt lat="43.43068" lon="6.12438">
        <ele>195.45356750488</ele>
        <time>2014-11-19T14:08:08Z</time>
      </trkpt>
      <trkpt lat="43.4307" lon="6.12442">
        <ele>195.3741607666</ele>
        <time>2014-11-19T14:08:10Z</time>
      </trkpt>
      <trkpt lat="43.43069" lon="6.12449">
        <ele>195.08612060547</ele>
        <time>2014-11-19T14:08:12Z</time>
      </trkpt>
      <trkpt lat="43.43069" lon="6.12457">
        <ele>194.76620483398</ele>
        <time>2014-11-19T14:08:14Z</time>
      </trkpt>
      <trkpt lat="43.43069" lon="6.12467">
        <ele>194.41949462891</ele>
        <time>2014-11-19T14:08:17Z</time>
      </trkpt>
      <trkpt lat="43.43069" lon="6.12473">
        <ele>194.17341613769</ele>
        <time>2014-11-19T14:08:19Z</time>
      </trkpt>
      <trkpt lat="43.4307" lon="6.12478">
        <ele>194.02262878418</ele>
        <time>2014-11-19T14:08:21Z</time>
      </trkpt>
      <trkpt lat="43.4307" lon="6.12481">
        <ele>193.92131042481</ele>
        <time>2014-11-19T14:08:22Z</time>
      </trkpt>
      <trkpt lat="43.43069" lon="6.12483">
        <ele>193.78511047363</ele>
        <time>2014-11-19T14:08:23Z</time>
      </trkpt>
      <trkpt lat="43.43067" lon="6.12489">
        <ele>193.44683837891</ele>
        <time>2014-11-19T14:08:25Z</time>
      </trkpt>
      <trkpt lat="43.43066" lon="6.12496">
        <ele>193.10586547852</ele>
        <time>2014-11-19T14:08:27Z</time>
      </trkpt>
      <trkpt lat="43.43064" lon="6.12504">
        <ele>192.81050109863</ele>
        <time>2014-11-19T14:08:29Z</time>
      </trkpt>
      <trkpt lat="43.43061" lon="6.12523">
        <ele>192.43687438965</ele>
        <time>2014-11-19T14:08:33Z</time>
      </trkpt>
      <trkpt lat="43.43059" lon="6.12529">
        <ele>192.28486633301</ele>
        <time>2014-11-19T14:08:34Z</time>
      </trkpt>
      <trkpt lat="43.43056" lon="6.12534">
        <ele>192.11079406738</ele>
        <time>2014-11-19T14:08:35Z</time>
      </trkpt>
      <trkpt lat="43.4305" lon="6.12546">
        <ele>191.65054321289</ele>
        <time>2014-11-19T14:08:37Z</time>
      </trkpt>
      <trkpt lat="43.43045" lon="6.12551">
        <ele>191.37077331543</ele>
        <time>2014-11-19T14:08:38Z</time>
      </trkpt>
      <trkpt lat="43.4304" lon="6.12556">
        <ele>191.06242370606</ele>
        <time>2014-11-19T14:08:39Z</time>
      </trkpt>
      <trkpt lat="43.4303" lon="6.12563">
        <ele>190.51489257812</ele>
        <time>2014-11-19T14:08:41Z</time>
      </trkpt>
      <trkpt lat="43.43026" lon="6.12566">
        <ele>190.33050537109</ele>
        <time>2014-11-19T14:08:42Z</time>
      </trkpt>
      <trkpt lat="43.43023" lon="6.12569">
        <ele>190.16635131836</ele>
        <time>2014-11-19T14:08:44Z</time>
      </trkpt>
      <trkpt lat="43.43023" lon="6.1257">
        <ele>190.14505004883</ele>
        <time>2014-11-19T14:08:47Z</time>
      </trkpt>
      <trkpt lat="43.43023" lon="6.1257">
        <ele>190.1637878418</ele>
        <time>2014-11-19T14:08:49Z</time>
      </trkpt>
      <trkpt lat="43.43023" lon="6.1257">
        <ele>190.14442443848</ele>
        <time>2014-11-19T14:08:50Z</time>
      </trkpt>
      <trkpt lat="43.43023" lon="6.1257">
        <ele>190.12397766113</ele>
        <time>2014-11-19T14:08:51Z</time>
      </trkpt>
      <trkpt lat="43.43022" lon="6.1257">
        <ele>190.10510253906</ele>
        <time>2014-11-19T14:08:54Z</time>
      </trkpt>
      <trkpt lat="43.43022" lon="6.1257">
        <ele>190.10525512695</ele>
        <time>2014-11-19T14:08:55Z</time>
      </trkpt>
      <trkpt lat="43.43022" lon="6.1257">
        <ele>190.1044921875</ele>
        <time>2014-11-19T14:08:57Z</time>
      </trkpt>
      <trkpt lat="43.43022" lon="6.12571">
        <ele>190.08532714844</ele>
        <time>2014-11-19T14:08:58Z</time>
      </trkpt>
      <trkpt lat="43.43022" lon="6.1257">
        <ele>190.08547973633</ele>
        <time>2014-11-19T14:08:59Z</time>
      </trkpt>
      <trkpt lat="43.43021" lon="6.12571">
        <ele>190.06498718262</ele>
        <time>2014-11-19T14:09:01Z</time>
      </trkpt>
      <trkpt lat="43.43021" lon="6.12573">
        <ele>190.02021789551</ele>
        <time>2014-11-19T14:09:02Z</time>
      </trkpt>
      <trkpt lat="43.4302" lon="6.12577">
        <ele>189.97224426269</ele>
        <time>2014-11-19T14:09:03Z</time>
      </trkpt>
      <trkpt lat="43.43019" lon="6.12592">
        <ele>189.87446594238</ele>
        <time>2014-11-19T14:09:06Z</time>
      </trkpt>
      <trkpt lat="43.43018" lon="6.12599">
        <ele>189.83976745606</ele>
        <time>2014-11-19T14:09:07Z</time>
      </trkpt>
      <trkpt lat="43.43018" lon="6.12605">
        <ele>189.82289123535</ele>
        <time>2014-11-19T14:09:08Z</time>
      </trkpt>
      <trkpt lat="43.43018" lon="6.12625">
        <ele>189.73942565918</ele>
        <time>2014-11-19T14:09:11Z</time>
      </trkpt>
      <trkpt lat="43.43018" lon="6.12636">
        <ele>189.70985412598</ele>
        <time>2014-11-19T14:09:13Z</time>
      </trkpt>
      <trkpt lat="43.43017" lon="6.12655">
        <ele>189.64686584473</ele>
        <time>2014-11-19T14:09:16Z</time>
      </trkpt>
      <trkpt lat="43.43017" lon="6.12662">
        <ele>189.61622619629</ele>
        <time>2014-11-19T14:09:17Z</time>
      </trkpt>
      <trkpt lat="43.43016" lon="6.12669">
        <ele>189.5771484375</ele>
        <time>2014-11-19T14:09:18Z</time>
      </trkpt>
      <trkpt lat="43.43016" lon="6.12676">
        <ele>189.52516174316</ele>
        <time>2014-11-19T14:09:19Z</time>
      </trkpt>
      <trkpt lat="43.43016" lon="6.1269">
        <ele>189.42433166504</ele>
        <time>2014-11-19T14:09:21Z</time>
      </trkpt>
      <trkpt lat="43.43016" lon="6.12704">
        <ele>189.28684997559</ele>
        <time>2014-11-19T14:09:23Z</time>
      </trkpt>
      <trkpt lat="43.43014" lon="6.12745">
        <ele>188.88871765137</ele>
        <time>2014-11-19T14:09:29Z</time>
      </trkpt>
      <trkpt lat="43.43013" lon="6.12765">
        <ele>188.83233642578</ele>
        <time>2014-11-19T14:09:32Z</time>
      </trkpt>
      <trkpt lat="43.43013" lon="6.12778">
        <ele>188.83297729492</ele>
        <time>2014-11-19T14:09:34Z</time>
      </trkpt>
      <trkpt lat="43.43014" lon="6.12792">
        <ele>188.90898132324</ele>
        <time>2014-11-19T14:09:36Z</time>
      </trkpt>
      <trkpt lat="43.43015" lon="6.12806">
        <ele>189.01455688477</ele>
        <time>2014-11-19T14:09:38Z</time>
      </trkpt>
      <trkpt lat="43.43016" lon="6.12813">
        <ele>189.10874938965</ele>
        <time>2014-11-19T14:09:39Z</time>
      </trkpt>
      <trkpt lat="43.43019" lon="6.12834">
        <ele>189.40422058106</ele>
        <time>2014-11-19T14:09:42Z</time>
      </trkpt>
      <trkpt lat="43.43021" lon="6.12841">
        <ele>189.53596496582</ele>
        <time>2014-11-19T14:09:43Z</time>
      </trkpt>
      <trkpt lat="43.43024" lon="6.12856">
        <ele>189.83863830566</ele>
        <time>2014-11-19T14:09:45Z</time>
      </trkpt>
      <trkpt lat="43.43029" lon="6.12871">
        <ele>190.2158203125</ele>
        <time>2014-11-19T14:09:47Z</time>
      </trkpt>
      <trkpt lat="43.43032" lon="6.12885">
        <ele>190.58047485352</ele>
        <time>2014-11-19T14:09:49Z</time>
      </trkpt>
      <trkpt lat="43.43034" lon="6.12893">
        <ele>190.76728820801</ele>
        <time>2014-11-19T14:09:50Z</time>
      </trkpt>
      <trkpt lat="43.43038" lon="6.12906">
        <ele>191.14579772949</ele>
        <time>2014-11-19T14:09:52Z</time>
      </trkpt>
      <trkpt lat="43.43046" lon="6.12935">
        <ele>191.72515869141</ele>
        <time>2014-11-19T14:09:56Z</time>
      </trkpt>
      <trkpt lat="43.43047" lon="6.12942">
        <ele>191.80081176758</ele>
        <time>2014-11-19T14:09:57Z</time>
      </trkpt>
      <trkpt lat="43.43053" lon="6.12963">
        <ele>192.10473632812</ele>
        <time>2014-11-19T14:10:00Z</time>
      </trkpt>
      <trkpt lat="43.43055" lon="6.1297">
        <ele>192.22444152832</ele>
        <time>2014-11-19T14:10:01Z</time>
      </trkpt>
      <trkpt lat="43.43059" lon="6.12984">
        <ele>192.39416503906</ele>
        <time>2014-11-19T14:10:03Z</time>
      </trkpt>
      <trkpt lat="43.43067" lon="6.13015">
        <ele>192.58605957031</ele>
        <time>2014-11-19T14:10:07Z</time>
      </trkpt>
      <trkpt lat="43.43071" lon="6.1303">
        <ele>192.56524658203</ele>
        <time>2014-11-19T14:10:09Z</time>
      </trkpt>
      <trkpt lat="43.43076" lon="6.13046">
        <ele>192.50624084473</ele>
        <time>2014-11-19T14:10:11Z</time>
      </trkpt>
      <trkpt lat="43.4308" lon="6.13062">
        <ele>192.35353088379</ele>
        <time>2014-11-19T14:10:13Z</time>
      </trkpt>
      <trkpt lat="43.43083" lon="6.13076">
        <ele>192.16424560547</ele>
        <time>2014-11-19T14:10:15Z</time>
      </trkpt>
      <trkpt lat="43.43087" lon="6.13092">
        <ele>192.23994445801</ele>
        <time>2014-11-19T14:10:17Z</time>
      </trkpt>
      <trkpt lat="43.43091" lon="6.13107">
        <ele>192.31533813477</ele>
        <time>2014-11-19T14:10:19Z</time>
      </trkpt>
      <trkpt lat="43.43098" lon="6.13138">
        <ele>192.3952331543</ele>
        <time>2014-11-19T14:10:23Z</time>
      </trkpt>
      <trkpt lat="43.43103" lon="6.13153">
        <ele>192.44589233398</ele>
        <time>2014-11-19T14:10:25Z</time>
      </trkpt>
      <trkpt lat="43.43106" lon="6.13169">
        <ele>192.36614990234</ele>
        <time>2014-11-19T14:10:27Z</time>
      </trkpt>
      <trkpt lat="43.43107" lon="6.13176">
        <ele>192.36500549316</ele>
        <time>2014-11-19T14:10:28Z</time>
      </trkpt>
      <trkpt lat="43.43109" lon="6.13183">
        <ele>192.39476013184</ele>
        <time>2014-11-19T14:10:29Z</time>
      </trkpt>
      <trkpt lat="43.43111" lon="6.1319">
        <ele>192.39933776856</ele>
        <time>2014-11-19T14:10:30Z</time>
      </trkpt>
      <trkpt lat="43.43113" lon="6.13197">
        <ele>192.42794799805</ele>
        <time>2014-11-19T14:10:31Z</time>
      </trkpt>
      <trkpt lat="43.43116" lon="6.13211">
        <ele>192.42909240723</ele>
        <time>2014-11-19T14:10:33Z</time>
      </trkpt>
      <trkpt lat="43.43118" lon="6.13224">
        <ele>192.40963745117</ele>
        <time>2014-11-19T14:10:35Z</time>
      </trkpt>
      <trkpt lat="43.43121" lon="6.13237">
        <ele>192.34440612793</ele>
        <time>2014-11-19T14:10:37Z</time>
      </trkpt>
      <trkpt lat="43.43123" lon="6.13264">
        <ele>191.97622680664</ele>
        <time>2014-11-19T14:10:41Z</time>
      </trkpt>
      <trkpt lat="43.43122" lon="6.13293">
        <ele>191.23883056641</ele>
        <time>2014-11-19T14:10:45Z</time>
      </trkpt>
      <trkpt lat="43.43121" lon="6.13307">
        <ele>190.79991149902</ele>
        <time>2014-11-19T14:10:47Z</time>
      </trkpt>
      <trkpt lat="43.4312" lon="6.13322">
        <ele>190.35643005371</ele>
        <time>2014-11-19T14:10:49Z</time>
      </trkpt>
      <trkpt lat="43.43119" lon="6.13336">
        <ele>189.91696166992</ele>
        <time>2014-11-19T14:10:51Z</time>
      </trkpt>
      <trkpt lat="43.43118" lon="6.13343">
        <ele>189.71076965332</ele>
        <time>2014-11-19T14:10:52Z</time>
      </trkpt>
      <trkpt lat="43.43114" lon="6.13364">
        <ele>189.08004760742</ele>
        <time>2014-11-19T14:10:55Z</time>
      </trkpt>
      <trkpt lat="43.43109" lon="6.13389">
        <ele>188.29795837402</ele>
        <time>2014-11-19T14:10:59Z</time>
      </trkpt>
      <trkpt lat="43.43106" lon="6.134">
        <ele>187.86853027344</ele>
        <time>2014-11-19T14:11:01Z</time>
      </trkpt>
      <trkpt lat="43.43103" lon="6.13412">
        <ele>187.46020507812</ele>
        <time>2014-11-19T14:11:03Z</time>
      </trkpt>
      <trkpt lat="43.431" lon="6.13418">
        <ele>187.22570800781</ele>
        <time>2014-11-19T14:11:04Z</time>
      </trkpt>
      <trkpt lat="43.43098" lon="6.13424">
        <ele>187.03344726562</ele>
        <time>2014-11-19T14:11:05Z</time>
      </trkpt>
      <trkpt lat="43.43095" lon="6.13429">
        <ele>186.84118652344</ele>
        <time>2014-11-19T14:11:06Z</time>
      </trkpt>
      <trkpt lat="43.43092" lon="6.13433">
        <ele>186.59399414062</ele>
        <time>2014-11-19T14:11:07Z</time>
      </trkpt>
      <trkpt lat="43.43084" lon="6.13436">
        <ele>186.04467773438</ele>
        <time>2014-11-19T14:11:09Z</time>
      </trkpt>
      <trkpt lat="43.43079" lon="6.13436">
        <ele>186.37644958496</ele>
        <time>2014-11-19T14:11:11Z</time>
      </trkpt>
      <trkpt lat="43.43075" lon="6.13436">
        <ele>186.70771789551</ele>
        <time>2014-11-19T14:11:13Z</time>
      </trkpt>
      <trkpt lat="43.43073" lon="6.13437">
        <ele>186.90733337402</ele>
        <time>2014-11-19T14:11:15Z</time>
      </trkpt>
      <trkpt lat="43.43071" lon="6.13437">
        <ele>187.10664367676</ele>
        <time>2014-11-19T14:11:17Z</time>
      </trkpt>
      <trkpt lat="43.43069" lon="6.13437">
        <ele>187.27233886719</ele>
        <time>2014-11-19T14:11:18Z</time>
      </trkpt>
      <trkpt lat="43.43064" lon="6.13439">
        <ele>187.71051025391</ele>
        <time>2014-11-19T14:11:21Z</time>
      </trkpt>
      <trkpt lat="43.43059" lon="6.13442">
        <ele>188.15296936035</ele>
        <time>2014-11-19T14:11:23Z</time>
      </trkpt>
      <trkpt lat="43.43057" lon="6.13443">
        <ele>188.29104614258</ele>
        <time>2014-11-19T14:11:24Z</time>
      </trkpt>
      <trkpt lat="43.43056" lon="6.13444">
        <ele>188.42849731445</ele>
        <time>2014-11-19T14:11:25Z</time>
      </trkpt>
      <trkpt lat="43.43053" lon="6.13446">
        <ele>188.70429992676</ele>
        <time>2014-11-19T14:11:27Z</time>
      </trkpt>
      <trkpt lat="43.4305" lon="6.13447">
        <ele>188.94715881348</ele>
        <time>2014-11-19T14:11:29Z</time>
      </trkpt>
      <trkpt lat="43.43049" lon="6.13448">
        <ele>189.05024719238</ele>
        <time>2014-11-19T14:11:31Z</time>
      </trkpt>
      <trkpt lat="43.43048" lon="6.13448">
        <ele>189.11920166016</ele>
        <time>2014-11-19T14:11:33Z</time>
      </trkpt>
      <trkpt lat="43.43048" lon="6.13448">
        <ele>189.15419006348</ele>
        <time>2014-11-19T14:11:35Z</time>
      </trkpt>
      <trkpt lat="43.43047" lon="6.13449">
        <ele>189.26031494141</ele>
        <time>2014-11-19T14:11:37Z</time>
      </trkpt>
      <trkpt lat="43.43046" lon="6.13449">
        <ele>189.32875061035</ele>
        <time>2014-11-19T14:11:41Z</time>
      </trkpt>
      <trkpt lat="43.43045" lon="6.13449">
        <ele>189.43106079102</ele>
        <time>2014-11-19T14:11:43Z</time>
      </trkpt>
      <trkpt lat="43.43044" lon="6.1345">
        <ele>189.53341674805</ele>
        <time>2014-11-19T14:11:45Z</time>
      </trkpt>
      <trkpt lat="43.43043" lon="6.1345">
        <ele>189.60475158691</ele>
        <time>2014-11-19T14:11:47Z</time>
      </trkpt>
      <trkpt lat="43.43043" lon="6.1345">
        <ele>189.60559082031</ele>
        <time>2014-11-19T14:11:49Z</time>
      </trkpt>
      <trkpt lat="43.43043" lon="6.1345">
        <ele>189.60502624512</ele>
        <time>2014-11-19T14:11:50Z</time>
      </trkpt>
      <trkpt lat="43.43041" lon="6.13449">
        <ele>189.73365783691</ele>
        <time>2014-11-19T14:11:55Z</time>
      </trkpt>
      <trkpt lat="43.43041" lon="6.13448">
        <ele>189.72932434082</ele>
        <time>2014-11-19T14:11:57Z</time>
      </trkpt>
      <trkpt lat="43.4304" lon="6.13447">
        <ele>189.791015625</ele>
        <time>2014-11-19T14:11:58Z</time>
      </trkpt>
      <trkpt lat="43.4304" lon="6.13446">
        <ele>189.85069274902</ele>
        <time>2014-11-19T14:11:59Z</time>
      </trkpt>
      <trkpt lat="43.4304" lon="6.13443">
        <ele>189.79920959473</ele>
        <time>2014-11-19T14:12:01Z</time>
      </trkpt>
      <trkpt lat="43.4304" lon="6.13438">
        <ele>189.73037719727</ele>
        <time>2014-11-19T14:12:05Z</time>
      </trkpt>
      <trkpt lat="43.43041" lon="6.13435">
        <ele>189.68025207519</ele>
        <time>2014-11-19T14:12:07Z</time>
      </trkpt>
      <trkpt lat="43.4304" lon="6.13431">
        <ele>189.72348022461</ele>
        <time>2014-11-19T14:12:09Z</time>
      </trkpt>
      <trkpt lat="43.43037" lon="6.13429">
        <ele>189.97064208984</ele>
        <time>2014-11-19T14:12:11Z</time>
      </trkpt>
      <trkpt lat="43.43032" lon="6.13427">
        <ele>190.35168457031</ele>
        <time>2014-11-19T14:12:13Z</time>
      </trkpt>
      <trkpt lat="43.43027" lon="6.13424">
        <ele>190.74862670898</ele>
        <time>2014-11-19T14:12:15Z</time>
      </trkpt>
      <trkpt lat="43.43023" lon="6.13419">
        <ele>191.0617980957</ele>
        <time>2014-11-19T14:12:17Z</time>
      </trkpt>
      <trkpt lat="43.43021" lon="6.13416">
        <ele>191.20135498047</ele>
        <time>2014-11-19T14:12:18Z</time>
      </trkpt>
      <trkpt lat="43.43019" lon="6.13414">
        <ele>191.34497070312</ele>
        <time>2014-11-19T14:12:19Z</time>
      </trkpt>
      <trkpt lat="43.43015" lon="6.13409">
        <ele>191.72093200684</ele>
        <time>2014-11-19T14:12:21Z</time>
      </trkpt>
      <trkpt lat="43.43011" lon="6.13404">
        <ele>191.98931884766</ele>
        <time>2014-11-19T14:12:23Z</time>
      </trkpt>
      <trkpt lat="43.43007" lon="6.134">
        <ele>192.28475952148</ele>
        <time>2014-11-19T14:12:25Z</time>
      </trkpt>
      <trkpt lat="43.43002" lon="6.13398">
        <ele>192.61958312988</ele>
        <time>2014-11-19T14:12:28Z</time>
      </trkpt>
      <trkpt lat="43.43001" lon="6.13396">
        <ele>192.65614318848</ele>
        <time>2014-11-19T14:12:29Z</time>
      </trkpt>
      <trkpt lat="43.43" lon="6.13391">
        <ele>192.78590393066</ele>
        <time>2014-11-19T14:12:31Z</time>
      </trkpt>
      <trkpt lat="43.42999" lon="6.13388">
        <ele>192.95970153809</ele>
        <time>2014-11-19T14:12:32Z</time>
      </trkpt>
      <trkpt lat="43.42998" lon="6.13386">
        <ele>193.12937927246</ele>
        <time>2014-11-19T14:12:33Z</time>
      </trkpt>
      <trkpt lat="43.42996" lon="6.13375">
        <ele>193.5008392334</ele>
        <time>2014-11-19T14:12:37Z</time>
      </trkpt>
      <trkpt lat="43.42992" lon="6.13369">
        <ele>194.61883544922</ele>
        <time>2014-11-19T14:12:40Z</time>
      </trkpt>
      <trkpt lat="43.4299" lon="6.13367">
        <ele>195.09332275391</ele>
        <time>2014-11-19T14:12:41Z</time>
      </trkpt>
      <trkpt lat="43.42984" lon="6.1336">
        <ele>196.47535705566</ele>
        <time>2014-11-19T14:12:45Z</time>
      </trkpt>
      <trkpt lat="43.42982" lon="6.13359">
        <ele>196.85217285156</ele>
        <time>2014-11-19T14:12:46Z</time>
      </trkpt>
      <trkpt lat="43.42981" lon="6.13358">
        <ele>197.22213745117</ele>
        <time>2014-11-19T14:12:47Z</time>
      </trkpt>
      <trkpt lat="43.42979" lon="6.13353">
        <ele>197.64128112793</ele>
        <time>2014-11-19T14:12:49Z</time>
      </trkpt>
      <trkpt lat="43.42978" lon="6.13349">
        <ele>197.85484313965</ele>
        <time>2014-11-19T14:12:51Z</time>
      </trkpt>
      <trkpt lat="43.42976" lon="6.13345">
        <ele>198.16732788086</ele>
        <time>2014-11-19T14:12:53Z</time>
      </trkpt>
      <trkpt lat="43.42974" lon="6.1334">
        <ele>198.75198364258</ele>
        <time>2014-11-19T14:12:55Z</time>
      </trkpt>
      <trkpt lat="43.42971" lon="6.13335">
        <ele>199.33190917969</ele>
        <time>2014-11-19T14:12:57Z</time>
      </trkpt>
      <trkpt lat="43.4297" lon="6.13331">
        <ele>199.54396057129</ele>
        <time>2014-11-19T14:12:59Z</time>
      </trkpt>
      <trkpt lat="43.42968" lon="6.13328">
        <ele>199.85510253906</ele>
        <time>2014-11-19T14:13:01Z</time>
      </trkpt>
      <trkpt lat="43.42968" lon="6.13325">
        <ele>199.99530029297</ele>
        <time>2014-11-19T14:13:02Z</time>
      </trkpt>
      <trkpt lat="43.42967" lon="6.13323">
        <ele>200.04353332519</ele>
        <time>2014-11-19T14:13:03Z</time>
      </trkpt>
      <trkpt lat="43.42967" lon="6.13319">
        <ele>200.03991699219</ele>
        <time>2014-11-19T14:13:05Z</time>
      </trkpt>
      <trkpt lat="43.42966" lon="6.13309">
        <ele>200.12109375</ele>
        <time>2014-11-19T14:13:09Z</time>
      </trkpt>
      <trkpt lat="43.42966" lon="6.133">
        <ele>199.81790161133</ele>
        <time>2014-11-19T14:13:13Z</time>
      </trkpt>
      <trkpt lat="43.42966" lon="6.1329">
        <ele>199.68605041504</ele>
        <time>2014-11-19T14:13:17Z</time>
      </trkpt>
      <trkpt lat="43.42966" lon="6.13287">
        <ele>199.62762451172</ele>
        <time>2014-11-19T14:13:18Z</time>
      </trkpt>
      <trkpt lat="43.42965" lon="6.13284">
        <ele>199.65469360352</ele>
        <time>2014-11-19T14:13:19Z</time>
      </trkpt>
      <trkpt lat="43.42965" lon="6.1328">
        <ele>199.73762512207</ele>
        <time>2014-11-19T14:13:21Z</time>
      </trkpt>
      <trkpt lat="43.42964" lon="6.13275">
        <ele>199.72673034668</ele>
        <time>2014-11-19T14:13:23Z</time>
      </trkpt>
      <trkpt lat="43.42963" lon="6.13271">
        <ele>200.00532531738</ele>
        <time>2014-11-19T14:13:25Z</time>
      </trkpt>
      <trkpt lat="43.42961" lon="6.13268">
        <ele>200.27195739746</ele>
        <time>2014-11-19T14:13:27Z</time>
      </trkpt>
      <trkpt lat="43.4296" lon="6.13264">
        <ele>200.55093383789</ele>
        <time>2014-11-19T14:13:29Z</time>
      </trkpt>
      <trkpt lat="43.42958" lon="6.13261">
        <ele>200.82705688477</ele>
        <time>2014-11-19T14:13:31Z</time>
      </trkpt>
      <trkpt lat="43.42952" lon="6.13249">
        <ele>202.02420043945</ele>
        <time>2014-11-19T14:13:39Z</time>
      </trkpt>
      <trkpt lat="43.42948" lon="6.13243">
        <ele>202.73831176758</ele>
        <time>2014-11-19T14:13:43Z</time>
      </trkpt>
      <trkpt lat="43.42947" lon="6.1324">
        <ele>203.05416870117</ele>
        <time>2014-11-19T14:13:45Z</time>
      </trkpt>
      <trkpt lat="43.42946" lon="6.13239">
        <ele>203.12283325195</ele>
        <time>2014-11-19T14:13:46Z</time>
      </trkpt>
      <trkpt lat="43.42944" lon="6.13235">
        <ele>203.59320068359</ele>
        <time>2014-11-19T14:13:49Z</time>
      </trkpt>
      <trkpt lat="43.42942" lon="6.1323">
        <ele>203.97142028809</ele>
        <time>2014-11-19T14:13:52Z</time>
      </trkpt>
      <trkpt lat="43.42941" lon="6.13228">
        <ele>204.12591552734</ele>
        <time>2014-11-19T14:13:53Z</time>
      </trkpt>
      <trkpt lat="43.4294" lon="6.13225">
        <ele>204.34963989258</ele>
        <time>2014-11-19T14:13:55Z</time>
      </trkpt>
      <trkpt lat="43.42939" lon="6.13223">
        <ele>204.49212646484</ele>
        <time>2014-11-19T14:13:57Z</time>
      </trkpt>
      <trkpt lat="43.42938" lon="6.1322">
        <ele>204.80856323242</ele>
        <time>2014-11-19T14:13:59Z</time>
      </trkpt>
      <trkpt lat="43.42936" lon="6.13217">
        <ele>205.20738220215</ele>
        <time>2014-11-19T14:14:01Z</time>
      </trkpt>
      <trkpt lat="43.42934" lon="6.13214">
        <ele>205.61077880859</ele>
        <time>2014-11-19T14:14:03Z</time>
      </trkpt>
      <trkpt lat="43.42933" lon="6.13212">
        <ele>205.92835998535</ele>
        <time>2014-11-19T14:14:05Z</time>
      </trkpt>
      <trkpt lat="43.42931" lon="6.1321">
        <ele>206.3369140625</ele>
        <time>2014-11-19T14:14:07Z</time>
      </trkpt>
      <trkpt lat="43.42929" lon="6.13207">
        <ele>206.74317932129</ele>
        <time>2014-11-19T14:14:09Z</time>
      </trkpt>
      <trkpt lat="43.42927" lon="6.13204">
        <ele>207.14486694336</ele>
        <time>2014-11-19T14:14:11Z</time>
      </trkpt>
      <trkpt lat="43.42922" lon="6.132">
        <ele>208.22061157227</ele>
        <time>2014-11-19T14:14:16Z</time>
      </trkpt>
      <trkpt lat="43.42921" lon="6.13198">
        <ele>208.37854003906</ele>
        <time>2014-11-19T14:14:17Z</time>
      </trkpt>
      <trkpt lat="43.42919" lon="6.13197">
        <ele>208.78994750977</ele>
        <time>2014-11-19T14:14:19Z</time>
      </trkpt>
      <trkpt lat="43.42917" lon="6.13195">
        <ele>209.20193481445</ele>
        <time>2014-11-19T14:14:21Z</time>
      </trkpt>
      <trkpt lat="43.42915" lon="6.13193">
        <ele>209.65295410156</ele>
        <time>2014-11-19T14:14:23Z</time>
      </trkpt>
      <trkpt lat="43.42913" lon="6.13191">
        <ele>210.12178039551</ele>
        <time>2014-11-19T14:14:25Z</time>
      </trkpt>
      <trkpt lat="43.42912" lon="6.1319">
        <ele>210.49903869629</ele>
        <time>2014-11-19T14:14:27Z</time>
      </trkpt>
      <trkpt lat="43.4291" lon="6.13189">
        <ele>210.96951293945</ele>
        <time>2014-11-19T14:14:29Z</time>
      </trkpt>
      <trkpt lat="43.42908" lon="6.13188">
        <ele>211.54290771484</ele>
        <time>2014-11-19T14:14:31Z</time>
      </trkpt>
      <trkpt lat="43.42906" lon="6.13188">
        <ele>211.92831420898</ele>
        <time>2014-11-19T14:14:33Z</time>
      </trkpt>
      <trkpt lat="43.42905" lon="6.13188">
        <ele>212.21694946289</ele>
        <time>2014-11-19T14:14:34Z</time>
      </trkpt>
      <trkpt lat="43.42904" lon="6.13188">
        <ele>212.60478210449</ele>
        <time>2014-11-19T14:14:35Z</time>
      </trkpt>
      <trkpt lat="43.42902" lon="6.13187">
        <ele>212.98919677734</ele>
        <time>2014-11-19T14:14:37Z</time>
      </trkpt>
      <trkpt lat="43.42899" lon="6.13187">
        <ele>213.67004394531</ele>
        <time>2014-11-19T14:14:39Z</time>
      </trkpt>
      <trkpt lat="43.42897" lon="6.13188">
        <ele>214.25787353516</ele>
        <time>2014-11-19T14:14:41Z</time>
      </trkpt>
      <trkpt lat="43.42896" lon="6.13188">
        <ele>214.55471801758</ele>
        <time>2014-11-19T14:14:42Z</time>
      </trkpt>
      <trkpt lat="43.42892" lon="6.1319">
        <ele>215.55883789062</ele>
        <time>2014-11-19T14:14:45Z</time>
      </trkpt>
      <trkpt lat="43.42891" lon="6.13191">
        <ele>215.86753845215</ele>
        <time>2014-11-19T14:14:46Z</time>
      </trkpt>
      <trkpt lat="43.42888" lon="6.13193">
        <ele>216.58586120606</ele>
        <time>2014-11-19T14:14:49Z</time>
      </trkpt>
      <trkpt lat="43.42887" lon="6.13194">
        <ele>216.79417419434</ele>
        <time>2014-11-19T14:14:50Z</time>
      </trkpt>
      <trkpt lat="43.42887" lon="6.13195">
        <ele>217.00888061523</ele>
        <time>2014-11-19T14:14:51Z</time>
      </trkpt>
      <trkpt lat="43.42885" lon="6.13198">
        <ele>217.4446105957</ele>
        <time>2014-11-19T14:14:53Z</time>
      </trkpt>
      <trkpt lat="43.42883" lon="6.13203">
        <ele>218.11611938477</ele>
        <time>2014-11-19T14:14:56Z</time>
      </trkpt>
      <trkpt lat="43.42882" lon="6.13205">
        <ele>218.34149169922</ele>
        <time>2014-11-19T14:14:57Z</time>
      </trkpt>
      <trkpt lat="43.42881" lon="6.13208">
        <ele>218.79092407227</ele>
        <time>2014-11-19T14:14:59Z</time>
      </trkpt>
      <trkpt lat="43.42877" lon="6.13213">
        <ele>219.8620300293</ele>
        <time>2014-11-19T14:15:03Z</time>
      </trkpt>
      <trkpt lat="43.42874" lon="6.13214">
        <ele>220.57949829102</ele>
        <time>2014-11-19T14:15:05Z</time>
      </trkpt>
      <trkpt lat="43.42871" lon="6.13215">
        <ele>221.28927612305</ele>
        <time>2014-11-19T14:15:07Z</time>
      </trkpt>
      <trkpt lat="43.42867" lon="6.13218">
        <ele>222.42807006836</ele>
        <time>2014-11-19T14:15:11Z</time>
      </trkpt>
      <trkpt lat="43.42866" lon="6.13219">
        <ele>222.73504638672</ele>
        <time>2014-11-19T14:15:12Z</time>
      </trkpt>
      <trkpt lat="43.42865" lon="6.13219">
        <ele>223.03662109375</ele>
        <time>2014-11-19T14:15:13Z</time>
      </trkpt>
      <trkpt lat="43.42863" lon="6.13219">
        <ele>223.64379882812</ele>
        <time>2014-11-19T14:15:15Z</time>
      </trkpt>
      <trkpt lat="43.42858" lon="6.13222">
        <ele>224.88870239258</ele>
        <time>2014-11-19T14:15:19Z</time>
      </trkpt>
      <trkpt lat="43.42856" lon="6.13223">
        <ele>225.50756835938</ele>
        <time>2014-11-19T14:15:21Z</time>
      </trkpt>
      <trkpt lat="43.42854" lon="6.13224">
        <ele>226.119140625</ele>
        <time>2014-11-19T14:15:23Z</time>
      </trkpt>
      <trkpt lat="43.42849" lon="6.13225">
        <ele>227.33445739746</ele>
        <time>2014-11-19T14:15:27Z</time>
      </trkpt>
      <trkpt lat="43.42847" lon="6.13227">
        <ele>227.86061096191</ele>
        <time>2014-11-19T14:15:29Z</time>
      </trkpt>
      <trkpt lat="43.42846" lon="6.13227">
        <ele>228.16946411133</ele>
        <time>2014-11-19T14:15:30Z</time>
      </trkpt>
      <trkpt lat="43.42844" lon="6.13228">
        <ele>228.58862304688</ele>
        <time>2014-11-19T14:15:31Z</time>
      </trkpt>
      <trkpt lat="43.42842" lon="6.13229">
        <ele>229.31121826172</ele>
        <time>2014-11-19T14:15:33Z</time>
      </trkpt>
      <trkpt lat="43.42841" lon="6.1323">
        <ele>229.62194824219</ele>
        <time>2014-11-19T14:15:34Z</time>
      </trkpt>
      <trkpt lat="43.42839" lon="6.1323">
        <ele>230.0291595459</ele>
        <time>2014-11-19T14:15:35Z</time>
      </trkpt>
      <trkpt lat="43.42837" lon="6.1323">
        <ele>230.62124633789</ele>
        <time>2014-11-19T14:15:37Z</time>
      </trkpt>
      <trkpt lat="43.42832" lon="6.13231">
        <ele>231.90762329102</ele>
        <time>2014-11-19T14:15:41Z</time>
      </trkpt>
      <trkpt lat="43.4283" lon="6.13231">
        <ele>232.37350463867</ele>
        <time>2014-11-19T14:15:43Z</time>
      </trkpt>
      <trkpt lat="43.42828" lon="6.13231">
        <ele>232.94505310059</ele>
        <time>2014-11-19T14:15:45Z</time>
      </trkpt>
      <trkpt lat="43.42826" lon="6.13232">
        <ele>233.42451477051</ele>
        <time>2014-11-19T14:15:47Z</time>
      </trkpt>
      <trkpt lat="43.42825" lon="6.13232">
        <ele>233.72241210938</ele>
        <time>2014-11-19T14:15:48Z</time>
      </trkpt>
      <trkpt lat="43.42823" lon="6.13234">
        <ele>234.03581237793</ele>
        <time>2014-11-19T14:15:49Z</time>
      </trkpt>
      <trkpt lat="43.42823" lon="6.13234">
        <ele>234.23902893066</ele>
        <time>2014-11-19T14:15:50Z</time>
      </trkpt>
      <trkpt lat="43.42822" lon="6.13235">
        <ele>234.54873657227</ele>
        <time>2014-11-19T14:15:51Z</time>
      </trkpt>
      <trkpt lat="43.42818" lon="6.13239">
        <ele>235.60581970215</ele>
        <time>2014-11-19T14:15:55Z</time>
      </trkpt>
      <trkpt lat="43.42817" lon="6.13242">
        <ele>235.97523498535</ele>
        <time>2014-11-19T14:15:57Z</time>
      </trkpt>
      <trkpt lat="43.42814" lon="6.13247">
        <ele>236.71611022949</ele>
        <time>2014-11-19T14:16:01Z</time>
      </trkpt>
      <trkpt lat="43.42813" lon="6.13252">
        <ele>237.26103210449</ele>
        <time>2014-11-19T14:16:04Z</time>
      </trkpt>
      <trkpt lat="43.42812" lon="6.13255">
        <ele>237.69909667969</ele>
        <time>2014-11-19T14:16:07Z</time>
      </trkpt>
      <trkpt lat="43.4281" lon="6.13257">
        <ele>238.08464050293</ele>
        <time>2014-11-19T14:16:09Z</time>
      </trkpt>
      <trkpt lat="43.4281" lon="6.1326">
        <ele>238.38876342773</ele>
        <time>2014-11-19T14:16:11Z</time>
      </trkpt>
      <trkpt lat="43.42809" lon="6.13262">
        <ele>238.55763244629</ele>
        <time>2014-11-19T14:16:12Z</time>
      </trkpt>
      <trkpt lat="43.42809" lon="6.13263">
        <ele>238.60266113281</ele>
        <time>2014-11-19T14:16:13Z</time>
      </trkpt>
      <trkpt lat="43.42808" lon="6.13267">
        <ele>239.06848144531</ele>
        <time>2014-11-19T14:16:16Z</time>
      </trkpt>
      <trkpt lat="43.42808" lon="6.13271">
        <ele>239.36494445801</ele>
        <time>2014-11-19T14:16:19Z</time>
      </trkpt>
      <trkpt lat="43.42807" lon="6.13275">
        <ele>239.70527648926</ele>
        <time>2014-11-19T14:16:21Z</time>
      </trkpt>
      <trkpt lat="43.42806" lon="6.13279">
        <ele>240.10762023926</ele>
        <time>2014-11-19T14:16:24Z</time>
      </trkpt>
      <trkpt lat="43.42806" lon="6.13281">
        <ele>240.18907165527</ele>
        <time>2014-11-19T14:16:25Z</time>
      </trkpt>
      <trkpt lat="43.42806" lon="6.13285">
        <ele>240.3561706543</ele>
        <time>2014-11-19T14:16:27Z</time>
      </trkpt>
      <trkpt lat="43.42806" lon="6.13288">
        <ele>240.57548522949</ele>
        <time>2014-11-19T14:16:29Z</time>
      </trkpt>
      <trkpt lat="43.42806" lon="6.13291">
        <ele>240.71368408203</ele>
        <time>2014-11-19T14:16:31Z</time>
      </trkpt>
      <trkpt lat="43.42806" lon="6.13297">
        <ele>240.96704101562</ele>
        <time>2014-11-19T14:16:35Z</time>
      </trkpt>
      <trkpt lat="43.42805" lon="6.133">
        <ele>241.21731567383</ele>
        <time>2014-11-19T14:16:37Z</time>
      </trkpt>
      <trkpt lat="43.42805" lon="6.13303">
        <ele>241.36215209961</ele>
        <time>2014-11-19T14:16:39Z</time>
      </trkpt>
      <trkpt lat="43.42806" lon="6.13306">
        <ele>241.40255737305</ele>
        <time>2014-11-19T14:16:41Z</time>
      </trkpt>
      <trkpt lat="43.42807" lon="6.1331">
        <ele>241.23895263672</ele>
        <time>2014-11-19T14:16:43Z</time>
      </trkpt>
      <trkpt lat="43.42808" lon="6.13313">
        <ele>241.06904602051</ele>
        <time>2014-11-19T14:16:45Z</time>
      </trkpt>
      <trkpt lat="43.42809" lon="6.13316">
        <ele>240.98606872559</ele>
        <time>2014-11-19T14:16:47Z</time>
      </trkpt>
      <trkpt lat="43.42811" lon="6.13322">
        <ele>240.63261413574</ele>
        <time>2014-11-19T14:16:51Z</time>
      </trkpt>
      <trkpt lat="43.42813" lon="6.13326">
        <ele>240.25991821289</ele>
        <time>2014-11-19T14:16:54Z</time>
      </trkpt>
      <trkpt lat="43.42814" lon="6.13327">
        <ele>240.1065826416</ele>
        <time>2014-11-19T14:16:55Z</time>
      </trkpt>
      <trkpt lat="43.42815" lon="6.13329">
        <ele>239.76675415039</ele>
        <time>2014-11-19T14:16:57Z</time>
      </trkpt>
      <trkpt lat="43.42822" lon="6.13334">
        <ele>238.28308105469</ele>
        <time>2014-11-19T14:17:03Z</time>
      </trkpt>
      <trkpt lat="43.42823" lon="6.13336">
        <ele>237.83378601074</ele>
        <time>2014-11-19T14:17:05Z</time>
      </trkpt>
      <trkpt lat="43.42826" lon="6.13337">
        <ele>237.03321838379</ele>
        <time>2014-11-19T14:17:07Z</time>
      </trkpt>
      <trkpt lat="43.42829" lon="6.13339">
        <ele>236.470703125</ele>
        <time>2014-11-19T14:17:09Z</time>
      </trkpt>
      <trkpt lat="43.42831" lon="6.13341">
        <ele>236.04403686523</ele>
        <time>2014-11-19T14:17:11Z</time>
      </trkpt>
      <trkpt lat="43.42832" lon="6.13345">
        <ele>235.74684143066</ele>
        <time>2014-11-19T14:17:13Z</time>
      </trkpt>
      <trkpt lat="43.42832" lon="6.13348">
        <ele>235.87271118164</ele>
        <time>2014-11-19T14:17:15Z</time>
      </trkpt>
      <trkpt lat="43.42831" lon="6.13351">
        <ele>236.17663574219</ele>
        <time>2014-11-19T14:17:17Z</time>
      </trkpt>
      <trkpt lat="43.4283" lon="6.13353">
        <ele>236.58683776856</ele>
        <time>2014-11-19T14:17:19Z</time>
      </trkpt>
      <trkpt lat="43.42828" lon="6.13358">
        <ele>237.53962707519</ele>
        <time>2014-11-19T14:17:23Z</time>
      </trkpt>
      <trkpt lat="43.42825" lon="6.13361">
        <ele>238.45631408691</ele>
        <time>2014-11-19T14:17:26Z</time>
      </trkpt>
      <trkpt lat="43.42824" lon="6.13363">
        <ele>238.85781860352</ele>
        <time>2014-11-19T14:17:27Z</time>
      </trkpt>
      <trkpt lat="43.42822" lon="6.13366">
        <ele>239.64888000488</ele>
        <time>2014-11-19T14:17:29Z</time>
      </trkpt>
      <trkpt lat="43.4282" lon="6.13368">
        <ele>240.32389831543</ele>
        <time>2014-11-19T14:17:31Z</time>
      </trkpt>
      <trkpt lat="43.42818" lon="6.13371">
        <ele>240.88249206543</ele>
        <time>2014-11-19T14:17:33Z</time>
      </trkpt>
      <trkpt lat="43.42815" lon="6.13377">
        <ele>241.96844482422</ele>
        <time>2014-11-19T14:17:37Z</time>
      </trkpt>
      <trkpt lat="43.42815" lon="6.13378">
        <ele>242.2717590332</ele>
        <time>2014-11-19T14:17:38Z</time>
      </trkpt>
      <trkpt lat="43.42813" lon="6.13382">
        <ele>243.03723144531</ele>
        <time>2014-11-19T14:17:41Z</time>
      </trkpt>
      <trkpt lat="43.42812" lon="6.13384">
        <ele>243.48495483398</ele>
        <time>2014-11-19T14:17:43Z</time>
      </trkpt>
      <trkpt lat="43.42811" lon="6.13386">
        <ele>243.68515014648</ele>
        <time>2014-11-19T14:17:44Z</time>
      </trkpt>
      <trkpt lat="43.42811" lon="6.13388">
        <ele>243.87210083008</ele>
        <time>2014-11-19T14:17:45Z</time>
      </trkpt>
      <trkpt lat="43.42808" lon="6.13392">
        <ele>244.89491271973</ele>
        <time>2014-11-19T14:17:48Z</time>
      </trkpt>
      <trkpt lat="43.42807" lon="6.13393">
        <ele>245.32727050781</ele>
        <time>2014-11-19T14:17:49Z</time>
      </trkpt>
      <trkpt lat="43.42805" lon="6.13397">
        <ele>246.10884094238</ele>
        <time>2014-11-19T14:17:51Z</time>
      </trkpt>
      <trkpt lat="43.42804" lon="6.134">
        <ele>246.53828430176</ele>
        <time>2014-11-19T14:17:53Z</time>
      </trkpt>
      <trkpt lat="43.42804" lon="6.13404">
        <ele>246.98358154297</ele>
        <time>2014-11-19T14:17:55Z</time>
      </trkpt>
      <trkpt lat="43.42804" lon="6.13408">
        <ele>247.0645904541</ele>
        <time>2014-11-19T14:17:57Z</time>
      </trkpt>
      <trkpt lat="43.42804" lon="6.13412">
        <ele>247.25132751465</ele>
        <time>2014-11-19T14:17:59Z</time>
      </trkpt>
      <trkpt lat="43.42805" lon="6.13418">
        <ele>247.09317016602</ele>
        <time>2014-11-19T14:18:03Z</time>
      </trkpt>
      <trkpt lat="43.42806" lon="6.13421">
        <ele>247.01641845703</ele>
        <time>2014-11-19T14:18:05Z</time>
      </trkpt>
      <trkpt lat="43.42807" lon="6.13425">
        <ele>247.01704406738</ele>
        <time>2014-11-19T14:18:07Z</time>
      </trkpt>
      <trkpt lat="43.42808" lon="6.13427">
        <ele>246.88821411133</ele>
        <time>2014-11-19T14:18:08Z</time>
      </trkpt>
      <trkpt lat="43.42808" lon="6.13429">
        <ele>247.01489257812</ele>
        <time>2014-11-19T14:18:09Z</time>
      </trkpt>
      <trkpt lat="43.42808" lon="6.13433">
        <ele>247.10543823242</ele>
        <time>2014-11-19T14:18:11Z</time>
      </trkpt>
      <trkpt lat="43.42809" lon="6.13436">
        <ele>247.06512451172</ele>
        <time>2014-11-19T14:18:13Z</time>
      </trkpt>
      <trkpt lat="43.42809" lon="6.1344">
        <ele>247.38514709473</ele>
        <time>2014-11-19T14:18:15Z</time>
      </trkpt>
      <trkpt lat="43.42808" lon="6.13443">
        <ele>247.68379211426</ele>
        <time>2014-11-19T14:18:17Z</time>
      </trkpt>
      <trkpt lat="43.42807" lon="6.13449">
        <ele>248.31219482422</ele>
        <time>2014-11-19T14:18:21Z</time>
      </trkpt>
      <trkpt lat="43.42807" lon="6.13452">
        <ele>248.61096191406</ele>
        <time>2014-11-19T14:18:23Z</time>
      </trkpt>
      <trkpt lat="43.42807" lon="6.13454">
        <ele>248.63969421387</ele>
        <time>2014-11-19T14:18:25Z</time>
      </trkpt>
      <trkpt lat="43.42807" lon="6.13458">
        <ele>248.83450317383</ele>
        <time>2014-11-19T14:18:27Z</time>
      </trkpt>
      <trkpt lat="43.42808" lon="6.13459">
        <ele>248.79705810547</ele>
        <time>2014-11-19T14:18:28Z</time>
      </trkpt>
      <trkpt lat="43.42808" lon="6.13461">
        <ele>248.77313232422</ele>
        <time>2014-11-19T14:18:29Z</time>
      </trkpt>
      <trkpt lat="43.42809" lon="6.13464">
        <ele>248.84379577637</ele>
        <time>2014-11-19T14:18:31Z</time>
      </trkpt>
      <trkpt lat="43.42809" lon="6.13467">
        <ele>248.87702941894</ele>
        <time>2014-11-19T14:18:33Z</time>
      </trkpt>
      <trkpt lat="43.42809" lon="6.13469">
        <ele>248.81469726562</ele>
        <time>2014-11-19T14:18:34Z</time>
      </trkpt>
      <trkpt lat="43.4281" lon="6.1347">
        <ele>248.77139282227</ele>
        <time>2014-11-19T14:18:35Z</time>
      </trkpt>
      <trkpt lat="43.42811" lon="6.13479">
        <ele>248.86416625977</ele>
        <time>2014-11-19T14:18:40Z</time>
      </trkpt>
      <trkpt lat="43.42811" lon="6.13484">
        <ele>249.07347106934</ele>
        <time>2014-11-19T14:18:43Z</time>
      </trkpt>
      <trkpt lat="43.42812" lon="6.13488">
        <ele>248.87324523926</ele>
        <time>2014-11-19T14:18:45Z</time>
      </trkpt>
      <trkpt lat="43.42814" lon="6.13495">
        <ele>248.71104431152</ele>
        <time>2014-11-19T14:18:49Z</time>
      </trkpt>
      <trkpt lat="43.42815" lon="6.13498">
        <ele>248.60389709473</ele>
        <time>2014-11-19T14:18:51Z</time>
      </trkpt>
      <trkpt lat="43.42816" lon="6.13501">
        <ele>248.33903503418</ele>
        <time>2014-11-19T14:18:53Z</time>
      </trkpt>
      <trkpt lat="43.42817" lon="6.13506">
        <ele>248.08296203613</ele>
        <time>2014-11-19T14:18:57Z</time>
      </trkpt>
      <trkpt lat="43.42817" lon="6.13512">
        <ele>248.1032409668</ele>
        <time>2014-11-19T14:19:01Z</time>
      </trkpt>
      <trkpt lat="43.42818" lon="6.13515">
        <ele>248.04890441894</ele>
        <time>2014-11-19T14:19:03Z</time>
      </trkpt>
      <trkpt lat="43.42818" lon="6.13518">
        <ele>248.13591003418</ele>
        <time>2014-11-19T14:19:05Z</time>
      </trkpt>
      <trkpt lat="43.42817" lon="6.13521">
        <ele>248.37341308594</ele>
        <time>2014-11-19T14:19:07Z</time>
      </trkpt>
      <trkpt lat="43.42817" lon="6.13523">
        <ele>248.55690002441</ele>
        <time>2014-11-19T14:19:08Z</time>
      </trkpt>
      <trkpt lat="43.42815" lon="6.1353">
        <ele>249.48629760742</ele>
        <time>2014-11-19T14:19:13Z</time>
      </trkpt>
      <trkpt lat="43.42812" lon="6.1354">
        <ele>250.76904296875</ele>
        <time>2014-11-19T14:19:20Z</time>
      </trkpt>
      <trkpt lat="43.42811" lon="6.13544">
        <ele>251.44221496582</ele>
        <time>2014-11-19T14:19:23Z</time>
      </trkpt>
      <trkpt lat="43.4281" lon="6.13546">
        <ele>251.64709472656</ele>
        <time>2014-11-19T14:19:25Z</time>
      </trkpt>
      <trkpt lat="43.4281" lon="6.13548">
        <ele>251.84364318848</ele>
        <time>2014-11-19T14:19:27Z</time>
      </trkpt>
      <trkpt lat="43.42809" lon="6.1355">
        <ele>252.20841979981</ele>
        <time>2014-11-19T14:19:29Z</time>
      </trkpt>
      <trkpt lat="43.42808" lon="6.13554">
        <ele>252.88600158691</ele>
        <time>2014-11-19T14:19:31Z</time>
      </trkpt>
      <trkpt lat="43.42807" lon="6.13557">
        <ele>253.43656921387</ele>
        <time>2014-11-19T14:19:33Z</time>
      </trkpt>
      <trkpt lat="43.42805" lon="6.13561">
        <ele>253.98355102539</ele>
        <time>2014-11-19T14:19:35Z</time>
      </trkpt>
      <trkpt lat="43.42803" lon="6.13565">
        <ele>255.13414001465</ele>
        <time>2014-11-19T14:19:38Z</time>
      </trkpt>
      <trkpt lat="43.42802" lon="6.13567">
        <ele>255.47039794922</ele>
        <time>2014-11-19T14:19:39Z</time>
      </trkpt>
      <trkpt lat="43.428" lon="6.1357">
        <ele>256.28817749023</ele>
        <time>2014-11-19T14:19:41Z</time>
      </trkpt>
      <trkpt lat="43.42799" lon="6.13572">
        <ele>256.66030883789</ele>
        <time>2014-11-19T14:19:43Z</time>
      </trkpt>
      <trkpt lat="43.42799" lon="6.13576">
        <ele>257.09671020508</ele>
        <time>2014-11-19T14:19:45Z</time>
      </trkpt>
      <trkpt lat="43.42798" lon="6.1358">
        <ele>257.37417602539</ele>
        <time>2014-11-19T14:19:47Z</time>
      </trkpt>
      <trkpt lat="43.42798" lon="6.13584">
        <ele>257.50796508789</ele>
        <time>2014-11-19T14:19:49Z</time>
      </trkpt>
      <trkpt lat="43.42796" lon="6.13591">
        <ele>258.39926147461</ele>
        <time>2014-11-19T14:19:53Z</time>
      </trkpt>
      <trkpt lat="43.42794" lon="6.13593">
        <ele>259.18908691406</ele>
        <time>2014-11-19T14:19:55Z</time>
      </trkpt>
      <trkpt lat="43.42792" lon="6.13593">
        <ele>260.0637512207</ele>
        <time>2014-11-19T14:19:57Z</time>
      </trkpt>
      <trkpt lat="43.42788" lon="6.13589">
        <ele>261.71374511719</ele>
        <time>2014-11-19T14:20:02Z</time>
      </trkpt>
      <trkpt lat="43.42788" lon="6.13588">
        <ele>261.68435668945</ele>
        <time>2014-11-19T14:20:03Z</time>
      </trkpt>
      <trkpt lat="43.42788" lon="6.13585">
        <ele>261.4782409668</ele>
        <time>2014-11-19T14:20:05Z</time>
      </trkpt>
      <trkpt lat="43.42788" lon="6.13584">
        <ele>261.44216918945</ele>
        <time>2014-11-19T14:20:06Z</time>
      </trkpt>
      <trkpt lat="43.42788" lon="6.13579">
        <ele>261.42199707031</ele>
        <time>2014-11-19T14:20:09Z</time>
      </trkpt>
      <trkpt lat="43.42788" lon="6.13576">
        <ele>261.16107177734</ele>
        <time>2014-11-19T14:20:11Z</time>
      </trkpt>
      <trkpt lat="43.42788" lon="6.13573">
        <ele>260.90963745117</ele>
        <time>2014-11-19T14:20:13Z</time>
      </trkpt>
      <trkpt lat="43.42788" lon="6.13571">
        <ele>260.98251342773</ele>
        <time>2014-11-19T14:20:14Z</time>
      </trkpt>
      <trkpt lat="43.42788" lon="6.13569">
        <ele>261.0549621582</ele>
        <time>2014-11-19T14:20:15Z</time>
      </trkpt>
      <trkpt lat="43.42788" lon="6.13563">
        <ele>260.81915283203</ele>
        <time>2014-11-19T14:20:19Z</time>
      </trkpt>
      <trkpt lat="43.42787" lon="6.13561">
        <ele>261.05233764648</ele>
        <time>2014-11-19T14:20:20Z</time>
      </trkpt>
      <trkpt lat="43.42786" lon="6.1356">
        <ele>261.12841796875</ele>
        <time>2014-11-19T14:20:21Z</time>
      </trkpt>
      <trkpt lat="43.42785" lon="6.13556">
        <ele>261.57904052734</ele>
        <time>2014-11-19T14:20:23Z</time>
      </trkpt>
      <trkpt lat="43.42783" lon="6.13553">
        <ele>262.15707397461</ele>
        <time>2014-11-19T14:20:25Z</time>
      </trkpt>
      <trkpt lat="43.42782" lon="6.13549">
        <ele>262.45309448242</ele>
        <time>2014-11-19T14:20:27Z</time>
      </trkpt>
      <trkpt lat="43.42778" lon="6.13544">
        <ele>263.67483520508</ele>
        <time>2014-11-19T14:20:30Z</time>
      </trkpt>
      <trkpt lat="43.42777" lon="6.13543">
        <ele>264.04760742188</ele>
        <time>2014-11-19T14:20:31Z</time>
      </trkpt>
      <trkpt lat="43.42775" lon="6.1354">
        <ele>264.64874267578</ele>
        <time>2014-11-19T14:20:33Z</time>
      </trkpt>
      <trkpt lat="43.42774" lon="6.13538">
        <ele>264.9758605957</ele>
        <time>2014-11-19T14:20:35Z</time>
      </trkpt>
      <trkpt lat="43.42772" lon="6.13536">
        <ele>265.74298095703</ele>
        <time>2014-11-19T14:20:37Z</time>
      </trkpt>
      <trkpt lat="43.42769" lon="6.13533">
        <ele>266.48318481445</ele>
        <time>2014-11-19T14:20:39Z</time>
      </trkpt>
      <trkpt lat="43.42765" lon="6.1353">
        <ele>267.75796508789</ele>
        <time>2014-11-19T14:20:42Z</time>
      </trkpt>
      <trkpt lat="43.42764" lon="6.13529">
        <ele>268.12966918945</ele>
        <time>2014-11-19T14:20:43Z</time>
      </trkpt>
      <trkpt lat="43.42762" lon="6.13527">
        <ele>269.01956176758</ele>
        <time>2014-11-19T14:20:45Z</time>
      </trkpt>
      <trkpt lat="43.42759" lon="6.13525">
        <ele>269.9235534668</ele>
        <time>2014-11-19T14:20:47Z</time>
      </trkpt>
      <trkpt lat="43.42757" lon="6.13524">
        <ele>270.43362426758</ele>
        <time>2014-11-19T14:20:48Z</time>
      </trkpt>
      <trkpt lat="43.42756" lon="6.13523">
        <ele>270.94934082031</ele>
        <time>2014-11-19T14:20:49Z</time>
      </trkpt>
      <trkpt lat="43.42755" lon="6.13522">
        <ele>271.30221557617</ele>
        <time>2014-11-19T14:20:50Z</time>
      </trkpt>
      <trkpt lat="43.42754" lon="6.1352">
        <ele>271.52133178711</ele>
        <time>2014-11-19T14:20:51Z</time>
      </trkpt>
      <trkpt lat="43.42752" lon="6.13518">
        <ele>272.09259033203</ele>
        <time>2014-11-19T14:20:53Z</time>
      </trkpt>
      <trkpt lat="43.4275" lon="6.13516">
        <ele>272.69293212891</ele>
        <time>2014-11-19T14:20:55Z</time>
      </trkpt>
      <trkpt lat="43.42748" lon="6.13513">
        <ele>273.08709716797</ele>
        <time>2014-11-19T14:20:57Z</time>
      </trkpt>
      <trkpt lat="43.42746" lon="6.13511">
        <ele>273.49951171875</ele>
        <time>2014-11-19T14:20:59Z</time>
      </trkpt>
      <trkpt lat="43.42744" lon="6.13508">
        <ele>273.98770141602</ele>
        <time>2014-11-19T14:21:01Z</time>
      </trkpt>
      <trkpt lat="43.42742" lon="6.13506">
        <ele>274.35690307617</ele>
        <time>2014-11-19T14:21:03Z</time>
      </trkpt>
      <trkpt lat="43.42738" lon="6.13499">
        <ele>275.00607299805</ele>
        <time>2014-11-19T14:21:07Z</time>
      </trkpt>
      <trkpt lat="43.42737" lon="6.13495">
        <ele>275.08102416992</ele>
        <time>2014-11-19T14:21:09Z</time>
      </trkpt>
      <trkpt lat="43.42736" lon="6.13491">
        <ele>275.03765869141</ele>
        <time>2014-11-19T14:21:11Z</time>
      </trkpt>
      <trkpt lat="43.42731" lon="6.13484">
        <ele>275.49966430664</ele>
        <time>2014-11-19T14:21:15Z</time>
      </trkpt>
      <trkpt lat="43.42728" lon="6.13476">
        <ele>275.57971191406</ele>
        <time>2014-11-19T14:21:19Z</time>
      </trkpt>
      <trkpt lat="43.42725" lon="6.13469">
        <ele>275.76104736328</ele>
        <time>2014-11-19T14:21:23Z</time>
      </trkpt>
      <trkpt lat="43.42723" lon="6.13466">
        <ele>276.00473022461</ele>
        <time>2014-11-19T14:21:25Z</time>
      </trkpt>
      <trkpt lat="43.42722" lon="6.13462">
        <ele>276.08099365234</ele>
        <time>2014-11-19T14:21:27Z</time>
      </trkpt>
      <trkpt lat="43.42721" lon="6.13458">
        <ele>276.04461669922</ele>
        <time>2014-11-19T14:21:29Z</time>
      </trkpt>
      <trkpt lat="43.42719" lon="6.13456">
        <ele>276.22326660156</ele>
        <time>2014-11-19T14:21:31Z</time>
      </trkpt>
      <trkpt lat="43.42717" lon="6.13454">
        <ele>276.50747680664</ele>
        <time>2014-11-19T14:21:33Z</time>
      </trkpt>
      <trkpt lat="43.42714" lon="6.1345">
        <ele>277.15292358398</ele>
        <time>2014-11-19T14:21:37Z</time>
      </trkpt>
      <trkpt lat="43.42707" lon="6.13444">
        <ele>278.16152954102</ele>
        <time>2014-11-19T14:21:43Z</time>
      </trkpt>
      <trkpt lat="43.42705" lon="6.13442">
        <ele>278.55313110352</ele>
        <time>2014-11-19T14:21:45Z</time>
      </trkpt>
      <trkpt lat="43.42702" lon="6.1344">
        <ele>279.09265136719</ele>
        <time>2014-11-19T14:21:47Z</time>
      </trkpt>
      <trkpt lat="43.427" lon="6.13438">
        <ele>279.52062988281</ele>
        <time>2014-11-19T14:21:49Z</time>
      </trkpt>
      <trkpt lat="43.42694" lon="6.13433">
        <ele>280.5466003418</ele>
        <time>2014-11-19T14:21:55Z</time>
      </trkpt>
      <trkpt lat="43.42692" lon="6.13431">
        <ele>280.86871337891</ele>
        <time>2014-11-19T14:21:57Z</time>
      </trkpt>
      <trkpt lat="43.4269" lon="6.13429">
        <ele>281.40997314453</ele>
        <time>2014-11-19T14:21:59Z</time>
      </trkpt>
      <trkpt lat="43.42687" lon="6.1343">
        <ele>282.17208862305</ele>
        <time>2014-11-19T14:22:01Z</time>
      </trkpt>
      <trkpt lat="43.42684" lon="6.13432">
        <ele>282.98837280273</ele>
        <time>2014-11-19T14:22:03Z</time>
      </trkpt>
      <trkpt lat="43.42683" lon="6.13434">
        <ele>283.47570800781</ele>
        <time>2014-11-19T14:22:05Z</time>
      </trkpt>
      <trkpt lat="43.42682" lon="6.13436">
        <ele>283.8352355957</ele>
        <time>2014-11-19T14:22:06Z</time>
      </trkpt>
      <trkpt lat="43.42682" lon="6.13437">
        <ele>284.07556152344</ele>
        <time>2014-11-19T14:22:07Z</time>
      </trkpt>
      <trkpt lat="43.42681" lon="6.1344">
        <ele>284.68096923828</ele>
        <time>2014-11-19T14:22:09Z</time>
      </trkpt>
      <trkpt lat="43.4268" lon="6.13444">
        <ele>285.11465454102</ele>
        <time>2014-11-19T14:22:11Z</time>
      </trkpt>
      <trkpt lat="43.4268" lon="6.13446">
        <ele>285.38726806641</ele>
        <time>2014-11-19T14:22:12Z</time>
      </trkpt>
      <trkpt lat="43.4268" lon="6.13448">
        <ele>285.58465576172</ele>
        <time>2014-11-19T14:22:13Z</time>
      </trkpt>
      <trkpt lat="43.4268" lon="6.13451">
        <ele>285.90765380859</ele>
        <time>2014-11-19T14:22:15Z</time>
      </trkpt>
      <trkpt lat="43.42677" lon="6.13467">
        <ele>288.29174804688</ele>
        <time>2014-11-19T14:22:23Z</time>
      </trkpt>
      <trkpt lat="43.42676" lon="6.13471">
        <ele>288.85076904297</ele>
        <time>2014-11-19T14:22:25Z</time>
      </trkpt>
      <trkpt lat="43.42675" lon="6.13474">
        <ele>289.34735107422</ele>
        <time>2014-11-19T14:22:27Z</time>
      </trkpt>
      <trkpt lat="43.42674" lon="6.13478">
        <ele>289.87628173828</ele>
        <time>2014-11-19T14:22:29Z</time>
      </trkpt>
      <trkpt lat="43.42673" lon="6.13481">
        <ele>290.37426757812</ele>
        <time>2014-11-19T14:22:31Z</time>
      </trkpt>
      <trkpt lat="43.42672" lon="6.13483">
        <ele>291.00903320312</ele>
        <time>2014-11-19T14:22:33Z</time>
      </trkpt>
      <trkpt lat="43.4267" lon="6.13485">
        <ele>291.60845947266</ele>
        <time>2014-11-19T14:22:35Z</time>
      </trkpt>
      <trkpt lat="43.42667" lon="6.1349">
        <ele>292.8283996582</ele>
        <time>2014-11-19T14:22:38Z</time>
      </trkpt>
      <trkpt lat="43.42666" lon="6.13492">
        <ele>293.17532348633</ele>
        <time>2014-11-19T14:22:39Z</time>
      </trkpt>
      <trkpt lat="43.42664" lon="6.13496">
        <ele>293.36959838867</ele>
        <time>2014-11-19T14:22:41Z</time>
      </trkpt>
      <trkpt lat="43.42662" lon="6.135">
        <ele>293.58639526367</ele>
        <time>2014-11-19T14:22:43Z</time>
      </trkpt>
      <trkpt lat="43.42661" lon="6.13503">
        <ele>293.66128540039</ele>
        <time>2014-11-19T14:22:45Z</time>
      </trkpt>
      <trkpt lat="43.4266" lon="6.13505">
        <ele>293.71276855469</ele>
        <time>2014-11-19T14:22:47Z</time>
      </trkpt>
      <trkpt lat="43.42659" lon="6.13507">
        <ele>293.76885986328</ele>
        <time>2014-11-19T14:22:48Z</time>
      </trkpt>
      <trkpt lat="43.42659" lon="6.13508">
        <ele>293.80548095703</ele>
        <time>2014-11-19T14:22:49Z</time>
      </trkpt>
      <trkpt lat="43.42658" lon="6.13511">
        <ele>293.91418457031</ele>
        <time>2014-11-19T14:22:51Z</time>
      </trkpt>
      <trkpt lat="43.42656" lon="6.13514">
        <ele>293.95196533203</ele>
        <time>2014-11-19T14:22:53Z</time>
      </trkpt>
      <trkpt lat="43.42654" lon="6.13519">
        <ele>294.12475585938</ele>
        <time>2014-11-19T14:22:55Z</time>
      </trkpt>
      <trkpt lat="43.42653" lon="6.13523">
        <ele>294.32159423828</ele>
        <time>2014-11-19T14:22:57Z</time>
      </trkpt>
      <trkpt lat="43.4265" lon="6.13528">
        <ele>294.44863891602</ele>
        <time>2014-11-19T14:22:59Z</time>
      </trkpt>
      <trkpt lat="43.42649" lon="6.13532">
        <ele>294.57681274414</ele>
        <time>2014-11-19T14:23:01Z</time>
      </trkpt>
      <trkpt lat="43.42648" lon="6.13537">
        <ele>294.8606262207</ele>
        <time>2014-11-19T14:23:03Z</time>
      </trkpt>
      <trkpt lat="43.42647" lon="6.13542">
        <ele>295.08721923828</ele>
        <time>2014-11-19T14:23:05Z</time>
      </trkpt>
      <trkpt lat="43.42645" lon="6.13548">
        <ele>295.40078735352</ele>
        <time>2014-11-19T14:23:08Z</time>
      </trkpt>
      <trkpt lat="43.42645" lon="6.1355">
        <ele>295.47860717773</ele>
        <time>2014-11-19T14:23:09Z</time>
      </trkpt>
      <trkpt lat="43.42643" lon="6.13559">
        <ele>295.97756958008</ele>
        <time>2014-11-19T14:23:13Z</time>
      </trkpt>
      <trkpt lat="43.42643" lon="6.13564">
        <ele>296.31744384766</ele>
        <time>2014-11-19T14:23:15Z</time>
      </trkpt>
      <trkpt lat="43.42643" lon="6.13569">
        <ele>296.63446044922</ele>
        <time>2014-11-19T14:23:17Z</time>
      </trkpt>
      <trkpt lat="43.42643" lon="6.13571">
        <ele>296.80612182617</ele>
        <time>2014-11-19T14:23:18Z</time>
      </trkpt>
      <trkpt lat="43.42642" lon="6.13578">
        <ele>297.21008300781</ele>
        <time>2014-11-19T14:23:21Z</time>
      </trkpt>
      <trkpt lat="43.42641" lon="6.13581">
        <ele>297.44128417969</ele>
        <time>2014-11-19T14:23:23Z</time>
      </trkpt>
      <trkpt lat="43.42641" lon="6.13591">
        <ele>297.59725952148</ele>
        <time>2014-11-19T14:23:27Z</time>
      </trkpt>
      <trkpt lat="43.42641" lon="6.13595">
        <ele>297.59680175781</ele>
        <time>2014-11-19T14:23:29Z</time>
      </trkpt>
      <trkpt lat="43.42641" lon="6.136">
        <ele>297.66513061523</ele>
        <time>2014-11-19T14:23:31Z</time>
      </trkpt>
      <trkpt lat="43.42641" lon="6.13605">
        <ele>297.70239257812</ele>
        <time>2014-11-19T14:23:33Z</time>
      </trkpt>
      <trkpt lat="43.42642" lon="6.1361">
        <ele>297.80905151367</ele>
        <time>2014-11-19T14:23:35Z</time>
      </trkpt>
      <trkpt lat="43.42642" lon="6.13616">
        <ele>297.88269042969</ele>
        <time>2014-11-19T14:23:37Z</time>
      </trkpt>
      <trkpt lat="43.42642" lon="6.13625">
        <ele>297.94815063477</ele>
        <time>2014-11-19T14:23:41Z</time>
      </trkpt>
      <trkpt lat="43.42642" lon="6.1363">
        <ele>297.98040771484</ele>
        <time>2014-11-19T14:23:43Z</time>
      </trkpt>
      <trkpt lat="43.42643" lon="6.13635">
        <ele>298.04629516602</ele>
        <time>2014-11-19T14:23:45Z</time>
      </trkpt>
      <trkpt lat="43.42643" lon="6.1364">
        <ele>298.11303710938</ele>
        <time>2014-11-19T14:23:47Z</time>
      </trkpt>
      <trkpt lat="43.42643" lon="6.13645">
        <ele>298.11834716797</ele>
        <time>2014-11-19T14:23:49Z</time>
      </trkpt>
      <trkpt lat="43.42642" lon="6.13656">
        <ele>298.16174316406</ele>
        <time>2014-11-19T14:23:53Z</time>
      </trkpt>
      <trkpt lat="43.42642" lon="6.13661">
        <ele>298.19937133789</ele>
        <time>2014-11-19T14:23:55Z</time>
      </trkpt>
      <trkpt lat="43.42643" lon="6.13666">
        <ele>298.26184082031</ele>
        <time>2014-11-19T14:23:57Z</time>
      </trkpt>
      <trkpt lat="43.42643" lon="6.13677">
        <ele>298.30081176758</ele>
        <time>2014-11-19T14:24:01Z</time>
      </trkpt>
      <trkpt lat="43.42642" lon="6.13682">
        <ele>298.2926940918</ele>
        <time>2014-11-19T14:24:03Z</time>
      </trkpt>
      <trkpt lat="43.42642" lon="6.13686">
        <ele>298.28140258789</ele>
        <time>2014-11-19T14:24:05Z</time>
      </trkpt>
      <trkpt lat="43.42641" lon="6.1369">
        <ele>298.26870727539</ele>
        <time>2014-11-19T14:24:07Z</time>
      </trkpt>
      <trkpt lat="43.42641" lon="6.13692">
        <ele>298.22595214844</ele>
        <time>2014-11-19T14:24:09Z</time>
      </trkpt>
      <trkpt lat="43.42641" lon="6.13693">
        <ele>298.25393676758</ele>
        <time>2014-11-19T14:24:11Z</time>
      </trkpt>
      <trkpt lat="43.42641" lon="6.13693">
        <ele>298.25567626953</ele>
        <time>2014-11-19T14:24:13Z</time>
      </trkpt>
      <trkpt lat="43.42641" lon="6.13694">
        <ele>298.255859375</ele>
        <time>2014-11-19T14:24:15Z</time>
      </trkpt>
      <trkpt lat="43.42641" lon="6.13694">
        <ele>298.255859375</ele>
        <time>2014-11-19T14:24:19Z</time>
      </trkpt>
      <trkpt lat="43.42641" lon="6.13694">
        <ele>298.25674438477</ele>
        <time>2014-11-19T14:24:47Z</time>
      </trkpt>
      <trkpt lat="43.42641" lon="6.13694">
        <ele>298.25674438477</ele>
        <time>2014-11-19T14:24:51Z</time>
      </trkpt>
      <trkpt lat="43.42641" lon="6.13694">
        <ele>298.25674438477</ele>
        <time>2014-11-19T14:24:59Z</time>
      </trkpt>
      <trkpt lat="43.42641" lon="6.13694">
        <ele>298.25692749023</ele>
        <time>2014-11-19T14:25:01Z</time>
      </trkpt>
      <trkpt lat="43.42641" lon="6.13694">
        <ele>298.25692749023</ele>
        <time>2014-11-19T14:25:05Z</time>
      </trkpt>
      <trkpt lat="43.42641" lon="6.13694">
        <ele>298.25778198242</ele>
        <time>2014-11-19T14:26:01Z</time>
      </trkpt>
      <trkpt lat="43.42641" lon="6.13694">
        <ele>298.25833129883</ele>
        <time>2014-11-19T14:26:33Z</time>
      </trkpt>
      <trkpt lat="43.42641" lon="6.13694">
        <ele>298.25833129883</ele>
        <time>2014-11-19T14:26:35Z</time>
      </trkpt>
      <trkpt lat="43.42641" lon="6.13695">
        <ele>298.28619384766</ele>
        <time>2014-11-19T14:26:37Z</time>
      </trkpt>
      <trkpt lat="43.42643" lon="6.13694">
        <ele>298.36032104492</ele>
        <time>2014-11-19T14:26:39Z</time>
      </trkpt>
      <trkpt lat="43.42643" lon="6.13692">
        <ele>298.35485839844</ele>
        <time>2014-11-19T14:26:41Z</time>
      </trkpt>
      <trkpt lat="43.42642" lon="6.13691">
        <ele>298.32543945312</ele>
        <time>2014-11-19T14:26:43Z</time>
      </trkpt>
      <trkpt lat="43.42642" lon="6.13691">
        <ele>298.32559204102</ele>
        <time>2014-11-19T14:26:47Z</time>
      </trkpt>
      <trkpt lat="43.42642" lon="6.13691">
        <ele>298.32543945312</ele>
        <time>2014-11-19T14:26:49Z</time>
      </trkpt>
      <trkpt lat="43.42642" lon="6.13691">
        <ele>298.3249206543</ele>
        <time>2014-11-19T14:26:51Z</time>
      </trkpt>
      <trkpt lat="43.42642" lon="6.13688">
        <ele>298.31484985352</ele>
        <time>2014-11-19T14:26:53Z</time>
      </trkpt>
      <trkpt lat="43.42642" lon="6.13686">
        <ele>298.30746459961</ele>
        <time>2014-11-19T14:26:54Z</time>
      </trkpt>
      <trkpt lat="43.42642" lon="6.13683">
        <ele>298.2705078125</ele>
        <time>2014-11-19T14:26:55Z</time>
      </trkpt>
      <trkpt lat="43.42643" lon="6.13677">
        <ele>298.30230712891</ele>
        <time>2014-11-19T14:26:57Z</time>
      </trkpt>
      <trkpt lat="43.42643" lon="6.13669">
        <ele>298.33032226562</ele>
        <time>2014-11-19T14:26:59Z</time>
      </trkpt>
      <trkpt lat="43.42643" lon="6.1366">
        <ele>298.27914428711</ele>
        <time>2014-11-19T14:27:01Z</time>
      </trkpt>
      <trkpt lat="43.42644" lon="6.1365">
        <ele>298.24151611328</ele>
        <time>2014-11-19T14:27:03Z</time>
      </trkpt>
      <trkpt lat="43.42644" lon="6.13639">
        <ele>298.16876220703</ele>
        <time>2014-11-19T14:27:05Z</time>
      </trkpt>
      <trkpt lat="43.42644" lon="6.13634">
        <ele>298.13507080078</ele>
        <time>2014-11-19T14:27:06Z</time>
      </trkpt>
      <trkpt lat="43.42643" lon="6.13615">
        <ele>297.93963623047</ele>
        <time>2014-11-19T14:27:09Z</time>
      </trkpt>
      <trkpt lat="43.42643" lon="6.13608">
        <ele>297.86282348633</ele>
        <time>2014-11-19T14:27:10Z</time>
      </trkpt>
      <trkpt lat="43.42642" lon="6.13588">
        <ele>297.68420410156</ele>
        <time>2014-11-19T14:27:13Z</time>
      </trkpt>
      <trkpt lat="43.42643" lon="6.13574">
        <ele>297.06817626953</ele>
        <time>2014-11-19T14:27:15Z</time>
      </trkpt>
      <trkpt lat="43.42646" lon="6.13559">
        <ele>296.20645141602</ele>
        <time>2014-11-19T14:27:17Z</time>
      </trkpt>
      <trkpt lat="43.42649" lon="6.13543">
        <ele>295.40881347656</ele>
        <time>2014-11-19T14:27:19Z</time>
      </trkpt>
      <trkpt lat="43.42651" lon="6.13535">
        <ele>295.03228759766</ele>
        <time>2014-11-19T14:27:20Z</time>
      </trkpt>
      <trkpt lat="43.42654" lon="6.13528">
        <ele>294.73358154297</ele>
        <time>2014-11-19T14:27:21Z</time>
      </trkpt>
      <trkpt lat="43.42658" lon="6.13517">
        <ele>294.39141845703</ele>
        <time>2014-11-19T14:27:23Z</time>
      </trkpt>
      <trkpt lat="43.42659" lon="6.13513">
        <ele>294.20257568359</ele>
        <time>2014-11-19T14:27:24Z</time>
      </trkpt>
      <trkpt lat="43.4266" lon="6.1351">
        <ele>294.07897949219</ele>
        <time>2014-11-19T14:27:25Z</time>
      </trkpt>
      <trkpt lat="43.42662" lon="6.13508">
        <ele>294.08471679688</ele>
        <time>2014-11-19T14:27:27Z</time>
      </trkpt>
      <trkpt lat="43.42662" lon="6.13507">
        <ele>294.033203125</ele>
        <time>2014-11-19T14:27:29Z</time>
      </trkpt>
      <trkpt lat="43.42662" lon="6.13506">
        <ele>294.02178955078</ele>
        <time>2014-11-19T14:27:31Z</time>
      </trkpt>
      <trkpt lat="43.42662" lon="6.13507">
        <ele>293.98858642578</ele>
        <time>2014-11-19T14:27:33Z</time>
      </trkpt>
      <trkpt lat="43.42662" lon="6.13506">
        <ele>293.98516845703</ele>
        <time>2014-11-19T14:27:34Z</time>
      </trkpt>
      <trkpt lat="43.42662" lon="6.13506">
        <ele>293.97827148438</ele>
        <time>2014-11-19T14:27:35Z</time>
      </trkpt>
      <trkpt lat="43.42661" lon="6.13506">
        <ele>293.90390014648</ele>
        <time>2014-11-19T14:27:39Z</time>
      </trkpt>
      <trkpt lat="43.42661" lon="6.13506">
        <ele>293.89703369141</ele>
        <time>2014-11-19T14:27:41Z</time>
      </trkpt>
      <trkpt lat="43.42661" lon="6.13506">
        <ele>293.89703369141</ele>
        <time>2014-11-19T14:27:43Z</time>
      </trkpt>
      <trkpt lat="43.42661" lon="6.13506">
        <ele>293.89361572266</ele>
        <time>2014-11-19T14:27:45Z</time>
      </trkpt>
      <trkpt lat="43.42661" lon="6.13506">
        <ele>293.88330078125</ele>
        <time>2014-11-19T14:27:47Z</time>
      </trkpt>
      <trkpt lat="43.42661" lon="6.13506">
        <ele>293.88330078125</ele>
        <time>2014-11-19T14:27:49Z</time>
      </trkpt>
      <trkpt lat="43.42661" lon="6.13505">
        <ele>293.81579589844</ele>
        <time>2014-11-19T14:27:53Z</time>
      </trkpt>
      <trkpt lat="43.42661" lon="6.13505">
        <ele>293.81579589844</ele>
        <time>2014-11-19T14:27:55Z</time>
      </trkpt>
      <trkpt lat="43.42661" lon="6.13505">
        <ele>293.82836914062</ele>
        <time>2014-11-19T14:27:57Z</time>
      </trkpt>
      <trkpt lat="43.42664" lon="6.13501">
        <ele>293.79748535156</ele>
        <time>2014-11-19T14:27:59Z</time>
      </trkpt>
      <trkpt lat="43.42666" lon="6.13497">
        <ele>293.71936035156</ele>
        <time>2014-11-19T14:28:01Z</time>
      </trkpt>
      <trkpt lat="43.42669" lon="6.13495">
        <ele>293.06661987305</ele>
        <time>2014-11-19T14:28:03Z</time>
      </trkpt>
      <trkpt lat="43.42669" lon="6.13495">
        <ele>292.82009887695</ele>
        <time>2014-11-19T14:28:04Z</time>
      </trkpt>
      <trkpt lat="43.4267" lon="6.13494">
        <ele>292.51449584961</ele>
        <time>2014-11-19T14:28:05Z</time>
      </trkpt>
      <trkpt lat="43.4267" lon="6.13492">
        <ele>292.32321166992</ele>
        <time>2014-11-19T14:28:09Z</time>
      </trkpt>
      <trkpt lat="43.4267" lon="6.13491">
        <ele>292.26400756836</ele>
        <time>2014-11-19T14:28:11Z</time>
      </trkpt>
      <trkpt lat="43.4267" lon="6.1349">
        <ele>292.1911315918</ele>
        <time>2014-11-19T14:28:13Z</time>
      </trkpt>
      <trkpt lat="43.4267" lon="6.1349">
        <ele>292.14559936523</ele>
        <time>2014-11-19T14:28:15Z</time>
      </trkpt>
      <trkpt lat="43.42669" lon="6.1349">
        <ele>292.30487060547</ele>
        <time>2014-11-19T14:28:21Z</time>
      </trkpt>
      <trkpt lat="43.42669" lon="6.1349">
        <ele>292.30487060547</ele>
        <time>2014-11-19T14:28:25Z</time>
      </trkpt>
      <trkpt lat="43.42669" lon="6.13489">
        <ele>292.29119873047</ele>
        <time>2014-11-19T14:28:27Z</time>
      </trkpt>
      <trkpt lat="43.42669" lon="6.13489">
        <ele>292.29119873047</ele>
        <time>2014-11-19T14:28:29Z</time>
      </trkpt>
      <trkpt lat="43.4267" lon="6.13489">
        <ele>292.17739868164</ele>
        <time>2014-11-19T14:28:31Z</time>
      </trkpt>
      <trkpt lat="43.4267" lon="6.13486">
        <ele>291.68585205078</ele>
        <time>2014-11-19T14:28:33Z</time>
      </trkpt>
      <trkpt lat="43.42673" lon="6.1348">
        <ele>290.28366088867</ele>
        <time>2014-11-19T14:28:35Z</time>
      </trkpt>
      <trkpt lat="43.42675" lon="6.13471">
        <ele>289.05804443359</ele>
        <time>2014-11-19T14:28:37Z</time>
      </trkpt>
      <trkpt lat="43.42675" lon="6.13466">
        <ele>288.48907470703</ele>
        <time>2014-11-19T14:28:38Z</time>
      </trkpt>
      <trkpt lat="43.42676" lon="6.13461">
        <ele>287.80404663086</ele>
        <time>2014-11-19T14:28:39Z</time>
      </trkpt>
      <trkpt lat="43.42678" lon="6.1345">
        <ele>286.33831787109</ele>
        <time>2014-11-19T14:28:41Z</time>
      </trkpt>
      <trkpt lat="43.42678" lon="6.13443">
        <ele>285.60595703125</ele>
        <time>2014-11-19T14:28:43Z</time>
      </trkpt>
      <trkpt lat="43.42679" lon="6.13441">
        <ele>285.19958496094</ele>
        <time>2014-11-19T14:28:44Z</time>
      </trkpt>
      <trkpt lat="43.4268" lon="6.13439">
        <ele>284.84307861328</ele>
        <time>2014-11-19T14:28:45Z</time>
      </trkpt>
      <trkpt lat="43.42682" lon="6.13435">
        <ele>284.02062988281</ele>
        <time>2014-11-19T14:28:47Z</time>
      </trkpt>
      <trkpt lat="43.42683" lon="6.13434">
        <ele>283.57723999023</ele>
        <time>2014-11-19T14:28:49Z</time>
      </trkpt>
      <trkpt lat="43.42684" lon="6.13431">
        <ele>282.93487548828</ele>
        <time>2014-11-19T14:28:51Z</time>
      </trkpt>
      <trkpt lat="43.42686" lon="6.13429">
        <ele>282.2502746582</ele>
        <time>2014-11-19T14:28:53Z</time>
      </trkpt>
      <trkpt lat="43.42687" lon="6.13428">
        <ele>281.84451293945</ele>
        <time>2014-11-19T14:28:55Z</time>
      </trkpt>
      <trkpt lat="43.42689" lon="6.13427">
        <ele>281.33871459961</ele>
        <time>2014-11-19T14:28:57Z</time>
      </trkpt>
      <trkpt lat="43.42692" lon="6.13429">
        <ele>280.83786010742</ele>
        <time>2014-11-19T14:28:59Z</time>
      </trkpt>
      <trkpt lat="43.42693" lon="6.13432">
        <ele>280.69665527344</ele>
        <time>2014-11-19T14:29:01Z</time>
      </trkpt>
      <trkpt lat="43.42694" lon="6.13434">
        <ele>280.58996582031</ele>
        <time>2014-11-19T14:29:02Z</time>
      </trkpt>
      <trkpt lat="43.42698" lon="6.13437">
        <ele>280.11889648438</ele>
        <time>2014-11-19T14:29:04Z</time>
      </trkpt>
      <trkpt lat="43.42699" lon="6.13438">
        <ele>279.90118408203</ele>
        <time>2014-11-19T14:29:05Z</time>
      </trkpt>
      <trkpt lat="43.42701" lon="6.1344">
        <ele>279.60144042969</ele>
        <time>2014-11-19T14:29:07Z</time>
      </trkpt>
      <trkpt lat="43.42701" lon="6.13441">
        <ele>279.50640869141</ele>
        <time>2014-11-19T14:29:09Z</time>
      </trkpt>
      <trkpt lat="43.42701" lon="6.13441">
        <ele>279.60388183594</ele>
        <time>2014-11-19T14:29:11Z</time>
      </trkpt>
      <trkpt lat="43.42701" lon="6.13442">
        <ele>279.63427734375</ele>
        <time>2014-11-19T14:29:15Z</time>
      </trkpt>
      <trkpt lat="43.42701" lon="6.13442">
        <ele>279.63427734375</ele>
        <time>2014-11-19T14:29:19Z</time>
      </trkpt>
      <trkpt lat="43.42701" lon="6.13441">
        <ele>279.60388183594</ele>
        <time>2014-11-19T14:29:35Z</time>
      </trkpt>
      <trkpt lat="43.42701" lon="6.13441">
        <ele>279.60821533203</ele>
        <time>2014-11-19T14:29:39Z</time>
      </trkpt>
      <trkpt lat="43.42702" lon="6.13441">
        <ele>279.40023803711</ele>
        <time>2014-11-19T14:29:47Z</time>
      </trkpt>
      <trkpt lat="43.42702" lon="6.13441">
        <ele>279.39590454102</ele>
        <time>2014-11-19T14:29:49Z</time>
      </trkpt>
      <trkpt lat="43.42702" lon="6.13441">
        <ele>279.40023803711</ele>
        <time>2014-11-19T14:29:51Z</time>
      </trkpt>
      <trkpt lat="43.42702" lon="6.13441">
        <ele>279.4045715332</ele>
        <time>2014-11-19T14:29:53Z</time>
      </trkpt>
      <trkpt lat="43.42702" lon="6.13441">
        <ele>279.40023803711</ele>
        <time>2014-11-19T14:29:57Z</time>
      </trkpt>
      <trkpt lat="43.42702" lon="6.13441">
        <ele>279.40023803711</ele>
        <time>2014-11-19T14:29:59Z</time>
      </trkpt>
      <trkpt lat="43.42702" lon="6.13441">
        <ele>279.36987304688</ele>
        <time>2014-11-19T14:30:01Z</time>
      </trkpt>
      <trkpt lat="43.42702" lon="6.1344">
        <ele>279.32650756836</ele>
        <time>2014-11-19T14:30:03Z</time>
      </trkpt>
      <trkpt lat="43.42702" lon="6.1344">
        <ele>279.28747558594</ele>
        <time>2014-11-19T14:30:07Z</time>
      </trkpt>
      <trkpt lat="43.42702" lon="6.1344">
        <ele>279.26580810547</ele>
        <time>2014-11-19T14:30:09Z</time>
      </trkpt>
      <trkpt lat="43.42701" lon="6.13439">
        <ele>279.31979370117</ele>
        <time>2014-11-19T14:30:11Z</time>
      </trkpt>
      <trkpt lat="43.42701" lon="6.13439">
        <ele>279.2633972168</ele>
        <time>2014-11-19T14:30:13Z</time>
      </trkpt>
      <trkpt lat="43.42701" lon="6.13439">
        <ele>279.2590637207</ele>
        <time>2014-11-19T14:30:16Z</time>
      </trkpt>
      <trkpt lat="43.42701" lon="6.13439">
        <ele>279.2590637207</ele>
        <time>2014-11-19T14:30:19Z</time>
      </trkpt>
      <trkpt lat="43.42701" lon="6.13439">
        <ele>279.25469970703</ele>
        <time>2014-11-19T14:30:21Z</time>
      </trkpt>
      <trkpt lat="43.42701" lon="6.13438">
        <ele>279.24169921875</ele>
        <time>2014-11-19T14:30:23Z</time>
      </trkpt>
      <trkpt lat="43.427" lon="6.13437">
        <ele>279.37716674805</ele>
        <time>2014-11-19T14:30:25Z</time>
      </trkpt>
      <trkpt lat="43.42698" lon="6.13434">
        <ele>279.84384155273</ele>
        <time>2014-11-19T14:30:27Z</time>
      </trkpt>
      <trkpt lat="43.42696" lon="6.13433">
        <ele>280.09658813477</ele>
        <time>2014-11-19T14:30:28Z</time>
      </trkpt>
      <trkpt lat="43.42694" lon="6.13431">
        <ele>280.43685913086</ele>
        <time>2014-11-19T14:30:29Z</time>
      </trkpt>
      <trkpt lat="43.4269" lon="6.13429">
        <ele>281.18984985352</ele>
        <time>2014-11-19T14:30:31Z</time>
      </trkpt>
      <trkpt lat="43.42688" lon="6.13428">
        <ele>281.541015625</ele>
        <time>2014-11-19T14:30:32Z</time>
      </trkpt>
      <trkpt lat="43.42685" lon="6.13428">
        <ele>282.55285644531</ele>
        <time>2014-11-19T14:30:34Z</time>
      </trkpt>
      <trkpt lat="43.42683" lon="6.13429">
        <ele>283.15725708008</ele>
        <time>2014-11-19T14:30:35Z</time>
      </trkpt>
      <trkpt lat="43.42681" lon="6.13431">
        <ele>283.7102355957</ele>
        <time>2014-11-19T14:30:36Z</time>
      </trkpt>
      <trkpt lat="43.42679" lon="6.1344">
        <ele>285.09173583984</ele>
        <time>2014-11-19T14:30:39Z</time>
      </trkpt>
      <trkpt lat="43.42678" lon="6.13443">
        <ele>285.47241210938</ele>
        <time>2014-11-19T14:30:40Z</time>
      </trkpt>
      <trkpt lat="43.42678" lon="6.13446">
        <ele>285.87591552734</ele>
        <time>2014-11-19T14:30:41Z</time>
      </trkpt>
      <trkpt lat="43.42677" lon="6.13457">
        <ele>287.3356628418</ele>
        <time>2014-11-19T14:30:45Z</time>
      </trkpt>
      <trkpt lat="43.42676" lon="6.13463">
        <ele>288.11480712891</ele>
        <time>2014-11-19T14:30:47Z</time>
      </trkpt>
      <trkpt lat="43.42674" lon="6.1347">
        <ele>289.10693359375</ele>
        <time>2014-11-19T14:30:49Z</time>
      </trkpt>
      <trkpt lat="43.42671" lon="6.13479">
        <ele>290.8762512207</ele>
        <time>2014-11-19T14:30:53Z</time>
      </trkpt>
      <trkpt lat="43.42669" lon="6.13484">
        <ele>291.76226806641</ele>
        <time>2014-11-19T14:30:55Z</time>
      </trkpt>
      <trkpt lat="43.42669" lon="6.13486">
        <ele>292.19927978516</ele>
        <time>2014-11-19T14:30:56Z</time>
      </trkpt>
      <trkpt lat="43.42667" lon="6.13489">
        <ele>292.88278198242</ele>
        <time>2014-11-19T14:30:57Z</time>
      </trkpt>
      <trkpt lat="43.42664" lon="6.13494">
        <ele>293.17437744141</ele>
        <time>2014-11-19T14:30:59Z</time>
      </trkpt>
      <trkpt lat="43.42661" lon="6.13501">
        <ele>293.47015380859</ele>
        <time>2014-11-19T14:31:02Z</time>
      </trkpt>
      <trkpt lat="43.42659" lon="6.13503">
        <ele>293.51135253906</ele>
        <time>2014-11-19T14:31:03Z</time>
      </trkpt>
      <trkpt lat="43.42657" lon="6.13507">
        <ele>293.58346557617</ele>
        <time>2014-11-19T14:31:05Z</time>
      </trkpt>
      <trkpt lat="43.42654" lon="6.1351">
        <ele>293.57086181641</ele>
        <time>2014-11-19T14:31:07Z</time>
      </trkpt>
      <trkpt lat="43.42653" lon="6.13512">
        <ele>293.51824951172</ele>
        <time>2014-11-19T14:31:09Z</time>
      </trkpt>
      <trkpt lat="43.42651" lon="6.13515">
        <ele>293.59149169922</ele>
        <time>2014-11-19T14:31:11Z</time>
      </trkpt>
      <trkpt lat="43.42648" lon="6.13526">
        <ele>294.06524658203</ele>
        <time>2014-11-19T14:31:17Z</time>
      </trkpt>
      <trkpt lat="43.42646" lon="6.13531">
        <ele>294.26782226562</ele>
        <time>2014-11-19T14:31:19Z</time>
      </trkpt>
      <trkpt lat="43.42645" lon="6.13536">
        <ele>294.55963134766</ele>
        <time>2014-11-19T14:31:21Z</time>
      </trkpt>
      <trkpt lat="43.42645" lon="6.1354">
        <ele>294.77822875977</ele>
        <time>2014-11-19T14:31:23Z</time>
      </trkpt>
      <trkpt lat="43.42643" lon="6.13546">
        <ele>295.06661987305</ele>
        <time>2014-11-19T14:31:25Z</time>
      </trkpt>
      <trkpt lat="43.42642" lon="6.1355">
        <ele>295.23944091797</ele>
        <time>2014-11-19T14:31:27Z</time>
      </trkpt>
      <trkpt lat="43.42641" lon="6.13555">
        <ele>295.46258544922</ele>
        <time>2014-11-19T14:31:29Z</time>
      </trkpt>
      <trkpt lat="43.42641" lon="6.13559">
        <ele>295.82537841797</ele>
        <time>2014-11-19T14:31:31Z</time>
      </trkpt>
      <trkpt lat="43.42641" lon="6.13561">
        <ele>295.99243164062</ele>
        <time>2014-11-19T14:31:32Z</time>
      </trkpt>
      <trkpt lat="43.42641" lon="6.13564">
        <ele>296.13433837891</ele>
        <time>2014-11-19T14:31:33Z</time>
      </trkpt>
      <trkpt lat="43.4264" lon="6.13569">
        <ele>296.41815185547</ele>
        <time>2014-11-19T14:31:35Z</time>
      </trkpt>
      <trkpt lat="43.4264" lon="6.13575">
        <ele>296.81069946289</ele>
        <time>2014-11-19T14:31:37Z</time>
      </trkpt>
      <trkpt lat="43.4264" lon="6.13586">
        <ele>297.45349121094</ele>
        <time>2014-11-19T14:31:41Z</time>
      </trkpt>
      <trkpt lat="43.4264" lon="6.13593">
        <ele>297.5041809082</ele>
        <time>2014-11-19T14:31:43Z</time>
      </trkpt>
      <trkpt lat="43.42641" lon="6.13598">
        <ele>297.61749267578</ele>
        <time>2014-11-19T14:31:45Z</time>
      </trkpt>
      <trkpt lat="43.42641" lon="6.13604">
        <ele>297.72900390625</ele>
        <time>2014-11-19T14:31:47Z</time>
      </trkpt>
      <trkpt lat="43.42642" lon="6.1361">
        <ele>297.80770874023</ele>
        <time>2014-11-19T14:31:49Z</time>
      </trkpt>
      <trkpt lat="43.42642" lon="6.13617">
        <ele>297.88705444336</ele>
        <time>2014-11-19T14:31:51Z</time>
      </trkpt>
      <trkpt lat="43.42643" lon="6.13635">
        <ele>298.07659912109</ele>
        <time>2014-11-19T14:31:57Z</time>
      </trkpt>
      <trkpt lat="43.42643" lon="6.13641">
        <ele>298.11727905273</ele>
        <time>2014-11-19T14:31:59Z</time>
      </trkpt>
      <trkpt lat="43.42643" lon="6.13647">
        <ele>298.1569519043</ele>
        <time>2014-11-19T14:32:01Z</time>
      </trkpt>
      <trkpt lat="43.42643" lon="6.13663">
        <ele>298.27212524414</ele>
        <time>2014-11-19T14:32:07Z</time>
      </trkpt>
      <trkpt lat="43.42643" lon="6.13669">
        <ele>298.27352905273</ele>
        <time>2014-11-19T14:32:09Z</time>
      </trkpt>
      <trkpt lat="43.42643" lon="6.13674">
        <ele>298.29220581055</ele>
        <time>2014-11-19T14:32:11Z</time>
      </trkpt>
      <trkpt lat="43.42643" lon="6.13679">
        <ele>298.30889892578</ele>
        <time>2014-11-19T14:32:13Z</time>
      </trkpt>
      <trkpt lat="43.42642" lon="6.13683">
        <ele>298.29638671875</ele>
        <time>2014-11-19T14:32:15Z</time>
      </trkpt>
      <trkpt lat="43.42643" lon="6.13686">
        <ele>298.33502197266</ele>
        <time>2014-11-19T14:32:17Z</time>
      </trkpt>
      <trkpt lat="43.42642" lon="6.13688">
        <ele>298.31335449219</ele>
        <time>2014-11-19T14:32:18Z</time>
      </trkpt>
      <trkpt lat="43.42642" lon="6.13688">
        <ele>298.3141784668</ele>
        <time>2014-11-19T14:32:19Z</time>
      </trkpt>
      <trkpt lat="43.42643" lon="6.13689">
        <ele>298.34280395508</ele>
        <time>2014-11-19T14:32:21Z</time>
      </trkpt>
      <trkpt lat="43.42642" lon="6.13689">
        <ele>298.31954956055</ele>
        <time>2014-11-19T14:32:24Z</time>
      </trkpt>
      <trkpt lat="43.42642" lon="6.1369">
        <ele>298.31988525391</ele>
        <time>2014-11-19T14:32:25Z</time>
      </trkpt>
      <trkpt lat="43.42642" lon="6.1369">
        <ele>298.31988525391</ele>
        <time>2014-11-19T14:32:27Z</time>
      </trkpt>
      <trkpt lat="43.42642" lon="6.1369">
        <ele>298.32006835938</ele>
        <time>2014-11-19T14:32:29Z</time>
      </trkpt>
      <trkpt lat="43.42642" lon="6.1369">
        <ele>298.31988525391</ele>
        <time>2014-11-19T14:32:35Z</time>
      </trkpt>
      <trkpt lat="43.42642" lon="6.1369">
        <ele>298.32055664062</ele>
        <time>2014-11-19T14:32:59Z</time>
      </trkpt>
      <trkpt lat="43.42642" lon="6.1369">
        <ele>298.32055664062</ele>
        <time>2014-11-19T14:33:05Z</time>
      </trkpt>
      <trkpt lat="43.42642" lon="6.1369">
        <ele>298.32174682617</ele>
        <time>2014-11-19T14:33:09Z</time>
      </trkpt>
      <trkpt lat="43.42642" lon="6.1369">
        <ele>298.32241821289</ele>
        <time>2014-11-19T14:33:13Z</time>
      </trkpt>
      <trkpt lat="43.42642" lon="6.1369">
        <ele>298.32275390625</ele>
        <time>2014-11-19T14:33:25Z</time>
      </trkpt>
      <trkpt lat="43.42642" lon="6.13691">
        <ele>298.32424926758</ele>
        <time>2014-11-19T14:35:19Z</time>
      </trkpt>
      <trkpt lat="43.42642" lon="6.13691">
        <ele>298.32443237305</ele>
        <time>2014-11-19T14:35:21Z</time>
      </trkpt>
      <trkpt lat="43.42642" lon="6.13691">
        <ele>298.32443237305</ele>
        <time>2014-11-19T14:35:27Z</time>
      </trkpt>
      <trkpt lat="43.42642" lon="6.13691">
        <ele>298.32443237305</ele>
        <time>2014-11-19T14:35:37Z</time>
      </trkpt>
      <trkpt lat="43.42642" lon="6.13691">
        <ele>298.32476806641</ele>
        <time>2014-11-19T14:35:39Z</time>
      </trkpt>
      <trkpt lat="43.42642" lon="6.13691">
        <ele>298.32559204102</ele>
        <time>2014-11-19T14:35:41Z</time>
      </trkpt>
      <trkpt lat="43.42642" lon="6.13691">
        <ele>298.29949951172</ele>
        <time>2014-11-19T14:35:43Z</time>
      </trkpt>
      <trkpt lat="43.42642" lon="6.13691">
        <ele>298.29949951172</ele>
        <time>2014-11-19T14:35:45Z</time>
      </trkpt>
      <trkpt lat="43.42642" lon="6.13691">
        <ele>298.32559204102</ele>
        <time>2014-11-19T14:35:47Z</time>
      </trkpt>
      <trkpt lat="43.42642" lon="6.13691">
        <ele>298.32577514648</ele>
        <time>2014-11-19T14:35:49Z</time>
      </trkpt>
      <trkpt lat="43.42642" lon="6.13691">
        <ele>298.32577514648</ele>
        <time>2014-11-19T14:35:51Z</time>
      </trkpt>
      <trkpt lat="43.42642" lon="6.13691">
        <ele>298.32592773438</ele>
        <time>2014-11-19T14:35:53Z</time>
      </trkpt>
      <trkpt lat="43.42642" lon="6.13691">
        <ele>298.32592773438</ele>
        <time>2014-11-19T14:35:57Z</time>
      </trkpt>
      <trkpt lat="43.42642" lon="6.13693">
        <ele>298.33099365234</ele>
        <time>2014-11-19T14:35:59Z</time>
      </trkpt>
      <trkpt lat="43.42642" lon="6.13695">
        <ele>298.33972167969</ele>
        <time>2014-11-19T14:36:01Z</time>
      </trkpt>
      <trkpt lat="43.42642" lon="6.13698">
        <ele>298.35046386719</ele>
        <time>2014-11-19T14:36:03Z</time>
      </trkpt>
      <trkpt lat="43.42641" lon="6.13706">
        <ele>298.32772827148</ele>
        <time>2014-11-19T14:36:07Z</time>
      </trkpt>
      <trkpt lat="43.42641" lon="6.13711">
        <ele>298.31985473633</ele>
        <time>2014-11-19T14:36:09Z</time>
      </trkpt>
      <trkpt lat="43.42641" lon="6.13717">
        <ele>298.31604003906</ele>
        <time>2014-11-19T14:36:11Z</time>
      </trkpt>
      <trkpt lat="43.42641" lon="6.13723">
        <ele>298.33850097656</ele>
        <time>2014-11-19T14:36:13Z</time>
      </trkpt>
      <trkpt lat="43.42641" lon="6.13729">
        <ele>298.36260986328</ele>
        <time>2014-11-19T14:36:15Z</time>
      </trkpt>
      <trkpt lat="43.42641" lon="6.13735">
        <ele>298.38650512695</ele>
        <time>2014-11-19T14:36:17Z</time>
      </trkpt>
      <trkpt lat="43.42641" lon="6.13741">
        <ele>298.40737915039</ele>
        <time>2014-11-19T14:36:19Z</time>
      </trkpt>
      <trkpt lat="43.42641" lon="6.13744">
        <ele>298.41754150391</ele>
        <time>2014-11-19T14:36:20Z</time>
      </trkpt>
      <trkpt lat="43.42641" lon="6.13746">
        <ele>298.45062255859</ele>
        <time>2014-11-19T14:36:21Z</time>
      </trkpt>
      <trkpt lat="43.42641" lon="6.13752">
        <ele>298.44519042969</ele>
        <time>2014-11-19T14:36:23Z</time>
      </trkpt>
      <trkpt lat="43.42641" lon="6.13759">
        <ele>298.39086914062</ele>
        <time>2014-11-19T14:36:25Z</time>
      </trkpt>
      <trkpt lat="43.42641" lon="6.13765">
        <ele>298.33535766602</ele>
        <time>2014-11-19T14:36:27Z</time>
      </trkpt>
      <trkpt lat="43.42641" lon="6.13773">
        <ele>298.29635620117</ele>
        <time>2014-11-19T14:36:29Z</time>
      </trkpt>
      <trkpt lat="43.42644" lon="6.1379">
        <ele>298.27352905273</ele>
        <time>2014-11-19T14:36:33Z</time>
      </trkpt>
      <trkpt lat="43.42645" lon="6.13801">
        <ele>298.26522827148</ele>
        <time>2014-11-19T14:36:35Z</time>
      </trkpt>
      <trkpt lat="43.42646" lon="6.13806">
        <ele>298.25939941406</ele>
        <time>2014-11-19T14:36:36Z</time>
      </trkpt>
      <trkpt lat="43.42647" lon="6.13811">
        <ele>298.24633789062</ele>
        <time>2014-11-19T14:36:37Z</time>
      </trkpt>
      <trkpt lat="43.42648" lon="6.13823">
        <ele>298.1826171875</ele>
        <time>2014-11-19T14:36:39Z</time>
      </trkpt>
      <trkpt lat="43.42648" lon="6.13833">
        <ele>298.0891418457</ele>
        <time>2014-11-19T14:36:41Z</time>
      </trkpt>
      <trkpt lat="43.42647" lon="6.13843">
        <ele>297.58987426758</ele>
        <time>2014-11-19T14:36:43Z</time>
      </trkpt>
      <trkpt lat="43.42646" lon="6.13849">
        <ele>297.26254272461</ele>
        <time>2014-11-19T14:36:44Z</time>
      </trkpt>
      <trkpt lat="43.42645" lon="6.13854">
        <ele>296.95202636719</ele>
        <time>2014-11-19T14:36:45Z</time>
      </trkpt>
      <trkpt lat="43.42643" lon="6.1386">
        <ele>296.6330871582</ele>
        <time>2014-11-19T14:36:46Z</time>
      </trkpt>
      <trkpt lat="43.42641" lon="6.13867">
        <ele>296.25643920898</ele>
        <time>2014-11-19T14:36:47Z</time>
      </trkpt>
      <trkpt lat="43.42636" lon="6.13878">
        <ele>295.62036132812</ele>
        <time>2014-11-19T14:36:49Z</time>
      </trkpt>
      <trkpt lat="43.42633" lon="6.13883">
        <ele>295.36553955078</ele>
        <time>2014-11-19T14:36:50Z</time>
      </trkpt>
      <trkpt lat="43.42631" lon="6.13888">
        <ele>295.14688110352</ele>
        <time>2014-11-19T14:36:51Z</time>
      </trkpt>
      <trkpt lat="43.4263" lon="6.1389">
        <ele>295.02072143555</ele>
        <time>2014-11-19T14:36:52Z</time>
      </trkpt>
      <trkpt lat="43.42628" lon="6.13893">
        <ele>294.90545654297</ele>
        <time>2014-11-19T14:36:53Z</time>
      </trkpt>
      <trkpt lat="43.42628" lon="6.13895">
        <ele>294.79824829102</ele>
        <time>2014-11-19T14:36:55Z</time>
      </trkpt>
      <trkpt lat="43.42627" lon="6.13897">
        <ele>294.72341918945</ele>
        <time>2014-11-19T14:36:56Z</time>
      </trkpt>
      <trkpt lat="43.42626" lon="6.13899">
        <ele>294.65014648438</ele>
        <time>2014-11-19T14:36:57Z</time>
      </trkpt>
      <trkpt lat="43.42624" lon="6.13904">
        <ele>294.46606445312</ele>
        <time>2014-11-19T14:36:59Z</time>
      </trkpt>
      <trkpt lat="43.42622" lon="6.13909">
        <ele>294.27734375</ele>
        <time>2014-11-19T14:37:01Z</time>
      </trkpt>
      <trkpt lat="43.42621" lon="6.13912">
        <ele>294.14367675781</ele>
        <time>2014-11-19T14:37:03Z</time>
      </trkpt>
      <trkpt lat="43.4262" lon="6.13917">
        <ele>293.98001098633</ele>
        <time>2014-11-19T14:37:05Z</time>
      </trkpt>
      <trkpt lat="43.42618" lon="6.13926">
        <ele>293.53103637695</ele>
        <time>2014-11-19T14:37:08Z</time>
      </trkpt>
      <trkpt lat="43.42617" lon="6.1393">
        <ele>293.33639526367</ele>
        <time>2014-11-19T14:37:09Z</time>
      </trkpt>
      <trkpt lat="43.42616" lon="6.13939">
        <ele>292.92642211914</ele>
        <time>2014-11-19T14:37:11Z</time>
      </trkpt>
      <trkpt lat="43.42615" lon="6.13944">
        <ele>292.70327758789</ele>
        <time>2014-11-19T14:37:12Z</time>
      </trkpt>
      <trkpt lat="43.42614" lon="6.1395">
        <ele>292.45901489258</ele>
        <time>2014-11-19T14:37:13Z</time>
      </trkpt>
      <trkpt lat="43.42612" lon="6.13961">
        <ele>292.01150512695</ele>
        <time>2014-11-19T14:37:15Z</time>
      </trkpt>
      <trkpt lat="43.42609" lon="6.13972">
        <ele>291.65179443359</ele>
        <time>2014-11-19T14:37:17Z</time>
      </trkpt>
      <trkpt lat="43.42605" lon="6.13981">
        <ele>291.46380615234</ele>
        <time>2014-11-19T14:37:19Z</time>
      </trkpt>
      <trkpt lat="43.42599" lon="6.13992">
        <ele>291.32006835938</ele>
        <time>2014-11-19T14:37:21Z</time>
      </trkpt>
      <trkpt lat="43.42597" lon="6.13998">
        <ele>291.25280761719</ele>
        <time>2014-11-19T14:37:22Z</time>
      </trkpt>
      <trkpt lat="43.42595" lon="6.14005">
        <ele>291.2126159668</ele>
        <time>2014-11-19T14:37:23Z</time>
      </trkpt>
      <trkpt lat="43.42595" lon="6.14011">
        <ele>291.11239624023</ele>
        <time>2014-11-19T14:37:24Z</time>
      </trkpt>
      <trkpt lat="43.42595" lon="6.14018">
        <ele>290.94400024414</ele>
        <time>2014-11-19T14:37:25Z</time>
      </trkpt>
      <trkpt lat="43.42596" lon="6.14031">
        <ele>290.61959838867</ele>
        <time>2014-11-19T14:37:27Z</time>
      </trkpt>
      <trkpt lat="43.42595" lon="6.14037">
        <ele>290.5280456543</ele>
        <time>2014-11-19T14:37:28Z</time>
      </trkpt>
      <trkpt lat="43.42594" lon="6.14043">
        <ele>290.53887939453</ele>
        <time>2014-11-19T14:37:29Z</time>
      </trkpt>
      <trkpt lat="43.42585" lon="6.14059">
        <ele>291.16708374023</ele>
        <time>2014-11-19T14:37:32Z</time>
      </trkpt>
      <trkpt lat="43.42582" lon="6.14064">
        <ele>290.93835449219</ele>
        <time>2014-11-19T14:37:33Z</time>
      </trkpt>
      <trkpt lat="43.42577" lon="6.14077">
        <ele>290.13265991211</ele>
        <time>2014-11-19T14:37:35Z</time>
      </trkpt>
      <trkpt lat="43.42576" lon="6.14082">
        <ele>289.83834838867</ele>
        <time>2014-11-19T14:37:36Z</time>
      </trkpt>
      <trkpt lat="43.42574" lon="6.1409">
        <ele>289.42407226562</ele>
        <time>2014-11-19T14:37:37Z</time>
      </trkpt>
      <trkpt lat="43.42571" lon="6.14096">
        <ele>288.97219848633</ele>
        <time>2014-11-19T14:37:38Z</time>
      </trkpt>
      <trkpt lat="43.4257" lon="6.14102">
        <ele>288.76174926758</ele>
        <time>2014-11-19T14:37:39Z</time>
      </trkpt>
      <trkpt lat="43.42566" lon="6.14116">
        <ele>288.1930847168</ele>
        <time>2014-11-19T14:37:41Z</time>
      </trkpt>
      <trkpt lat="43.42564" lon="6.14129">
        <ele>287.86950683594</ele>
        <time>2014-11-19T14:37:43Z</time>
      </trkpt>
      <trkpt lat="43.42564" lon="6.14145">
        <ele>287.81106567383</ele>
        <time>2014-11-19T14:37:45Z</time>
      </trkpt>
      <trkpt lat="43.42565" lon="6.14152">
        <ele>287.83026123047</ele>
        <time>2014-11-19T14:37:46Z</time>
      </trkpt>
      <trkpt lat="43.42565" lon="6.14162">
        <ele>287.83908081055</ele>
        <time>2014-11-19T14:37:47Z</time>
      </trkpt>
      <trkpt lat="43.42568" lon="6.14178">
        <ele>287.99371337891</ele>
        <time>2014-11-19T14:37:49Z</time>
      </trkpt>
      <trkpt lat="43.42569" lon="6.14186">
        <ele>288.01815795898</ele>
        <time>2014-11-19T14:37:50Z</time>
      </trkpt>
      <trkpt lat="43.4257" lon="6.14194">
        <ele>288.01837158203</ele>
        <time>2014-11-19T14:37:51Z</time>
      </trkpt>
      <trkpt lat="43.42571" lon="6.14202">
        <ele>287.97521972656</ele>
        <time>2014-11-19T14:37:52Z</time>
      </trkpt>
      <trkpt lat="43.42572" lon="6.1421">
        <ele>287.92260742188</ele>
        <time>2014-11-19T14:37:53Z</time>
      </trkpt>
      <trkpt lat="43.42571" lon="6.14216">
        <ele>287.79309082031</ele>
        <time>2014-11-19T14:37:54Z</time>
      </trkpt>
      <trkpt lat="43.4257" lon="6.14222">
        <ele>287.64361572266</ele>
        <time>2014-11-19T14:37:55Z</time>
      </trkpt>
      <trkpt lat="43.42567" lon="6.14234">
        <ele>287.25033569336</ele>
        <time>2014-11-19T14:37:57Z</time>
      </trkpt>
      <trkpt lat="43.42567" lon="6.14239">
        <ele>287.13610839844</ele>
        <time>2014-11-19T14:37:58Z</time>
      </trkpt>
      <trkpt lat="43.42566" lon="6.14245">
        <ele>287.0119934082</ele>
        <time>2014-11-19T14:37:59Z</time>
      </trkpt>
      <trkpt lat="43.42566" lon="6.14252">
        <ele>286.98092651367</ele>
        <time>2014-11-19T14:38:00Z</time>
      </trkpt>
      <trkpt lat="43.42567" lon="6.14258">
        <ele>287.14248657227</ele>
        <time>2014-11-19T14:38:01Z</time>
      </trkpt>
      <trkpt lat="43.42569" lon="6.14273">
        <ele>287.50354003906</ele>
        <time>2014-11-19T14:38:03Z</time>
      </trkpt>
      <trkpt lat="43.42569" lon="6.1428">
        <ele>287.63858032227</ele>
        <time>2014-11-19T14:38:04Z</time>
      </trkpt>
      <trkpt lat="43.42569" lon="6.14286">
        <ele>287.72283935547</ele>
        <time>2014-11-19T14:38:05Z</time>
      </trkpt>
      <trkpt lat="43.42566" lon="6.14293">
        <ele>287.67434692383</ele>
        <time>2014-11-19T14:38:07Z</time>
      </trkpt>
      <trkpt lat="43.42564" lon="6.14295">
        <ele>287.61743164062</ele>
        <time>2014-11-19T14:38:08Z</time>
      </trkpt>
      <trkpt lat="43.42562" lon="6.14299">
        <ele>287.60534667969</ele>
        <time>2014-11-19T14:38:09Z</time>
      </trkpt>
      <trkpt lat="43.42561" lon="6.14301">
        <ele>287.58645629883</ele>
        <time>2014-11-19T14:38:10Z</time>
      </trkpt>
      <trkpt lat="43.42558" lon="6.14304">
        <ele>287.51361083984</ele>
        <time>2014-11-19T14:38:11Z</time>
      </trkpt>
      <trkpt lat="43.42552" lon="6.14309">
        <ele>287.37390136719</ele>
        <time>2014-11-19T14:38:13Z</time>
      </trkpt>
      <trkpt lat="43.42546" lon="6.14315">
        <ele>287.21853637695</ele>
        <time>2014-11-19T14:38:15Z</time>
      </trkpt>
      <trkpt lat="43.42538" lon="6.14317">
        <ele>286.93380737305</ele>
        <time>2014-11-19T14:38:17Z</time>
      </trkpt>
      <trkpt lat="43.4253" lon="6.14313">
        <ele>286.5299987793</ele>
        <time>2014-11-19T14:38:19Z</time>
      </trkpt>
      <trkpt lat="43.42525" lon="6.14306">
        <ele>286.11645507812</ele>
        <time>2014-11-19T14:38:21Z</time>
      </trkpt>
      <trkpt lat="43.42522" lon="6.14303">
        <ele>285.88781738281</ele>
        <time>2014-11-19T14:38:22Z</time>
      </trkpt>
      <trkpt lat="43.42518" lon="6.14301">
        <ele>285.64947509766</ele>
        <time>2014-11-19T14:38:23Z</time>
      </trkpt>
      <trkpt lat="43.4251" lon="6.14299">
        <ele>285.21774291992</ele>
        <time>2014-11-19T14:38:25Z</time>
      </trkpt>
      <trkpt lat="43.42506" lon="6.14298">
        <ele>284.98248291016</ele>
        <time>2014-11-19T14:38:26Z</time>
      </trkpt>
      <trkpt lat="43.42501" lon="6.14296">
        <ele>284.69088745117</ele>
        <time>2014-11-19T14:38:27Z</time>
      </trkpt>
      <trkpt lat="43.42492" lon="6.14289">
        <ele>284.11279296875</ele>
        <time>2014-11-19T14:38:29Z</time>
      </trkpt>
      <trkpt lat="43.42487" lon="6.14288">
        <ele>283.92224121094</ele>
        <time>2014-11-19T14:38:30Z</time>
      </trkpt>
      <trkpt lat="43.42482" lon="6.14289">
        <ele>283.75399780273</ele>
        <time>2014-11-19T14:38:31Z</time>
      </trkpt>
      <trkpt lat="43.42476" lon="6.14297">
        <ele>283.81924438477</ele>
        <time>2014-11-19T14:38:33Z</time>
      </trkpt>
      <trkpt lat="43.42473" lon="6.14302">
        <ele>283.88616943359</ele>
        <time>2014-11-19T14:38:34Z</time>
      </trkpt>
      <trkpt lat="43.4247" lon="6.14306">
        <ele>283.95141601562</ele>
        <time>2014-11-19T14:38:35Z</time>
      </trkpt>
      <trkpt lat="43.42464" lon="6.14315">
        <ele>284.07501220703</ele>
        <time>2014-11-19T14:38:37Z</time>
      </trkpt>
      <trkpt lat="43.42462" lon="6.1432">
        <ele>284.17114257812</ele>
        <time>2014-11-19T14:38:38Z</time>
      </trkpt>
      <trkpt lat="43.42461" lon="6.14326">
        <ele>284.30676269531</ele>
        <time>2014-11-19T14:38:39Z</time>
      </trkpt>
      <trkpt lat="43.42461" lon="6.14336">
        <ele>284.72830200195</ele>
        <time>2014-11-19T14:38:41Z</time>
      </trkpt>
      <trkpt lat="43.42464" lon="6.1436">
        <ele>285.83810424805</ele>
        <time>2014-11-19T14:38:45Z</time>
      </trkpt>
      <trkpt lat="43.42465" lon="6.14371">
        <ele>286.34957885742</ele>
        <time>2014-11-19T14:38:47Z</time>
      </trkpt>
      <trkpt lat="43.42466" lon="6.14382">
        <ele>286.87786865234</ele>
        <time>2014-11-19T14:38:49Z</time>
      </trkpt>
      <trkpt lat="43.42466" lon="6.14403">
        <ele>287.75024414062</ele>
        <time>2014-11-19T14:38:53Z</time>
      </trkpt>
      <trkpt lat="43.42466" lon="6.14417">
        <ele>288.40368652344</ele>
        <time>2014-11-19T14:38:56Z</time>
      </trkpt>
      <trkpt lat="43.42467" lon="6.14421">
        <ele>288.61953735352</ele>
        <time>2014-11-19T14:38:57Z</time>
      </trkpt>
      <trkpt lat="43.42469" lon="6.14429">
        <ele>289.01235961914</ele>
        <time>2014-11-19T14:38:59Z</time>
      </trkpt>
      <trkpt lat="43.42471" lon="6.14432">
        <ele>289.19390869141</ele>
        <time>2014-11-19T14:39:00Z</time>
      </trkpt>
      <trkpt lat="43.42472" lon="6.14442">
        <ele>289.69320678711</ele>
        <time>2014-11-19T14:39:03Z</time>
      </trkpt>
      <trkpt lat="43.42471" lon="6.14449">
        <ele>289.87124633789</ele>
        <time>2014-11-19T14:39:05Z</time>
      </trkpt>
      <trkpt lat="43.42466" lon="6.14453">
        <ele>289.85198974609</ele>
        <time>2014-11-19T14:39:07Z</time>
      </trkpt>
      <trkpt lat="43.42456" lon="6.14459">
        <ele>289.66409301758</ele>
        <time>2014-11-19T14:39:11Z</time>
      </trkpt>
      <trkpt lat="43.4245" lon="6.14462">
        <ele>289.53411865234</ele>
        <time>2014-11-19T14:39:13Z</time>
      </trkpt>
      <trkpt lat="43.42443" lon="6.14464">
        <ele>289.34091186523</ele>
        <time>2014-11-19T14:39:15Z</time>
      </trkpt>
      <trkpt lat="43.4244" lon="6.14464">
        <ele>289.25839233398</ele>
        <time>2014-11-19T14:39:16Z</time>
      </trkpt>
      <trkpt lat="43.42438" lon="6.14464">
        <ele>289.15063476562</ele>
        <time>2014-11-19T14:39:17Z</time>
      </trkpt>
      <trkpt lat="43.42434" lon="6.14464">
        <ele>288.95407104492</ele>
        <time>2014-11-19T14:39:19Z</time>
      </trkpt>
      <trkpt lat="43.42431" lon="6.14463">
        <ele>288.80935668945</ele>
        <time>2014-11-19T14:39:20Z</time>
      </trkpt>
      <trkpt lat="43.4243" lon="6.14461">
        <ele>288.68463134766</ele>
        <time>2014-11-19T14:39:21Z</time>
      </trkpt>
      <trkpt lat="43.42426" lon="6.14459">
        <ele>288.421875</ele>
        <time>2014-11-19T14:39:23Z</time>
      </trkpt>
      <trkpt lat="43.42423" lon="6.14456">
        <ele>288.16372680664</ele>
        <time>2014-11-19T14:39:25Z</time>
      </trkpt>
      <trkpt lat="43.42421" lon="6.14453">
        <ele>287.93804931641</ele>
        <time>2014-11-19T14:39:27Z</time>
      </trkpt>
      <trkpt lat="43.42419" lon="6.14452">
        <ele>287.80020141602</ele>
        <time>2014-11-19T14:39:28Z</time>
      </trkpt>
      <trkpt lat="43.42418" lon="6.14451">
        <ele>287.67993164062</ele>
        <time>2014-11-19T14:39:29Z</time>
      </trkpt>
      <trkpt lat="43.42415" lon="6.14448">
        <ele>287.52673339844</ele>
        <time>2014-11-19T14:39:31Z</time>
      </trkpt>
      <trkpt lat="43.42412" lon="6.14443">
        <ele>287.36978149414</ele>
        <time>2014-11-19T14:39:33Z</time>
      </trkpt>
      <trkpt lat="43.4241" lon="6.14441">
        <ele>287.32638549805</ele>
        <time>2014-11-19T14:39:34Z</time>
      </trkpt>
      <trkpt lat="43.42407" lon="6.14439">
        <ele>287.29440307617</ele>
        <time>2014-11-19T14:39:35Z</time>
      </trkpt>
      <trkpt lat="43.42402" lon="6.14436">
        <ele>287.23159790039</ele>
        <time>2014-11-19T14:39:37Z</time>
      </trkpt>
      <trkpt lat="43.42398" lon="6.14435">
        <ele>287.26013183594</ele>
        <time>2014-11-19T14:39:39Z</time>
      </trkpt>
      <trkpt lat="43.42397" lon="6.14434">
        <ele>287.28207397461</ele>
        <time>2014-11-19T14:39:40Z</time>
      </trkpt>
      <trkpt lat="43.42395" lon="6.14434">
        <ele>287.31478881836</ele>
        <time>2014-11-19T14:39:41Z</time>
      </trkpt>
      <trkpt lat="43.42393" lon="6.14435">
        <ele>287.38299560547</ele>
        <time>2014-11-19T14:39:43Z</time>
      </trkpt>
      <trkpt lat="43.4239" lon="6.14435">
        <ele>287.46539306641</ele>
        <time>2014-11-19T14:39:45Z</time>
      </trkpt>
      <trkpt lat="43.42389" lon="6.14436">
        <ele>287.5041809082</ele>
        <time>2014-11-19T14:39:46Z</time>
      </trkpt>
      <trkpt lat="43.42387" lon="6.14436">
        <ele>287.54315185547</ele>
        <time>2014-11-19T14:39:47Z</time>
      </trkpt>
      <trkpt lat="43.42385" lon="6.14437">
        <ele>287.6350402832</ele>
        <time>2014-11-19T14:39:49Z</time>
      </trkpt>
      <trkpt lat="43.42384" lon="6.14437">
        <ele>287.66171264648</ele>
        <time>2014-11-19T14:39:51Z</time>
      </trkpt>
      <trkpt lat="43.42384" lon="6.14437">
        <ele>287.68417358398</ele>
        <time>2014-11-19T14:39:53Z</time>
      </trkpt>
      <trkpt lat="43.42384" lon="6.14437">
        <ele>287.68417358398</ele>
        <time>2014-11-19T14:39:59Z</time>
      </trkpt>
      <trkpt lat="43.42384" lon="6.14437">
        <ele>287.68417358398</ele>
        <time>2014-11-19T14:40:09Z</time>
      </trkpt>
      <trkpt lat="43.42384" lon="6.14438">
        <ele>287.69036865234</ele>
        <time>2014-11-19T14:40:13Z</time>
      </trkpt>
      <trkpt lat="43.42384" lon="6.14438">
        <ele>287.6965637207</ele>
        <time>2014-11-19T14:40:21Z</time>
      </trkpt>
      <trkpt lat="43.42384" lon="6.14438">
        <ele>287.69863891602</ele>
        <time>2014-11-19T14:40:23Z</time>
      </trkpt>
      <trkpt lat="43.42384" lon="6.14438">
        <ele>287.69631958008</ele>
        <time>2014-11-19T14:40:27Z</time>
      </trkpt>
      <trkpt lat="43.42384" lon="6.14437">
        <ele>287.69219970703</ele>
        <time>2014-11-19T14:40:29Z</time>
      </trkpt>
      <trkpt lat="43.42383" lon="6.14437">
        <ele>287.69198608398</ele>
        <time>2014-11-19T14:40:31Z</time>
      </trkpt>
      <trkpt lat="43.42383" lon="6.14437">
        <ele>287.68991088867</ele>
        <time>2014-11-19T14:40:33Z</time>
      </trkpt>
      <trkpt lat="43.42382" lon="6.14437">
        <ele>287.69760131836</ele>
        <time>2014-11-19T14:40:35Z</time>
      </trkpt>
      <trkpt lat="43.42382" lon="6.14437">
        <ele>287.71179199219</ele>
        <time>2014-11-19T14:40:37Z</time>
      </trkpt>
      <trkpt lat="43.42381" lon="6.14437">
        <ele>287.71368408203</ele>
        <time>2014-11-19T14:40:38Z</time>
      </trkpt>
      <trkpt lat="43.42381" lon="6.14437">
        <ele>287.71368408203</ele>
        <time>2014-11-19T14:40:41Z</time>
      </trkpt>
      <trkpt lat="43.42381" lon="6.14437">
        <ele>287.71572875977</ele>
        <time>2014-11-19T14:40:43Z</time>
      </trkpt>
      <trkpt lat="43.42381" lon="6.14437">
        <ele>287.71981811523</ele>
        <time>2014-11-19T14:40:47Z</time>
      </trkpt>
      <trkpt lat="43.42381" lon="6.14437">
        <ele>287.7177734375</ele>
        <time>2014-11-19T14:40:49Z</time>
      </trkpt>
      <trkpt lat="43.42381" lon="6.14437">
        <ele>287.72991943359</ele>
        <time>2014-11-19T14:40:51Z</time>
      </trkpt>
      <trkpt lat="43.42381" lon="6.14437">
        <ele>287.72378540039</ele>
        <time>2014-11-19T14:40:53Z</time>
      </trkpt>
      <trkpt lat="43.42381" lon="6.14437">
        <ele>287.72570800781</ele>
        <time>2014-11-19T14:40:55Z</time>
      </trkpt>
      <trkpt lat="43.42381" lon="6.14436">
        <ele>287.71548461914</ele>
        <time>2014-11-19T14:40:57Z</time>
      </trkpt>
      <trkpt lat="43.42381" lon="6.14436">
        <ele>287.71142578125</ele>
        <time>2014-11-19T14:40:59Z</time>
      </trkpt>
      <trkpt lat="43.42381" lon="6.14436">
        <ele>287.71142578125</ele>
        <time>2014-11-19T14:41:01Z</time>
      </trkpt>
      <trkpt lat="43.42381" lon="6.14436">
        <ele>287.70529174805</ele>
        <time>2014-11-19T14:41:03Z</time>
      </trkpt>
      <trkpt lat="43.42381" lon="6.14436">
        <ele>287.70529174805</ele>
        <time>2014-11-19T14:41:05Z</time>
      </trkpt>
      <trkpt lat="43.42381" lon="6.14436">
        <ele>287.69924926758</ele>
        <time>2014-11-19T14:41:06Z</time>
      </trkpt>
      <trkpt lat="43.42381" lon="6.14436">
        <ele>287.69720458984</ele>
        <time>2014-11-19T14:41:07Z</time>
      </trkpt>
      <trkpt lat="43.4238" lon="6.14434">
        <ele>287.63800048828</ele>
        <time>2014-11-19T14:41:08Z</time>
      </trkpt>
      <trkpt lat="43.42379" lon="6.14432">
        <ele>287.55914306641</ele>
        <time>2014-11-19T14:41:09Z</time>
      </trkpt>
      <trkpt lat="43.42378" lon="6.14429">
        <ele>287.47467041016</ele>
        <time>2014-11-19T14:41:10Z</time>
      </trkpt>
      <trkpt lat="43.42377" lon="6.14427">
        <ele>287.37515258789</ele>
        <time>2014-11-19T14:41:11Z</time>
      </trkpt>
      <trkpt lat="43.4237" lon="6.14412">
        <ele>286.99346923828</ele>
        <time>2014-11-19T14:41:15Z</time>
      </trkpt>
      <trkpt lat="43.42368" lon="6.14408">
        <ele>286.92434692383</ele>
        <time>2014-11-19T14:41:16Z</time>
      </trkpt>
      <trkpt lat="43.42365" lon="6.14403">
        <ele>286.84716796875</ele>
        <time>2014-11-19T14:41:17Z</time>
      </trkpt>
      <trkpt lat="43.42361" lon="6.14394">
        <ele>286.7021484375</ele>
        <time>2014-11-19T14:41:19Z</time>
      </trkpt>
      <trkpt lat="43.42353" lon="6.14373">
        <ele>286.3639831543</ele>
        <time>2014-11-19T14:41:23Z</time>
      </trkpt>
      <trkpt lat="43.42351" lon="6.14369">
        <ele>286.29623413086</ele>
        <time>2014-11-19T14:41:24Z</time>
      </trkpt>
      <trkpt lat="43.4235" lon="6.14363">
        <ele>286.17929077148</ele>
        <time>2014-11-19T14:41:25Z</time>
      </trkpt>
      <trkpt lat="43.42345" lon="6.14345">
        <ele>285.89907836914</ele>
        <time>2014-11-19T14:41:28Z</time>
      </trkpt>
      <trkpt lat="43.42337" lon="6.14324">
        <ele>285.50659179688</ele>
        <time>2014-11-19T14:41:31Z</time>
      </trkpt>
      <trkpt lat="43.42335" lon="6.14316">
        <ele>285.30059814453</ele>
        <time>2014-11-19T14:41:32Z</time>
      </trkpt>
      <trkpt lat="43.42333" lon="6.14308">
        <ele>285.0849609375</ele>
        <time>2014-11-19T14:41:33Z</time>
      </trkpt>
      <trkpt lat="43.42329" lon="6.14292">
        <ele>285.01312255859</ele>
        <time>2014-11-19T14:41:35Z</time>
      </trkpt>
      <trkpt lat="43.42324" lon="6.14278">
        <ele>285.08905029297</ele>
        <time>2014-11-19T14:41:37Z</time>
      </trkpt>
      <trkpt lat="43.42321" lon="6.14272">
        <ele>285.14492797852</ele>
        <time>2014-11-19T14:41:38Z</time>
      </trkpt>
      <trkpt lat="43.4232" lon="6.14266">
        <ele>285.1330871582</ele>
        <time>2014-11-19T14:41:39Z</time>
      </trkpt>
      <trkpt lat="43.42319" lon="6.14255">
        <ele>284.90579223633</ele>
        <time>2014-11-19T14:41:41Z</time>
      </trkpt>
      <trkpt lat="43.42318" lon="6.1425">
        <ele>284.79052734375</ele>
        <time>2014-11-19T14:41:42Z</time>
      </trkpt>
      <trkpt lat="43.42318" lon="6.14243">
        <ele>284.7321472168</ele>
        <time>2014-11-19T14:41:43Z</time>
      </trkpt>
      <trkpt lat="43.42315" lon="6.14233">
        <ele>284.85116577148</ele>
        <time>2014-11-19T14:41:45Z</time>
      </trkpt>
      <trkpt lat="43.42311" lon="6.14224">
        <ele>285.03771972656</ele>
        <time>2014-11-19T14:41:47Z</time>
      </trkpt>
      <trkpt lat="43.42306" lon="6.14216">
        <ele>285.44854736328</ele>
        <time>2014-11-19T14:41:49Z</time>
      </trkpt>
      <trkpt lat="43.423" lon="6.1421">
        <ele>285.99670410156</ele>
        <time>2014-11-19T14:41:51Z</time>
      </trkpt>
      <trkpt lat="43.42297" lon="6.14208">
        <ele>286.29656982422</ele>
        <time>2014-11-19T14:41:52Z</time>
      </trkpt>
      <trkpt lat="43.42293" lon="6.14206">
        <ele>286.76116943359</ele>
        <time>2014-11-19T14:41:53Z</time>
      </trkpt>
      <trkpt lat="43.42289" lon="6.14205">
        <ele>287.29449462891</ele>
        <time>2014-11-19T14:41:54Z</time>
      </trkpt>
      <trkpt lat="43.42283" lon="6.14206">
        <ele>287.94219970703</ele>
        <time>2014-11-19T14:41:55Z</time>
      </trkpt>
      <trkpt lat="43.42278" lon="6.14206">
        <ele>288.59680175781</ele>
        <time>2014-11-19T14:41:56Z</time>
      </trkpt>
      <trkpt lat="43.42273" lon="6.14208">
        <ele>289.28002929688</ele>
        <time>2014-11-19T14:41:57Z</time>
      </trkpt>
      <trkpt lat="43.42263" lon="6.14216">
        <ele>290.6647644043</ele>
        <time>2014-11-19T14:41:59Z</time>
      </trkpt>
      <trkpt lat="43.42251" lon="6.14223">
        <ele>292.24404907227</ele>
        <time>2014-11-19T14:42:01Z</time>
      </trkpt>
      <trkpt lat="43.42246" lon="6.14224">
        <ele>291.90231323242</ele>
        <time>2014-11-19T14:42:02Z</time>
      </trkpt>
      <trkpt lat="43.42242" lon="6.14224">
        <ele>291.48178100586</ele>
        <time>2014-11-19T14:42:03Z</time>
      </trkpt>
      <trkpt lat="43.42239" lon="6.1422">
        <ele>291.05038452148</ele>
        <time>2014-11-19T14:42:05Z</time>
      </trkpt>
      <trkpt lat="43.42237" lon="6.14219">
        <ele>290.84951782227</ele>
        <time>2014-11-19T14:42:06Z</time>
      </trkpt>
      <trkpt lat="43.42235" lon="6.14217">
        <ele>290.54104614258</ele>
        <time>2014-11-19T14:42:07Z</time>
      </trkpt>
      <trkpt lat="43.42231" lon="6.14216">
        <ele>290.03485107422</ele>
        <time>2014-11-19T14:42:09Z</time>
      </trkpt>
      <trkpt lat="43.42229" lon="6.14216">
        <ele>289.82723999023</ele>
        <time>2014-11-19T14:42:10Z</time>
      </trkpt>
      <trkpt lat="43.42228" lon="6.14216">
        <ele>289.63812255859</ele>
        <time>2014-11-19T14:42:11Z</time>
      </trkpt>
      <trkpt lat="43.42225" lon="6.14215">
        <ele>289.27359008789</ele>
        <time>2014-11-19T14:42:13Z</time>
      </trkpt>
      <trkpt lat="43.42222" lon="6.14214">
        <ele>288.95028686523</ele>
        <time>2014-11-19T14:42:15Z</time>
      </trkpt>
      <trkpt lat="43.42219" lon="6.14215">
        <ele>288.66299438477</ele>
        <time>2014-11-19T14:42:17Z</time>
      </trkpt>
      <trkpt lat="43.42212" lon="6.14215">
        <ele>287.81283569336</ele>
        <time>2014-11-19T14:42:21Z</time>
      </trkpt>
      <trkpt lat="43.42209" lon="6.14215">
        <ele>287.53988647461</ele>
        <time>2014-11-19T14:42:22Z</time>
      </trkpt>
      <trkpt lat="43.42207" lon="6.14214">
        <ele>287.20611572266</ele>
        <time>2014-11-19T14:42:23Z</time>
      </trkpt>
      <trkpt lat="43.42202" lon="6.14211">
        <ele>286.57064819336</ele>
        <time>2014-11-19T14:42:25Z</time>
      </trkpt>
      <trkpt lat="43.42197" lon="6.14207">
        <ele>285.88342285156</ele>
        <time>2014-11-19T14:42:27Z</time>
      </trkpt>
      <trkpt lat="43.42192" lon="6.14204">
        <ele>285.22152709961</ele>
        <time>2014-11-19T14:42:29Z</time>
      </trkpt>
      <trkpt lat="43.42188" lon="6.142">
        <ele>284.58648681641</ele>
        <time>2014-11-19T14:42:31Z</time>
      </trkpt>
      <trkpt lat="43.42184" lon="6.14195">
        <ele>284.07528686523</ele>
        <time>2014-11-19T14:42:33Z</time>
      </trkpt>
      <trkpt lat="43.42183" lon="6.1419">
        <ele>283.7314453125</ele>
        <time>2014-11-19T14:42:35Z</time>
      </trkpt>
      <trkpt lat="43.42182" lon="6.14186">
        <ele>283.46084594727</ele>
        <time>2014-11-19T14:42:37Z</time>
      </trkpt>
      <trkpt lat="43.42181" lon="6.14182">
        <ele>283.18405151367</ele>
        <time>2014-11-19T14:42:39Z</time>
      </trkpt>
      <trkpt lat="43.42179" lon="6.14179">
        <ele>282.85961914062</ele>
        <time>2014-11-19T14:42:41Z</time>
      </trkpt>
      <trkpt lat="43.42175" lon="6.14174">
        <ele>282.2795715332</ele>
        <time>2014-11-19T14:42:44Z</time>
      </trkpt>
      <trkpt lat="43.42172" lon="6.1417">
        <ele>281.77209472656</ele>
        <time>2014-11-19T14:42:47Z</time>
      </trkpt>
      <trkpt lat="43.4217" lon="6.14168">
        <ele>281.4797668457</ele>
        <time>2014-11-19T14:42:49Z</time>
      </trkpt>
      <trkpt lat="43.42168" lon="6.14164">
        <ele>281.01037597656</ele>
        <time>2014-11-19T14:42:51Z</time>
      </trkpt>
      <trkpt lat="43.42165" lon="6.1416">
        <ele>280.41442871094</ele>
        <time>2014-11-19T14:42:53Z</time>
      </trkpt>
      <trkpt lat="43.42162" lon="6.14155">
        <ele>279.93756103516</ele>
        <time>2014-11-19T14:42:55Z</time>
      </trkpt>
      <trkpt lat="43.4216" lon="6.14151">
        <ele>279.50112915039</ele>
        <time>2014-11-19T14:42:57Z</time>
      </trkpt>
      <trkpt lat="43.42157" lon="6.14147">
        <ele>279.02020263672</ele>
        <time>2014-11-19T14:42:59Z</time>
      </trkpt>
      <trkpt lat="43.42156" lon="6.14145">
        <ele>278.82247924805</ele>
        <time>2014-11-19T14:43:00Z</time>
      </trkpt>
      <trkpt lat="43.42155" lon="6.14143">
        <ele>278.57330322266</ele>
        <time>2014-11-19T14:43:01Z</time>
      </trkpt>
      <trkpt lat="43.42152" lon="6.14137">
        <ele>277.94778442383</ele>
        <time>2014-11-19T14:43:04Z</time>
      </trkpt>
      <trkpt lat="43.42151" lon="6.14136">
        <ele>277.77108764648</ele>
        <time>2014-11-19T14:43:05Z</time>
      </trkpt>
      <trkpt lat="43.4215" lon="6.14132">
        <ele>277.43402099609</ele>
        <time>2014-11-19T14:43:07Z</time>
      </trkpt>
      <trkpt lat="43.42151" lon="6.14131">
        <ele>277.35159301758</ele>
        <time>2014-11-19T14:43:08Z</time>
      </trkpt>
      <trkpt lat="43.4215" lon="6.14131">
        <ele>277.31768798828</ele>
        <time>2014-11-19T14:43:09Z</time>
      </trkpt>
      <trkpt lat="43.4215" lon="6.1413">
        <ele>277.26727294922</ele>
        <time>2014-11-19T14:43:11Z</time>
      </trkpt>
      <trkpt lat="43.42151" lon="6.1413">
        <ele>277.27038574219</ele>
        <time>2014-11-19T14:43:13Z</time>
      </trkpt>
      <trkpt lat="43.42151" lon="6.1413">
        <ele>277.27810668945</ele>
        <time>2014-11-19T14:43:19Z</time>
      </trkpt>
      <trkpt lat="43.42151" lon="6.1413">
        <ele>277.28198242188</ele>
        <time>2014-11-19T14:43:21Z</time>
      </trkpt>
      <trkpt lat="43.42151" lon="6.1413">
        <ele>277.2858581543</ele>
        <time>2014-11-19T14:43:23Z</time>
      </trkpt>
      <trkpt lat="43.42151" lon="6.1413">
        <ele>277.28198242188</ele>
        <time>2014-11-19T14:43:25Z</time>
      </trkpt>
      <trkpt lat="43.42152" lon="6.14129">
        <ele>277.25387573242</ele>
        <time>2014-11-19T14:43:27Z</time>
      </trkpt>
      <trkpt lat="43.42154" lon="6.14127">
        <ele>277.23980712891</ele>
        <time>2014-11-19T14:43:29Z</time>
      </trkpt>
      <trkpt lat="43.42159" lon="6.14124">
        <ele>277.38491821289</ele>
        <time>2014-11-19T14:43:31Z</time>
      </trkpt>
      <trkpt lat="43.42162" lon="6.14122">
        <ele>277.43246459961</ele>
        <time>2014-11-19T14:43:32Z</time>
      </trkpt>
      <trkpt lat="43.42165" lon="6.14119">
        <ele>277.41680908203</ele>
        <time>2014-11-19T14:43:33Z</time>
      </trkpt>
      <trkpt lat="43.4217" lon="6.14112">
        <ele>277.583984375</ele>
        <time>2014-11-19T14:43:35Z</time>
      </trkpt>
      <trkpt lat="43.42175" lon="6.14103">
        <ele>277.76962280273</ele>
        <time>2014-11-19T14:43:37Z</time>
      </trkpt>
      <trkpt lat="43.42178" lon="6.14092">
        <ele>277.5940246582</ele>
        <time>2014-11-19T14:43:39Z</time>
      </trkpt>
      <trkpt lat="43.42179" lon="6.14086">
        <ele>277.43804931641</ele>
        <time>2014-11-19T14:43:40Z</time>
      </trkpt>
      <trkpt lat="43.42181" lon="6.1408">
        <ele>277.51455688477</ele>
        <time>2014-11-19T14:43:41Z</time>
      </trkpt>
      <trkpt lat="43.42184" lon="6.14074">
        <ele>277.689453125</ele>
        <time>2014-11-19T14:43:42Z</time>
      </trkpt>
      <trkpt lat="43.42187" lon="6.14068">
        <ele>278.02209472656</ele>
        <time>2014-11-19T14:43:43Z</time>
      </trkpt>
      <trkpt lat="43.42191" lon="6.14059">
        <ele>278.37054443359</ele>
        <time>2014-11-19T14:43:45Z</time>
      </trkpt>
      <trkpt lat="43.42192" lon="6.14056">
        <ele>278.62344360352</ele>
        <time>2014-11-19T14:43:46Z</time>
      </trkpt>
      <trkpt lat="43.42194" lon="6.14051">
        <ele>278.74719238281</ele>
        <time>2014-11-19T14:43:47Z</time>
      </trkpt>
      <trkpt lat="43.42198" lon="6.14043">
        <ele>279.28726196289</ele>
        <time>2014-11-19T14:43:49Z</time>
      </trkpt>
      <trkpt lat="43.42199" lon="6.14039">
        <ele>279.29495239258</ele>
        <time>2014-11-19T14:43:50Z</time>
      </trkpt>
      <trkpt lat="43.42201" lon="6.14036">
        <ele>279.59252929688</ele>
        <time>2014-11-19T14:43:51Z</time>
      </trkpt>
      <trkpt lat="43.42205" lon="6.1403">
        <ele>280.15325927734</ele>
        <time>2014-11-19T14:43:53Z</time>
      </trkpt>
      <trkpt lat="43.42206" lon="6.14015">
        <ele>279.92462158203</ele>
        <time>2014-11-19T14:43:55Z</time>
      </trkpt>
      <trkpt lat="43.42207" lon="6.14008">
        <ele>279.86294555664</ele>
        <time>2014-11-19T14:43:56Z</time>
      </trkpt>
      <trkpt lat="43.42208" lon="6.14001">
        <ele>279.88687133789</ele>
        <time>2014-11-19T14:43:57Z</time>
      </trkpt>
      <trkpt lat="43.4221" lon="6.13988">
        <ele>280.64901733398</ele>
        <time>2014-11-19T14:43:59Z</time>
      </trkpt>
      <trkpt lat="43.4221" lon="6.13982">
        <ele>280.79779052734</ele>
        <time>2014-11-19T14:44:00Z</time>
      </trkpt>
      <trkpt lat="43.4221" lon="6.13975">
        <ele>280.884765625</ele>
        <time>2014-11-19T14:44:01Z</time>
      </trkpt>
      <trkpt lat="43.42209" lon="6.13968">
        <ele>280.97631835938</ele>
        <time>2014-11-19T14:44:02Z</time>
      </trkpt>
      <trkpt lat="43.42209" lon="6.13962">
        <ele>281.02896118164</ele>
        <time>2014-11-19T14:44:03Z</time>
      </trkpt>
      <trkpt lat="43.42207" lon="6.1395">
        <ele>280.91107177734</ele>
        <time>2014-11-19T14:44:05Z</time>
      </trkpt>
      <trkpt lat="43.42205" lon="6.13935">
        <ele>280.85614013672</ele>
        <time>2014-11-19T14:44:07Z</time>
      </trkpt>
      <trkpt lat="43.42202" lon="6.13927">
        <ele>280.45904541016</ele>
        <time>2014-11-19T14:44:08Z</time>
      </trkpt>
      <trkpt lat="43.422" lon="6.13921">
        <ele>280.20153808594</ele>
        <time>2014-11-19T14:44:09Z</time>
      </trkpt>
      <trkpt lat="43.42198" lon="6.13915">
        <ele>279.91555786133</ele>
        <time>2014-11-19T14:44:10Z</time>
      </trkpt>
      <trkpt lat="43.42196" lon="6.13907">
        <ele>279.70523071289</ele>
        <time>2014-11-19T14:44:11Z</time>
      </trkpt>
      <trkpt lat="43.42194" lon="6.13901">
        <ele>279.71276855469</ele>
        <time>2014-11-19T14:44:12Z</time>
      </trkpt>
      <trkpt lat="43.42192" lon="6.13896">
        <ele>279.58316040039</ele>
        <time>2014-11-19T14:44:13Z</time>
      </trkpt>
      <trkpt lat="43.42188" lon="6.13886">
        <ele>279.23895263672</ele>
        <time>2014-11-19T14:44:15Z</time>
      </trkpt>
      <trkpt lat="43.42185" lon="6.13875">
        <ele>279.18395996094</ele>
        <time>2014-11-19T14:44:17Z</time>
      </trkpt>
      <trkpt lat="43.4218" lon="6.13867">
        <ele>278.71228027344</ele>
        <time>2014-11-19T14:44:19Z</time>
      </trkpt>
      <trkpt lat="43.42176" lon="6.13861">
        <ele>278.13098144531</ele>
        <time>2014-11-19T14:44:21Z</time>
      </trkpt>
      <trkpt lat="43.42169" lon="6.13847">
        <ele>277.60986328125</ele>
        <time>2014-11-19T14:44:24Z</time>
      </trkpt>
      <trkpt lat="43.42166" lon="6.13841">
        <ele>277.35174560547</ele>
        <time>2014-11-19T14:44:25Z</time>
      </trkpt>
      <trkpt lat="43.42163" lon="6.13837">
        <ele>276.66656494141</ele>
        <time>2014-11-19T14:44:26Z</time>
      </trkpt>
      <trkpt lat="43.4216" lon="6.13832">
        <ele>276.14050292969</ele>
        <time>2014-11-19T14:44:27Z</time>
      </trkpt>
      <trkpt lat="43.42155" lon="6.13823">
        <ele>275.28048706055</ele>
        <time>2014-11-19T14:44:29Z</time>
      </trkpt>
      <trkpt lat="43.4215" lon="6.13815">
        <ele>274.50582885742</ele>
        <time>2014-11-19T14:44:31Z</time>
      </trkpt>
      <trkpt lat="43.42146" lon="6.13806">
        <ele>274.17565917969</ele>
        <time>2014-11-19T14:44:33Z</time>
      </trkpt>
      <trkpt lat="43.42144" lon="6.13801">
        <ele>274.07751464844</ele>
        <time>2014-11-19T14:44:34Z</time>
      </trkpt>
      <trkpt lat="43.42142" lon="6.13795">
        <ele>273.89056396484</ele>
        <time>2014-11-19T14:44:35Z</time>
      </trkpt>
      <trkpt lat="43.42137" lon="6.13783">
        <ele>273.36584472656</ele>
        <time>2014-11-19T14:44:37Z</time>
      </trkpt>
      <trkpt lat="43.42133" lon="6.13773">
        <ele>272.87768554688</ele>
        <time>2014-11-19T14:44:39Z</time>
      </trkpt>
      <trkpt lat="43.42122" lon="6.13752">
        <ele>271.19033813477</ele>
        <time>2014-11-19T14:44:43Z</time>
      </trkpt>
      <trkpt lat="43.4212" lon="6.13748">
        <ele>270.96893310547</ele>
        <time>2014-11-19T14:44:44Z</time>
      </trkpt>
      <trkpt lat="43.42117" lon="6.13742">
        <ele>270.65884399414</ele>
        <time>2014-11-19T14:44:45Z</time>
      </trkpt>
      <trkpt lat="43.42112" lon="6.13732">
        <ele>269.95910644531</ele>
        <time>2014-11-19T14:44:47Z</time>
      </trkpt>
      <trkpt lat="43.42106" lon="6.1372">
        <ele>268.86242675781</ele>
        <time>2014-11-19T14:44:49Z</time>
      </trkpt>
      <trkpt lat="43.42101" lon="6.13707">
        <ele>268.09191894531</ele>
        <time>2014-11-19T14:44:51Z</time>
      </trkpt>
      <trkpt lat="43.42099" lon="6.13701">
        <ele>267.94955444336</ele>
        <time>2014-11-19T14:44:52Z</time>
      </trkpt>
      <trkpt lat="43.42097" lon="6.13694">
        <ele>267.82995605469</ele>
        <time>2014-11-19T14:44:53Z</time>
      </trkpt>
      <trkpt lat="43.42093" lon="6.13682">
        <ele>267.16680908203</ele>
        <time>2014-11-19T14:44:55Z</time>
      </trkpt>
      <trkpt lat="43.42088" lon="6.13671">
        <ele>266.17752075195</ele>
        <time>2014-11-19T14:44:57Z</time>
      </trkpt>
      <trkpt lat="43.42082" lon="6.13659">
        <ele>265.20639038086</ele>
        <time>2014-11-19T14:44:59Z</time>
      </trkpt>
      <trkpt lat="43.42079" lon="6.13653">
        <ele>264.57192993164</ele>
        <time>2014-11-19T14:45:00Z</time>
      </trkpt>
      <trkpt lat="43.42076" lon="6.13646">
        <ele>263.9651184082</ele>
        <time>2014-11-19T14:45:01Z</time>
      </trkpt>
      <trkpt lat="43.42073" lon="6.1364">
        <ele>263.45471191406</ele>
        <time>2014-11-19T14:45:02Z</time>
      </trkpt>
      <trkpt lat="43.4207" lon="6.13635">
        <ele>262.75885009766</ele>
        <time>2014-11-19T14:45:03Z</time>
      </trkpt>
      <trkpt lat="43.42065" lon="6.13623">
        <ele>261.64614868164</ele>
        <time>2014-11-19T14:45:05Z</time>
      </trkpt>
      <trkpt lat="43.42062" lon="6.13618">
        <ele>260.86874389648</ele>
        <time>2014-11-19T14:45:06Z</time>
      </trkpt>
      <trkpt lat="43.42056" lon="6.13609">
        <ele>259.24102783203</ele>
        <time>2014-11-19T14:45:08Z</time>
      </trkpt>
      <trkpt lat="43.42053" lon="6.13604">
        <ele>258.42309570312</ele>
        <time>2014-11-19T14:45:09Z</time>
      </trkpt>
      <trkpt lat="43.4204" lon="6.13582">
        <ele>255.02955627441</ele>
        <time>2014-11-19T14:45:13Z</time>
      </trkpt>
      <trkpt lat="43.42037" lon="6.13577">
        <ele>254.10652160644</ele>
        <time>2014-11-19T14:45:14Z</time>
      </trkpt>
      <trkpt lat="43.42034" lon="6.13571">
        <ele>253.03472900391</ele>
        <time>2014-11-19T14:45:15Z</time>
      </trkpt>
      <trkpt lat="43.4203" lon="6.13567">
        <ele>251.75047302246</ele>
        <time>2014-11-19T14:45:16Z</time>
      </trkpt>
      <trkpt lat="43.42016" lon="6.13553">
        <ele>246.96113586426</ele>
        <time>2014-11-19T14:45:19Z</time>
      </trkpt>
      <trkpt lat="43.42007" lon="6.13544">
        <ele>243.68218994141</ele>
        <time>2014-11-19T14:45:21Z</time>
      </trkpt>
      <trkpt lat="43.41998" lon="6.13535">
        <ele>240.7306060791</ele>
        <time>2014-11-19T14:45:23Z</time>
      </trkpt>
      <trkpt lat="43.41991" lon="6.13527">
        <ele>239.21754455566</ele>
        <time>2014-11-19T14:45:25Z</time>
      </trkpt>
      <trkpt lat="43.41983" lon="6.13508">
        <ele>237.44909667969</ele>
        <time>2014-11-19T14:45:29Z</time>
      </trkpt>
      <trkpt lat="43.41981" lon="6.135">
        <ele>237.15043640137</ele>
        <time>2014-11-19T14:45:31Z</time>
      </trkpt>
      <trkpt lat="43.41979" lon="6.13496">
        <ele>236.73542785644</ele>
        <time>2014-11-19T14:45:33Z</time>
      </trkpt>
      <trkpt lat="43.41978" lon="6.13497">
        <ele>236.62954711914</ele>
        <time>2014-11-19T14:45:35Z</time>
      </trkpt>
      <trkpt lat="43.41978" lon="6.13497">
        <ele>236.63040161133</ele>
        <time>2014-11-19T14:45:39Z</time>
      </trkpt>
      <trkpt lat="43.41978" lon="6.13497">
        <ele>236.62954711914</ele>
        <time>2014-11-19T14:45:59Z</time>
      </trkpt>
      <trkpt lat="43.41978" lon="6.13497">
        <ele>236.63124084473</ele>
        <time>2014-11-19T14:46:05Z</time>
      </trkpt>
      <trkpt lat="43.41978" lon="6.13497">
        <ele>236.63209533691</ele>
        <time>2014-11-19T14:46:09Z</time>
      </trkpt>
      <trkpt lat="43.41978" lon="6.13496">
        <ele>236.63293457031</ele>
        <time>2014-11-19T14:46:11Z</time>
      </trkpt>
      <trkpt lat="43.41977" lon="6.13497">
        <ele>236.33757019043</ele>
        <time>2014-11-19T14:46:13Z</time>
      </trkpt>
      <trkpt lat="43.41977" lon="6.13499">
        <ele>236.20053100586</ele>
        <time>2014-11-19T14:46:14Z</time>
      </trkpt>
      <trkpt lat="43.41977" lon="6.13502">
        <ele>236.14710998535</ele>
        <time>2014-11-19T14:46:15Z</time>
      </trkpt>
      <trkpt lat="43.41978" lon="6.13507">
        <ele>236.22814941406</ele>
        <time>2014-11-19T14:46:17Z</time>
      </trkpt>
      <trkpt lat="43.41977" lon="6.13508">
        <ele>236.10670471191</ele>
        <time>2014-11-19T14:46:18Z</time>
      </trkpt>
      <trkpt lat="43.41977" lon="6.13509">
        <ele>235.99034118652</ele>
        <time>2014-11-19T14:46:19Z</time>
      </trkpt>
      <trkpt lat="43.41977" lon="6.13512">
        <ele>235.92822265625</ele>
        <time>2014-11-19T14:46:21Z</time>
      </trkpt>
      <trkpt lat="43.41977" lon="6.13519">
        <ele>235.70001220703</ele>
        <time>2014-11-19T14:46:23Z</time>
      </trkpt>
      <trkpt lat="43.41977" lon="6.13525">
        <ele>235.75970458984</ele>
        <time>2014-11-19T14:46:25Z</time>
      </trkpt>
      <trkpt lat="43.41978" lon="6.13534">
        <ele>235.66909790039</ele>
        <time>2014-11-19T14:46:27Z</time>
      </trkpt>
      <trkpt lat="43.41978" lon="6.13539">
        <ele>235.66694641113</ele>
        <time>2014-11-19T14:46:28Z</time>
      </trkpt>
      <trkpt lat="43.41979" lon="6.13543">
        <ele>235.76103210449</ele>
        <time>2014-11-19T14:46:29Z</time>
      </trkpt>
      <trkpt lat="43.41982" lon="6.13555">
        <ele>236.17111206055</ele>
        <time>2014-11-19T14:46:31Z</time>
      </trkpt>
      <trkpt lat="43.41985" lon="6.13567">
        <ele>236.73126220703</ele>
        <time>2014-11-19T14:46:33Z</time>
      </trkpt>
      <trkpt lat="43.4199" lon="6.1358">
        <ele>237.55078125</ele>
        <time>2014-11-19T14:46:35Z</time>
      </trkpt>
      <trkpt lat="43.41991" lon="6.13587">
        <ele>237.81430053711</ele>
        <time>2014-11-19T14:46:36Z</time>
      </trkpt>
      <trkpt lat="43.41993" lon="6.13594">
        <ele>238.03034973144</ele>
        <time>2014-11-19T14:46:37Z</time>
      </trkpt>
      <trkpt lat="43.41996" lon="6.13601">
        <ele>238.43772888184</ele>
        <time>2014-11-19T14:46:38Z</time>
      </trkpt>
      <trkpt lat="43.41999" lon="6.13607">
        <ele>238.84545898438</ele>
        <time>2014-11-19T14:46:39Z</time>
      </trkpt>
      <trkpt lat="43.42004" lon="6.13619">
        <ele>240.29232788086</ele>
        <time>2014-11-19T14:46:41Z</time>
      </trkpt>
      <trkpt lat="43.42009" lon="6.13631">
        <ele>241.56672668457</ele>
        <time>2014-11-19T14:46:43Z</time>
      </trkpt>
      <trkpt lat="43.42012" lon="6.13638">
        <ele>242.09898376465</ele>
        <time>2014-11-19T14:46:44Z</time>
      </trkpt>
      <trkpt lat="43.42014" lon="6.13644">
        <ele>242.49826049805</ele>
        <time>2014-11-19T14:46:45Z</time>
      </trkpt>
      <trkpt lat="43.42014" lon="6.13651">
        <ele>242.45631408691</ele>
        <time>2014-11-19T14:46:46Z</time>
      </trkpt>
      <trkpt lat="43.42016" lon="6.13659">
        <ele>242.64613342285</ele>
        <time>2014-11-19T14:46:47Z</time>
      </trkpt>
      <trkpt lat="43.42019" lon="6.13675">
        <ele>242.93765258789</ele>
        <time>2014-11-19T14:46:49Z</time>
      </trkpt>
      <trkpt lat="43.42022" lon="6.13689">
        <ele>243.4416809082</ele>
        <time>2014-11-19T14:46:51Z</time>
      </trkpt>
      <trkpt lat="43.42026" lon="6.13711">
        <ele>243.94647216797</ele>
        <time>2014-11-19T14:46:54Z</time>
      </trkpt>
      <trkpt lat="43.42028" lon="6.13719">
        <ele>244.3263092041</ele>
        <time>2014-11-19T14:46:55Z</time>
      </trkpt>
      <trkpt lat="43.42032" lon="6.13733">
        <ele>244.99084472656</ele>
        <time>2014-11-19T14:46:57Z</time>
      </trkpt>
      <trkpt lat="43.42035" lon="6.1375">
        <ele>244.96240234375</ele>
        <time>2014-11-19T14:46:59Z</time>
      </trkpt>
      <trkpt lat="43.42035" lon="6.13757">
        <ele>244.77603149414</ele>
        <time>2014-11-19T14:47:00Z</time>
      </trkpt>
      <trkpt lat="43.42035" lon="6.13764">
        <ele>244.34916687012</ele>
        <time>2014-11-19T14:47:01Z</time>
      </trkpt>
      <trkpt lat="43.42034" lon="6.13771">
        <ele>243.97880554199</ele>
        <time>2014-11-19T14:47:02Z</time>
      </trkpt>
      <trkpt lat="43.42035" lon="6.13776">
        <ele>243.84648132324</ele>
        <time>2014-11-19T14:47:03Z</time>
      </trkpt>
      <trkpt lat="43.42036" lon="6.13785">
        <ele>243.99174499512</ele>
        <time>2014-11-19T14:47:05Z</time>
      </trkpt>
      <trkpt lat="43.42039" lon="6.13791">
        <ele>244.27912902832</ele>
        <time>2014-11-19T14:47:07Z</time>
      </trkpt>
      <trkpt lat="43.42041" lon="6.13798">
        <ele>244.51295471191</ele>
        <time>2014-11-19T14:47:09Z</time>
      </trkpt>
      <trkpt lat="43.42043" lon="6.13805">
        <ele>244.7487487793</ele>
        <time>2014-11-19T14:47:11Z</time>
      </trkpt>
      <trkpt lat="43.42042" lon="6.13814">
        <ele>244.03721618652</ele>
        <time>2014-11-19T14:47:14Z</time>
      </trkpt>
      <trkpt lat="43.42041" lon="6.13816">
        <ele>243.56997680664</ele>
        <time>2014-11-19T14:47:15Z</time>
      </trkpt>
      <trkpt lat="43.42037" lon="6.1382">
        <ele>242.63533020019</ele>
        <time>2014-11-19T14:47:17Z</time>
      </trkpt>
      <trkpt lat="43.42028" lon="6.13824">
        <ele>240.41035461426</ele>
        <time>2014-11-19T14:47:21Z</time>
      </trkpt>
      <trkpt lat="43.42025" lon="6.13825">
        <ele>239.77876281738</ele>
        <time>2014-11-19T14:47:22Z</time>
      </trkpt>
      <trkpt lat="43.42023" lon="6.13826">
        <ele>239.22894287109</ele>
        <time>2014-11-19T14:47:23Z</time>
      </trkpt>
      <trkpt lat="43.42019" lon="6.13829">
        <ele>238.28981018066</ele>
        <time>2014-11-19T14:47:25Z</time>
      </trkpt>
      <trkpt lat="43.42018" lon="6.13831">
        <ele>237.89050292969</ele>
        <time>2014-11-19T14:47:26Z</time>
      </trkpt>
      <trkpt lat="43.42016" lon="6.13834">
        <ele>237.51728820801</ele>
        <time>2014-11-19T14:47:27Z</time>
      </trkpt>
      <trkpt lat="43.42014" lon="6.13839">
        <ele>237.25442504883</ele>
        <time>2014-11-19T14:47:29Z</time>
      </trkpt>
      <trkpt lat="43.42009" lon="6.13844">
        <ele>236.6180267334</ele>
        <time>2014-11-19T14:47:31Z</time>
      </trkpt>
      <trkpt lat="43.42002" lon="6.13848">
        <ele>235.59298706055</ele>
        <time>2014-11-19T14:47:33Z</time>
      </trkpt>
      <trkpt lat="43.41994" lon="6.13852">
        <ele>234.66458129883</ele>
        <time>2014-11-19T14:47:35Z</time>
      </trkpt>
      <trkpt lat="43.4199" lon="6.13853">
        <ele>234.19194030762</ele>
        <time>2014-11-19T14:47:36Z</time>
      </trkpt>
      <trkpt lat="43.41982" lon="6.13853">
        <ele>233.22033691406</ele>
        <time>2014-11-19T14:47:38Z</time>
      </trkpt>
      <trkpt lat="43.41978" lon="6.13853">
        <ele>232.75456237793</ele>
        <time>2014-11-19T14:47:39Z</time>
      </trkpt>
      <trkpt lat="43.41974" lon="6.13854">
        <ele>232.40437316894</ele>
        <time>2014-11-19T14:47:40Z</time>
      </trkpt>
      <trkpt lat="43.41961" lon="6.13863">
        <ele>231.36753845215</ele>
        <time>2014-11-19T14:47:43Z</time>
      </trkpt>
      <trkpt lat="43.41951" lon="6.13873">
        <ele>230.99674987793</ele>
        <time>2014-11-19T14:47:45Z</time>
      </trkpt>
      <trkpt lat="43.41943" lon="6.13882">
        <ele>230.62825012207</ele>
        <time>2014-11-19T14:47:47Z</time>
      </trkpt>
      <trkpt lat="43.4194" lon="6.13886">
        <ele>230.51838684082</ele>
        <time>2014-11-19T14:47:48Z</time>
      </trkpt>
      <trkpt lat="43.41936" lon="6.13891">
        <ele>230.51609802246</ele>
        <time>2014-11-19T14:47:49Z</time>
      </trkpt>
      <trkpt lat="43.41932" lon="6.139">
        <ele>230.64312744141</ele>
        <time>2014-11-19T14:47:51Z</time>
      </trkpt>
      <trkpt lat="43.41927" lon="6.13906">
        <ele>230.48863220215</ele>
        <time>2014-11-19T14:47:53Z</time>
      </trkpt>
      <trkpt lat="43.41925" lon="6.13908">
        <ele>230.33299255371</ele>
        <time>2014-11-19T14:47:54Z</time>
      </trkpt>
      <trkpt lat="43.41922" lon="6.13911">
        <ele>230.20138549805</ele>
        <time>2014-11-19T14:47:55Z</time>
      </trkpt>
      <trkpt lat="43.41916" lon="6.13914">
        <ele>229.75193786621</ele>
        <time>2014-11-19T14:47:57Z</time>
      </trkpt>
      <trkpt lat="43.41911" lon="6.13919">
        <ele>229.51928710938</ele>
        <time>2014-11-19T14:47:59Z</time>
      </trkpt>
      <trkpt lat="43.41906" lon="6.13922">
        <ele>229.35208129883</ele>
        <time>2014-11-19T14:48:01Z</time>
      </trkpt>
      <trkpt lat="43.41904" lon="6.13924">
        <ele>229.26055908203</ele>
        <time>2014-11-19T14:48:02Z</time>
      </trkpt>
      <trkpt lat="43.41903" lon="6.13925">
        <ele>229.17161560059</ele>
        <time>2014-11-19T14:48:03Z</time>
      </trkpt>
      <trkpt lat="43.419" lon="6.13931">
        <ele>229.49002075195</ele>
        <time>2014-11-19T14:48:05Z</time>
      </trkpt>
      <trkpt lat="43.41898" lon="6.13937">
        <ele>229.76805114746</ele>
        <time>2014-11-19T14:48:07Z</time>
      </trkpt>
      <trkpt lat="43.41893" lon="6.13943">
        <ele>229.80938720703</ele>
        <time>2014-11-19T14:48:10Z</time>
      </trkpt>
      <trkpt lat="43.41892" lon="6.13946">
        <ele>229.9284362793</ele>
        <time>2014-11-19T14:48:11Z</time>
      </trkpt>
      <trkpt lat="43.41891" lon="6.13949">
        <ele>230.04473876953</ele>
        <time>2014-11-19T14:48:12Z</time>
      </trkpt>
      <trkpt lat="43.4189" lon="6.13952">
        <ele>230.22827148438</ele>
        <time>2014-11-19T14:48:13Z</time>
      </trkpt>
      <trkpt lat="43.41888" lon="6.13958">
        <ele>230.55978393555</ele>
        <time>2014-11-19T14:48:15Z</time>
      </trkpt>
      <trkpt lat="43.41887" lon="6.13964">
        <ele>230.95196533203</ele>
        <time>2014-11-19T14:48:17Z</time>
      </trkpt>
      <trkpt lat="43.41886" lon="6.13968">
        <ele>231.15310668945</ele>
        <time>2014-11-19T14:48:19Z</time>
      </trkpt>
      <trkpt lat="43.41885" lon="6.1397">
        <ele>231.19239807129</ele>
        <time>2014-11-19T14:48:20Z</time>
      </trkpt>
      <trkpt lat="43.41884" lon="6.13973">
        <ele>231.32479858398</ele>
        <time>2014-11-19T14:48:21Z</time>
      </trkpt>
      <trkpt lat="43.41875" lon="6.13981">
        <ele>230.81921386719</ele>
        <time>2014-11-19T14:48:25Z</time>
      </trkpt>
      <trkpt lat="43.41868" lon="6.13982">
        <ele>229.85363769531</ele>
        <time>2014-11-19T14:48:27Z</time>
      </trkpt>
      <trkpt lat="43.41862" lon="6.1398">
        <ele>228.78448486328</ele>
        <time>2014-11-19T14:48:29Z</time>
      </trkpt>
      <trkpt lat="43.41856" lon="6.13976">
        <ele>227.55014038086</ele>
        <time>2014-11-19T14:48:31Z</time>
      </trkpt>
      <trkpt lat="43.4185" lon="6.13969">
        <ele>226.16152954102</ele>
        <time>2014-11-19T14:48:33Z</time>
      </trkpt>
      <trkpt lat="43.41847" lon="6.13966">
        <ele>225.50726318359</ele>
        <time>2014-11-19T14:48:34Z</time>
      </trkpt>
      <trkpt lat="43.41843" lon="6.13965">
        <ele>224.87452697754</ele>
        <time>2014-11-19T14:48:35Z</time>
      </trkpt>
      <trkpt lat="43.41835" lon="6.13968">
        <ele>223.97227478027</ele>
        <time>2014-11-19T14:48:37Z</time>
      </trkpt>
      <trkpt lat="43.41828" lon="6.13973">
        <ele>224.00862121582</ele>
        <time>2014-11-19T14:48:39Z</time>
      </trkpt>
      <trkpt lat="43.41825" lon="6.13977">
        <ele>224.23310852051</ele>
        <time>2014-11-19T14:48:40Z</time>
      </trkpt>
      <trkpt lat="43.41821" lon="6.13982">
        <ele>224.44218444824</ele>
        <time>2014-11-19T14:48:41Z</time>
      </trkpt>
      <trkpt lat="43.41814" lon="6.13989">
        <ele>224.57577514648</ele>
        <time>2014-11-19T14:48:43Z</time>
      </trkpt>
      <trkpt lat="43.41811" lon="6.13987">
        <ele>224.419921875</ele>
        <time>2014-11-19T14:48:44Z</time>
      </trkpt>
      <trkpt lat="43.41808" lon="6.13983">
        <ele>224.18754577637</ele>
        <time>2014-11-19T14:48:45Z</time>
      </trkpt>
      <trkpt lat="43.41803" lon="6.13971">
        <ele>223.71345520019</ele>
        <time>2014-11-19T14:48:47Z</time>
      </trkpt>
      <trkpt lat="43.418" lon="6.13964">
        <ele>223.54391479492</ele>
        <time>2014-11-19T14:48:48Z</time>
      </trkpt>
      <trkpt lat="43.41797" lon="6.13958">
        <ele>223.42100524902</ele>
        <time>2014-11-19T14:48:49Z</time>
      </trkpt>
      <trkpt lat="43.41795" lon="6.13951">
        <ele>223.32836914062</ele>
        <time>2014-11-19T14:48:50Z</time>
      </trkpt>
      <trkpt lat="43.41794" lon="6.13946">
        <ele>223.28074645996</ele>
        <time>2014-11-19T14:48:51Z</time>
      </trkpt>
      <trkpt lat="43.41791" lon="6.13935">
        <ele>223.24603271484</ele>
        <time>2014-11-19T14:48:53Z</time>
      </trkpt>
      <trkpt lat="43.41792" lon="6.13931">
        <ele>223.13453674316</ele>
        <time>2014-11-19T14:48:54Z</time>
      </trkpt>
      <trkpt lat="43.41802" lon="6.13918">
        <ele>222.31665039062</ele>
        <time>2014-11-19T14:48:57Z</time>
      </trkpt>
      <trkpt lat="43.41806" lon="6.13908">
        <ele>222.20732116699</ele>
        <time>2014-11-19T14:48:59Z</time>
      </trkpt>
      <trkpt lat="43.41807" lon="6.13903">
        <ele>222.22760009766</ele>
        <time>2014-11-19T14:49:00Z</time>
      </trkpt>
      <trkpt lat="43.41807" lon="6.13898">
        <ele>222.31628417969</ele>
        <time>2014-11-19T14:49:01Z</time>
      </trkpt>
      <trkpt lat="43.41806" lon="6.13887">
        <ele>222.70916748047</ele>
        <time>2014-11-19T14:49:03Z</time>
      </trkpt>
      <trkpt lat="43.41804" lon="6.13882">
        <ele>222.97401428223</ele>
        <time>2014-11-19T14:49:04Z</time>
      </trkpt>
      <trkpt lat="43.41801" lon="6.13878">
        <ele>223.40966796875</ele>
        <time>2014-11-19T14:49:05Z</time>
      </trkpt>
      <trkpt lat="43.41799" lon="6.13875">
        <ele>223.73127746582</ele>
        <time>2014-11-19T14:49:06Z</time>
      </trkpt>
      <trkpt lat="43.41795" lon="6.13874">
        <ele>224.16062927246</ele>
        <time>2014-11-19T14:49:07Z</time>
      </trkpt>
      <trkpt lat="43.41789" lon="6.13879">
        <ele>224.64115905762</ele>
        <time>2014-11-19T14:49:09Z</time>
      </trkpt>
      <trkpt lat="43.41784" lon="6.13887">
        <ele>224.81254577637</ele>
        <time>2014-11-19T14:49:11Z</time>
      </trkpt>
      <trkpt lat="43.41782" lon="6.13891">
        <ele>224.80996704102</ele>
        <time>2014-11-19T14:49:12Z</time>
      </trkpt>
      <trkpt lat="43.4178" lon="6.13892">
        <ele>224.98692321777</ele>
        <time>2014-11-19T14:49:13Z</time>
      </trkpt>
      <trkpt lat="43.41772" lon="6.13893">
        <ele>225.61331176758</ele>
        <time>2014-11-19T14:49:15Z</time>
      </trkpt>
      <trkpt lat="43.41765" lon="6.13891">
        <ele>226.43601989746</ele>
        <time>2014-11-19T14:49:17Z</time>
      </trkpt>
      <trkpt lat="43.41759" lon="6.13888">
        <ele>227.19004821777</ele>
        <time>2014-11-19T14:49:19Z</time>
      </trkpt>
      <trkpt lat="43.41757" lon="6.13886">
        <ele>227.52523803711</ele>
        <time>2014-11-19T14:49:20Z</time>
      </trkpt>
      <trkpt lat="43.41755" lon="6.13885">
        <ele>227.84774780273</ele>
        <time>2014-11-19T14:49:21Z</time>
      </trkpt>
      <trkpt lat="43.41752" lon="6.13882">
        <ele>228.32179260254</ele>
        <time>2014-11-19T14:49:23Z</time>
      </trkpt>
      <trkpt lat="43.41751" lon="6.1388">
        <ele>228.47540283203</ele>
        <time>2014-11-19T14:49:24Z</time>
      </trkpt>
      <trkpt lat="43.41751" lon="6.13879">
        <ele>228.59622192383</ele>
        <time>2014-11-19T14:49:25Z</time>
      </trkpt>
      <trkpt lat="43.41751" lon="6.13879">
        <ele>228.56910705566</ele>
        <time>2014-11-19T14:49:27Z</time>
      </trkpt>
      <trkpt lat="43.41751" lon="6.1388">
        <ele>228.59864807129</ele>
        <time>2014-11-19T14:49:29Z</time>
      </trkpt>
      <trkpt lat="43.41751" lon="6.1388">
        <ele>228.55894470215</ele>
        <time>2014-11-19T14:49:31Z</time>
      </trkpt>
      <trkpt lat="43.41751" lon="6.1388">
        <ele>228.55894470215</ele>
        <time>2014-11-19T14:49:36Z</time>
      </trkpt>
      <trkpt lat="43.41751" lon="6.13879">
        <ele>228.56233215332</ele>
        <time>2014-11-19T14:49:46Z</time>
      </trkpt>
      <trkpt lat="43.41751" lon="6.13879">
        <ele>228.56233215332</ele>
        <time>2014-11-19T14:49:49Z</time>
      </trkpt>
      <trkpt lat="43.41751" lon="6.13879">
        <ele>228.56233215332</ele>
        <time>2014-11-19T14:49:53Z</time>
      </trkpt>
      <trkpt lat="43.41751" lon="6.1388">
        <ele>228.55894470215</ele>
        <time>2014-11-19T14:50:51Z</time>
      </trkpt>
      <trkpt lat="43.41751" lon="6.1388">
        <ele>228.55894470215</ele>
        <time>2014-11-19T14:51:15Z</time>
      </trkpt>
      <trkpt lat="43.41751" lon="6.1388">
        <ele>228.55894470215</ele>
        <time>2014-11-19T14:51:25Z</time>
      </trkpt>
      <trkpt lat="43.41751" lon="6.13879">
        <ele>228.60205078125</ele>
        <time>2014-11-19T14:51:27Z</time>
      </trkpt>
      <trkpt lat="43.41751" lon="6.1388">
        <ele>228.59864807129</ele>
        <time>2014-11-19T14:51:29Z</time>
      </trkpt>
      <trkpt lat="43.41751" lon="6.1388">
        <ele>228.55894470215</ele>
        <time>2014-11-19T14:51:31Z</time>
      </trkpt>
      <trkpt lat="43.41751" lon="6.1388">
        <ele>228.55894470215</ele>
        <time>2014-11-19T14:51:37Z</time>
      </trkpt>
      <trkpt lat="43.41751" lon="6.1388">
        <ele>228.55555725098</ele>
        <time>2014-11-19T14:51:43Z</time>
      </trkpt>
      <trkpt lat="43.41751" lon="6.1388">
        <ele>228.55555725098</ele>
        <time>2014-11-19T14:51:49Z</time>
      </trkpt>
      <trkpt lat="43.41751" lon="6.1388">
        <ele>228.55555725098</ele>
        <time>2014-11-19T14:51:54Z</time>
      </trkpt>
      <trkpt lat="43.41751" lon="6.1388">
        <ele>228.55555725098</ele>
        <time>2014-11-19T14:52:05Z</time>
      </trkpt>
      <trkpt lat="43.41751" lon="6.1388">
        <ele>228.55555725098</ele>
        <time>2014-11-19T14:52:13Z</time>
      </trkpt>
      <trkpt lat="43.41751" lon="6.1388">
        <ele>228.53861999512</ele>
        <time>2014-11-19T14:52:15Z</time>
      </trkpt>
      <trkpt lat="43.41751" lon="6.1388">
        <ele>228.53861999512</ele>
        <time>2014-11-19T14:52:17Z</time>
      </trkpt>
      <trkpt lat="43.41751" lon="6.1388">
        <ele>228.50238037109</ele>
        <time>2014-11-19T14:52:19Z</time>
      </trkpt>
      <trkpt lat="43.41751" lon="6.1388">
        <ele>228.50912475586</ele>
        <time>2014-11-19T14:52:25Z</time>
      </trkpt>
      <trkpt lat="43.41751" lon="6.1388">
        <ele>228.51924133301</ele>
        <time>2014-11-19T14:52:33Z</time>
      </trkpt>
      <trkpt lat="43.41751" lon="6.1388">
        <ele>228.51924133301</ele>
        <time>2014-11-19T14:52:39Z</time>
      </trkpt>
      <trkpt lat="43.41751" lon="6.13879">
        <ele>228.52261352539</ele>
        <time>2014-11-19T14:53:01Z</time>
      </trkpt>
      <trkpt lat="43.41751" lon="6.13879">
        <ele>228.56910705566</ele>
        <time>2014-11-19T14:53:03Z</time>
      </trkpt>
      <trkpt lat="43.41751" lon="6.13879">
        <ele>228.57588195801</ele>
        <time>2014-11-19T14:53:05Z</time>
      </trkpt>
      <trkpt lat="43.41751" lon="6.13879">
        <ele>228.66331481934</ele>
        <time>2014-11-19T14:53:07Z</time>
      </trkpt>
      <trkpt lat="43.41751" lon="6.13878">
        <ele>228.73820495606</ele>
        <time>2014-11-19T14:53:09Z</time>
      </trkpt>
      <trkpt lat="43.41751" lon="6.13876">
        <ele>228.82998657227</ele>
        <time>2014-11-19T14:53:11Z</time>
      </trkpt>
      <trkpt lat="43.41752" lon="6.13873">
        <ele>228.87748718262</ele>
        <time>2014-11-19T14:53:13Z</time>
      </trkpt>
      <trkpt lat="43.41753" lon="6.1387">
        <ele>229.04878234863</ele>
        <time>2014-11-19T14:53:15Z</time>
      </trkpt>
      <trkpt lat="43.41755" lon="6.13866">
        <ele>229.1203918457</ele>
        <time>2014-11-19T14:53:17Z</time>
      </trkpt>
      <trkpt lat="43.41756" lon="6.13862">
        <ele>229.19108581543</ele>
        <time>2014-11-19T14:53:19Z</time>
      </trkpt>
      <trkpt lat="43.41758" lon="6.13857">
        <ele>229.39134216309</ele>
        <time>2014-11-19T14:53:21Z</time>
      </trkpt>
      <trkpt lat="43.41759" lon="6.13854">
        <ele>229.41543579102</ele>
        <time>2014-11-19T14:53:22Z</time>
      </trkpt>
      <trkpt lat="43.4176" lon="6.1385">
        <ele>229.50706481934</ele>
        <time>2014-11-19T14:53:23Z</time>
      </trkpt>
      <trkpt lat="43.41761" lon="6.13843">
        <ele>229.73635864258</ele>
        <time>2014-11-19T14:53:25Z</time>
      </trkpt>
      <trkpt lat="43.41766" lon="6.13831">
        <ele>229.99467468262</ele>
        <time>2014-11-19T14:53:29Z</time>
      </trkpt>
      <trkpt lat="43.41768" lon="6.13824">
        <ele>230.36419677734</ele>
        <time>2014-11-19T14:53:31Z</time>
      </trkpt>
      <trkpt lat="43.41769" lon="6.13817">
        <ele>230.83715820312</ele>
        <time>2014-11-19T14:53:33Z</time>
      </trkpt>
      <trkpt lat="43.41771" lon="6.1381">
        <ele>231.23048400879</ele>
        <time>2014-11-19T14:53:35Z</time>
      </trkpt>
      <trkpt lat="43.41772" lon="6.13807">
        <ele>231.34509277344</ele>
        <time>2014-11-19T14:53:36Z</time>
      </trkpt>
      <trkpt lat="43.41773" lon="6.13803">
        <ele>231.5343170166</ele>
        <time>2014-11-19T14:53:37Z</time>
      </trkpt>
      <trkpt lat="43.41775" lon="6.13797">
        <ele>231.73980712891</ele>
        <time>2014-11-19T14:53:39Z</time>
      </trkpt>
      <trkpt lat="43.41777" lon="6.13791">
        <ele>231.87382507324</ele>
        <time>2014-11-19T14:53:41Z</time>
      </trkpt>
      <trkpt lat="43.41779" lon="6.13784">
        <ele>232.05075073242</ele>
        <time>2014-11-19T14:53:43Z</time>
      </trkpt>
      <trkpt lat="43.41787" lon="6.13774">
        <ele>231.15490722656</ele>
        <time>2014-11-19T14:53:47Z</time>
      </trkpt>
      <trkpt lat="43.41792" lon="6.13771">
        <ele>230.02786254883</ele>
        <time>2014-11-19T14:53:49Z</time>
      </trkpt>
      <trkpt lat="43.41797" lon="6.13765">
        <ele>229.18791198731</ele>
        <time>2014-11-19T14:53:51Z</time>
      </trkpt>
      <trkpt lat="43.41798" lon="6.13761">
        <ele>229.15823364258</ele>
        <time>2014-11-19T14:53:52Z</time>
      </trkpt>
      <trkpt lat="43.41801" lon="6.13744">
        <ele>229.30274963379</ele>
        <time>2014-11-19T14:53:55Z</time>
      </trkpt>
      <trkpt lat="43.41802" lon="6.13732">
        <ele>229.42581176758</ele>
        <time>2014-11-19T14:53:57Z</time>
      </trkpt>
      <trkpt lat="43.41803" lon="6.13726">
        <ele>229.35589599609</ele>
        <time>2014-11-19T14:53:58Z</time>
      </trkpt>
      <trkpt lat="43.41805" lon="6.1372">
        <ele>229.28509521484</ele>
        <time>2014-11-19T14:53:59Z</time>
      </trkpt>
      <trkpt lat="43.41806" lon="6.13709">
        <ele>229.31016540527</ele>
        <time>2014-11-19T14:54:01Z</time>
      </trkpt>
      <trkpt lat="43.41807" lon="6.13704">
        <ele>229.30543518066</ele>
        <time>2014-11-19T14:54:02Z</time>
      </trkpt>
      <trkpt lat="43.41808" lon="6.13698">
        <ele>229.30909729004</ele>
        <time>2014-11-19T14:54:03Z</time>
      </trkpt>
      <trkpt lat="43.41808" lon="6.13693">
        <ele>229.53842163086</ele>
        <time>2014-11-19T14:54:04Z</time>
      </trkpt>
      <trkpt lat="43.4181" lon="6.13681">
        <ele>229.30055236816</ele>
        <time>2014-11-19T14:54:06Z</time>
      </trkpt>
      <trkpt lat="43.41812" lon="6.13675">
        <ele>228.92274475098</ele>
        <time>2014-11-19T14:54:07Z</time>
      </trkpt>
      <trkpt lat="43.41817" lon="6.13663">
        <ele>227.55493164062</ele>
        <time>2014-11-19T14:54:09Z</time>
      </trkpt>
      <trkpt lat="43.4182" lon="6.13659">
        <ele>226.65643310547</ele>
        <time>2014-11-19T14:54:10Z</time>
      </trkpt>
      <trkpt lat="43.41825" lon="6.13654">
        <ele>225.22509765625</ele>
        <time>2014-11-19T14:54:11Z</time>
      </trkpt>
      <trkpt lat="43.41831" lon="6.13644">
        <ele>223.40692138672</ele>
        <time>2014-11-19T14:54:13Z</time>
      </trkpt>
      <trkpt lat="43.41832" lon="6.1363">
        <ele>223.49490356445</ele>
        <time>2014-11-19T14:54:15Z</time>
      </trkpt>
      <trkpt lat="43.41832" lon="6.13622">
        <ele>223.67834472656</ele>
        <time>2014-11-19T14:54:16Z</time>
      </trkpt>
      <trkpt lat="43.41833" lon="6.13614">
        <ele>223.24765014648</ele>
        <time>2014-11-19T14:54:17Z</time>
      </trkpt>
      <trkpt lat="43.41838" lon="6.13604">
        <ele>223.29138183594</ele>
        <time>2014-11-19T14:54:19Z</time>
      </trkpt>
      <trkpt lat="43.41842" lon="6.13594">
        <ele>223.36836242676</ele>
        <time>2014-11-19T14:54:21Z</time>
      </trkpt>
      <trkpt lat="43.41845" lon="6.13588">
        <ele>223.31986999512</ele>
        <time>2014-11-19T14:54:23Z</time>
      </trkpt>
      <trkpt lat="43.41847" lon="6.13586">
        <ele>223.3006439209</ele>
        <time>2014-11-19T14:54:24Z</time>
      </trkpt>
      <trkpt lat="43.41848" lon="6.13583">
        <ele>223.27836608887</ele>
        <time>2014-11-19T14:54:25Z</time>
      </trkpt>
      <trkpt lat="43.41852" lon="6.13579">
        <ele>223.30056762695</ele>
        <time>2014-11-19T14:54:27Z</time>
      </trkpt>
      <trkpt lat="43.41855" lon="6.13575">
        <ele>223.28263854981</ele>
        <time>2014-11-19T14:54:29Z</time>
      </trkpt>
      <trkpt lat="43.41859" lon="6.1357">
        <ele>223.26275634766</ele>
        <time>2014-11-19T14:54:31Z</time>
      </trkpt>
      <trkpt lat="43.41862" lon="6.13562">
        <ele>223.39060974121</ele>
        <time>2014-11-19T14:54:33Z</time>
      </trkpt>
      <trkpt lat="43.41863" lon="6.13557">
        <ele>223.50337219238</ele>
        <time>2014-11-19T14:54:34Z</time>
      </trkpt>
      <trkpt lat="43.41864" lon="6.13551">
        <ele>223.64926147461</ele>
        <time>2014-11-19T14:54:35Z</time>
      </trkpt>
      <trkpt lat="43.41866" lon="6.13538">
        <ele>223.94047546387</ele>
        <time>2014-11-19T14:54:37Z</time>
      </trkpt>
      <trkpt lat="43.41869" lon="6.13525">
        <ele>224.22506713867</ele>
        <time>2014-11-19T14:54:39Z</time>
      </trkpt>
      <trkpt lat="43.41871" lon="6.13511">
        <ele>224.5089263916</ele>
        <time>2014-11-19T14:54:41Z</time>
      </trkpt>
      <trkpt lat="43.41875" lon="6.13482">
        <ele>224.89109802246</ele>
        <time>2014-11-19T14:54:45Z</time>
      </trkpt>
      <trkpt lat="43.41879" lon="6.13467">
        <ele>224.84620666504</ele>
        <time>2014-11-19T14:54:47Z</time>
      </trkpt>
      <trkpt lat="43.41883" lon="6.13453">
        <ele>224.69636535644</ele>
        <time>2014-11-19T14:54:49Z</time>
      </trkpt>
      <trkpt lat="43.41886" lon="6.13445">
        <ele>224.57904052734</ele>
        <time>2014-11-19T14:54:50Z</time>
      </trkpt>
      <trkpt lat="43.41888" lon="6.13437">
        <ele>224.49360656738</ele>
        <time>2014-11-19T14:54:51Z</time>
      </trkpt>
      <trkpt lat="43.4189" lon="6.1342">
        <ele>224.42144775391</ele>
        <time>2014-11-19T14:54:53Z</time>
      </trkpt>
      <trkpt lat="43.41892" lon="6.13404">
        <ele>224.31587219238</ele>
        <time>2014-11-19T14:54:55Z</time>
      </trkpt>
      <trkpt lat="43.41894" lon="6.13388">
        <ele>224.15803527832</ele>
        <time>2014-11-19T14:54:57Z</time>
      </trkpt>
      <trkpt lat="43.41895" lon="6.13372">
        <ele>224.09820556641</ele>
        <time>2014-11-19T14:54:59Z</time>
      </trkpt>
      <trkpt lat="43.41895" lon="6.13357">
        <ele>224.24671936035</ele>
        <time>2014-11-19T14:55:01Z</time>
      </trkpt>
      <trkpt lat="43.41882" lon="6.13332">
        <ele>226.35408020019</ele>
        <time>2014-11-19T14:55:05Z</time>
      </trkpt>
      <trkpt lat="43.41881" lon="6.13317">
        <ele>226.50741577148</ele>
        <time>2014-11-19T14:55:07Z</time>
      </trkpt>
      <trkpt lat="43.41883" lon="6.13306">
        <ele>226.23629760742</ele>
        <time>2014-11-19T14:55:09Z</time>
      </trkpt>
      <trkpt lat="43.41883" lon="6.13301">
        <ele>226.09954833984</ele>
        <time>2014-11-19T14:55:10Z</time>
      </trkpt>
      <trkpt lat="43.41884" lon="6.13296">
        <ele>225.96109008789</ele>
        <time>2014-11-19T14:55:11Z</time>
      </trkpt>
      <trkpt lat="43.41882" lon="6.13288">
        <ele>226.32566833496</ele>
        <time>2014-11-19T14:55:13Z</time>
      </trkpt>
      <trkpt lat="43.41879" lon="6.13279">
        <ele>226.83222961426</ele>
        <time>2014-11-19T14:55:15Z</time>
      </trkpt>
      <trkpt lat="43.41877" lon="6.13271">
        <ele>227.1549987793</ele>
        <time>2014-11-19T14:55:17Z</time>
      </trkpt>
      <trkpt lat="43.41877" lon="6.13266">
        <ele>227.15197753906</ele>
        <time>2014-11-19T14:55:19Z</time>
      </trkpt>
      <trkpt lat="43.41878" lon="6.1326">
        <ele>226.9462890625</ele>
        <time>2014-11-19T14:55:21Z</time>
      </trkpt>
      <trkpt lat="43.4188" lon="6.13253">
        <ele>226.59822082519</ele>
        <time>2014-11-19T14:55:23Z</time>
      </trkpt>
      <trkpt lat="43.41881" lon="6.13249">
        <ele>226.39866638184</ele>
        <time>2014-11-19T14:55:24Z</time>
      </trkpt>
      <trkpt lat="43.41883" lon="6.13245">
        <ele>226.16596984863</ele>
        <time>2014-11-19T14:55:25Z</time>
      </trkpt>
      <trkpt lat="43.41884" lon="6.13234">
        <ele>225.98471069336</ele>
        <time>2014-11-19T14:55:27Z</time>
      </trkpt>
      <trkpt lat="43.41886" lon="6.13223">
        <ele>225.73045349121</ele>
        <time>2014-11-19T14:55:29Z</time>
      </trkpt>
      <trkpt lat="43.41888" lon="6.13212">
        <ele>225.54000854492</ele>
        <time>2014-11-19T14:55:31Z</time>
      </trkpt>
      <trkpt lat="43.41889" lon="6.132">
        <ele>225.34475708008</ele>
        <time>2014-11-19T14:55:33Z</time>
      </trkpt>
      <trkpt lat="43.4189" lon="6.13188">
        <ele>225.2887878418</ele>
        <time>2014-11-19T14:55:35Z</time>
      </trkpt>
      <trkpt lat="43.4189" lon="6.13173">
        <ele>225.32427978516</ele>
        <time>2014-11-19T14:55:37Z</time>
      </trkpt>
      <trkpt lat="43.4189" lon="6.13157">
        <ele>225.56523132324</ele>
        <time>2014-11-19T14:55:39Z</time>
      </trkpt>
      <trkpt lat="43.41889" lon="6.13141">
        <ele>225.78430175781</ele>
        <time>2014-11-19T14:55:41Z</time>
      </trkpt>
      <trkpt lat="43.41888" lon="6.13126">
        <ele>225.92652893066</ele>
        <time>2014-11-19T14:55:43Z</time>
      </trkpt>
      <trkpt lat="43.41887" lon="6.1311">
        <ele>226.23510742188</ele>
        <time>2014-11-19T14:55:45Z</time>
      </trkpt>
      <trkpt lat="43.41887" lon="6.13094">
        <ele>226.30290222168</ele>
        <time>2014-11-19T14:55:47Z</time>
      </trkpt>
      <trkpt lat="43.41888" lon="6.13078">
        <ele>226.33572387695</ele>
        <time>2014-11-19T14:55:49Z</time>
      </trkpt>
      <trkpt lat="43.41889" lon="6.13062">
        <ele>226.27221679688</ele>
        <time>2014-11-19T14:55:51Z</time>
      </trkpt>
      <trkpt lat="43.41892" lon="6.13046">
        <ele>225.7578125</ele>
        <time>2014-11-19T14:55:53Z</time>
      </trkpt>
      <trkpt lat="43.41897" lon="6.1303">
        <ele>224.74163818359</ele>
        <time>2014-11-19T14:55:55Z</time>
      </trkpt>
      <trkpt lat="43.41902" lon="6.13013">
        <ele>223.66723632812</ele>
        <time>2014-11-19T14:55:57Z</time>
      </trkpt>
      <trkpt lat="43.41903" lon="6.13004">
        <ele>223.34477233887</ele>
        <time>2014-11-19T14:55:58Z</time>
      </trkpt>
      <trkpt lat="43.41904" lon="6.12995">
        <ele>223.1491394043</ele>
        <time>2014-11-19T14:55:59Z</time>
      </trkpt>
      <trkpt lat="43.41903" lon="6.1298">
        <ele>223.27954101562</ele>
        <time>2014-11-19T14:56:01Z</time>
      </trkpt>
      <trkpt lat="43.41904" lon="6.12974">
        <ele>222.94981384277</ele>
        <time>2014-11-19T14:56:02Z</time>
      </trkpt>
      <trkpt lat="43.41906" lon="6.12969">
        <ele>222.51155090332</ele>
        <time>2014-11-19T14:56:03Z</time>
      </trkpt>
      <trkpt lat="43.41907" lon="6.12965">
        <ele>222.17526245117</ele>
        <time>2014-11-19T14:56:04Z</time>
      </trkpt>
      <trkpt lat="43.41908" lon="6.12961">
        <ele>221.837890625</ele>
        <time>2014-11-19T14:56:05Z</time>
      </trkpt>
      <trkpt lat="43.41909" lon="6.12958">
        <ele>221.60563659668</ele>
        <time>2014-11-19T14:56:06Z</time>
      </trkpt>
      <trkpt lat="43.4191" lon="6.12955">
        <ele>221.26748657227</ele>
        <time>2014-11-19T14:56:07Z</time>
      </trkpt>
      <trkpt lat="43.41911" lon="6.12952">
        <ele>221.1368560791</ele>
        <time>2014-11-19T14:56:09Z</time>
      </trkpt>
      <trkpt lat="43.41911" lon="6.12953">
        <ele>221.13928222656</ele>
        <time>2014-11-19T14:56:10Z</time>
      </trkpt>
      <trkpt lat="43.41911" lon="6.12953">
        <ele>221.13969421387</ele>
        <time>2014-11-19T14:56:11Z</time>
      </trkpt>
      <trkpt lat="43.41911" lon="6.12953">
        <ele>221.13969421387</ele>
        <time>2014-11-19T14:56:13Z</time>
      </trkpt>
      <trkpt lat="43.41911" lon="6.12953">
        <ele>221.13928222656</ele>
        <time>2014-11-19T14:56:15Z</time>
      </trkpt>
      <trkpt lat="43.41911" lon="6.12953">
        <ele>221.13928222656</ele>
        <time>2014-11-19T14:56:19Z</time>
      </trkpt>
      <trkpt lat="43.41911" lon="6.12953">
        <ele>221.03276062012</ele>
        <time>2014-11-19T14:56:21Z</time>
      </trkpt>
      <trkpt lat="43.41911" lon="6.12952">
        <ele>220.9245300293</ele>
        <time>2014-11-19T14:56:23Z</time>
      </trkpt>
      <trkpt lat="43.41911" lon="6.12952">
        <ele>220.9241027832</ele>
        <time>2014-11-19T14:56:25Z</time>
      </trkpt>
      <trkpt lat="43.41911" lon="6.12952">
        <ele>220.9241027832</ele>
        <time>2014-11-19T14:56:29Z</time>
      </trkpt>
      <trkpt lat="43.41911" lon="6.12952">
        <ele>220.92324829102</ele>
        <time>2014-11-19T14:56:31Z</time>
      </trkpt>
      <trkpt lat="43.41911" lon="6.12952">
        <ele>220.91815185547</ele>
        <time>2014-11-19T14:56:39Z</time>
      </trkpt>
      <trkpt lat="43.41911" lon="6.12952">
        <ele>220.91856384277</ele>
        <time>2014-11-19T14:56:41Z</time>
      </trkpt>
      <trkpt lat="43.41911" lon="6.12952">
        <ele>220.92282104492</ele>
        <time>2014-11-19T14:56:47Z</time>
      </trkpt>
      <trkpt lat="43.41911" lon="6.12952">
        <ele>220.92324829102</ele>
        <time>2014-11-19T14:56:49Z</time>
      </trkpt>
      <trkpt lat="43.41911" lon="6.12952">
        <ele>221.02986145019</ele>
        <time>2014-11-19T14:56:51Z</time>
      </trkpt>
      <trkpt lat="43.41911" lon="6.12952">
        <ele>220.92239379883</ele>
        <time>2014-11-19T14:56:59Z</time>
      </trkpt>
      <trkpt lat="43.41911" lon="6.12952">
        <ele>220.92196655273</ele>
        <time>2014-11-19T14:57:01Z</time>
      </trkpt>
      <trkpt lat="43.41911" lon="6.12952">
        <ele>220.91815185547</ele>
        <time>2014-11-19T14:57:05Z</time>
      </trkpt>
      <trkpt lat="43.41911" lon="6.12952">
        <ele>220.91772460938</ele>
        <time>2014-11-19T14:57:07Z</time>
      </trkpt>
      <trkpt lat="43.41911" lon="6.12952">
        <ele>221.02819824219</ele>
        <time>2014-11-19T14:57:09Z</time>
      </trkpt>
      <trkpt lat="43.4191" lon="6.12951">
        <ele>221.3427734375</ele>
        <time>2014-11-19T14:57:11Z</time>
      </trkpt>
      <trkpt lat="43.41909" lon="6.12951">
        <ele>221.44844055176</ele>
        <time>2014-11-19T14:57:13Z</time>
      </trkpt>
      <trkpt lat="43.41909" lon="6.12951">
        <ele>221.44882202148</ele>
        <time>2014-11-19T14:57:15Z</time>
      </trkpt>
      <trkpt lat="43.41909" lon="6.12951">
        <ele>221.44882202148</ele>
        <time>2014-11-19T14:57:17Z</time>
      </trkpt>
      <trkpt lat="43.41909" lon="6.12951">
        <ele>221.44844055176</ele>
        <time>2014-11-19T14:57:23Z</time>
      </trkpt>
      <trkpt lat="43.41909" lon="6.12951">
        <ele>221.44807434082</ele>
        <time>2014-11-19T14:57:29Z</time>
      </trkpt>
      <trkpt lat="43.41909" lon="6.12951">
        <ele>221.44807434082</ele>
        <time>2014-11-19T14:57:37Z</time>
      </trkpt>
      <trkpt lat="43.41909" lon="6.12951">
        <ele>221.44844055176</ele>
        <time>2014-11-19T14:57:43Z</time>
      </trkpt>
      <trkpt lat="43.41909" lon="6.12951">
        <ele>221.44882202148</ele>
        <time>2014-11-19T14:57:53Z</time>
      </trkpt>
      <trkpt lat="43.41909" lon="6.12951">
        <ele>221.44844055176</ele>
        <time>2014-11-19T14:58:01Z</time>
      </trkpt>
      <trkpt lat="43.41909" lon="6.12951">
        <ele>221.44844055176</ele>
        <time>2014-11-19T14:58:07Z</time>
      </trkpt>
      <trkpt lat="43.41909" lon="6.12951">
        <ele>221.44918823242</ele>
        <time>2014-11-19T14:59:12Z</time>
      </trkpt>
      <trkpt lat="43.41909" lon="6.12951">
        <ele>221.44956970215</ele>
        <time>2014-11-19T14:59:14Z</time>
      </trkpt>
      <trkpt lat="43.41909" lon="6.12951">
        <ele>221.44956970215</ele>
        <time>2014-11-19T14:59:20Z</time>
      </trkpt>
      <trkpt lat="43.41909" lon="6.12952">
        <ele>221.45030212402</ele>
        <time>2014-11-19T15:02:20Z</time>
      </trkpt>
      <trkpt lat="43.41909" lon="6.12952">
        <ele>221.44993591309</ele>
        <time>2014-11-19T15:02:28Z</time>
      </trkpt>
      <trkpt lat="43.41909" lon="6.12952">
        <ele>221.44993591309</ele>
        <time>2014-11-19T15:02:44Z</time>
      </trkpt>
      <trkpt lat="43.41909" lon="6.12951">
        <ele>221.44956970215</ele>
        <time>2014-11-19T15:02:46Z</time>
      </trkpt>
      <trkpt lat="43.41909" lon="6.12951">
        <ele>221.44956970215</ele>
        <time>2014-11-19T15:02:51Z</time>
      </trkpt>
      <trkpt lat="43.41909" lon="6.12951">
        <ele>221.44918823242</ele>
        <time>2014-11-19T15:03:06Z</time>
      </trkpt>
      <trkpt lat="43.41909" lon="6.12951">
        <ele>221.44956970215</ele>
        <time>2014-11-19T15:03:08Z</time>
      </trkpt>
      <trkpt lat="43.4191" lon="6.1295">
        <ele>221.33395385742</ele>
        <time>2014-11-19T15:03:10Z</time>
      </trkpt>
      <trkpt lat="43.41911" lon="6.12946">
        <ele>221.08229064941</ele>
        <time>2014-11-19T15:03:12Z</time>
      </trkpt>
      <trkpt lat="43.41911" lon="6.1294">
        <ele>221.03295898438</ele>
        <time>2014-11-19T15:03:14Z</time>
      </trkpt>
      <trkpt lat="43.41911" lon="6.12933">
        <ele>220.9747467041</ele>
        <time>2014-11-19T15:03:16Z</time>
      </trkpt>
      <trkpt lat="43.41911" lon="6.12921">
        <ele>220.76109313965</ele>
        <time>2014-11-19T15:03:19Z</time>
      </trkpt>
      <trkpt lat="43.41912" lon="6.12917">
        <ele>220.49726867676</ele>
        <time>2014-11-19T15:03:20Z</time>
      </trkpt>
      <trkpt lat="43.41913" lon="6.12907">
        <ele>220.26083374023</ele>
        <time>2014-11-19T15:03:22Z</time>
      </trkpt>
      <trkpt lat="43.41915" lon="6.12896">
        <ele>219.8288269043</ele>
        <time>2014-11-19T15:03:24Z</time>
      </trkpt>
      <trkpt lat="43.41915" lon="6.12889">
        <ele>219.90319824219</ele>
        <time>2014-11-19T15:03:25Z</time>
      </trkpt>
      <trkpt lat="43.41915" lon="6.12883">
        <ele>219.98045349121</ele>
        <time>2014-11-19T15:03:26Z</time>
      </trkpt>
      <trkpt lat="43.41915" lon="6.1287">
        <ele>220.02165222168</ele>
        <time>2014-11-19T15:03:28Z</time>
      </trkpt>
      <trkpt lat="43.41916" lon="6.12856">
        <ele>220.06971740723</ele>
        <time>2014-11-19T15:03:30Z</time>
      </trkpt>
      <trkpt lat="43.41916" lon="6.12843">
        <ele>219.99819946289</ele>
        <time>2014-11-19T15:03:32Z</time>
      </trkpt>
      <trkpt lat="43.41917" lon="6.1283">
        <ele>220.13056945801</ele>
        <time>2014-11-19T15:03:34Z</time>
      </trkpt>
      <trkpt lat="43.41916" lon="6.12804">
        <ele>220.92990112305</ele>
        <time>2014-11-19T15:03:38Z</time>
      </trkpt>
      <trkpt lat="43.41918" lon="6.12778">
        <ele>221.30795288086</ele>
        <time>2014-11-19T15:03:42Z</time>
      </trkpt>
      <trkpt lat="43.41918" lon="6.12764">
        <ele>221.59104919434</ele>
        <time>2014-11-19T15:03:44Z</time>
      </trkpt>
      <trkpt lat="43.41918" lon="6.12758">
        <ele>221.74609375</ele>
        <time>2014-11-19T15:03:45Z</time>
      </trkpt>
      <trkpt lat="43.41918" lon="6.12753">
        <ele>221.86291503906</ele>
        <time>2014-11-19T15:03:46Z</time>
      </trkpt>
      <trkpt lat="43.41917" lon="6.12742">
        <ele>222.0320892334</ele>
        <time>2014-11-19T15:03:48Z</time>
      </trkpt>
      <trkpt lat="43.41919" lon="6.12732">
        <ele>222.01885986328</ele>
        <time>2014-11-19T15:03:50Z</time>
      </trkpt>
      <trkpt lat="43.4192" lon="6.12727">
        <ele>221.92561340332</ele>
        <time>2014-11-19T15:03:51Z</time>
      </trkpt>
      <trkpt lat="43.4192" lon="6.12723">
        <ele>221.85699462891</ele>
        <time>2014-11-19T15:03:52Z</time>
      </trkpt>
      <trkpt lat="43.41924" lon="6.12714">
        <ele>221.3708190918</ele>
        <time>2014-11-19T15:03:54Z</time>
      </trkpt>
      <trkpt lat="43.41928" lon="6.12705">
        <ele>220.69387817383</ele>
        <time>2014-11-19T15:03:56Z</time>
      </trkpt>
      <trkpt lat="43.41933" lon="6.12695">
        <ele>219.85052490234</ele>
        <time>2014-11-19T15:03:58Z</time>
      </trkpt>
      <trkpt lat="43.41936" lon="6.12683">
        <ele>218.97003173828</ele>
        <time>2014-11-19T15:04:00Z</time>
      </trkpt>
      <trkpt lat="43.41939" lon="6.12671">
        <ele>217.98674011231</ele>
        <time>2014-11-19T15:04:02Z</time>
      </trkpt>
      <trkpt lat="43.41943" lon="6.12659">
        <ele>216.85144042969</ele>
        <time>2014-11-19T15:04:04Z</time>
      </trkpt>
      <trkpt lat="43.41947" lon="6.12647">
        <ele>215.638671875</ele>
        <time>2014-11-19T15:04:06Z</time>
      </trkpt>
      <trkpt lat="43.41951" lon="6.12636">
        <ele>214.4108581543</ele>
        <time>2014-11-19T15:04:08Z</time>
      </trkpt>
      <trkpt lat="43.41955" lon="6.12626">
        <ele>213.37298583984</ele>
        <time>2014-11-19T15:04:10Z</time>
      </trkpt>
      <trkpt lat="43.41957" lon="6.12619">
        <ele>212.75312805176</ele>
        <time>2014-11-19T15:04:12Z</time>
      </trkpt>
      <trkpt lat="43.41958" lon="6.12614">
        <ele>212.2529296875</ele>
        <time>2014-11-19T15:04:14Z</time>
      </trkpt>
      <trkpt lat="43.4196" lon="6.1261">
        <ele>211.69425964356</ele>
        <time>2014-11-19T15:04:16Z</time>
      </trkpt>
      <trkpt lat="43.41962" lon="6.12606">
        <ele>211.2345123291</ele>
        <time>2014-11-19T15:04:18Z</time>
      </trkpt>
      <trkpt lat="43.41963" lon="6.12604">
        <ele>210.80682373047</ele>
        <time>2014-11-19T15:04:19Z</time>
      </trkpt>
      <trkpt lat="43.41968" lon="6.12594">
        <ele>209.40823364258</ele>
        <time>2014-11-19T15:04:22Z</time>
      </trkpt>
      <trkpt lat="43.41971" lon="6.12583">
        <ele>208.35517883301</ele>
        <time>2014-11-19T15:04:24Z</time>
      </trkpt>
      <trkpt lat="43.41973" lon="6.1257">
        <ele>207.92630004883</ele>
        <time>2014-11-19T15:04:26Z</time>
      </trkpt>
      <trkpt lat="43.41973" lon="6.12563">
        <ele>207.86064147949</ele>
        <time>2014-11-19T15:04:27Z</time>
      </trkpt>
      <trkpt lat="43.41974" lon="6.12557">
        <ele>207.70182800293</ele>
        <time>2014-11-19T15:04:28Z</time>
      </trkpt>
      <trkpt lat="43.41975" lon="6.1255">
        <ele>207.45472717285</ele>
        <time>2014-11-19T15:04:29Z</time>
      </trkpt>
      <trkpt lat="43.41978" lon="6.12544">
        <ele>206.83827209473</ele>
        <time>2014-11-19T15:04:30Z</time>
      </trkpt>
      <trkpt lat="43.41984" lon="6.12535">
        <ele>205.44119262695</ele>
        <time>2014-11-19T15:04:32Z</time>
      </trkpt>
      <trkpt lat="43.41989" lon="6.12526">
        <ele>204.3342590332</ele>
        <time>2014-11-19T15:04:34Z</time>
      </trkpt>
      <trkpt lat="43.41993" lon="6.12519">
        <ele>203.3328704834</ele>
        <time>2014-11-19T15:04:36Z</time>
      </trkpt>
      <trkpt lat="43.41998" lon="6.1251">
        <ele>202.27661132812</ele>
        <time>2014-11-19T15:04:38Z</time>
      </trkpt>
      <trkpt lat="43.42004" lon="6.12502">
        <ele>201.9481048584</ele>
        <time>2014-11-19T15:04:40Z</time>
      </trkpt>
      <trkpt lat="43.42006" lon="6.12497">
        <ele>202.02278137207</ele>
        <time>2014-11-19T15:04:41Z</time>
      </trkpt>
      <trkpt lat="43.42012" lon="6.12478">
        <ele>202.4489440918</ele>
        <time>2014-11-19T15:04:44Z</time>
      </trkpt>
      <trkpt lat="43.42015" lon="6.12464">
        <ele>202.73518371582</ele>
        <time>2014-11-19T15:04:46Z</time>
      </trkpt>
      <trkpt lat="43.42016" lon="6.12456">
        <ele>202.89012145996</ele>
        <time>2014-11-19T15:04:47Z</time>
      </trkpt>
      <trkpt lat="43.42017" lon="6.1245">
        <ele>202.97817993164</ele>
        <time>2014-11-19T15:04:48Z</time>
      </trkpt>
      <trkpt lat="43.4202" lon="6.12443">
        <ele>202.99822998047</ele>
        <time>2014-11-19T15:04:49Z</time>
      </trkpt>
      <trkpt lat="43.42023" lon="6.12436">
        <ele>202.96481323242</ele>
        <time>2014-11-19T15:04:50Z</time>
      </trkpt>
      <trkpt lat="43.42026" lon="6.1243">
        <ele>202.89552307129</ele>
        <time>2014-11-19T15:04:51Z</time>
      </trkpt>
      <trkpt lat="43.42028" lon="6.12424">
        <ele>202.84538269043</ele>
        <time>2014-11-19T15:04:52Z</time>
      </trkpt>
      <trkpt lat="43.42034" lon="6.12411">
        <ele>202.50094604492</ele>
        <time>2014-11-19T15:04:54Z</time>
      </trkpt>
      <trkpt lat="43.42037" lon="6.12404">
        <ele>202.23968505859</ele>
        <time>2014-11-19T15:04:55Z</time>
      </trkpt>
      <trkpt lat="43.42041" lon="6.124">
        <ele>201.94244384766</ele>
        <time>2014-11-19T15:04:56Z</time>
      </trkpt>
      <trkpt lat="43.42051" lon="6.12381">
        <ele>201.16850280762</ele>
        <time>2014-11-19T15:04:59Z</time>
      </trkpt>
      <trkpt lat="43.42054" lon="6.12376">
        <ele>200.91464233398</ele>
        <time>2014-11-19T15:05:00Z</time>
      </trkpt>
      <trkpt lat="43.42062" lon="6.12365">
        <ele>200.37620544434</ele>
        <time>2014-11-19T15:05:02Z</time>
      </trkpt>
      <trkpt lat="43.42066" lon="6.12359">
        <ele>200.09237670898</ele>
        <time>2014-11-19T15:05:03Z</time>
      </trkpt>
      <trkpt lat="43.4207" lon="6.12354">
        <ele>199.86303710938</ele>
        <time>2014-11-19T15:05:04Z</time>
      </trkpt>
      <trkpt lat="43.42076" lon="6.12344">
        <ele>199.46800231934</ele>
        <time>2014-11-19T15:05:06Z</time>
      </trkpt>
      <trkpt lat="43.42081" lon="6.12335">
        <ele>199.15943908691</ele>
        <time>2014-11-19T15:05:08Z</time>
      </trkpt>
      <trkpt lat="43.42081" lon="6.12333">
        <ele>199.12992858887</ele>
        <time>2014-11-19T15:05:09Z</time>
      </trkpt>
      <trkpt lat="43.42081" lon="6.1233">
        <ele>199.09492492676</ele>
        <time>2014-11-19T15:05:10Z</time>
      </trkpt>
      <trkpt lat="43.42082" lon="6.12326">
        <ele>199.00480651856</ele>
        <time>2014-11-19T15:05:12Z</time>
      </trkpt>
      <trkpt lat="43.42082" lon="6.12325">
        <ele>198.9609375</ele>
        <time>2014-11-19T15:05:14Z</time>
      </trkpt>
      <trkpt lat="43.42082" lon="6.12324">
        <ele>198.95623779297</ele>
        <time>2014-11-19T15:05:16Z</time>
      </trkpt>
      <trkpt lat="43.42081" lon="6.12324">
        <ele>198.99226379394</ele>
        <time>2014-11-19T15:05:18Z</time>
      </trkpt>
      <trkpt lat="43.42081" lon="6.12323">
        <ele>198.9826965332</ele>
        <time>2014-11-19T15:05:20Z</time>
      </trkpt>
      <trkpt lat="43.42081" lon="6.12321">
        <ele>198.9963684082</ele>
        <time>2014-11-19T15:05:22Z</time>
      </trkpt>
      <trkpt lat="43.42078" lon="6.12319">
        <ele>199.10675048828</ele>
        <time>2014-11-19T15:05:24Z</time>
      </trkpt>
      <trkpt lat="43.42076" lon="6.12318">
        <ele>199.23448181152</ele>
        <time>2014-11-19T15:05:26Z</time>
      </trkpt>
      <trkpt lat="43.42072" lon="6.12315">
        <ele>199.40827941894</ele>
        <time>2014-11-19T15:05:28Z</time>
      </trkpt>
      <trkpt lat="43.42067" lon="6.12312">
        <ele>199.62895202637</ele>
        <time>2014-11-19T15:05:30Z</time>
      </trkpt>
      <trkpt lat="43.42062" lon="6.12309">
        <ele>199.83224487305</ele>
        <time>2014-11-19T15:05:32Z</time>
      </trkpt>
      <trkpt lat="43.4206" lon="6.12307">
        <ele>199.91923522949</ele>
        <time>2014-11-19T15:05:33Z</time>
      </trkpt>
      <trkpt lat="43.42058" lon="6.12304">
        <ele>199.97297668457</ele>
        <time>2014-11-19T15:05:34Z</time>
      </trkpt>
      <trkpt lat="43.42049" lon="6.12295">
        <ele>200.20634460449</ele>
        <time>2014-11-19T15:05:38Z</time>
      </trkpt>
      <trkpt lat="43.42045" lon="6.12283">
        <ele>200.12062072754</ele>
        <time>2014-11-19T15:05:42Z</time>
      </trkpt>
      <trkpt lat="43.42041" lon="6.1227">
        <ele>199.99291992188</ele>
        <time>2014-11-19T15:05:46Z</time>
      </trkpt>
      <trkpt lat="43.42039" lon="6.12263">
        <ele>199.90467834473</ele>
        <time>2014-11-19T15:05:48Z</time>
      </trkpt>
      <trkpt lat="43.42038" lon="6.12256">
        <ele>199.80055236816</ele>
        <time>2014-11-19T15:05:50Z</time>
      </trkpt>
      <trkpt lat="43.42035" lon="6.12249">
        <ele>199.71286010742</ele>
        <time>2014-11-19T15:05:52Z</time>
      </trkpt>
      <trkpt lat="43.42034" lon="6.1224">
        <ele>199.64338684082</ele>
        <time>2014-11-19T15:05:54Z</time>
      </trkpt>
      <trkpt lat="43.42033" lon="6.12231">
        <ele>199.52159118652</ele>
        <time>2014-11-19T15:05:56Z</time>
      </trkpt>
      <trkpt lat="43.42035" lon="6.12222">
        <ele>199.35607910156</ele>
        <time>2014-11-19T15:05:58Z</time>
      </trkpt>
      <trkpt lat="43.42041" lon="6.12204">
        <ele>198.97065734863</ele>
        <time>2014-11-19T15:06:02Z</time>
      </trkpt>
      <trkpt lat="43.42043" lon="6.12194">
        <ele>198.80541992188</ele>
        <time>2014-11-19T15:06:04Z</time>
      </trkpt>
      <trkpt lat="43.42044" lon="6.12184">
        <ele>198.66232299805</ele>
        <time>2014-11-19T15:06:06Z</time>
      </trkpt>
      <trkpt lat="43.42047" lon="6.12164">
        <ele>198.4005279541</ele>
        <time>2014-11-19T15:06:10Z</time>
      </trkpt>
      <trkpt lat="43.42048" lon="6.12158">
        <ele>198.32270812988</ele>
        <time>2014-11-19T15:06:11Z</time>
      </trkpt>
      <trkpt lat="43.42048" lon="6.12153">
        <ele>198.26205444336</ele>
        <time>2014-11-19T15:06:12Z</time>
      </trkpt>
      <trkpt lat="43.42046" lon="6.12136">
        <ele>198.07495117188</ele>
        <time>2014-11-19T15:06:15Z</time>
      </trkpt>
      <trkpt lat="43.42044" lon="6.12131">
        <ele>198.03604125977</ele>
        <time>2014-11-19T15:06:16Z</time>
      </trkpt>
      <trkpt lat="43.42044" lon="6.1212">
        <ele>197.91244506836</ele>
        <time>2014-11-19T15:06:18Z</time>
      </trkpt>
      <trkpt lat="43.42043" lon="6.12115">
        <ele>197.86093139648</ele>
        <time>2014-11-19T15:06:19Z</time>
      </trkpt>
      <trkpt lat="43.42043" lon="6.12109">
        <ele>197.79971313477</ele>
        <time>2014-11-19T15:06:20Z</time>
      </trkpt>
      <trkpt lat="43.42042" lon="6.12099">
        <ele>197.68814086914</ele>
        <time>2014-11-19T15:06:22Z</time>
      </trkpt>
      <trkpt lat="43.42041" lon="6.12094">
        <ele>197.63491821289</ele>
        <time>2014-11-19T15:06:23Z</time>
      </trkpt>
      <trkpt lat="43.4204" lon="6.12089">
        <ele>197.58627319336</ele>
        <time>2014-11-19T15:06:24Z</time>
      </trkpt>
      <trkpt lat="43.42038" lon="6.12078">
        <ele>197.64898681641</ele>
        <time>2014-11-19T15:06:26Z</time>
      </trkpt>
      <trkpt lat="43.42036" lon="6.12067">
        <ele>197.90707397461</ele>
        <time>2014-11-19T15:06:28Z</time>
      </trkpt>
      <trkpt lat="43.42033" lon="6.12054">
        <ele>198.24140930176</ele>
        <time>2014-11-19T15:06:30Z</time>
      </trkpt>
      <trkpt lat="43.42027" lon="6.12041">
        <ele>198.70115661621</ele>
        <time>2014-11-19T15:06:32Z</time>
      </trkpt>
      <trkpt lat="43.4202" lon="6.1203">
        <ele>199.20251464844</ele>
        <time>2014-11-19T15:06:34Z</time>
      </trkpt>
      <trkpt lat="43.42017" lon="6.12024">
        <ele>199.5037689209</ele>
        <time>2014-11-19T15:06:35Z</time>
      </trkpt>
      <trkpt lat="43.42014" lon="6.12019">
        <ele>199.77639770508</ele>
        <time>2014-11-19T15:06:36Z</time>
      </trkpt>
      <trkpt lat="43.42007" lon="6.12009">
        <ele>200.36157226562</ele>
        <time>2014-11-19T15:06:38Z</time>
      </trkpt>
      <trkpt lat="43.42005" lon="6.12003">
        <ele>200.67565917969</ele>
        <time>2014-11-19T15:06:39Z</time>
      </trkpt>
      <trkpt lat="43.42003" lon="6.11998">
        <ele>200.97554016113</ele>
        <time>2014-11-19T15:06:40Z</time>
      </trkpt>
      <trkpt lat="43.42001" lon="6.11988">
        <ele>201.50416564941</ele>
        <time>2014-11-19T15:06:42Z</time>
      </trkpt>
      <trkpt lat="43.42" lon="6.11977">
        <ele>202.09617614746</ele>
        <time>2014-11-19T15:06:45Z</time>
      </trkpt>
      <trkpt lat="43.42001" lon="6.11974">
        <ele>202.20324707031</ele>
        <time>2014-11-19T15:06:46Z</time>
      </trkpt>
      <trkpt lat="43.42002" lon="6.1197">
        <ele>202.28713989258</ele>
        <time>2014-11-19T15:06:47Z</time>
      </trkpt>
      <trkpt lat="43.42002" lon="6.11968">
        <ele>202.37776184082</ele>
        <time>2014-11-19T15:06:48Z</time>
      </trkpt>
      <trkpt lat="43.42004" lon="6.11964">
        <ele>202.43084716797</ele>
        <time>2014-11-19T15:06:50Z</time>
      </trkpt>
      <trkpt lat="43.42004" lon="6.11961">
        <ele>202.55226135254</ele>
        <time>2014-11-19T15:06:52Z</time>
      </trkpt>
      <trkpt lat="43.42005" lon="6.11961">
        <ele>202.55563354492</ele>
        <time>2014-11-19T15:06:54Z</time>
      </trkpt>
      <trkpt lat="43.42005" lon="6.1196">
        <ele>202.56642150879</ele>
        <time>2014-11-19T15:06:56Z</time>
      </trkpt>
      <trkpt lat="43.42005" lon="6.11959">
        <ele>202.60527038574</ele>
        <time>2014-11-19T15:06:58Z</time>
      </trkpt>
      <trkpt lat="43.42004" lon="6.11958">
        <ele>202.6780090332</ele>
        <time>2014-11-19T15:07:00Z</time>
      </trkpt>
      <trkpt lat="43.42004" lon="6.11958">
        <ele>202.73159790039</ele>
        <time>2014-11-19T15:07:02Z</time>
      </trkpt>
      <trkpt lat="43.42004" lon="6.11953">
        <ele>202.90350341797</ele>
        <time>2014-11-19T15:07:04Z</time>
      </trkpt>
      <trkpt lat="43.42006" lon="6.1195">
        <ele>202.92971801758</ele>
        <time>2014-11-19T15:07:05Z</time>
      </trkpt>
      <trkpt lat="43.42007" lon="6.11947">
        <ele>203.02917480469</ele>
        <time>2014-11-19T15:07:06Z</time>
      </trkpt>
      <trkpt lat="43.42007" lon="6.11939">
        <ele>203.29847717285</ele>
        <time>2014-11-19T15:07:08Z</time>
      </trkpt>
      <trkpt lat="43.4201" lon="6.11923">
        <ele>203.80387878418</ele>
        <time>2014-11-19T15:07:12Z</time>
      </trkpt>
      <trkpt lat="43.42011" lon="6.11914">
        <ele>203.93515014648</ele>
        <time>2014-11-19T15:07:14Z</time>
      </trkpt>
      <trkpt lat="43.42013" lon="6.11904">
        <ele>203.82983398438</ele>
        <time>2014-11-19T15:07:16Z</time>
      </trkpt>
      <trkpt lat="43.42014" lon="6.11895">
        <ele>203.79075622559</ele>
        <time>2014-11-19T15:07:18Z</time>
      </trkpt>
      <trkpt lat="43.42014" lon="6.11886">
        <ele>203.74267578125</ele>
        <time>2014-11-19T15:07:20Z</time>
      </trkpt>
      <trkpt lat="43.42015" lon="6.11865">
        <ele>203.72425842285</ele>
        <time>2014-11-19T15:07:24Z</time>
      </trkpt>
      <trkpt lat="43.42015" lon="6.11854">
        <ele>203.70890808106</ele>
        <time>2014-11-19T15:07:26Z</time>
      </trkpt>
      <trkpt lat="43.42015" lon="6.11844">
        <ele>203.79289245606</ele>
        <time>2014-11-19T15:07:28Z</time>
      </trkpt>
      <trkpt lat="43.42017" lon="6.11821">
        <ele>203.10485839844</ele>
        <time>2014-11-19T15:07:32Z</time>
      </trkpt>
      <trkpt lat="43.42019" lon="6.11809">
        <ele>202.52351379394</ele>
        <time>2014-11-19T15:07:34Z</time>
      </trkpt>
      <trkpt lat="43.4202" lon="6.11796">
        <ele>202.03715515137</ele>
        <time>2014-11-19T15:07:36Z</time>
      </trkpt>
      <trkpt lat="43.4202" lon="6.11783">
        <ele>201.60290527344</ele>
        <time>2014-11-19T15:07:38Z</time>
      </trkpt>
      <trkpt lat="43.42021" lon="6.11771">
        <ele>201.13482666016</ele>
        <time>2014-11-19T15:07:40Z</time>
      </trkpt>
      <trkpt lat="43.4202" lon="6.11758">
        <ele>200.82737731934</ele>
        <time>2014-11-19T15:07:42Z</time>
      </trkpt>
      <trkpt lat="43.4202" lon="6.11744">
        <ele>200.37962341309</ele>
        <time>2014-11-19T15:07:44Z</time>
      </trkpt>
      <trkpt lat="43.42019" lon="6.11732">
        <ele>200.05638122559</ele>
        <time>2014-11-19T15:07:46Z</time>
      </trkpt>
      <trkpt lat="43.42017" lon="6.1172">
        <ele>199.7578125</ele>
        <time>2014-11-19T15:07:48Z</time>
      </trkpt>
      <trkpt lat="43.42017" lon="6.11707">
        <ele>199.30302429199</ele>
        <time>2014-11-19T15:07:50Z</time>
      </trkpt>
      <trkpt lat="43.42016" lon="6.11694">
        <ele>198.92048645019</ele>
        <time>2014-11-19T15:07:52Z</time>
      </trkpt>
      <trkpt lat="43.42014" lon="6.11667">
        <ele>198.0241394043</ele>
        <time>2014-11-19T15:07:56Z</time>
      </trkpt>
      <trkpt lat="43.42012" lon="6.11654">
        <ele>197.92588806152</ele>
        <time>2014-11-19T15:07:58Z</time>
      </trkpt>
      <trkpt lat="43.42009" lon="6.11635">
        <ele>197.69769287109</ele>
        <time>2014-11-19T15:08:01Z</time>
      </trkpt>
      <trkpt lat="43.42009" lon="6.11629">
        <ele>197.59523010254</ele>
        <time>2014-11-19T15:08:02Z</time>
      </trkpt>
      <trkpt lat="43.42008" lon="6.11616">
        <ele>197.38960266113</ele>
        <time>2014-11-19T15:08:04Z</time>
      </trkpt>
      <trkpt lat="43.42006" lon="6.11602">
        <ele>197.19573974609</ele>
        <time>2014-11-19T15:08:06Z</time>
      </trkpt>
      <trkpt lat="43.42004" lon="6.11589">
        <ele>196.99108886719</ele>
        <time>2014-11-19T15:08:08Z</time>
      </trkpt>
      <trkpt lat="43.42001" lon="6.11575">
        <ele>196.76547241211</ele>
        <time>2014-11-19T15:08:10Z</time>
      </trkpt>
      <trkpt lat="43.41999" lon="6.11561">
        <ele>196.66983032227</ele>
        <time>2014-11-19T15:08:12Z</time>
      </trkpt>
      <trkpt lat="43.41998" lon="6.11554">
        <ele>196.60685729981</ele>
        <time>2014-11-19T15:08:13Z</time>
      </trkpt>
      <trkpt lat="43.41997" lon="6.11548">
        <ele>196.55612182617</ele>
        <time>2014-11-19T15:08:14Z</time>
      </trkpt>
      <trkpt lat="43.41997" lon="6.11541">
        <ele>196.39988708496</ele>
        <time>2014-11-19T15:08:15Z</time>
      </trkpt>
      <trkpt lat="43.41998" lon="6.11536">
        <ele>196.1505279541</ele>
        <time>2014-11-19T15:08:16Z</time>
      </trkpt>
      <trkpt lat="43.42003" lon="6.11526">
        <ele>195.61671447754</ele>
        <time>2014-11-19T15:08:18Z</time>
      </trkpt>
      <trkpt lat="43.42007" lon="6.11523">
        <ele>195.53518676758</ele>
        <time>2014-11-19T15:08:19Z</time>
      </trkpt>
      <trkpt lat="43.4201" lon="6.11519">
        <ele>195.47483825684</ele>
        <time>2014-11-19T15:08:20Z</time>
      </trkpt>
      <trkpt lat="43.42014" lon="6.11516">
        <ele>195.42532348633</ele>
        <time>2014-11-19T15:08:21Z</time>
      </trkpt>
      <trkpt lat="43.42018" lon="6.11513">
        <ele>195.3904876709</ele>
        <time>2014-11-19T15:08:22Z</time>
      </trkpt>
      <trkpt lat="43.42027" lon="6.11506">
        <ele>195.37086486816</ele>
        <time>2014-11-19T15:08:24Z</time>
      </trkpt>
      <trkpt lat="43.42035" lon="6.11499">
        <ele>195.43214416504</ele>
        <time>2014-11-19T15:08:26Z</time>
      </trkpt>
      <trkpt lat="43.42043" lon="6.11493">
        <ele>195.63795471191</ele>
        <time>2014-11-19T15:08:28Z</time>
      </trkpt>
      <trkpt lat="43.42048" lon="6.11486">
        <ele>195.88482666016</ele>
        <time>2014-11-19T15:08:30Z</time>
      </trkpt>
      <trkpt lat="43.42054" lon="6.11479">
        <ele>196.19931030273</ele>
        <time>2014-11-19T15:08:32Z</time>
      </trkpt>
      <trkpt lat="43.42058" lon="6.11473">
        <ele>196.49989318848</ele>
        <time>2014-11-19T15:08:34Z</time>
      </trkpt>
      <trkpt lat="43.42062" lon="6.11468">
        <ele>196.79052734375</ele>
        <time>2014-11-19T15:08:36Z</time>
      </trkpt>
      <trkpt lat="43.42065" lon="6.1146">
        <ele>197.1872253418</ele>
        <time>2014-11-19T15:08:38Z</time>
      </trkpt>
      <trkpt lat="43.42068" lon="6.11452">
        <ele>197.60153198242</ele>
        <time>2014-11-19T15:08:40Z</time>
      </trkpt>
      <trkpt lat="43.42072" lon="6.11441">
        <ele>198.17623901367</ele>
        <time>2014-11-19T15:08:42Z</time>
      </trkpt>
      <trkpt lat="43.42074" lon="6.11433">
        <ele>198.67666625977</ele>
        <time>2014-11-19T15:08:44Z</time>
      </trkpt>
      <trkpt lat="43.42076" lon="6.11428">
        <ele>198.97569274902</ele>
        <time>2014-11-19T15:08:46Z</time>
      </trkpt>
      <trkpt lat="43.42078" lon="6.11423">
        <ele>199.30903625488</ele>
        <time>2014-11-19T15:08:48Z</time>
      </trkpt>
      <trkpt lat="43.42078" lon="6.11419">
        <ele>199.55757141113</ele>
        <time>2014-11-19T15:08:50Z</time>
      </trkpt>
      <trkpt lat="43.42078" lon="6.11417">
        <ele>199.60842895508</ele>
        <time>2014-11-19T15:08:51Z</time>
      </trkpt>
      <trkpt lat="43.42078" lon="6.11417">
        <ele>199.58329772949</ele>
        <time>2014-11-19T15:08:52Z</time>
      </trkpt>
      <trkpt lat="43.42078" lon="6.11417">
        <ele>199.56860351562</ele>
        <time>2014-11-19T15:08:54Z</time>
      </trkpt>
      <trkpt lat="43.42078" lon="6.11414">
        <ele>199.79611206055</ele>
        <time>2014-11-19T15:08:58Z</time>
      </trkpt>
      <trkpt lat="43.42079" lon="6.11411">
        <ele>200.09385681152</ele>
        <time>2014-11-19T15:09:00Z</time>
      </trkpt>
      <trkpt lat="43.42079" lon="6.11408">
        <ele>200.27221679688</ele>
        <time>2014-11-19T15:09:02Z</time>
      </trkpt>
      <trkpt lat="43.42079" lon="6.11407">
        <ele>200.33193969727</ele>
        <time>2014-11-19T15:09:03Z</time>
      </trkpt>
      <trkpt lat="43.42079" lon="6.11406">
        <ele>200.43630981445</ele>
        <time>2014-11-19T15:09:06Z</time>
      </trkpt>
      <trkpt lat="43.4208" lon="6.11405">
        <ele>200.50009155273</ele>
        <time>2014-11-19T15:09:08Z</time>
      </trkpt>
      <trkpt lat="43.4208" lon="6.11405">
        <ele>200.52958679199</ele>
        <time>2014-11-19T15:09:10Z</time>
      </trkpt>
      <trkpt lat="43.4208" lon="6.11405">
        <ele>200.5426940918</ele>
        <time>2014-11-19T15:09:12Z</time>
      </trkpt>
      <trkpt lat="43.4208" lon="6.11405">
        <ele>200.54597473144</ele>
        <time>2014-11-19T15:09:16Z</time>
      </trkpt>
      <trkpt lat="43.4208" lon="6.11405">
        <ele>200.54597473144</ele>
        <time>2014-11-19T15:09:18Z</time>
      </trkpt>
      <trkpt lat="43.42079" lon="6.11405">
        <ele>200.51783752441</ele>
        <time>2014-11-19T15:09:20Z</time>
      </trkpt>
      <trkpt lat="43.42079" lon="6.11405">
        <ele>200.51783752441</ele>
        <time>2014-11-19T15:09:22Z</time>
      </trkpt>
      <trkpt lat="43.42079" lon="6.11405">
        <ele>200.47993469238</ele>
        <time>2014-11-19T15:09:25Z</time>
      </trkpt>
      <trkpt lat="43.42079" lon="6.11405">
        <ele>200.48318481445</ele>
        <time>2014-11-19T15:09:26Z</time>
      </trkpt>
      <trkpt lat="43.42079" lon="6.11405">
        <ele>200.48318481445</ele>
        <time>2014-11-19T15:09:28Z</time>
      </trkpt>
      <trkpt lat="43.42079" lon="6.11405">
        <ele>200.49942016602</ele>
        <time>2014-11-19T15:09:32Z</time>
      </trkpt>
      <trkpt lat="43.42079" lon="6.11404">
        <ele>200.53741455078</ele>
        <time>2014-11-19T15:09:34Z</time>
      </trkpt>
      <trkpt lat="43.42079" lon="6.11404">
        <ele>200.50915527344</ele>
        <time>2014-11-19T15:09:36Z</time>
      </trkpt>
      <trkpt lat="43.42079" lon="6.11404">
        <ele>200.51239013672</ele>
        <time>2014-11-19T15:09:38Z</time>
      </trkpt>
      <trkpt lat="43.42079" lon="6.11404">
        <ele>200.51889038086</ele>
        <time>2014-11-19T15:09:40Z</time>
      </trkpt>
      <trkpt lat="43.42079" lon="6.11404">
        <ele>200.55134582519</ele>
        <time>2014-11-19T15:09:44Z</time>
      </trkpt>
      <trkpt lat="43.42079" lon="6.11404">
        <ele>200.56756591797</ele>
        <time>2014-11-19T15:09:46Z</time>
      </trkpt>
      <trkpt lat="43.42079" lon="6.11403">
        <ele>200.62924194336</ele>
        <time>2014-11-19T15:09:48Z</time>
      </trkpt>
      <trkpt lat="43.42078" lon="6.11402">
        <ele>200.61651611328</ele>
        <time>2014-11-19T15:09:50Z</time>
      </trkpt>
      <trkpt lat="43.42079" lon="6.11402">
        <ele>200.69090270996</ele>
        <time>2014-11-19T15:09:52Z</time>
      </trkpt>
      <trkpt lat="43.4208" lon="6.114">
        <ele>200.84745788574</ele>
        <time>2014-11-19T15:09:58Z</time>
      </trkpt>
      <trkpt lat="43.4208" lon="6.114">
        <ele>200.8835144043</ele>
        <time>2014-11-19T15:10:00Z</time>
      </trkpt>
      <trkpt lat="43.4208" lon="6.114">
        <ele>200.89006042481</ele>
        <time>2014-11-19T15:10:04Z</time>
      </trkpt>
      <trkpt lat="43.4208" lon="6.114">
        <ele>200.8966217041</ele>
        <time>2014-11-19T15:10:06Z</time>
      </trkpt>
      <trkpt lat="43.4208" lon="6.114">
        <ele>200.93298339844</ele>
        <time>2014-11-19T15:10:08Z</time>
      </trkpt>
      <trkpt lat="43.4208" lon="6.114">
        <ele>200.93957519531</ele>
        <time>2014-11-19T15:10:10Z</time>
      </trkpt>
      <trkpt lat="43.4208" lon="6.11399">
        <ele>200.97599792481</ele>
        <time>2014-11-19T15:10:12Z</time>
      </trkpt>
      <trkpt lat="43.4208" lon="6.11399">
        <ele>200.97599792481</ele>
        <time>2014-11-19T15:10:14Z</time>
      </trkpt>
      <trkpt lat="43.4208" lon="6.11399">
        <ele>200.97909545898</ele>
        <time>2014-11-19T15:10:17Z</time>
      </trkpt>
      <trkpt lat="43.4208" lon="6.11399">
        <ele>200.94905090332</ele>
        <time>2014-11-19T15:10:18Z</time>
      </trkpt>
      <trkpt lat="43.4208" lon="6.11399">
        <ele>200.94905090332</ele>
        <time>2014-11-19T15:10:24Z</time>
      </trkpt>
      <trkpt lat="43.4208" lon="6.11399">
        <ele>200.93922424316</ele>
        <time>2014-11-19T15:10:28Z</time>
      </trkpt>
      <trkpt lat="43.4208" lon="6.11399">
        <ele>200.94905090332</ele>
        <time>2014-11-19T15:10:32Z</time>
      </trkpt>
      <trkpt lat="43.4208" lon="6.11399">
        <ele>200.94905090332</ele>
        <time>2014-11-19T15:10:36Z</time>
      </trkpt>
      <trkpt lat="43.4208" lon="6.11399">
        <ele>200.93594360352</ele>
        <time>2014-11-19T15:11:00Z</time>
      </trkpt>
      <trkpt lat="43.4208" lon="6.11399">
        <ele>200.90972900391</ele>
        <time>2014-11-19T15:11:20Z</time>
      </trkpt>
      <trkpt lat="43.4208" lon="6.114">
        <ele>200.89334106445</ele>
        <time>2014-11-19T15:11:36Z</time>
      </trkpt>
      <trkpt lat="43.4208" lon="6.114">
        <ele>200.89990234375</ele>
        <time>2014-11-19T15:12:32Z</time>
      </trkpt>
      <trkpt lat="43.4208" lon="6.114">
        <ele>200.9031829834</ele>
        <time>2014-11-19T15:12:44Z</time>
      </trkpt>
      <trkpt lat="43.4208" lon="6.114">
        <ele>200.9031829834</ele>
        <time>2014-11-19T15:12:46Z</time>
      </trkpt>
      <trkpt lat="43.4208" lon="6.11399">
        <ele>200.9162902832</ele>
        <time>2014-11-19T15:12:48Z</time>
      </trkpt>
      <trkpt lat="43.42079" lon="6.11399">
        <ele>200.88963317871</ele>
        <time>2014-11-19T15:12:50Z</time>
      </trkpt>
      <trkpt lat="43.42079" lon="6.11399">
        <ele>200.89942932129</ele>
        <time>2014-11-19T15:12:54Z</time>
      </trkpt>
      <trkpt lat="43.42079" lon="6.11399">
        <ele>200.91899108887</ele>
        <time>2014-11-19T15:13:02Z</time>
      </trkpt>
      <trkpt lat="43.42079" lon="6.11399">
        <ele>200.91899108887</ele>
        <time>2014-11-19T15:13:04Z</time>
      </trkpt>
      <trkpt lat="43.4208" lon="6.11399">
        <ele>200.94250488281</ele>
        <time>2014-11-19T15:13:07Z</time>
      </trkpt>
      <trkpt lat="43.4208" lon="6.11399">
        <ele>200.93594360352</ele>
        <time>2014-11-19T15:13:10Z</time>
      </trkpt>
      <trkpt lat="43.4208" lon="6.11399">
        <ele>200.92283630371</ele>
        <time>2014-11-19T15:13:14Z</time>
      </trkpt>
      <trkpt lat="43.4208" lon="6.11399">
        <ele>200.95274353027</ele>
        <time>2014-11-19T15:13:16Z</time>
      </trkpt>
      <trkpt lat="43.4208" lon="6.11399">
        <ele>200.94616699219</ele>
        <time>2014-11-19T15:13:18Z</time>
      </trkpt>
      <trkpt lat="43.4208" lon="6.11399">
        <ele>200.94616699219</ele>
        <time>2014-11-19T15:13:24Z</time>
      </trkpt>
      <trkpt lat="43.4208" lon="6.11399">
        <ele>200.96591186523</ele>
        <time>2014-11-19T15:14:12Z</time>
      </trkpt>
      <trkpt lat="43.4208" lon="6.11399">
        <ele>200.96920776367</ele>
        <time>2014-11-19T15:14:20Z</time>
      </trkpt>
      <trkpt lat="43.4208" lon="6.114">
        <ele>200.91323852539</ele>
        <time>2014-11-19T15:17:12Z</time>
      </trkpt>
      <trkpt lat="43.4208" lon="6.114">
        <ele>200.90335083008</ele>
        <time>2014-11-19T15:17:26Z</time>
      </trkpt>
      <trkpt lat="43.4208" lon="6.114">
        <ele>200.90005493164</ele>
        <time>2014-11-19T15:17:32Z</time>
      </trkpt>
      <trkpt lat="43.4208" lon="6.114">
        <ele>200.90005493164</ele>
        <time>2014-11-19T15:17:38Z</time>
      </trkpt>
      <trkpt lat="43.4208" lon="6.114">
        <ele>200.90005493164</ele>
        <time>2014-11-19T15:17:44Z</time>
      </trkpt>
      <trkpt lat="43.4208" lon="6.114">
        <ele>200.89347839356</ele>
        <time>2014-11-19T15:18:22Z</time>
      </trkpt>
      <trkpt lat="43.4208" lon="6.114">
        <ele>200.89347839356</ele>
        <time>2014-11-19T15:18:40Z</time>
      </trkpt>
      <trkpt lat="43.4208" lon="6.114">
        <ele>200.89677429199</ele>
        <time>2014-11-19T15:18:44Z</time>
      </trkpt>
      <trkpt lat="43.4208" lon="6.114">
        <ele>200.91323852539</ele>
        <time>2014-11-19T15:18:46Z</time>
      </trkpt>
      <trkpt lat="43.4208" lon="6.114">
        <ele>200.95614624023</ele>
        <time>2014-11-19T15:18:48Z</time>
      </trkpt>
      <trkpt lat="43.4208" lon="6.114">
        <ele>200.92640686035</ele>
        <time>2014-11-19T15:18:50Z</time>
      </trkpt>
      <trkpt lat="43.4208" lon="6.114">
        <ele>200.92970275879</ele>
        <time>2014-11-19T15:18:52Z</time>
      </trkpt>
      <trkpt lat="43.4208" lon="6.114">
        <ele>200.92970275879</ele>
        <time>2014-11-19T15:18:56Z</time>
      </trkpt>
      <trkpt lat="43.4208" lon="6.114">
        <ele>200.93298339844</ele>
        <time>2014-11-19T15:18:58Z</time>
      </trkpt>
      <trkpt lat="43.4208" lon="6.114">
        <ele>200.93298339844</ele>
        <time>2014-11-19T15:19:00Z</time>
      </trkpt>
      <trkpt lat="43.4208" lon="6.114">
        <ele>200.91981506348</ele>
        <time>2014-11-19T15:19:02Z</time>
      </trkpt>
      <trkpt lat="43.4208" lon="6.114">
        <ele>200.91323852539</ele>
        <time>2014-11-19T15:19:06Z</time>
      </trkpt>
      <trkpt lat="43.4208" lon="6.114">
        <ele>200.876953125</ele>
        <time>2014-11-19T15:19:08Z</time>
      </trkpt>
      <trkpt lat="43.4208" lon="6.114">
        <ele>200.87368774414</ele>
        <time>2014-11-19T15:19:10Z</time>
      </trkpt>
      <trkpt lat="43.4208" lon="6.114">
        <ele>200.87368774414</ele>
        <time>2014-11-19T15:19:12Z</time>
      </trkpt>
      <trkpt lat="43.4208" lon="6.114">
        <ele>200.86712646484</ele>
        <time>2014-11-19T15:19:20Z</time>
      </trkpt>
      <trkpt lat="43.4208" lon="6.114">
        <ele>200.86712646484</ele>
        <time>2014-11-19T15:19:24Z</time>
      </trkpt>
      <trkpt lat="43.42079" lon="6.114">
        <ele>200.84724426269</ele>
        <time>2014-11-19T15:19:26Z</time>
      </trkpt>
      <trkpt lat="43.42079" lon="6.114">
        <ele>200.84071350098</ele>
        <time>2014-11-19T15:19:28Z</time>
      </trkpt>
      <trkpt lat="43.42079" lon="6.114">
        <ele>200.84724426269</ele>
        <time>2014-11-19T15:19:29Z</time>
      </trkpt>
      <trkpt lat="43.42079" lon="6.114">
        <ele>200.86354064941</ele>
        <time>2014-11-19T15:19:30Z</time>
      </trkpt>
      <trkpt lat="43.42079" lon="6.11399">
        <ele>200.87658691406</ele>
        <time>2014-11-19T15:19:32Z</time>
      </trkpt>
      <trkpt lat="43.42078" lon="6.11398">
        <ele>200.81440734863</ele>
        <time>2014-11-19T15:19:34Z</time>
      </trkpt>
      <trkpt lat="43.42077" lon="6.11397">
        <ele>200.84562683106</ele>
        <time>2014-11-19T15:19:35Z</time>
      </trkpt>
      <trkpt lat="43.42075" lon="6.11395">
        <ele>200.85565185547</ele>
        <time>2014-11-19T15:19:36Z</time>
      </trkpt>
      <trkpt lat="43.42072" lon="6.1139">
        <ele>200.82389831543</ele>
        <time>2014-11-19T15:19:38Z</time>
      </trkpt>
      <trkpt lat="43.42068" lon="6.11384">
        <ele>200.7752532959</ele>
        <time>2014-11-19T15:19:40Z</time>
      </trkpt>
      <trkpt lat="43.42067" lon="6.11382">
        <ele>200.77870178223</ele>
        <time>2014-11-19T15:19:41Z</time>
      </trkpt>
      <trkpt lat="43.42064" lon="6.11377">
        <ele>200.81314086914</ele>
        <time>2014-11-19T15:19:44Z</time>
      </trkpt>
      <trkpt lat="43.42062" lon="6.11375">
        <ele>200.74977111816</ele>
        <time>2014-11-19T15:19:46Z</time>
      </trkpt>
      <trkpt lat="43.42061" lon="6.11372">
        <ele>200.74954223633</ele>
        <time>2014-11-19T15:19:47Z</time>
      </trkpt>
      <trkpt lat="43.4206" lon="6.1137">
        <ele>200.74223327637</ele>
        <time>2014-11-19T15:19:48Z</time>
      </trkpt>
      <trkpt lat="43.42057" lon="6.11365">
        <ele>200.65124511719</ele>
        <time>2014-11-19T15:19:50Z</time>
      </trkpt>
      <trkpt lat="43.42054" lon="6.11359">
        <ele>200.58006286621</ele>
        <time>2014-11-19T15:19:52Z</time>
      </trkpt>
      <trkpt lat="43.4205" lon="6.11353">
        <ele>200.38174438477</ele>
        <time>2014-11-19T15:19:54Z</time>
      </trkpt>
      <trkpt lat="43.42046" lon="6.11345">
        <ele>200.1681060791</ele>
        <time>2014-11-19T15:19:56Z</time>
      </trkpt>
      <trkpt lat="43.42041" lon="6.11337">
        <ele>199.83535766602</ele>
        <time>2014-11-19T15:19:58Z</time>
      </trkpt>
      <trkpt lat="43.42037" lon="6.11329">
        <ele>199.57077026367</ele>
        <time>2014-11-19T15:20:00Z</time>
      </trkpt>
      <trkpt lat="43.42031" lon="6.1132">
        <ele>199.2696685791</ele>
        <time>2014-11-19T15:20:02Z</time>
      </trkpt>
      <trkpt lat="43.42026" lon="6.11312">
        <ele>198.85920715332</ele>
        <time>2014-11-19T15:20:04Z</time>
      </trkpt>
      <trkpt lat="43.42021" lon="6.11303">
        <ele>198.42990112305</ele>
        <time>2014-11-19T15:20:06Z</time>
      </trkpt>
      <trkpt lat="43.42019" lon="6.11299">
        <ele>198.21481323242</ele>
        <time>2014-11-19T15:20:07Z</time>
      </trkpt>
      <trkpt lat="43.42016" lon="6.11294">
        <ele>197.90422058106</ele>
        <time>2014-11-19T15:20:08Z</time>
      </trkpt>
      <trkpt lat="43.4201" lon="6.11286">
        <ele>197.16438293457</ele>
        <time>2014-11-19T15:20:10Z</time>
      </trkpt>
      <trkpt lat="43.42004" lon="6.11277">
        <ele>196.24090576172</ele>
        <time>2014-11-19T15:20:12Z</time>
      </trkpt>
      <trkpt lat="43.41991" lon="6.11258">
        <ele>195.96319580078</ele>
        <time>2014-11-19T15:20:16Z</time>
      </trkpt>
      <trkpt lat="43.41984" lon="6.11249">
        <ele>196.23014831543</ele>
        <time>2014-11-19T15:20:18Z</time>
      </trkpt>
      <trkpt lat="43.41977" lon="6.1124">
        <ele>196.57075500488</ele>
        <time>2014-11-19T15:20:20Z</time>
      </trkpt>
      <trkpt lat="43.41966" lon="6.11225">
        <ele>196.86996459961</ele>
        <time>2014-11-19T15:20:23Z</time>
      </trkpt>
      <trkpt lat="43.41959" lon="6.11215">
        <ele>196.9333190918</ele>
        <time>2014-11-19T15:20:25Z</time>
      </trkpt>
      <trkpt lat="43.41956" lon="6.1121">
        <ele>196.92179870606</ele>
        <time>2014-11-19T15:20:26Z</time>
      </trkpt>
      <trkpt lat="43.41945" lon="6.11191">
        <ele>196.68394470215</ele>
        <time>2014-11-19T15:20:30Z</time>
      </trkpt>
      <trkpt lat="43.4194" lon="6.11181">
        <ele>196.45030212402</ele>
        <time>2014-11-19T15:20:32Z</time>
      </trkpt>
      <trkpt lat="43.41935" lon="6.11171">
        <ele>196.13044738769</ele>
        <time>2014-11-19T15:20:34Z</time>
      </trkpt>
      <trkpt lat="43.4193" lon="6.1116">
        <ele>195.87272644043</ele>
        <time>2014-11-19T15:20:36Z</time>
      </trkpt>
      <trkpt lat="43.41926" lon="6.1115">
        <ele>195.66159057617</ele>
        <time>2014-11-19T15:20:38Z</time>
      </trkpt>
      <trkpt lat="43.41923" lon="6.1114">
        <ele>195.4864654541</ele>
        <time>2014-11-19T15:20:40Z</time>
      </trkpt>
      <trkpt lat="43.41922" lon="6.11135">
        <ele>195.38732910156</ele>
        <time>2014-11-19T15:20:41Z</time>
      </trkpt>
      <trkpt lat="43.41918" lon="6.11118">
        <ele>195.13314819336</ele>
        <time>2014-11-19T15:20:44Z</time>
      </trkpt>
      <trkpt lat="43.41917" lon="6.11107">
        <ele>195.07095336914</ele>
        <time>2014-11-19T15:20:46Z</time>
      </trkpt>
      <trkpt lat="43.41917" lon="6.11095">
        <ele>195.03755187988</ele>
        <time>2014-11-19T15:20:48Z</time>
      </trkpt>
      <trkpt lat="43.41919" lon="6.11072">
        <ele>195.28298950195</ele>
        <time>2014-11-19T15:20:52Z</time>
      </trkpt>
      <trkpt lat="43.4192" lon="6.1106">
        <ele>195.39817810059</ele>
        <time>2014-11-19T15:20:54Z</time>
      </trkpt>
      <trkpt lat="43.41922" lon="6.11049">
        <ele>195.54895019531</ele>
        <time>2014-11-19T15:20:56Z</time>
      </trkpt>
      <trkpt lat="43.41923" lon="6.11039">
        <ele>195.61894226074</ele>
        <time>2014-11-19T15:20:58Z</time>
      </trkpt>
      <trkpt lat="43.41924" lon="6.11033">
        <ele>195.69122314453</ele>
        <time>2014-11-19T15:20:59Z</time>
      </trkpt>
      <trkpt lat="43.41925" lon="6.11018">
        <ele>195.82675170898</ele>
        <time>2014-11-19T15:21:02Z</time>
      </trkpt>
      <trkpt lat="43.41926" lon="6.1101">
        <ele>195.89082336426</ele>
        <time>2014-11-19T15:21:04Z</time>
      </trkpt>
      <trkpt lat="43.41926" lon="6.11">
        <ele>195.91470336914</ele>
        <time>2014-11-19T15:21:06Z</time>
      </trkpt>
      <trkpt lat="43.41926" lon="6.10989">
        <ele>195.95135498047</ele>
        <time>2014-11-19T15:21:08Z</time>
      </trkpt>
      <trkpt lat="43.41925" lon="6.10984">
        <ele>195.92051696777</ele>
        <time>2014-11-19T15:21:09Z</time>
      </trkpt>
      <trkpt lat="43.41925" lon="6.10979">
        <ele>195.92587280273</ele>
        <time>2014-11-19T15:21:10Z</time>
      </trkpt>
      <trkpt lat="43.41922" lon="6.10969">
        <ele>195.81901550293</ele>
        <time>2014-11-19T15:21:12Z</time>
      </trkpt>
      <trkpt lat="43.4192" lon="6.1096">
        <ele>195.76126098633</ele>
        <time>2014-11-19T15:21:14Z</time>
      </trkpt>
      <trkpt lat="43.41919" lon="6.10955">
        <ele>195.72891235352</ele>
        <time>2014-11-19T15:21:15Z</time>
      </trkpt>
      <trkpt lat="43.41918" lon="6.1095">
        <ele>195.68116760254</ele>
        <time>2014-11-19T15:21:16Z</time>
      </trkpt>
      <trkpt lat="43.41916" lon="6.10938">
        <ele>195.7606048584</ele>
        <time>2014-11-19T15:21:18Z</time>
      </trkpt>
      <trkpt lat="43.41912" lon="6.10925">
        <ele>195.91647338867</ele>
        <time>2014-11-19T15:21:20Z</time>
      </trkpt>
      <trkpt lat="43.4191" lon="6.10913">
        <ele>195.99678039551</ele>
        <time>2014-11-19T15:21:22Z</time>
      </trkpt>
      <trkpt lat="43.41907" lon="6.10901">
        <ele>195.97908020019</ele>
        <time>2014-11-19T15:21:24Z</time>
      </trkpt>
      <trkpt lat="43.41905" lon="6.1089">
        <ele>195.95642089844</ele>
        <time>2014-11-19T15:21:26Z</time>
      </trkpt>
      <trkpt lat="43.41904" lon="6.1088">
        <ele>195.93598937988</ele>
        <time>2014-11-19T15:21:28Z</time>
      </trkpt>
      <trkpt lat="43.41904" lon="6.10876">
        <ele>195.92559814453</ele>
        <time>2014-11-19T15:21:29Z</time>
      </trkpt>
      <trkpt lat="43.41904" lon="6.10871">
        <ele>195.9153137207</ele>
        <time>2014-11-19T15:21:30Z</time>
      </trkpt>
      <trkpt lat="43.41904" lon="6.10861">
        <ele>195.89817810059</ele>
        <time>2014-11-19T15:21:32Z</time>
      </trkpt>
      <trkpt lat="43.41905" lon="6.10848">
        <ele>195.88377380371</ele>
        <time>2014-11-19T15:21:34Z</time>
      </trkpt>
      <trkpt lat="43.41906" lon="6.10842">
        <ele>195.88093566894</ele>
        <time>2014-11-19T15:21:35Z</time>
      </trkpt>
      <trkpt lat="43.41906" lon="6.10836">
        <ele>195.87971496582</ele>
        <time>2014-11-19T15:21:36Z</time>
      </trkpt>
      <trkpt lat="43.41908" lon="6.10822">
        <ele>195.9128112793</ele>
        <time>2014-11-19T15:21:38Z</time>
      </trkpt>
      <trkpt lat="43.4191" lon="6.10809">
        <ele>195.94500732422</ele>
        <time>2014-11-19T15:21:40Z</time>
      </trkpt>
      <trkpt lat="43.41912" lon="6.10795">
        <ele>195.96762084961</ele>
        <time>2014-11-19T15:21:42Z</time>
      </trkpt>
      <trkpt lat="43.41914" lon="6.10782">
        <ele>195.98779296875</ele>
        <time>2014-11-19T15:21:44Z</time>
      </trkpt>
      <trkpt lat="43.41916" lon="6.10769">
        <ele>195.99691772461</ele>
        <time>2014-11-19T15:21:46Z</time>
      </trkpt>
      <trkpt lat="43.41917" lon="6.10755">
        <ele>196.07107543945</ele>
        <time>2014-11-19T15:21:48Z</time>
      </trkpt>
      <trkpt lat="43.4192" lon="6.10744">
        <ele>196.29460144043</ele>
        <time>2014-11-19T15:21:50Z</time>
      </trkpt>
      <trkpt lat="43.41922" lon="6.10735">
        <ele>196.56100463867</ele>
        <time>2014-11-19T15:21:52Z</time>
      </trkpt>
      <trkpt lat="43.41929" lon="6.10711">
        <ele>197.27824401856</ele>
        <time>2014-11-19T15:21:56Z</time>
      </trkpt>
      <trkpt lat="43.41932" lon="6.10705">
        <ele>197.52278137207</ele>
        <time>2014-11-19T15:21:57Z</time>
      </trkpt>
      <trkpt lat="43.41938" lon="6.1069">
        <ele>198.19560241699</ele>
        <time>2014-11-19T15:22:00Z</time>
      </trkpt>
      <trkpt lat="43.41942" lon="6.10679">
        <ele>198.71469116211</ele>
        <time>2014-11-19T15:22:02Z</time>
      </trkpt>
      <trkpt lat="43.41946" lon="6.10668">
        <ele>199.20692443848</ele>
        <time>2014-11-19T15:22:04Z</time>
      </trkpt>
      <trkpt lat="43.41957" lon="6.10636">
        <ele>199.87068176269</ele>
        <time>2014-11-19T15:22:10Z</time>
      </trkpt>
      <trkpt lat="43.41959" lon="6.10631">
        <ele>199.95304870606</ele>
        <time>2014-11-19T15:22:11Z</time>
      </trkpt>
      <trkpt lat="43.41961" lon="6.10626">
        <ele>200.03672790527</ele>
        <time>2014-11-19T15:22:12Z</time>
      </trkpt>
      <trkpt lat="43.41965" lon="6.10615">
        <ele>200.15434265137</ele>
        <time>2014-11-19T15:22:14Z</time>
      </trkpt>
      <trkpt lat="43.41969" lon="6.10605">
        <ele>200.20947265625</ele>
        <time>2014-11-19T15:22:16Z</time>
      </trkpt>
      <trkpt lat="43.41972" lon="6.10593">
        <ele>200.21923828125</ele>
        <time>2014-11-19T15:22:18Z</time>
      </trkpt>
      <trkpt lat="43.41979" lon="6.10572">
        <ele>200.20304870606</ele>
        <time>2014-11-19T15:22:22Z</time>
      </trkpt>
      <trkpt lat="43.41983" lon="6.10561">
        <ele>200.17347717285</ele>
        <time>2014-11-19T15:22:24Z</time>
      </trkpt>
      <trkpt lat="43.41986" lon="6.10549">
        <ele>200.04850769043</ele>
        <time>2014-11-19T15:22:26Z</time>
      </trkpt>
      <trkpt lat="43.41987" lon="6.10544">
        <ele>199.95146179199</ele>
        <time>2014-11-19T15:22:27Z</time>
      </trkpt>
      <trkpt lat="43.4199" lon="6.10531">
        <ele>199.6960144043</ele>
        <time>2014-11-19T15:22:30Z</time>
      </trkpt>
      <trkpt lat="43.41991" lon="6.10526">
        <ele>199.59098815918</ele>
        <time>2014-11-19T15:22:31Z</time>
      </trkpt>
      <trkpt lat="43.41992" lon="6.10522">
        <ele>199.47610473633</ele>
        <time>2014-11-19T15:22:32Z</time>
      </trkpt>
      <trkpt lat="43.41993" lon="6.10505">
        <ele>199.00144958496</ele>
        <time>2014-11-19T15:22:35Z</time>
      </trkpt>
      <trkpt lat="43.41993" lon="6.105">
        <ele>198.83039855957</ele>
        <time>2014-11-19T15:22:36Z</time>
      </trkpt>
      <trkpt lat="43.41993" lon="6.10494">
        <ele>198.77702331543</ele>
        <time>2014-11-19T15:22:37Z</time>
      </trkpt>
      <trkpt lat="43.41993" lon="6.10488">
        <ele>198.71897888184</ele>
        <time>2014-11-19T15:22:38Z</time>
      </trkpt>
      <trkpt lat="43.41993" lon="6.10478">
        <ele>198.63778686523</ele>
        <time>2014-11-19T15:22:40Z</time>
      </trkpt>
      <trkpt lat="43.41993" lon="6.10467">
        <ele>198.53535461426</ele>
        <time>2014-11-19T15:22:42Z</time>
      </trkpt>
      <trkpt lat="43.41993" lon="6.10457">
        <ele>198.44570922852</ele>
        <time>2014-11-19T15:22:44Z</time>
      </trkpt>
      <trkpt lat="43.41993" lon="6.10448">
        <ele>198.36753845215</ele>
        <time>2014-11-19T15:22:46Z</time>
      </trkpt>
      <trkpt lat="43.41994" lon="6.10439">
        <ele>198.27937316894</ele>
        <time>2014-11-19T15:22:48Z</time>
      </trkpt>
      <trkpt lat="43.41995" lon="6.10419">
        <ele>198.07925415039</ele>
        <time>2014-11-19T15:22:52Z</time>
      </trkpt>
      <trkpt lat="43.41997" lon="6.10408">
        <ele>197.94786071777</ele>
        <time>2014-11-19T15:22:54Z</time>
      </trkpt>
      <trkpt lat="43.41999" lon="6.10389">
        <ele>197.68089294434</ele>
        <time>2014-11-19T15:22:58Z</time>
      </trkpt>
      <trkpt lat="43.42001" lon="6.10379">
        <ele>197.86149597168</ele>
        <time>2014-11-19T15:23:00Z</time>
      </trkpt>
      <trkpt lat="43.42003" lon="6.10369">
        <ele>198.34655761719</ele>
        <time>2014-11-19T15:23:02Z</time>
      </trkpt>
      <trkpt lat="43.42006" lon="6.10349">
        <ele>199.18179321289</ele>
        <time>2014-11-19T15:23:06Z</time>
      </trkpt>
      <trkpt lat="43.42008" lon="6.10338">
        <ele>199.62997436523</ele>
        <time>2014-11-19T15:23:08Z</time>
      </trkpt>
      <trkpt lat="43.42009" lon="6.10329">
        <ele>199.89451599121</ele>
        <time>2014-11-19T15:23:10Z</time>
      </trkpt>
      <trkpt lat="43.4201" lon="6.10318">
        <ele>200.18493652344</ele>
        <time>2014-11-19T15:23:12Z</time>
      </trkpt>
      <trkpt lat="43.42012" lon="6.10307">
        <ele>200.56893920898</ele>
        <time>2014-11-19T15:23:14Z</time>
      </trkpt>
      <trkpt lat="43.42014" lon="6.10296">
        <ele>200.93550109863</ele>
        <time>2014-11-19T15:23:16Z</time>
      </trkpt>
      <trkpt lat="43.42016" lon="6.10279">
        <ele>201.45021057129</ele>
        <time>2014-11-19T15:23:19Z</time>
      </trkpt>
      <trkpt lat="43.42018" lon="6.10264">
        <ele>201.92900085449</ele>
        <time>2014-11-19T15:23:22Z</time>
      </trkpt>
      <trkpt lat="43.4202" lon="6.10253">
        <ele>202.21757507324</ele>
        <time>2014-11-19T15:23:24Z</time>
      </trkpt>
      <trkpt lat="43.42021" lon="6.10241">
        <ele>202.41404724121</ele>
        <time>2014-11-19T15:23:26Z</time>
      </trkpt>
      <trkpt lat="43.42024" lon="6.10222">
        <ele>203.04499816894</ele>
        <time>2014-11-19T15:23:30Z</time>
      </trkpt>
      <trkpt lat="43.42026" lon="6.10211">
        <ele>203.26045227051</ele>
        <time>2014-11-19T15:23:32Z</time>
      </trkpt>
      <trkpt lat="43.42026" lon="6.10203">
        <ele>203.22521972656</ele>
        <time>2014-11-19T15:23:34Z</time>
      </trkpt>
      <trkpt lat="43.42027" lon="6.10194">
        <ele>203.26068115234</ele>
        <time>2014-11-19T15:23:36Z</time>
      </trkpt>
      <trkpt lat="43.42028" lon="6.10184">
        <ele>203.26251220703</ele>
        <time>2014-11-19T15:23:38Z</time>
      </trkpt>
      <trkpt lat="43.42028" lon="6.10174">
        <ele>203.24438476562</ele>
        <time>2014-11-19T15:23:40Z</time>
      </trkpt>
      <trkpt lat="43.42031" lon="6.10155">
        <ele>203.30087280273</ele>
        <time>2014-11-19T15:23:44Z</time>
      </trkpt>
      <trkpt lat="43.42033" lon="6.10146">
        <ele>203.30432128906</ele>
        <time>2014-11-19T15:23:46Z</time>
      </trkpt>
      <trkpt lat="43.42035" lon="6.10135">
        <ele>203.10441589356</ele>
        <time>2014-11-19T15:23:48Z</time>
      </trkpt>
      <trkpt lat="43.42036" lon="6.10123">
        <ele>202.86375427246</ele>
        <time>2014-11-19T15:23:50Z</time>
      </trkpt>
      <trkpt lat="43.42036" lon="6.10118">
        <ele>202.76110839844</ele>
        <time>2014-11-19T15:23:51Z</time>
      </trkpt>
      <trkpt lat="43.42037" lon="6.10113">
        <ele>202.66589355469</ele>
        <time>2014-11-19T15:23:52Z</time>
      </trkpt>
      <trkpt lat="43.42038" lon="6.10101">
        <ele>202.38000488281</ele>
        <time>2014-11-19T15:23:54Z</time>
      </trkpt>
      <trkpt lat="43.42039" lon="6.10091">
        <ele>202.07795715332</ele>
        <time>2014-11-19T15:23:56Z</time>
      </trkpt>
      <trkpt lat="43.42042" lon="6.10071">
        <ele>201.59259033203</ele>
        <time>2014-11-19T15:24:00Z</time>
      </trkpt>
      <trkpt lat="43.42043" lon="6.10061">
        <ele>201.32615661621</ele>
        <time>2014-11-19T15:24:02Z</time>
      </trkpt>
      <trkpt lat="43.42045" lon="6.10052">
        <ele>201.10383605957</ele>
        <time>2014-11-19T15:24:04Z</time>
      </trkpt>
      <trkpt lat="43.42047" lon="6.10042">
        <ele>200.83877563477</ele>
        <time>2014-11-19T15:24:06Z</time>
      </trkpt>
      <trkpt lat="43.42048" lon="6.10032">
        <ele>200.48419189453</ele>
        <time>2014-11-19T15:24:08Z</time>
      </trkpt>
      <trkpt lat="43.42053" lon="6.10012">
        <ele>199.83158874512</ele>
        <time>2014-11-19T15:24:12Z</time>
      </trkpt>
      <trkpt lat="43.42055" lon="6.10002">
        <ele>199.41806030273</ele>
        <time>2014-11-19T15:24:14Z</time>
      </trkpt>
      <trkpt lat="43.42057" lon="6.09991">
        <ele>199.37805175781</ele>
        <time>2014-11-19T15:24:16Z</time>
      </trkpt>
      <trkpt lat="43.42059" lon="6.09981">
        <ele>199.423828125</ele>
        <time>2014-11-19T15:24:18Z</time>
      </trkpt>
      <trkpt lat="43.42061" lon="6.09971">
        <ele>199.46044921875</ele>
        <time>2014-11-19T15:24:20Z</time>
      </trkpt>
      <trkpt lat="43.42063" lon="6.09961">
        <ele>199.50622558594</ele>
        <time>2014-11-19T15:24:22Z</time>
      </trkpt>
      <trkpt lat="43.42065" lon="6.0995">
        <ele>199.56115722656</ele>
        <time>2014-11-19T15:24:24Z</time>
      </trkpt>
      <trkpt lat="43.42073" lon="6.09927">
        <ele>199.74426269531</ele>
        <time>2014-11-19T15:24:28Z</time>
      </trkpt>
      <trkpt lat="43.42077" lon="6.09915">
        <ele>199.85412597656</ele>
        <time>2014-11-19T15:24:30Z</time>
      </trkpt>
      <trkpt lat="43.42082" lon="6.09902">
        <ele>199.97314453125</ele>
        <time>2014-11-19T15:24:32Z</time>
      </trkpt>
      <trkpt lat="43.42087" lon="6.09891">
        <ele>200.06694030762</ele>
        <time>2014-11-19T15:24:34Z</time>
      </trkpt>
      <trkpt lat="43.4209" lon="6.0988">
        <ele>200.14666748047</ele>
        <time>2014-11-19T15:24:36Z</time>
      </trkpt>
      <trkpt lat="43.42091" lon="6.09874">
        <ele>200.1946105957</ele>
        <time>2014-11-19T15:24:37Z</time>
      </trkpt>
      <trkpt lat="43.42094" lon="6.09855">
        <ele>200.32850646973</ele>
        <time>2014-11-19T15:24:40Z</time>
      </trkpt>
      <trkpt lat="43.42094" lon="6.09849">
        <ele>200.34844970703</ele>
        <time>2014-11-19T15:24:41Z</time>
      </trkpt>
      <trkpt lat="43.42094" lon="6.09843">
        <ele>200.34320068359</ele>
        <time>2014-11-19T15:24:42Z</time>
      </trkpt>
      <trkpt lat="43.42093" lon="6.09837">
        <ele>200.34677124023</ele>
        <time>2014-11-19T15:24:43Z</time>
      </trkpt>
      <trkpt lat="43.42094" lon="6.09831">
        <ele>200.63877868652</ele>
        <time>2014-11-19T15:24:44Z</time>
      </trkpt>
      <trkpt lat="43.42093" lon="6.09818">
        <ele>202.10842895508</ele>
        <time>2014-11-19T15:24:46Z</time>
      </trkpt>
      <trkpt lat="43.42092" lon="6.09804">
        <ele>203.62104797363</ele>
        <time>2014-11-19T15:24:48Z</time>
      </trkpt>
      <trkpt lat="43.4209" lon="6.09791">
        <ele>204.8860168457</ele>
        <time>2014-11-19T15:24:50Z</time>
      </trkpt>
      <trkpt lat="43.42086" lon="6.09771">
        <ele>206.38079833984</ele>
        <time>2014-11-19T15:24:53Z</time>
      </trkpt>
      <trkpt lat="43.42083" lon="6.09758">
        <ele>207.16876220703</ele>
        <time>2014-11-19T15:24:55Z</time>
      </trkpt>
      <trkpt lat="43.42081" lon="6.09753">
        <ele>207.50611877441</ele>
        <time>2014-11-19T15:24:56Z</time>
      </trkpt>
      <trkpt lat="43.42067" lon="6.09719">
        <ele>210.55703735352</ele>
        <time>2014-11-19T15:25:02Z</time>
      </trkpt>
      <trkpt lat="43.42061" lon="6.09709">
        <ele>210.95825195312</ele>
        <time>2014-11-19T15:25:04Z</time>
      </trkpt>
      <trkpt lat="43.42054" lon="6.097">
        <ele>211.14729309082</ele>
        <time>2014-11-19T15:25:06Z</time>
      </trkpt>
      <trkpt lat="43.42046" lon="6.09691">
        <ele>211.0772857666</ele>
        <time>2014-11-19T15:25:08Z</time>
      </trkpt>
      <trkpt lat="43.42039" lon="6.09683">
        <ele>210.74954223633</ele>
        <time>2014-11-19T15:25:10Z</time>
      </trkpt>
      <trkpt lat="43.42031" lon="6.09677">
        <ele>210.1815032959</ele>
        <time>2014-11-19T15:25:12Z</time>
      </trkpt>
      <trkpt lat="43.42027" lon="6.09674">
        <ele>209.76600646973</ele>
        <time>2014-11-19T15:25:13Z</time>
      </trkpt>
      <trkpt lat="43.42023" lon="6.09671">
        <ele>209.38061523438</ele>
        <time>2014-11-19T15:25:14Z</time>
      </trkpt>
      <trkpt lat="43.42014" lon="6.09667">
        <ele>208.31117248535</ele>
        <time>2014-11-19T15:25:16Z</time>
      </trkpt>
      <trkpt lat="43.42004" lon="6.09664">
        <ele>206.89573669434</ele>
        <time>2014-11-19T15:25:18Z</time>
      </trkpt>
      <trkpt lat="43.41993" lon="6.09661">
        <ele>206.28079223633</ele>
        <time>2014-11-19T15:25:20Z</time>
      </trkpt>
      <trkpt lat="43.41988" lon="6.0966">
        <ele>206.33610534668</ele>
        <time>2014-11-19T15:25:21Z</time>
      </trkpt>
      <trkpt lat="43.41985" lon="6.09658">
        <ele>206.37460327148</ele>
        <time>2014-11-19T15:25:22Z</time>
      </trkpt>
      <trkpt lat="43.41978" lon="6.09657">
        <ele>206.36012268066</ele>
        <time>2014-11-19T15:25:23Z</time>
      </trkpt>
      <trkpt lat="43.41972" lon="6.09656">
        <ele>206.33927917481</ele>
        <time>2014-11-19T15:25:24Z</time>
      </trkpt>
      <trkpt lat="43.41961" lon="6.09655">
        <ele>206.18354797363</ele>
        <time>2014-11-19T15:25:26Z</time>
      </trkpt>
      <trkpt lat="43.4195" lon="6.09657">
        <ele>205.79804992676</ele>
        <time>2014-11-19T15:25:28Z</time>
      </trkpt>
      <trkpt lat="43.41941" lon="6.09659">
        <ele>205.34364318848</ele>
        <time>2014-11-19T15:25:30Z</time>
      </trkpt>
      <trkpt lat="43.41932" lon="6.09659">
        <ele>205.16638183594</ele>
        <time>2014-11-19T15:25:32Z</time>
      </trkpt>
      <trkpt lat="43.41922" lon="6.09657">
        <ele>205.20053100586</ele>
        <time>2014-11-19T15:25:34Z</time>
      </trkpt>
      <trkpt lat="43.41913" lon="6.09655">
        <ele>205.0842590332</ele>
        <time>2014-11-19T15:25:36Z</time>
      </trkpt>
      <trkpt lat="43.41904" lon="6.09654">
        <ele>204.64808654785</ele>
        <time>2014-11-19T15:25:38Z</time>
      </trkpt>
      <trkpt lat="43.41895" lon="6.09652">
        <ele>204.23435974121</ele>
        <time>2014-11-19T15:25:40Z</time>
      </trkpt>
      <trkpt lat="43.41869" lon="6.09649">
        <ele>202.79278564453</ele>
        <time>2014-11-19T15:25:46Z</time>
      </trkpt>
      <trkpt lat="43.41864" lon="6.09648">
        <ele>202.51083374023</ele>
        <time>2014-11-19T15:25:47Z</time>
      </trkpt>
      <trkpt lat="43.4186" lon="6.09648">
        <ele>202.26309204102</ele>
        <time>2014-11-19T15:25:48Z</time>
      </trkpt>
      <trkpt lat="43.41851" lon="6.09646">
        <ele>201.68341064453</ele>
        <time>2014-11-19T15:25:50Z</time>
      </trkpt>
      <trkpt lat="43.41842" lon="6.09643">
        <ele>201.2028503418</ele>
        <time>2014-11-19T15:25:52Z</time>
      </trkpt>
      <trkpt lat="43.41833" lon="6.09638">
        <ele>200.66619873047</ele>
        <time>2014-11-19T15:25:54Z</time>
      </trkpt>
      <trkpt lat="43.41824" lon="6.09631">
        <ele>200.6570892334</ele>
        <time>2014-11-19T15:25:56Z</time>
      </trkpt>
      <trkpt lat="43.41817" lon="6.09621">
        <ele>200.68199157715</ele>
        <time>2014-11-19T15:25:58Z</time>
      </trkpt>
      <trkpt lat="43.418" lon="6.09589">
        <ele>200.72961425781</ele>
        <time>2014-11-19T15:26:04Z</time>
      </trkpt>
      <trkpt lat="43.41796" lon="6.09578">
        <ele>200.83839416504</ele>
        <time>2014-11-19T15:26:06Z</time>
      </trkpt>
      <trkpt lat="43.4179" lon="6.09567">
        <ele>201.01747131348</ele>
        <time>2014-11-19T15:26:08Z</time>
      </trkpt>
      <trkpt lat="43.41785" lon="6.09557">
        <ele>201.13482666016</ele>
        <time>2014-11-19T15:26:10Z</time>
      </trkpt>
      <trkpt lat="43.4178" lon="6.09546">
        <ele>201.19248962402</ele>
        <time>2014-11-19T15:26:12Z</time>
      </trkpt>
      <trkpt lat="43.41775" lon="6.09534">
        <ele>201.21649169922</ele>
        <time>2014-11-19T15:26:14Z</time>
      </trkpt>
      <trkpt lat="43.41768" lon="6.09515">
        <ele>201.19966125488</ele>
        <time>2014-11-19T15:26:17Z</time>
      </trkpt>
      <trkpt lat="43.41766" lon="6.09508">
        <ele>201.19673156738</ele>
        <time>2014-11-19T15:26:18Z</time>
      </trkpt>
      <trkpt lat="43.41762" lon="6.09494">
        <ele>201.21122741699</ele>
        <time>2014-11-19T15:26:20Z</time>
      </trkpt>
      <trkpt lat="43.4176" lon="6.09487">
        <ele>201.22895812988</ele>
        <time>2014-11-19T15:26:21Z</time>
      </trkpt>
      <trkpt lat="43.41758" lon="6.0948">
        <ele>201.29272460938</ele>
        <time>2014-11-19T15:26:22Z</time>
      </trkpt>
      <trkpt lat="43.41755" lon="6.09465">
        <ele>201.40815734863</ele>
        <time>2014-11-19T15:26:24Z</time>
      </trkpt>
      <trkpt lat="43.41751" lon="6.09451">
        <ele>201.35713195801</ele>
        <time>2014-11-19T15:26:26Z</time>
      </trkpt>
      <trkpt lat="43.41748" lon="6.09437">
        <ele>201.47833251953</ele>
        <time>2014-11-19T15:26:28Z</time>
      </trkpt>
      <trkpt lat="43.41745" lon="6.09424">
        <ele>201.72245788574</ele>
        <time>2014-11-19T15:26:30Z</time>
      </trkpt>
      <trkpt lat="43.41738" lon="6.09396">
        <ele>202.95875549316</ele>
        <time>2014-11-19T15:26:34Z</time>
      </trkpt>
      <trkpt lat="43.41735" lon="6.09382">
        <ele>203.65290832519</ele>
        <time>2014-11-19T15:26:36Z</time>
      </trkpt>
      <trkpt lat="43.41732" lon="6.09369">
        <ele>204.2626953125</ele>
        <time>2014-11-19T15:26:38Z</time>
      </trkpt>
      <trkpt lat="43.41727" lon="6.09344">
        <ele>205.21076965332</ele>
        <time>2014-11-19T15:26:42Z</time>
      </trkpt>
      <trkpt lat="43.41725" lon="6.09332">
        <ele>205.57861328125</ele>
        <time>2014-11-19T15:26:44Z</time>
      </trkpt>
      <trkpt lat="43.41724" lon="6.09326">
        <ele>205.5419921875</ele>
        <time>2014-11-19T15:26:45Z</time>
      </trkpt>
      <trkpt lat="43.41724" lon="6.0932">
        <ele>205.50537109375</ele>
        <time>2014-11-19T15:26:46Z</time>
      </trkpt>
      <trkpt lat="43.41723" lon="6.09307">
        <ele>205.43212890625</ele>
        <time>2014-11-19T15:26:48Z</time>
      </trkpt>
      <trkpt lat="43.41722" lon="6.09293">
        <ele>205.322265625</ele>
        <time>2014-11-19T15:26:50Z</time>
      </trkpt>
      <trkpt lat="43.41721" lon="6.0928">
        <ele>205.2490234375</ele>
        <time>2014-11-19T15:26:52Z</time>
      </trkpt>
      <trkpt lat="43.41721" lon="6.09266">
        <ele>205.21240234375</ele>
        <time>2014-11-19T15:26:54Z</time>
      </trkpt>
      <trkpt lat="43.41721" lon="6.09258">
        <ele>205.21240234375</ele>
        <time>2014-11-19T15:26:55Z</time>
      </trkpt>
      <trkpt lat="43.41721" lon="6.09251">
        <ele>205.17578125</ele>
        <time>2014-11-19T15:26:56Z</time>
      </trkpt>
      <trkpt lat="43.41721" lon="6.09239">
        <ele>205.17578125</ele>
        <time>2014-11-19T15:26:58Z</time>
      </trkpt>
      <trkpt lat="43.41721" lon="6.09225">
        <ele>205.17578125</ele>
        <time>2014-11-19T15:27:00Z</time>
      </trkpt>
      <trkpt lat="43.4172" lon="6.09212">
        <ele>205.13916015625</ele>
        <time>2014-11-19T15:27:02Z</time>
      </trkpt>
      <trkpt lat="43.4172" lon="6.092">
        <ele>205.1025390625</ele>
        <time>2014-11-19T15:27:04Z</time>
      </trkpt>
      <trkpt lat="43.4172" lon="6.09189">
        <ele>205.1025390625</ele>
        <time>2014-11-19T15:27:06Z</time>
      </trkpt>
      <trkpt lat="43.4172" lon="6.09178">
        <ele>205.1025390625</ele>
        <time>2014-11-19T15:27:08Z</time>
      </trkpt>
      <trkpt lat="43.4172" lon="6.09167">
        <ele>205.1025390625</ele>
        <time>2014-11-19T15:27:10Z</time>
      </trkpt>
      <trkpt lat="43.4172" lon="6.09143">
        <ele>205.05688476562</ele>
        <time>2014-11-19T15:27:14Z</time>
      </trkpt>
      <trkpt lat="43.4172" lon="6.0913">
        <ele>205.01516723633</ele>
        <time>2014-11-19T15:27:16Z</time>
      </trkpt>
      <trkpt lat="43.4172" lon="6.09118">
        <ele>204.9718170166</ele>
        <time>2014-11-19T15:27:18Z</time>
      </trkpt>
      <trkpt lat="43.41721" lon="6.09105">
        <ele>204.9573059082</ele>
        <time>2014-11-19T15:27:20Z</time>
      </trkpt>
      <trkpt lat="43.41721" lon="6.09066">
        <ele>205.07167053223</ele>
        <time>2014-11-19T15:27:26Z</time>
      </trkpt>
      <trkpt lat="43.41722" lon="6.09053">
        <ele>205.23011779785</ele>
        <time>2014-11-19T15:27:28Z</time>
      </trkpt>
      <trkpt lat="43.41723" lon="6.09041">
        <ele>205.39137268066</ele>
        <time>2014-11-19T15:27:30Z</time>
      </trkpt>
      <trkpt lat="43.41726" lon="6.09016">
        <ele>205.81224060059</ele>
        <time>2014-11-19T15:27:34Z</time>
      </trkpt>
      <trkpt lat="43.41734" lon="6.08965">
        <ele>207.02130126953</ele>
        <time>2014-11-19T15:27:42Z</time>
      </trkpt>
      <trkpt lat="43.41736" lon="6.08951">
        <ele>207.29438781738</ele>
        <time>2014-11-19T15:27:44Z</time>
      </trkpt>
      <trkpt lat="43.41736" lon="6.08938">
        <ele>207.46760559082</ele>
        <time>2014-11-19T15:27:46Z</time>
      </trkpt>
      <trkpt lat="43.41737" lon="6.08923">
        <ele>207.6848449707</ele>
        <time>2014-11-19T15:27:48Z</time>
      </trkpt>
      <trkpt lat="43.41737" lon="6.08909">
        <ele>208.17622375488</ele>
        <time>2014-11-19T15:27:50Z</time>
      </trkpt>
      <trkpt lat="43.41736" lon="6.08895">
        <ele>208.76062011719</ele>
        <time>2014-11-19T15:27:52Z</time>
      </trkpt>
      <trkpt lat="43.41732" lon="6.08876">
        <ele>209.31565856934</ele>
        <time>2014-11-19T15:27:55Z</time>
      </trkpt>
      <trkpt lat="43.4173" lon="6.08871">
        <ele>209.30683898926</ele>
        <time>2014-11-19T15:27:56Z</time>
      </trkpt>
      <trkpt lat="43.41725" lon="6.08861">
        <ele>209.15576171875</ele>
        <time>2014-11-19T15:27:58Z</time>
      </trkpt>
      <trkpt lat="43.4172" lon="6.08851">
        <ele>208.9334564209</ele>
        <time>2014-11-19T15:28:00Z</time>
      </trkpt>
      <trkpt lat="43.41714" lon="6.08841">
        <ele>208.58013916016</ele>
        <time>2014-11-19T15:28:02Z</time>
      </trkpt>
      <trkpt lat="43.41708" lon="6.0883">
        <ele>208.22361755371</ele>
        <time>2014-11-19T15:28:04Z</time>
      </trkpt>
      <trkpt lat="43.41705" lon="6.08825">
        <ele>208.1961517334</ele>
        <time>2014-11-19T15:28:05Z</time>
      </trkpt>
      <trkpt lat="43.41703" lon="6.08819">
        <ele>208.22361755371</ele>
        <time>2014-11-19T15:28:06Z</time>
      </trkpt>
      <trkpt lat="43.41696" lon="6.08807">
        <ele>208.11032104492</ele>
        <time>2014-11-19T15:28:08Z</time>
      </trkpt>
      <trkpt lat="43.4169" lon="6.08797">
        <ele>208.01075744629</ele>
        <time>2014-11-19T15:28:10Z</time>
      </trkpt>
      <trkpt lat="43.41677" lon="6.08774">
        <ele>207.74983215332</ele>
        <time>2014-11-19T15:28:14Z</time>
      </trkpt>
      <trkpt lat="43.41671" lon="6.08764">
        <ele>207.63310241699</ele>
        <time>2014-11-19T15:28:16Z</time>
      </trkpt>
      <trkpt lat="43.41665" lon="6.08753">
        <ele>207.70059204102</ele>
        <time>2014-11-19T15:28:18Z</time>
      </trkpt>
      <trkpt lat="43.4166" lon="6.08743">
        <ele>207.81248474121</ele>
        <time>2014-11-19T15:28:20Z</time>
      </trkpt>
      <trkpt lat="43.41657" lon="6.08738">
        <ele>207.80805969238</ele>
        <time>2014-11-19T15:28:21Z</time>
      </trkpt>
      <trkpt lat="43.41654" lon="6.08734">
        <ele>207.80142211914</ele>
        <time>2014-11-19T15:28:22Z</time>
      </trkpt>
      <trkpt lat="43.41649" lon="6.08723">
        <ele>207.80578613281</ele>
        <time>2014-11-19T15:28:24Z</time>
      </trkpt>
      <trkpt lat="43.41643" lon="6.08713">
        <ele>207.6886138916</ele>
        <time>2014-11-19T15:28:26Z</time>
      </trkpt>
      <trkpt lat="43.41637" lon="6.08702">
        <ele>207.54499816894</ele>
        <time>2014-11-19T15:28:28Z</time>
      </trkpt>
      <trkpt lat="43.41631" lon="6.08691">
        <ele>207.34939575195</ele>
        <time>2014-11-19T15:28:30Z</time>
      </trkpt>
      <trkpt lat="43.41625" lon="6.08679">
        <ele>207.10823059082</ele>
        <time>2014-11-19T15:28:32Z</time>
      </trkpt>
      <trkpt lat="43.41619" lon="6.08668">
        <ele>206.8776550293</ele>
        <time>2014-11-19T15:28:34Z</time>
      </trkpt>
      <trkpt lat="43.41614" lon="6.08656">
        <ele>206.58485412598</ele>
        <time>2014-11-19T15:28:36Z</time>
      </trkpt>
      <trkpt lat="43.4161" lon="6.08643">
        <ele>206.39144897461</ele>
        <time>2014-11-19T15:28:38Z</time>
      </trkpt>
      <trkpt lat="43.41607" lon="6.08631">
        <ele>206.3582611084</ele>
        <time>2014-11-19T15:28:40Z</time>
      </trkpt>
      <trkpt lat="43.41603" lon="6.08619">
        <ele>206.32392883301</ele>
        <time>2014-11-19T15:28:42Z</time>
      </trkpt>
      <trkpt lat="43.41602" lon="6.08607">
        <ele>206.4372253418</ele>
        <time>2014-11-19T15:28:44Z</time>
      </trkpt>
      <trkpt lat="43.416" lon="6.08597">
        <ele>206.52305603027</ele>
        <time>2014-11-19T15:28:46Z</time>
      </trkpt>
      <trkpt lat="43.41599" lon="6.08586">
        <ele>206.61346435547</ele>
        <time>2014-11-19T15:28:48Z</time>
      </trkpt>
      <trkpt lat="43.41597" lon="6.08575">
        <ele>206.7244720459</ele>
        <time>2014-11-19T15:28:50Z</time>
      </trkpt>
      <trkpt lat="43.41595" lon="6.08563">
        <ele>206.80572509766</ele>
        <time>2014-11-19T15:28:52Z</time>
      </trkpt>
      <trkpt lat="43.41594" lon="6.08549">
        <ele>206.95678710938</ele>
        <time>2014-11-19T15:28:54Z</time>
      </trkpt>
      <trkpt lat="43.41592" lon="6.08536">
        <ele>207.07580566406</ele>
        <time>2014-11-19T15:28:56Z</time>
      </trkpt>
      <trkpt lat="43.4159" lon="6.08523">
        <ele>207.21313476562</ele>
        <time>2014-11-19T15:28:58Z</time>
      </trkpt>
      <trkpt lat="43.41587" lon="6.085">
        <ele>207.44790649414</ele>
        <time>2014-11-19T15:29:02Z</time>
      </trkpt>
      <trkpt lat="43.41586" lon="6.08494">
        <ele>207.46174621582</ele>
        <time>2014-11-19T15:29:03Z</time>
      </trkpt>
      <trkpt lat="43.41586" lon="6.08489">
        <ele>207.55561828613</ele>
        <time>2014-11-19T15:29:04Z</time>
      </trkpt>
      <trkpt lat="43.41584" lon="6.08478">
        <ele>207.61694335938</ele>
        <time>2014-11-19T15:29:06Z</time>
      </trkpt>
      <trkpt lat="43.41582" lon="6.08466">
        <ele>207.77871704102</ele>
        <time>2014-11-19T15:29:08Z</time>
      </trkpt>
      <trkpt lat="43.4158" lon="6.08448">
        <ele>208.05662536621</ele>
        <time>2014-11-19T15:29:11Z</time>
      </trkpt>
      <trkpt lat="43.41577" lon="6.0843">
        <ele>208.27531433106</ele>
        <time>2014-11-19T15:29:14Z</time>
      </trkpt>
      <trkpt lat="43.4157" lon="6.08389">
        <ele>208.61653137207</ele>
        <time>2014-11-19T15:29:20Z</time>
      </trkpt>
      <trkpt lat="43.41567" lon="6.08375">
        <ele>208.6487121582</ele>
        <time>2014-11-19T15:29:22Z</time>
      </trkpt>
      <trkpt lat="43.41564" lon="6.0836">
        <ele>208.67256164551</ele>
        <time>2014-11-19T15:29:24Z</time>
      </trkpt>
      <trkpt lat="43.41562" lon="6.08344">
        <ele>208.71022033691</ele>
        <time>2014-11-19T15:29:26Z</time>
      </trkpt>
      <trkpt lat="43.4156" lon="6.0833">
        <ele>208.76097106934</ele>
        <time>2014-11-19T15:29:28Z</time>
      </trkpt>
      <trkpt lat="43.41554" lon="6.08302">
        <ele>208.58645629883</ele>
        <time>2014-11-19T15:29:32Z</time>
      </trkpt>
      <trkpt lat="43.41552" lon="6.08289">
        <ele>208.52008056641</ele>
        <time>2014-11-19T15:29:34Z</time>
      </trkpt>
      <trkpt lat="43.41545" lon="6.08263">
        <ele>208.17961120606</ele>
        <time>2014-11-19T15:29:38Z</time>
      </trkpt>
      <trkpt lat="43.41541" lon="6.0825">
        <ele>207.96044921875</ele>
        <time>2014-11-19T15:29:40Z</time>
      </trkpt>
      <trkpt lat="43.41537" lon="6.08239">
        <ele>207.68980407715</ele>
        <time>2014-11-19T15:29:42Z</time>
      </trkpt>
      <trkpt lat="43.41532" lon="6.08229">
        <ele>207.33676147461</ele>
        <time>2014-11-19T15:29:44Z</time>
      </trkpt>
      <trkpt lat="43.4153" lon="6.08224">
        <ele>207.1799621582</ele>
        <time>2014-11-19T15:29:45Z</time>
      </trkpt>
      <trkpt lat="43.41528" lon="6.08219">
        <ele>207.01803588867</ele>
        <time>2014-11-19T15:29:46Z</time>
      </trkpt>
      <trkpt lat="43.41522" lon="6.08209">
        <ele>206.5940246582</ele>
        <time>2014-11-19T15:29:48Z</time>
      </trkpt>
      <trkpt lat="43.41517" lon="6.08198">
        <ele>206.24327087402</ele>
        <time>2014-11-19T15:29:50Z</time>
      </trkpt>
      <trkpt lat="43.41512" lon="6.08189">
        <ele>205.91711425781</ele>
        <time>2014-11-19T15:29:52Z</time>
      </trkpt>
      <trkpt lat="43.4151" lon="6.08184">
        <ele>205.75631713867</ele>
        <time>2014-11-19T15:29:53Z</time>
      </trkpt>
      <trkpt lat="43.41508" lon="6.08179">
        <ele>205.59381103516</ele>
        <time>2014-11-19T15:29:54Z</time>
      </trkpt>
      <trkpt lat="43.41503" lon="6.08169">
        <ele>205.23847961426</ele>
        <time>2014-11-19T15:29:56Z</time>
      </trkpt>
      <trkpt lat="43.41497" lon="6.08159">
        <ele>205.10711669922</ele>
        <time>2014-11-19T15:29:58Z</time>
      </trkpt>
      <trkpt lat="43.41491" lon="6.0815">
        <ele>205.14802551269</ele>
        <time>2014-11-19T15:30:00Z</time>
      </trkpt>
      <trkpt lat="43.41485" lon="6.0814">
        <ele>205.16703796387</ele>
        <time>2014-11-19T15:30:02Z</time>
      </trkpt>
      <trkpt lat="43.4148" lon="6.08132">
        <ele>205.14837646484</ele>
        <time>2014-11-19T15:30:04Z</time>
      </trkpt>
      <trkpt lat="43.41477" lon="6.08127">
        <ele>205.1374206543</ele>
        <time>2014-11-19T15:30:05Z</time>
      </trkpt>
      <trkpt lat="43.41468" lon="6.08113">
        <ele>205.03947448731</ele>
        <time>2014-11-19T15:30:08Z</time>
      </trkpt>
      <trkpt lat="43.41463" lon="6.08104">
        <ele>204.93225097656</ele>
        <time>2014-11-19T15:30:10Z</time>
      </trkpt>
      <trkpt lat="43.41457" lon="6.08096">
        <ele>204.79344177246</ele>
        <time>2014-11-19T15:30:12Z</time>
      </trkpt>
      <trkpt lat="43.41452" lon="6.08087">
        <ele>204.66365051269</ele>
        <time>2014-11-19T15:30:14Z</time>
      </trkpt>
      <trkpt lat="43.41447" lon="6.08078">
        <ele>204.56007385254</ele>
        <time>2014-11-19T15:30:16Z</time>
      </trkpt>
      <trkpt lat="43.41441" lon="6.0807">
        <ele>204.46710205078</ele>
        <time>2014-11-19T15:30:18Z</time>
      </trkpt>
      <trkpt lat="43.41436" lon="6.0806">
        <ele>204.42572021484</ele>
        <time>2014-11-19T15:30:20Z</time>
      </trkpt>
      <trkpt lat="43.4143" lon="6.0805">
        <ele>204.38583374023</ele>
        <time>2014-11-19T15:30:22Z</time>
      </trkpt>
      <trkpt lat="43.41423" lon="6.08039">
        <ele>204.34164428711</ele>
        <time>2014-11-19T15:30:24Z</time>
      </trkpt>
      <trkpt lat="43.41417" lon="6.08028">
        <ele>204.31604003906</ele>
        <time>2014-11-19T15:30:26Z</time>
      </trkpt>
      <trkpt lat="43.4141" lon="6.08018">
        <ele>204.49450683594</ele>
        <time>2014-11-19T15:30:28Z</time>
      </trkpt>
      <trkpt lat="43.41404" lon="6.08008">
        <ele>204.67848205566</ele>
        <time>2014-11-19T15:30:30Z</time>
      </trkpt>
      <trkpt lat="43.41398" lon="6.07997">
        <ele>204.83537292481</ele>
        <time>2014-11-19T15:30:32Z</time>
      </trkpt>
      <trkpt lat="43.41392" lon="6.07987">
        <ele>204.95817565918</ele>
        <time>2014-11-19T15:30:34Z</time>
      </trkpt>
      <trkpt lat="43.41386" lon="6.07978">
        <ele>205.06480407715</ele>
        <time>2014-11-19T15:30:36Z</time>
      </trkpt>
      <trkpt lat="43.4138" lon="6.07967">
        <ele>205.1784362793</ele>
        <time>2014-11-19T15:30:38Z</time>
      </trkpt>
      <trkpt lat="43.41374" lon="6.07957">
        <ele>205.24784851074</ele>
        <time>2014-11-19T15:30:40Z</time>
      </trkpt>
      <trkpt lat="43.41367" lon="6.07949">
        <ele>205.26629638672</ele>
        <time>2014-11-19T15:30:42Z</time>
      </trkpt>
      <trkpt lat="43.4136" lon="6.07942">
        <ele>205.2512512207</ele>
        <time>2014-11-19T15:30:44Z</time>
      </trkpt>
      <trkpt lat="43.41353" lon="6.07935">
        <ele>205.20278930664</ele>
        <time>2014-11-19T15:30:46Z</time>
      </trkpt>
      <trkpt lat="43.41346" lon="6.07929">
        <ele>205.12333679199</ele>
        <time>2014-11-19T15:30:48Z</time>
      </trkpt>
      <trkpt lat="43.41338" lon="6.07922">
        <ele>205.052734375</ele>
        <time>2014-11-19T15:30:50Z</time>
      </trkpt>
      <trkpt lat="43.41336" lon="6.07918">
        <ele>205.04071044922</ele>
        <time>2014-11-19T15:30:51Z</time>
      </trkpt>
      <trkpt lat="43.41334" lon="6.07913">
        <ele>205.09922790527</ele>
        <time>2014-11-19T15:30:52Z</time>
      </trkpt>
      <trkpt lat="43.41332" lon="6.07902">
        <ele>205.36100769043</ele>
        <time>2014-11-19T15:30:54Z</time>
      </trkpt>
      <trkpt lat="43.41331" lon="6.07889">
        <ele>205.64492797852</ele>
        <time>2014-11-19T15:30:56Z</time>
      </trkpt>
      <trkpt lat="43.41323" lon="6.07865">
        <ele>206.17131042481</ele>
        <time>2014-11-19T15:31:00Z</time>
      </trkpt>
      <trkpt lat="43.4132" lon="6.07851">
        <ele>206.4533996582</ele>
        <time>2014-11-19T15:31:02Z</time>
      </trkpt>
      <trkpt lat="43.41316" lon="6.07837">
        <ele>206.71961975098</ele>
        <time>2014-11-19T15:31:04Z</time>
      </trkpt>
      <trkpt lat="43.41312" lon="6.07823">
        <ele>206.87301635742</ele>
        <time>2014-11-19T15:31:06Z</time>
      </trkpt>
      <trkpt lat="43.4131" lon="6.07815">
        <ele>206.93881225586</ele>
        <time>2014-11-19T15:31:07Z</time>
      </trkpt>
      <trkpt lat="43.41308" lon="6.07808">
        <ele>207.00004577637</ele>
        <time>2014-11-19T15:31:08Z</time>
      </trkpt>
      <trkpt lat="43.41304" lon="6.07795">
        <ele>207.11163330078</ele>
        <time>2014-11-19T15:31:10Z</time>
      </trkpt>
      <trkpt lat="43.41297" lon="6.07761">
        <ele>207.43263244629</ele>
        <time>2014-11-19T15:31:15Z</time>
      </trkpt>
      <trkpt lat="43.41296" lon="6.07755">
        <ele>207.48812866211</ele>
        <time>2014-11-19T15:31:16Z</time>
      </trkpt>
      <trkpt lat="43.41294" lon="6.07742">
        <ele>207.67227172852</ele>
        <time>2014-11-19T15:31:18Z</time>
      </trkpt>
      <trkpt lat="43.41293" lon="6.07729">
        <ele>207.89321899414</ele>
        <time>2014-11-19T15:31:20Z</time>
      </trkpt>
      <trkpt lat="43.41292" lon="6.07722">
        <ele>208.00471496582</ele>
        <time>2014-11-19T15:31:21Z</time>
      </trkpt>
      <trkpt lat="43.41292" lon="6.07716">
        <ele>208.12020874023</ele>
        <time>2014-11-19T15:31:22Z</time>
      </trkpt>
      <trkpt lat="43.41293" lon="6.07702">
        <ele>208.38282775879</ele>
        <time>2014-11-19T15:31:24Z</time>
      </trkpt>
      <trkpt lat="43.41294" lon="6.07695">
        <ele>208.53305053711</ele>
        <time>2014-11-19T15:31:25Z</time>
      </trkpt>
      <trkpt lat="43.41295" lon="6.07689">
        <ele>208.67762756348</ele>
        <time>2014-11-19T15:31:26Z</time>
      </trkpt>
      <trkpt lat="43.41296" lon="6.07683">
        <ele>208.81636047363</ele>
        <time>2014-11-19T15:31:27Z</time>
      </trkpt>
      <trkpt lat="43.41297" lon="6.07677">
        <ele>208.93954467773</ele>
        <time>2014-11-19T15:31:28Z</time>
      </trkpt>
      <trkpt lat="43.41302" lon="6.07656">
        <ele>209.45903015137</ele>
        <time>2014-11-19T15:31:32Z</time>
      </trkpt>
      <trkpt lat="43.41304" lon="6.07652">
        <ele>209.57899475098</ele>
        <time>2014-11-19T15:31:33Z</time>
      </trkpt>
      <trkpt lat="43.41305" lon="6.07649">
        <ele>209.68489074707</ele>
        <time>2014-11-19T15:31:34Z</time>
      </trkpt>
      <trkpt lat="43.41308" lon="6.0764">
        <ele>209.93228149414</ele>
        <time>2014-11-19T15:31:36Z</time>
      </trkpt>
      <trkpt lat="43.41314" lon="6.07626">
        <ele>210.38624572754</ele>
        <time>2014-11-19T15:31:39Z</time>
      </trkpt>
      <trkpt lat="43.41315" lon="6.07621">
        <ele>210.54742431641</ele>
        <time>2014-11-19T15:31:40Z</time>
      </trkpt>
      <trkpt lat="43.41319" lon="6.07611">
        <ele>210.87707519531</ele>
        <time>2014-11-19T15:31:42Z</time>
      </trkpt>
      <trkpt lat="43.41325" lon="6.0759">
        <ele>211.56434631348</ele>
        <time>2014-11-19T15:31:46Z</time>
      </trkpt>
      <trkpt lat="43.41329" lon="6.07579">
        <ele>211.83995056152</ele>
        <time>2014-11-19T15:31:48Z</time>
      </trkpt>
      <trkpt lat="43.41333" lon="6.07563">
        <ele>211.98924255371</ele>
        <time>2014-11-19T15:31:51Z</time>
      </trkpt>
      <trkpt lat="43.41337" lon="6.07547">
        <ele>212.11306762695</ele>
        <time>2014-11-19T15:31:54Z</time>
      </trkpt>
      <trkpt lat="43.4134" lon="6.07536">
        <ele>212.20149230957</ele>
        <time>2014-11-19T15:31:56Z</time>
      </trkpt>
      <trkpt lat="43.41342" lon="6.07526">
        <ele>212.27272033691</ele>
        <time>2014-11-19T15:31:58Z</time>
      </trkpt>
      <trkpt lat="43.41344" lon="6.07517">
        <ele>212.36076354981</ele>
        <time>2014-11-19T15:32:00Z</time>
      </trkpt>
      <trkpt lat="43.41346" lon="6.07509">
        <ele>212.4259185791</ele>
        <time>2014-11-19T15:32:02Z</time>
      </trkpt>
      <trkpt lat="43.41348" lon="6.07501">
        <ele>212.50793457031</ele>
        <time>2014-11-19T15:32:04Z</time>
      </trkpt>
      <trkpt lat="43.41348" lon="6.07496">
        <ele>212.56564331055</ele>
        <time>2014-11-19T15:32:05Z</time>
      </trkpt>
      <trkpt lat="43.41349" lon="6.07492">
        <ele>212.63761901856</ele>
        <time>2014-11-19T15:32:06Z</time>
      </trkpt>
      <trkpt lat="43.41351" lon="6.07482">
        <ele>212.75645446777</ele>
        <time>2014-11-19T15:32:08Z</time>
      </trkpt>
      <trkpt lat="43.41353" lon="6.07473">
        <ele>212.8747253418</ele>
        <time>2014-11-19T15:32:10Z</time>
      </trkpt>
      <trkpt lat="43.41355" lon="6.07463">
        <ele>212.98638916016</ele>
        <time>2014-11-19T15:32:12Z</time>
      </trkpt>
      <trkpt lat="43.41357" lon="6.07453">
        <ele>213.09550476074</ele>
        <time>2014-11-19T15:32:14Z</time>
      </trkpt>
      <trkpt lat="43.4136" lon="6.07437">
        <ele>213.22619628906</ele>
        <time>2014-11-19T15:32:18Z</time>
      </trkpt>
      <trkpt lat="43.41361" lon="6.07434">
        <ele>213.26126098633</ele>
        <time>2014-11-19T15:32:19Z</time>
      </trkpt>
      <trkpt lat="43.41362" lon="6.0743">
        <ele>213.28938293457</ele>
        <time>2014-11-19T15:32:20Z</time>
      </trkpt>
      <trkpt lat="43.41363" lon="6.07423">
        <ele>213.33700561523</ele>
        <time>2014-11-19T15:32:22Z</time>
      </trkpt>
      <trkpt lat="43.41364" lon="6.07416">
        <ele>213.37145996094</ele>
        <time>2014-11-19T15:32:24Z</time>
      </trkpt>
      <trkpt lat="43.41365" lon="6.07412">
        <ele>213.38061523438</ele>
        <time>2014-11-19T15:32:25Z</time>
      </trkpt>
      <trkpt lat="43.41366" lon="6.07409">
        <ele>213.38977050781</ele>
        <time>2014-11-19T15:32:26Z</time>
      </trkpt>
      <trkpt lat="43.41367" lon="6.07402">
        <ele>213.40350341797</ele>
        <time>2014-11-19T15:32:28Z</time>
      </trkpt>
      <trkpt lat="43.41369" lon="6.07394">
        <ele>213.43096923828</ele>
        <time>2014-11-19T15:32:30Z</time>
      </trkpt>
      <trkpt lat="43.41371" lon="6.07386">
        <ele>213.45385742188</ele>
        <time>2014-11-19T15:32:32Z</time>
      </trkpt>
      <trkpt lat="43.41373" lon="6.07379">
        <ele>213.47674560547</ele>
        <time>2014-11-19T15:32:34Z</time>
      </trkpt>
      <trkpt lat="43.41376" lon="6.07362">
        <ele>213.51336669922</ele>
        <time>2014-11-19T15:32:38Z</time>
      </trkpt>
      <trkpt lat="43.41378" lon="6.07353">
        <ele>213.53625488281</ele>
        <time>2014-11-19T15:32:40Z</time>
      </trkpt>
      <trkpt lat="43.41381" lon="6.07336">
        <ele>213.57745361328</ele>
        <time>2014-11-19T15:32:44Z</time>
      </trkpt>
      <trkpt lat="43.41385" lon="6.0732">
        <ele>213.62322998047</ele>
        <time>2014-11-19T15:32:48Z</time>
      </trkpt>
      <trkpt lat="43.41388" lon="6.07312">
        <ele>213.65069580078</ele>
        <time>2014-11-19T15:32:50Z</time>
      </trkpt>
      <trkpt lat="43.41389" lon="6.07308">
        <ele>213.66442871094</ele>
        <time>2014-11-19T15:32:51Z</time>
      </trkpt>
      <trkpt lat="43.41391" lon="6.07296">
        <ele>213.69647216797</ele>
        <time>2014-11-19T15:32:54Z</time>
      </trkpt>
      <trkpt lat="43.41393" lon="6.07288">
        <ele>213.71936035156</ele>
        <time>2014-11-19T15:32:56Z</time>
      </trkpt>
      <trkpt lat="43.41396" lon="6.07281">
        <ele>213.75598144531</ele>
        <time>2014-11-19T15:32:58Z</time>
      </trkpt>
      <trkpt lat="43.41399" lon="6.07273">
        <ele>213.78802490234</ele>
        <time>2014-11-19T15:33:00Z</time>
      </trkpt>
      <trkpt lat="43.414" lon="6.07268">
        <ele>213.8017578125</ele>
        <time>2014-11-19T15:33:01Z</time>
      </trkpt>
      <trkpt lat="43.41401" lon="6.07264">
        <ele>213.81549072266</ele>
        <time>2014-11-19T15:33:02Z</time>
      </trkpt>
      <trkpt lat="43.41404" lon="6.07258">
        <ele>213.84295654297</ele>
        <time>2014-11-19T15:33:04Z</time>
      </trkpt>
      <trkpt lat="43.41405" lon="6.07251">
        <ele>213.86126708984</ele>
        <time>2014-11-19T15:33:06Z</time>
      </trkpt>
      <trkpt lat="43.41406" lon="6.07248">
        <ele>213.87042236328</ele>
        <time>2014-11-19T15:33:07Z</time>
      </trkpt>
      <trkpt lat="43.41407" lon="6.07245">
        <ele>213.88873291016</ele>
        <time>2014-11-19T15:33:08Z</time>
      </trkpt>
      <trkpt lat="43.4141" lon="6.07237">
        <ele>213.92077636719</ele>
        <time>2014-11-19T15:33:10Z</time>
      </trkpt>
      <trkpt lat="43.41412" lon="6.07229">
        <ele>213.9482421875</ele>
        <time>2014-11-19T15:33:12Z</time>
      </trkpt>
      <trkpt lat="43.41415" lon="6.0722">
        <ele>213.98486328125</ele>
        <time>2014-11-19T15:33:14Z</time>
      </trkpt>
      <trkpt lat="43.41418" lon="6.07211">
        <ele>214.03381347656</ele>
        <time>2014-11-19T15:33:16Z</time>
      </trkpt>
      <trkpt lat="43.4142" lon="6.07202">
        <ele>214.08874511719</ele>
        <time>2014-11-19T15:33:18Z</time>
      </trkpt>
      <trkpt lat="43.41425" lon="6.07189">
        <ele>214.189453125</ele>
        <time>2014-11-19T15:33:21Z</time>
      </trkpt>
      <trkpt lat="43.41428" lon="6.07176">
        <ele>214.28100585938</ele>
        <time>2014-11-19T15:33:24Z</time>
      </trkpt>
      <trkpt lat="43.41431" lon="6.07166">
        <ele>214.35424804688</ele>
        <time>2014-11-19T15:33:26Z</time>
      </trkpt>
      <trkpt lat="43.41434" lon="6.07158">
        <ele>214.42749023438</ele>
        <time>2014-11-19T15:33:28Z</time>
      </trkpt>
      <trkpt lat="43.41438" lon="6.07149">
        <ele>214.50073242188</ele>
        <time>2014-11-19T15:33:30Z</time>
      </trkpt>
      <trkpt lat="43.4144" lon="6.07139">
        <ele>214.56481933594</ele>
        <time>2014-11-19T15:33:32Z</time>
      </trkpt>
      <trkpt lat="43.41446" lon="6.07121">
        <ele>214.7021484375</ele>
        <time>2014-11-19T15:33:36Z</time>
      </trkpt>
      <trkpt lat="43.41449" lon="6.07111">
        <ele>214.78454589844</ele>
        <time>2014-11-19T15:33:38Z</time>
      </trkpt>
      <trkpt lat="43.41457" lon="6.07094">
        <ele>214.96765136719</ele>
        <time>2014-11-19T15:33:42Z</time>
      </trkpt>
      <trkpt lat="43.41461" lon="6.07085">
        <ele>215.05920410156</ele>
        <time>2014-11-19T15:33:44Z</time>
      </trkpt>
      <trkpt lat="43.41467" lon="6.0708">
        <ele>215.25048828125</ele>
        <time>2014-11-19T15:33:46Z</time>
      </trkpt>
      <trkpt lat="43.41472" lon="6.07079">
        <ele>215.41110229492</ele>
        <time>2014-11-19T15:33:48Z</time>
      </trkpt>
      <trkpt lat="43.41475" lon="6.07078">
        <ele>215.47267150879</ele>
        <time>2014-11-19T15:33:49Z</time>
      </trkpt>
      <trkpt lat="43.41476" lon="6.07077">
        <ele>215.52577209473</ele>
        <time>2014-11-19T15:33:50Z</time>
      </trkpt>
      <trkpt lat="43.41478" lon="6.07077">
        <ele>215.56607055664</ele>
        <time>2014-11-19T15:33:51Z</time>
      </trkpt>
      <trkpt lat="43.41479" lon="6.07076">
        <ele>215.61405944824</ele>
        <time>2014-11-19T15:33:52Z</time>
      </trkpt>
      <trkpt lat="43.4148" lon="6.07076">
        <ele>215.62939453125</ele>
        <time>2014-11-19T15:33:54Z</time>
      </trkpt>
      <trkpt lat="43.4148" lon="6.07076">
        <ele>215.63011169434</ele>
        <time>2014-11-19T15:33:56Z</time>
      </trkpt>
      <trkpt lat="43.4148" lon="6.07076">
        <ele>215.62727355957</ele>
        <time>2014-11-19T15:33:58Z</time>
      </trkpt>
      <trkpt lat="43.4148" lon="6.07076">
        <ele>215.62727355957</ele>
        <time>2014-11-19T15:34:02Z</time>
      </trkpt>
      <trkpt lat="43.4148" lon="6.07076">
        <ele>215.62727355957</ele>
        <time>2014-11-19T15:34:04Z</time>
      </trkpt>
      <trkpt lat="43.41581" lon="6.0704">
        <ele>218.45196533203</ele>
        <time>2014-11-19T15:38:29Z</time>
      </trkpt>
      <trkpt lat="43.41581" lon="6.0704">
        <ele>218.45196533203</ele>
        <time>2014-11-19T15:38:30Z</time>
      </trkpt>
      <trkpt lat="43.41581" lon="6.0704">
        <ele>218.45080566406</ele>
        <time>2014-11-19T15:38:32Z</time>
      </trkpt>
    </trkseg>
  </trk>
</gpx>